<?xml version="1.0" encoding="UTF-8" standalone="no" ?>
<gpx xmlns="http://www.topografix.com/GPX/1/1" xmlns:xsi="http://www.w3.org/2001/XMLSchema-instance" xsi:schemaLocation="http://www.topografix.com/GPX/1/1 http://www.topografix.com/GPX/1/1/gpx.xsd" version="1.1" creator="VisuGPX - https://www.visugpx.com">
  <metadata>
    <name>randonnée pas du Roc</name>
    <desc><![CDATA[petite balade JO GUIGUI GAEL ET Bambou JORNET]]></desc>
  </metadata>
  <trk>
    <name><![CDATA[randonnée Pas du Roc jusqu'à chez Gautard]]></name>
    <trkseg>
      <trkpt lat="45.96982" lon="6.29743">
        <ele>941</ele>
        <time>2014-06-01T10:22:03Z</time>
      </trkpt>
      <trkpt lat="45.96982" lon="6.29737">
        <ele>941</ele>
        <time>2014-06-01T10:22:05Z</time>
      </trkpt>
      <trkpt lat="45.96981" lon="6.29733">
        <ele>941</ele>
        <time>2014-06-01T10:22:07Z</time>
      </trkpt>
      <trkpt lat="45.96982" lon="6.29729">
        <ele>941</ele>
        <time>2014-06-01T10:22:09Z</time>
      </trkpt>
      <trkpt lat="45.96983" lon="6.29726">
        <ele>941</ele>
        <time>2014-06-01T10:22:11Z</time>
      </trkpt>
      <trkpt lat="45.96983" lon="6.2972">
        <ele>941</ele>
        <time>2014-06-01T10:22:13Z</time>
      </trkpt>
      <trkpt lat="45.96984" lon="6.29715">
        <ele>941</ele>
        <time>2014-06-01T10:22:16Z</time>
      </trkpt>
      <trkpt lat="45.96986" lon="6.29711">
        <ele>941</ele>
        <time>2014-06-01T10:22:18Z</time>
      </trkpt>
      <trkpt lat="45.96987" lon="6.29707">
        <ele>941</ele>
        <time>2014-06-01T10:22:20Z</time>
      </trkpt>
      <trkpt lat="45.96988" lon="6.29703">
        <ele>941</ele>
        <time>2014-06-01T10:22:22Z</time>
      </trkpt>
      <trkpt lat="45.96988" lon="6.29697">
        <ele>940</ele>
        <time>2014-06-01T10:22:24Z</time>
      </trkpt>
      <trkpt lat="45.96989" lon="6.29693">
        <ele>939</ele>
        <time>2014-06-01T10:22:27Z</time>
      </trkpt>
      <trkpt lat="45.9699" lon="6.2969">
        <ele>938</ele>
        <time>2014-06-01T10:22:29Z</time>
      </trkpt>
      <trkpt lat="45.96991" lon="6.29685">
        <ele>938</ele>
        <time>2014-06-01T10:22:31Z</time>
      </trkpt>
      <trkpt lat="45.96991" lon="6.29681">
        <ele>938</ele>
        <time>2014-06-01T10:22:33Z</time>
      </trkpt>
      <trkpt lat="45.96992" lon="6.29674">
        <ele>938</ele>
        <time>2014-06-01T10:22:35Z</time>
      </trkpt>
      <trkpt lat="45.96994" lon="6.29669">
        <ele>938</ele>
        <time>2014-06-01T10:22:38Z</time>
      </trkpt>
      <trkpt lat="45.96996" lon="6.29666">
        <ele>938</ele>
        <time>2014-06-01T10:22:40Z</time>
      </trkpt>
      <trkpt lat="45.96997" lon="6.29664">
        <ele>938</ele>
        <time>2014-06-01T10:22:42Z</time>
      </trkpt>
      <trkpt lat="45.96999" lon="6.29661">
        <ele>938</ele>
        <time>2014-06-01T10:22:44Z</time>
      </trkpt>
      <trkpt lat="45.97001" lon="6.29658">
        <ele>938</ele>
        <time>2014-06-01T10:22:46Z</time>
      </trkpt>
      <trkpt lat="45.97003" lon="6.29654">
        <ele>938</ele>
        <time>2014-06-01T10:22:49Z</time>
      </trkpt>
      <trkpt lat="45.97003" lon="6.29653">
        <ele>938</ele>
        <time>2014-06-01T10:22:51Z</time>
      </trkpt>
      <trkpt lat="45.97005" lon="6.2965">
        <ele>938</ele>
        <time>2014-06-01T10:22:53Z</time>
      </trkpt>
      <trkpt lat="45.97007" lon="6.29649">
        <ele>938</ele>
        <time>2014-06-01T10:22:55Z</time>
      </trkpt>
      <trkpt lat="45.97008" lon="6.29647">
        <ele>938</ele>
        <time>2014-06-01T10:22:57Z</time>
      </trkpt>
      <trkpt lat="45.97011" lon="6.29644">
        <ele>938</ele>
        <time>2014-06-01T10:22:59Z</time>
      </trkpt>
      <trkpt lat="45.97012" lon="6.29642">
        <ele>938</ele>
        <time>2014-06-01T10:23:02Z</time>
      </trkpt>
      <trkpt lat="45.97014" lon="6.2964">
        <ele>938</ele>
        <time>2014-06-01T10:23:04Z</time>
      </trkpt>
      <trkpt lat="45.97015" lon="6.29638">
        <ele>938</ele>
        <time>2014-06-01T10:23:06Z</time>
      </trkpt>
      <trkpt lat="45.97016" lon="6.29635">
        <ele>938</ele>
        <time>2014-06-01T10:23:08Z</time>
      </trkpt>
      <trkpt lat="45.97018" lon="6.29631">
        <ele>938</ele>
        <time>2014-06-01T10:23:10Z</time>
      </trkpt>
      <trkpt lat="45.97019" lon="6.29629">
        <ele>939</ele>
        <time>2014-06-01T10:23:13Z</time>
      </trkpt>
      <trkpt lat="45.9702" lon="6.29626">
        <ele>939</ele>
        <time>2014-06-01T10:23:15Z</time>
      </trkpt>
      <trkpt lat="45.97021" lon="6.29623">
        <ele>940</ele>
        <time>2014-06-01T10:23:17Z</time>
      </trkpt>
      <trkpt lat="45.97023" lon="6.2962">
        <ele>940</ele>
        <time>2014-06-01T10:23:19Z</time>
      </trkpt>
      <trkpt lat="45.97025" lon="6.29617">
        <ele>940</ele>
        <time>2014-06-01T10:23:21Z</time>
      </trkpt>
      <trkpt lat="45.97027" lon="6.29612">
        <ele>940</ele>
        <time>2014-06-01T10:23:24Z</time>
      </trkpt>
      <trkpt lat="45.97028" lon="6.2961">
        <ele>940</ele>
        <time>2014-06-01T10:23:26Z</time>
      </trkpt>
      <trkpt lat="45.9703" lon="6.29608">
        <ele>941</ele>
        <time>2014-06-01T10:23:28Z</time>
      </trkpt>
      <trkpt lat="45.97032" lon="6.29605">
        <ele>941</ele>
        <time>2014-06-01T10:23:30Z</time>
      </trkpt>
      <trkpt lat="45.97034" lon="6.29603">
        <ele>941</ele>
        <time>2014-06-01T10:23:32Z</time>
      </trkpt>
      <trkpt lat="45.97036" lon="6.29599">
        <ele>941</ele>
        <time>2014-06-01T10:23:34Z</time>
      </trkpt>
      <trkpt lat="45.97038" lon="6.29597">
        <ele>941</ele>
        <time>2014-06-01T10:23:37Z</time>
      </trkpt>
      <trkpt lat="45.9704" lon="6.29596">
        <ele>941</ele>
        <time>2014-06-01T10:23:39Z</time>
      </trkpt>
      <trkpt lat="45.97042" lon="6.29593">
        <ele>941</ele>
        <time>2014-06-01T10:23:41Z</time>
      </trkpt>
      <trkpt lat="45.97043" lon="6.29593">
        <ele>941</ele>
        <time>2014-06-01T10:23:43Z</time>
      </trkpt>
      <trkpt lat="45.97047" lon="6.29591">
        <ele>942</ele>
        <time>2014-06-01T10:23:45Z</time>
      </trkpt>
      <trkpt lat="45.97048" lon="6.2959">
        <ele>943</ele>
        <time>2014-06-01T10:23:48Z</time>
      </trkpt>
      <trkpt lat="45.9705" lon="6.29588">
        <ele>943</ele>
        <time>2014-06-01T10:23:50Z</time>
      </trkpt>
      <trkpt lat="45.97052" lon="6.29586">
        <ele>944</ele>
        <time>2014-06-01T10:23:52Z</time>
      </trkpt>
      <trkpt lat="45.97054" lon="6.29585">
        <ele>945</ele>
        <time>2014-06-01T10:23:54Z</time>
      </trkpt>
      <trkpt lat="45.97056" lon="6.29583">
        <ele>945</ele>
        <time>2014-06-01T10:23:56Z</time>
      </trkpt>
      <trkpt lat="45.97058" lon="6.29581">
        <ele>946</ele>
        <time>2014-06-01T10:23:59Z</time>
      </trkpt>
      <trkpt lat="45.97059" lon="6.2958">
        <ele>946</ele>
        <time>2014-06-01T10:24:01Z</time>
      </trkpt>
      <trkpt lat="45.97061" lon="6.29578">
        <ele>947</ele>
        <time>2014-06-01T10:24:03Z</time>
      </trkpt>
      <trkpt lat="45.97063" lon="6.29575">
        <ele>947</ele>
        <time>2014-06-01T10:24:05Z</time>
      </trkpt>
      <trkpt lat="45.97065" lon="6.29571">
        <ele>947</ele>
        <time>2014-06-01T10:24:07Z</time>
      </trkpt>
      <trkpt lat="45.97067" lon="6.29568">
        <ele>947</ele>
        <time>2014-06-01T10:24:10Z</time>
      </trkpt>
      <trkpt lat="45.97068" lon="6.29566">
        <ele>948</ele>
        <time>2014-06-01T10:24:12Z</time>
      </trkpt>
      <trkpt lat="45.9707" lon="6.29564">
        <ele>948</ele>
        <time>2014-06-01T10:24:14Z</time>
      </trkpt>
      <trkpt lat="45.97072" lon="6.29561">
        <ele>949</ele>
        <time>2014-06-01T10:24:16Z</time>
      </trkpt>
      <trkpt lat="45.97074" lon="6.29559">
        <ele>949</ele>
        <time>2014-06-01T10:24:18Z</time>
      </trkpt>
      <trkpt lat="45.97076" lon="6.29556">
        <ele>949</ele>
        <time>2014-06-01T10:24:21Z</time>
      </trkpt>
      <trkpt lat="45.97078" lon="6.29554">
        <ele>950</ele>
        <time>2014-06-01T10:24:23Z</time>
      </trkpt>
      <trkpt lat="45.9708" lon="6.29552">
        <ele>951</ele>
        <time>2014-06-01T10:24:25Z</time>
      </trkpt>
      <trkpt lat="45.97082" lon="6.29551">
        <ele>952</ele>
        <time>2014-06-01T10:24:27Z</time>
      </trkpt>
      <trkpt lat="45.97084" lon="6.29548">
        <ele>952</ele>
        <time>2014-06-01T10:24:29Z</time>
      </trkpt>
      <trkpt lat="45.97087" lon="6.29545">
        <ele>954</ele>
        <time>2014-06-01T10:24:31Z</time>
      </trkpt>
      <trkpt lat="45.97089" lon="6.29544">
        <ele>955</ele>
        <time>2014-06-01T10:24:34Z</time>
      </trkpt>
      <trkpt lat="45.9709" lon="6.29546">
        <ele>955</ele>
        <time>2014-06-01T10:24:36Z</time>
      </trkpt>
      <trkpt lat="45.97089" lon="6.29547">
        <ele>956</ele>
        <time>2014-06-01T10:24:38Z</time>
      </trkpt>
      <trkpt lat="45.97088" lon="6.29548">
        <ele>956</ele>
        <time>2014-06-01T10:24:40Z</time>
      </trkpt>
      <trkpt lat="45.97086" lon="6.29551">
        <ele>956</ele>
        <time>2014-06-01T10:24:42Z</time>
      </trkpt>
      <trkpt lat="45.97084" lon="6.29554">
        <ele>956</ele>
        <time>2014-06-01T10:24:45Z</time>
      </trkpt>
      <trkpt lat="45.97084" lon="6.29557">
        <ele>956</ele>
        <time>2014-06-01T10:24:47Z</time>
      </trkpt>
      <trkpt lat="45.97083" lon="6.2956">
        <ele>956</ele>
        <time>2014-06-01T10:24:49Z</time>
      </trkpt>
      <trkpt lat="45.97082" lon="6.29563">
        <ele>956</ele>
        <time>2014-06-01T10:24:51Z</time>
      </trkpt>
      <trkpt lat="45.97083" lon="6.29566">
        <ele>956</ele>
        <time>2014-06-01T10:24:53Z</time>
      </trkpt>
      <trkpt lat="45.97083" lon="6.2957">
        <ele>956</ele>
        <time>2014-06-01T10:24:56Z</time>
      </trkpt>
      <trkpt lat="45.97082" lon="6.29573">
        <ele>956</ele>
        <time>2014-06-01T10:24:58Z</time>
      </trkpt>
      <trkpt lat="45.97081" lon="6.29575">
        <ele>956</ele>
        <time>2014-06-01T10:25:00Z</time>
      </trkpt>
      <trkpt lat="45.9708" lon="6.29578">
        <ele>956</ele>
        <time>2014-06-01T10:25:02Z</time>
      </trkpt>
      <trkpt lat="45.97079" lon="6.29581">
        <ele>956</ele>
        <time>2014-06-01T10:25:04Z</time>
      </trkpt>
      <trkpt lat="45.97078" lon="6.29586">
        <ele>956</ele>
        <time>2014-06-01T10:25:06Z</time>
      </trkpt>
      <trkpt lat="45.97077" lon="6.29589">
        <ele>956</ele>
        <time>2014-06-01T10:25:09Z</time>
      </trkpt>
      <trkpt lat="45.97077" lon="6.29591">
        <ele>956</ele>
        <time>2014-06-01T10:25:11Z</time>
      </trkpt>
      <trkpt lat="45.97076" lon="6.29593">
        <ele>956</ele>
        <time>2014-06-01T10:25:13Z</time>
      </trkpt>
      <trkpt lat="45.97075" lon="6.29595">
        <ele>956</ele>
        <time>2014-06-01T10:25:15Z</time>
      </trkpt>
      <trkpt lat="45.97073" lon="6.29599">
        <ele>957</ele>
        <time>2014-06-01T10:25:17Z</time>
      </trkpt>
      <trkpt lat="45.97071" lon="6.29602">
        <ele>958</ele>
        <time>2014-06-01T10:25:20Z</time>
      </trkpt>
      <trkpt lat="45.97071" lon="6.29605">
        <ele>960</ele>
        <time>2014-06-01T10:25:22Z</time>
      </trkpt>
      <trkpt lat="45.97069" lon="6.29607">
        <ele>961</ele>
        <time>2014-06-01T10:25:24Z</time>
      </trkpt>
      <trkpt lat="45.97067" lon="6.2961">
        <ele>962</ele>
        <time>2014-06-01T10:25:26Z</time>
      </trkpt>
      <trkpt lat="45.97066" lon="6.29614">
        <ele>963</ele>
        <time>2014-06-01T10:25:28Z</time>
      </trkpt>
      <trkpt lat="45.97065" lon="6.29618">
        <ele>964</ele>
        <time>2014-06-01T10:25:31Z</time>
      </trkpt>
      <trkpt lat="45.97064" lon="6.29622">
        <ele>964</ele>
        <time>2014-06-01T10:25:33Z</time>
      </trkpt>
      <trkpt lat="45.97063" lon="6.29625">
        <ele>965</ele>
        <time>2014-06-01T10:25:35Z</time>
      </trkpt>
      <trkpt lat="45.97063" lon="6.29629">
        <ele>965</ele>
        <time>2014-06-01T10:25:37Z</time>
      </trkpt>
      <trkpt lat="45.97063" lon="6.29632">
        <ele>965</ele>
        <time>2014-06-01T10:25:39Z</time>
      </trkpt>
      <trkpt lat="45.97062" lon="6.29637">
        <ele>965</ele>
        <time>2014-06-01T10:25:42Z</time>
      </trkpt>
      <trkpt lat="45.97062" lon="6.29641">
        <ele>965</ele>
        <time>2014-06-01T10:25:44Z</time>
      </trkpt>
      <trkpt lat="45.97062" lon="6.29644">
        <ele>965</ele>
        <time>2014-06-01T10:25:46Z</time>
      </trkpt>
      <trkpt lat="45.97062" lon="6.29648">
        <ele>965</ele>
        <time>2014-06-01T10:25:48Z</time>
      </trkpt>
      <trkpt lat="45.97062" lon="6.29651">
        <ele>965</ele>
        <time>2014-06-01T10:25:50Z</time>
      </trkpt>
      <trkpt lat="45.97062" lon="6.29656">
        <ele>965</ele>
        <time>2014-06-01T10:25:52Z</time>
      </trkpt>
      <trkpt lat="45.97062" lon="6.2966">
        <ele>965</ele>
        <time>2014-06-01T10:25:55Z</time>
      </trkpt>
      <trkpt lat="45.97062" lon="6.29663">
        <ele>965</ele>
        <time>2014-06-01T10:25:57Z</time>
      </trkpt>
      <trkpt lat="45.97063" lon="6.29667">
        <ele>965</ele>
        <time>2014-06-01T10:25:59Z</time>
      </trkpt>
      <trkpt lat="45.97063" lon="6.2967">
        <ele>966</ele>
        <time>2014-06-01T10:26:01Z</time>
      </trkpt>
      <trkpt lat="45.97062" lon="6.29673">
        <ele>966</ele>
        <time>2014-06-01T10:26:03Z</time>
      </trkpt>
      <trkpt lat="45.97059" lon="6.29678">
        <ele>968</ele>
        <time>2014-06-01T10:26:06Z</time>
      </trkpt>
      <trkpt lat="45.97057" lon="6.29681">
        <ele>970</ele>
        <time>2014-06-01T10:26:08Z</time>
      </trkpt>
      <trkpt lat="45.97056" lon="6.29684">
        <ele>972</ele>
        <time>2014-06-01T10:26:10Z</time>
      </trkpt>
      <trkpt lat="45.97056" lon="6.29688">
        <ele>973</ele>
        <time>2014-06-01T10:26:12Z</time>
      </trkpt>
      <trkpt lat="45.97055" lon="6.29691">
        <ele>975</ele>
        <time>2014-06-01T10:26:14Z</time>
      </trkpt>
      <trkpt lat="45.97053" lon="6.29697">
        <ele>976</ele>
        <time>2014-06-01T10:26:16Z</time>
      </trkpt>
      <trkpt lat="45.97053" lon="6.29701">
        <ele>976</ele>
        <time>2014-06-01T10:26:19Z</time>
      </trkpt>
      <trkpt lat="45.97052" lon="6.29704">
        <ele>977</ele>
        <time>2014-06-01T10:26:21Z</time>
      </trkpt>
      <trkpt lat="45.9705" lon="6.29707">
        <ele>977</ele>
        <time>2014-06-01T10:26:23Z</time>
      </trkpt>
      <trkpt lat="45.97049" lon="6.29711">
        <ele>977</ele>
        <time>2014-06-01T10:26:25Z</time>
      </trkpt>
      <trkpt lat="45.97048" lon="6.29715">
        <ele>977</ele>
        <time>2014-06-01T10:26:27Z</time>
      </trkpt>
      <trkpt lat="45.97046" lon="6.29718">
        <ele>977</ele>
        <time>2014-06-01T10:26:30Z</time>
      </trkpt>
      <trkpt lat="45.97046" lon="6.29722">
        <ele>977</ele>
        <time>2014-06-01T10:26:32Z</time>
      </trkpt>
      <trkpt lat="45.97045" lon="6.29725">
        <ele>978</ele>
        <time>2014-06-01T10:26:34Z</time>
      </trkpt>
      <trkpt lat="45.97045" lon="6.29729">
        <ele>978</ele>
        <time>2014-06-01T10:26:36Z</time>
      </trkpt>
      <trkpt lat="45.97044" lon="6.29732">
        <ele>978</ele>
        <time>2014-06-01T10:26:38Z</time>
      </trkpt>
      <trkpt lat="45.97042" lon="6.29736">
        <ele>978</ele>
        <time>2014-06-01T10:26:41Z</time>
      </trkpt>
      <trkpt lat="45.97042" lon="6.29739">
        <ele>978</ele>
        <time>2014-06-01T10:26:43Z</time>
      </trkpt>
      <trkpt lat="45.97041" lon="6.29742">
        <ele>978</ele>
        <time>2014-06-01T10:26:45Z</time>
      </trkpt>
      <trkpt lat="45.97041" lon="6.29745">
        <ele>978</ele>
        <time>2014-06-01T10:26:47Z</time>
      </trkpt>
      <trkpt lat="45.97041" lon="6.29748">
        <ele>978</ele>
        <time>2014-06-01T10:26:49Z</time>
      </trkpt>
      <trkpt lat="45.97041" lon="6.29752">
        <ele>978</ele>
        <time>2014-06-01T10:26:51Z</time>
      </trkpt>
      <trkpt lat="45.9704" lon="6.29756">
        <ele>979</ele>
        <time>2014-06-01T10:26:54Z</time>
      </trkpt>
      <trkpt lat="45.9704" lon="6.29758">
        <ele>979</ele>
        <time>2014-06-01T10:26:56Z</time>
      </trkpt>
      <trkpt lat="45.97041" lon="6.29759">
        <ele>980</ele>
        <time>2014-06-01T10:26:58Z</time>
      </trkpt>
      <trkpt lat="45.97042" lon="6.29757">
        <ele>980</ele>
        <time>2014-06-01T10:27:00Z</time>
      </trkpt>
      <trkpt lat="45.97044" lon="6.29752">
        <ele>980</ele>
        <time>2014-06-01T10:27:02Z</time>
      </trkpt>
      <trkpt lat="45.97045" lon="6.29749">
        <ele>980</ele>
        <time>2014-06-01T10:27:05Z</time>
      </trkpt>
      <trkpt lat="45.97047" lon="6.29747">
        <ele>981</ele>
        <time>2014-06-01T10:27:07Z</time>
      </trkpt>
      <trkpt lat="45.97049" lon="6.29746">
        <ele>981</ele>
        <time>2014-06-01T10:27:09Z</time>
      </trkpt>
      <trkpt lat="45.9705" lon="6.29744">
        <ele>982</ele>
        <time>2014-06-01T10:27:11Z</time>
      </trkpt>
      <trkpt lat="45.97052" lon="6.29743">
        <ele>982</ele>
        <time>2014-06-01T10:27:13Z</time>
      </trkpt>
      <trkpt lat="45.97054" lon="6.2974">
        <ele>982</ele>
        <time>2014-06-01T10:27:16Z</time>
      </trkpt>
      <trkpt lat="45.97054" lon="6.2974">
        <ele>982</ele>
        <time>2014-06-01T10:27:18Z</time>
      </trkpt>
      <trkpt lat="45.97055" lon="6.29737">
        <ele>982</ele>
        <time>2014-06-01T10:27:20Z</time>
      </trkpt>
      <trkpt lat="45.97056" lon="6.29736">
        <ele>983</ele>
        <time>2014-06-01T10:27:22Z</time>
      </trkpt>
      <trkpt lat="45.97056" lon="6.29736">
        <ele>983</ele>
        <time>2014-06-01T10:27:24Z</time>
      </trkpt>
      <trkpt lat="45.97056" lon="6.29735">
        <ele>984</ele>
        <time>2014-06-01T10:27:26Z</time>
      </trkpt>
      <trkpt lat="45.97056" lon="6.29735">
        <ele>985</ele>
        <time>2014-06-01T10:27:29Z</time>
      </trkpt>
      <trkpt lat="45.97056" lon="6.29734">
        <ele>985</ele>
        <time>2014-06-01T10:27:31Z</time>
      </trkpt>
      <trkpt lat="45.97056" lon="6.29733">
        <ele>986</ele>
        <time>2014-06-01T10:27:33Z</time>
      </trkpt>
      <trkpt lat="45.97056" lon="6.29732">
        <ele>987</ele>
        <time>2014-06-01T10:27:35Z</time>
      </trkpt>
      <trkpt lat="45.97056" lon="6.29731">
        <ele>988</ele>
        <time>2014-06-01T10:27:37Z</time>
      </trkpt>
      <trkpt lat="45.97056" lon="6.29731">
        <ele>989</ele>
        <time>2014-06-01T10:27:40Z</time>
      </trkpt>
      <trkpt lat="45.97056" lon="6.2973">
        <ele>989</ele>
        <time>2014-06-01T10:27:42Z</time>
      </trkpt>
      <trkpt lat="45.97057" lon="6.29728">
        <ele>989</ele>
        <time>2014-06-01T10:27:44Z</time>
      </trkpt>
      <trkpt lat="45.97059" lon="6.29726">
        <ele>989</ele>
        <time>2014-06-01T10:27:46Z</time>
      </trkpt>
      <trkpt lat="45.97061" lon="6.29724">
        <ele>989</ele>
        <time>2014-06-01T10:27:48Z</time>
      </trkpt>
      <trkpt lat="45.97064" lon="6.29722">
        <ele>989</ele>
        <time>2014-06-01T10:27:51Z</time>
      </trkpt>
      <trkpt lat="45.97066" lon="6.2972">
        <ele>989</ele>
        <time>2014-06-01T10:27:53Z</time>
      </trkpt>
      <trkpt lat="45.97067" lon="6.29718">
        <ele>989</ele>
        <time>2014-06-01T10:27:55Z</time>
      </trkpt>
      <trkpt lat="45.97069" lon="6.29715">
        <ele>989</ele>
        <time>2014-06-01T10:27:57Z</time>
      </trkpt>
      <trkpt lat="45.9707" lon="6.29713">
        <ele>989</ele>
        <time>2014-06-01T10:27:59Z</time>
      </trkpt>
      <trkpt lat="45.97073" lon="6.29711">
        <ele>989</ele>
        <time>2014-06-01T10:28:01Z</time>
      </trkpt>
      <trkpt lat="45.97075" lon="6.29709">
        <ele>989</ele>
        <time>2014-06-01T10:28:04Z</time>
      </trkpt>
      <trkpt lat="45.97077" lon="6.29706">
        <ele>990</ele>
        <time>2014-06-01T10:28:06Z</time>
      </trkpt>
      <trkpt lat="45.97078" lon="6.29704">
        <ele>990</ele>
        <time>2014-06-01T10:28:08Z</time>
      </trkpt>
      <trkpt lat="45.9708" lon="6.29702">
        <ele>990</ele>
        <time>2014-06-01T10:28:10Z</time>
      </trkpt>
      <trkpt lat="45.97081" lon="6.29697">
        <ele>990</ele>
        <time>2014-06-01T10:28:13Z</time>
      </trkpt>
      <trkpt lat="45.97082" lon="6.29697">
        <ele>990</ele>
        <time>2014-06-01T10:28:15Z</time>
      </trkpt>
      <trkpt lat="45.97082" lon="6.29698">
        <ele>990</ele>
        <time>2014-06-01T10:28:17Z</time>
      </trkpt>
      <trkpt lat="45.97081" lon="6.29701">
        <ele>990</ele>
        <time>2014-06-01T10:28:19Z</time>
      </trkpt>
      <trkpt lat="45.9708" lon="6.29703">
        <ele>991</ele>
        <time>2014-06-01T10:28:21Z</time>
      </trkpt>
      <trkpt lat="45.97079" lon="6.29704">
        <ele>991</ele>
        <time>2014-06-01T10:28:24Z</time>
      </trkpt>
      <trkpt lat="45.97078" lon="6.29706">
        <ele>992</ele>
        <time>2014-06-01T10:28:26Z</time>
      </trkpt>
      <trkpt lat="45.97078" lon="6.29708">
        <ele>992</ele>
        <time>2014-06-01T10:28:28Z</time>
      </trkpt>
      <trkpt lat="45.97077" lon="6.29709">
        <ele>993</ele>
        <time>2014-06-01T10:28:30Z</time>
      </trkpt>
      <trkpt lat="45.97077" lon="6.29709">
        <ele>994</ele>
        <time>2014-06-01T10:28:32Z</time>
      </trkpt>
      <trkpt lat="45.97077" lon="6.29712">
        <ele>995</ele>
        <time>2014-06-01T10:28:34Z</time>
      </trkpt>
      <trkpt lat="45.97074" lon="6.29712">
        <ele>995</ele>
        <time>2014-06-01T10:28:37Z</time>
      </trkpt>
      <trkpt lat="45.97072" lon="6.29713">
        <ele>996</ele>
        <time>2014-06-01T10:28:39Z</time>
      </trkpt>
      <trkpt lat="45.97071" lon="6.29715">
        <ele>997</ele>
        <time>2014-06-01T10:28:41Z</time>
      </trkpt>
      <trkpt lat="45.97072" lon="6.29718">
        <ele>998</ele>
        <time>2014-06-01T10:28:43Z</time>
      </trkpt>
      <trkpt lat="45.97072" lon="6.2972">
        <ele>999</ele>
        <time>2014-06-01T10:28:45Z</time>
      </trkpt>
      <trkpt lat="45.97072" lon="6.29724">
        <ele>1000</ele>
        <time>2014-06-01T10:28:48Z</time>
      </trkpt>
      <trkpt lat="45.97073" lon="6.29728">
        <ele>1001</ele>
        <time>2014-06-01T10:28:50Z</time>
      </trkpt>
      <trkpt lat="45.97073" lon="6.29731">
        <ele>1001</ele>
        <time>2014-06-01T10:28:52Z</time>
      </trkpt>
      <trkpt lat="45.97074" lon="6.29735">
        <ele>1001</ele>
        <time>2014-06-01T10:28:54Z</time>
      </trkpt>
      <trkpt lat="45.97074" lon="6.29738">
        <ele>1001</ele>
        <time>2014-06-01T10:28:56Z</time>
      </trkpt>
      <trkpt lat="45.97075" lon="6.29743">
        <ele>1001</ele>
        <time>2014-06-01T10:28:58Z</time>
      </trkpt>
      <trkpt lat="45.97075" lon="6.29746">
        <ele>1001</ele>
        <time>2014-06-01T10:29:01Z</time>
      </trkpt>
      <trkpt lat="45.97074" lon="6.29749">
        <ele>1001</ele>
        <time>2014-06-01T10:29:03Z</time>
      </trkpt>
      <trkpt lat="45.97075" lon="6.29751">
        <ele>1001</ele>
        <time>2014-06-01T10:29:05Z</time>
      </trkpt>
      <trkpt lat="45.97075" lon="6.29755">
        <ele>1001</ele>
        <time>2014-06-01T10:29:07Z</time>
      </trkpt>
      <trkpt lat="45.97075" lon="6.2976">
        <ele>1001</ele>
        <time>2014-06-01T10:29:09Z</time>
      </trkpt>
      <trkpt lat="45.97075" lon="6.29762">
        <ele>1001</ele>
        <time>2014-06-01T10:29:12Z</time>
      </trkpt>
      <trkpt lat="45.97077" lon="6.29765">
        <ele>1001</ele>
        <time>2014-06-01T10:29:14Z</time>
      </trkpt>
      <trkpt lat="45.97078" lon="6.29766">
        <ele>1001</ele>
        <time>2014-06-01T10:29:16Z</time>
      </trkpt>
      <trkpt lat="45.97079" lon="6.29766">
        <ele>1001</ele>
        <time>2014-06-01T10:29:18Z</time>
      </trkpt>
      <trkpt lat="45.97081" lon="6.29764">
        <ele>1001</ele>
        <time>2014-06-01T10:29:20Z</time>
      </trkpt>
      <trkpt lat="45.97082" lon="6.29762">
        <ele>1001</ele>
        <time>2014-06-01T10:29:23Z</time>
      </trkpt>
      <trkpt lat="45.97082" lon="6.2976">
        <ele>1001</ele>
        <time>2014-06-01T10:29:25Z</time>
      </trkpt>
      <trkpt lat="45.97083" lon="6.29758">
        <ele>1001</ele>
        <time>2014-06-01T10:29:27Z</time>
      </trkpt>
      <trkpt lat="45.97085" lon="6.29756">
        <ele>1001</ele>
        <time>2014-06-01T10:29:29Z</time>
      </trkpt>
      <trkpt lat="45.97086" lon="6.29753">
        <ele>1001</ele>
        <time>2014-06-01T10:29:31Z</time>
      </trkpt>
      <trkpt lat="45.97087" lon="6.29751">
        <ele>1001</ele>
        <time>2014-06-01T10:29:34Z</time>
      </trkpt>
      <trkpt lat="45.97087" lon="6.29749">
        <ele>1001</ele>
        <time>2014-06-01T10:29:36Z</time>
      </trkpt>
      <trkpt lat="45.97088" lon="6.29747">
        <ele>1001</ele>
        <time>2014-06-01T10:29:38Z</time>
      </trkpt>
      <trkpt lat="45.97089" lon="6.29745">
        <ele>1001</ele>
        <time>2014-06-01T10:29:40Z</time>
      </trkpt>
      <trkpt lat="45.97091" lon="6.29744">
        <ele>1001</ele>
        <time>2014-06-01T10:29:43Z</time>
      </trkpt>
      <trkpt lat="45.97091" lon="6.29745">
        <ele>1001</ele>
        <time>2014-06-01T10:29:45Z</time>
      </trkpt>
      <trkpt lat="45.9709" lon="6.29747">
        <ele>1001</ele>
        <time>2014-06-01T10:29:47Z</time>
      </trkpt>
      <trkpt lat="45.9709" lon="6.29748">
        <ele>1001</ele>
        <time>2014-06-01T10:29:49Z</time>
      </trkpt>
      <trkpt lat="45.9709" lon="6.29752">
        <ele>1001</ele>
        <time>2014-06-01T10:29:51Z</time>
      </trkpt>
      <trkpt lat="45.97089" lon="6.29755">
        <ele>1001</ele>
        <time>2014-06-01T10:29:54Z</time>
      </trkpt>
      <trkpt lat="45.9709" lon="6.29757">
        <ele>1001</ele>
        <time>2014-06-01T10:29:56Z</time>
      </trkpt>
      <trkpt lat="45.9709" lon="6.29762">
        <ele>1001</ele>
        <time>2014-06-01T10:29:58Z</time>
      </trkpt>
      <trkpt lat="45.97091" lon="6.29765">
        <ele>1002</ele>
        <time>2014-06-01T10:30:00Z</time>
      </trkpt>
      <trkpt lat="45.97092" lon="6.29767">
        <ele>1003</ele>
        <time>2014-06-01T10:30:03Z</time>
      </trkpt>
      <trkpt lat="45.97092" lon="6.29771">
        <ele>1004</ele>
        <time>2014-06-01T10:30:05Z</time>
      </trkpt>
      <trkpt lat="45.97092" lon="6.29773">
        <ele>1005</ele>
        <time>2014-06-01T10:30:07Z</time>
      </trkpt>
      <trkpt lat="45.97093" lon="6.29777">
        <ele>1006</ele>
        <time>2014-06-01T10:30:09Z</time>
      </trkpt>
      <trkpt lat="45.97095" lon="6.29781">
        <ele>1007</ele>
        <time>2014-06-01T10:30:12Z</time>
      </trkpt>
      <trkpt lat="45.97096" lon="6.29785">
        <ele>1009</ele>
        <time>2014-06-01T10:30:14Z</time>
      </trkpt>
      <trkpt lat="45.97097" lon="6.29787">
        <ele>1010</ele>
        <time>2014-06-01T10:30:16Z</time>
      </trkpt>
      <trkpt lat="45.97098" lon="6.29789">
        <ele>1011</ele>
        <time>2014-06-01T10:30:18Z</time>
      </trkpt>
      <trkpt lat="45.97099" lon="6.29789">
        <ele>1012</ele>
        <time>2014-06-01T10:30:20Z</time>
      </trkpt>
      <trkpt lat="45.97099" lon="6.29788">
        <ele>1014</ele>
        <time>2014-06-01T10:30:23Z</time>
      </trkpt>
      <trkpt lat="45.97099" lon="6.29786">
        <ele>1015</ele>
        <time>2014-06-01T10:30:25Z</time>
      </trkpt>
      <trkpt lat="45.97099" lon="6.29784">
        <ele>1015</ele>
        <time>2014-06-01T10:30:27Z</time>
      </trkpt>
      <trkpt lat="45.97099" lon="6.2978">
        <ele>1016</ele>
        <time>2014-06-01T10:30:29Z</time>
      </trkpt>
      <trkpt lat="45.971" lon="6.29778">
        <ele>1016</ele>
        <time>2014-06-01T10:30:32Z</time>
      </trkpt>
      <trkpt lat="45.97102" lon="6.29775">
        <ele>1017</ele>
        <time>2014-06-01T10:30:34Z</time>
      </trkpt>
      <trkpt lat="45.97101" lon="6.29773">
        <ele>1017</ele>
        <time>2014-06-01T10:30:36Z</time>
      </trkpt>
      <trkpt lat="45.97101" lon="6.2977">
        <ele>1017</ele>
        <time>2014-06-01T10:30:38Z</time>
      </trkpt>
      <trkpt lat="45.97102" lon="6.29766">
        <ele>1017</ele>
        <time>2014-06-01T10:30:40Z</time>
      </trkpt>
      <trkpt lat="45.97103" lon="6.29765">
        <ele>1017</ele>
        <time>2014-06-01T10:30:43Z</time>
      </trkpt>
      <trkpt lat="45.97103" lon="6.29762">
        <ele>1017</ele>
        <time>2014-06-01T10:30:45Z</time>
      </trkpt>
      <trkpt lat="45.97103" lon="6.29759">
        <ele>1017</ele>
        <time>2014-06-01T10:30:47Z</time>
      </trkpt>
      <trkpt lat="45.97103" lon="6.29756">
        <ele>1017</ele>
        <time>2014-06-01T10:30:49Z</time>
      </trkpt>
      <trkpt lat="45.97104" lon="6.29752">
        <ele>1017</ele>
        <time>2014-06-01T10:30:52Z</time>
      </trkpt>
      <trkpt lat="45.97105" lon="6.2975">
        <ele>1017</ele>
        <time>2014-06-01T10:30:54Z</time>
      </trkpt>
      <trkpt lat="45.97106" lon="6.29748">
        <ele>1018</ele>
        <time>2014-06-01T10:30:56Z</time>
      </trkpt>
      <trkpt lat="45.97106" lon="6.29745">
        <ele>1019</ele>
        <time>2014-06-01T10:30:58Z</time>
      </trkpt>
      <trkpt lat="45.97108" lon="6.29742">
        <ele>1020</ele>
        <time>2014-06-01T10:31:00Z</time>
      </trkpt>
      <trkpt lat="45.97109" lon="6.2974">
        <ele>1022</ele>
        <time>2014-06-01T10:31:03Z</time>
      </trkpt>
      <trkpt lat="45.9711" lon="6.29737">
        <ele>1024</ele>
        <time>2014-06-01T10:31:05Z</time>
      </trkpt>
      <trkpt lat="45.97111" lon="6.29734">
        <ele>1025</ele>
        <time>2014-06-01T10:31:07Z</time>
      </trkpt>
      <trkpt lat="45.97112" lon="6.29729">
        <ele>1027</ele>
        <time>2014-06-01T10:31:09Z</time>
      </trkpt>
      <trkpt lat="45.97114" lon="6.29727">
        <ele>1029</ele>
        <time>2014-06-01T10:31:12Z</time>
      </trkpt>
      <trkpt lat="45.97115" lon="6.29724">
        <ele>1031</ele>
        <time>2014-06-01T10:31:14Z</time>
      </trkpt>
      <trkpt lat="45.97117" lon="6.29721">
        <ele>1033</ele>
        <time>2014-06-01T10:31:16Z</time>
      </trkpt>
      <trkpt lat="45.97119" lon="6.29717">
        <ele>1035</ele>
        <time>2014-06-01T10:31:18Z</time>
      </trkpt>
      <trkpt lat="45.9712" lon="6.29713">
        <ele>1036</ele>
        <time>2014-06-01T10:31:21Z</time>
      </trkpt>
      <trkpt lat="45.97121" lon="6.2971">
        <ele>1038</ele>
        <time>2014-06-01T10:31:23Z</time>
      </trkpt>
      <trkpt lat="45.97123" lon="6.29708">
        <ele>1038</ele>
        <time>2014-06-01T10:31:25Z</time>
      </trkpt>
      <trkpt lat="45.97124" lon="6.29705">
        <ele>1039</ele>
        <time>2014-06-01T10:31:27Z</time>
      </trkpt>
      <trkpt lat="45.97125" lon="6.297">
        <ele>1039</ele>
        <time>2014-06-01T10:31:29Z</time>
      </trkpt>
      <trkpt lat="45.97126" lon="6.29697">
        <ele>1039</ele>
        <time>2014-06-01T10:31:32Z</time>
      </trkpt>
      <trkpt lat="45.97126" lon="6.29695">
        <ele>1039</ele>
        <time>2014-06-01T10:31:34Z</time>
      </trkpt>
      <trkpt lat="45.97128" lon="6.29691">
        <ele>1039</ele>
        <time>2014-06-01T10:31:36Z</time>
      </trkpt>
      <trkpt lat="45.97129" lon="6.29689">
        <ele>1039</ele>
        <time>2014-06-01T10:31:38Z</time>
      </trkpt>
      <trkpt lat="45.9713" lon="6.29684">
        <ele>1039</ele>
        <time>2014-06-01T10:31:41Z</time>
      </trkpt>
      <trkpt lat="45.97131" lon="6.29682">
        <ele>1039</ele>
        <time>2014-06-01T10:31:43Z</time>
      </trkpt>
      <trkpt lat="45.97132" lon="6.2968">
        <ele>1039</ele>
        <time>2014-06-01T10:31:45Z</time>
      </trkpt>
      <trkpt lat="45.97133" lon="6.29677">
        <ele>1039</ele>
        <time>2014-06-01T10:31:47Z</time>
      </trkpt>
      <trkpt lat="45.97134" lon="6.29675">
        <ele>1039</ele>
        <time>2014-06-01T10:31:49Z</time>
      </trkpt>
      <trkpt lat="45.97135" lon="6.29673">
        <ele>1040</ele>
        <time>2014-06-01T10:31:52Z</time>
      </trkpt>
      <trkpt lat="45.97137" lon="6.29671">
        <ele>1040</ele>
        <time>2014-06-01T10:31:54Z</time>
      </trkpt>
      <trkpt lat="45.97138" lon="6.29669">
        <ele>1040</ele>
        <time>2014-06-01T10:31:56Z</time>
      </trkpt>
      <trkpt lat="45.97139" lon="6.29666">
        <ele>1040</ele>
        <time>2014-06-01T10:31:58Z</time>
      </trkpt>
      <trkpt lat="45.97141" lon="6.29664">
        <ele>1040</ele>
        <time>2014-06-01T10:32:01Z</time>
      </trkpt>
      <trkpt lat="45.97143" lon="6.29662">
        <ele>1040</ele>
        <time>2014-06-01T10:32:03Z</time>
      </trkpt>
      <trkpt lat="45.97144" lon="6.29659">
        <ele>1040</ele>
        <time>2014-06-01T10:32:05Z</time>
      </trkpt>
      <trkpt lat="45.97145" lon="6.29656">
        <ele>1040</ele>
        <time>2014-06-01T10:32:07Z</time>
      </trkpt>
      <trkpt lat="45.97147" lon="6.29651">
        <ele>1040</ele>
        <time>2014-06-01T10:32:10Z</time>
      </trkpt>
      <trkpt lat="45.97148" lon="6.29649">
        <ele>1040</ele>
        <time>2014-06-01T10:32:12Z</time>
      </trkpt>
      <trkpt lat="45.97149" lon="6.29645">
        <ele>1042</ele>
        <time>2014-06-01T10:32:14Z</time>
      </trkpt>
      <trkpt lat="45.97151" lon="6.29642">
        <ele>1043</ele>
        <time>2014-06-01T10:32:16Z</time>
      </trkpt>
      <trkpt lat="45.97152" lon="6.29638">
        <ele>1045</ele>
        <time>2014-06-01T10:32:18Z</time>
      </trkpt>
      <trkpt lat="45.97153" lon="6.29636">
        <ele>1047</ele>
        <time>2014-06-01T10:32:21Z</time>
      </trkpt>
      <trkpt lat="45.97155" lon="6.29634">
        <ele>1048</ele>
        <time>2014-06-01T10:32:23Z</time>
      </trkpt>
      <trkpt lat="45.97156" lon="6.29631">
        <ele>1050</ele>
        <time>2014-06-01T10:32:25Z</time>
      </trkpt>
      <trkpt lat="45.97157" lon="6.2963">
        <ele>1051</ele>
        <time>2014-06-01T10:32:27Z</time>
      </trkpt>
      <trkpt lat="45.97157" lon="6.29631">
        <ele>1053</ele>
        <time>2014-06-01T10:32:30Z</time>
      </trkpt>
      <trkpt lat="45.97155" lon="6.29633">
        <ele>1054</ele>
        <time>2014-06-01T10:32:32Z</time>
      </trkpt>
      <trkpt lat="45.97154" lon="6.29635">
        <ele>1056</ele>
        <time>2014-06-01T10:32:34Z</time>
      </trkpt>
      <trkpt lat="45.97153" lon="6.29638">
        <ele>1057</ele>
        <time>2014-06-01T10:32:36Z</time>
      </trkpt>
      <trkpt lat="45.97152" lon="6.29643">
        <ele>1058</ele>
        <time>2014-06-01T10:32:38Z</time>
      </trkpt>
      <trkpt lat="45.97151" lon="6.29647">
        <ele>1058</ele>
        <time>2014-06-01T10:32:41Z</time>
      </trkpt>
      <trkpt lat="45.9715" lon="6.2965">
        <ele>1058</ele>
        <time>2014-06-01T10:32:43Z</time>
      </trkpt>
      <trkpt lat="45.9715" lon="6.29652">
        <ele>1059</ele>
        <time>2014-06-01T10:32:45Z</time>
      </trkpt>
      <trkpt lat="45.97148" lon="6.29658">
        <ele>1059</ele>
        <time>2014-06-01T10:32:47Z</time>
      </trkpt>
      <trkpt lat="45.97147" lon="6.29661">
        <ele>1059</ele>
        <time>2014-06-01T10:32:50Z</time>
      </trkpt>
      <trkpt lat="45.97146" lon="6.29664">
        <ele>1059</ele>
        <time>2014-06-01T10:32:52Z</time>
      </trkpt>
      <trkpt lat="45.97146" lon="6.29667">
        <ele>1059</ele>
        <time>2014-06-01T10:32:54Z</time>
      </trkpt>
      <trkpt lat="45.97145" lon="6.2967">
        <ele>1059</ele>
        <time>2014-06-01T10:32:56Z</time>
      </trkpt>
      <trkpt lat="45.97145" lon="6.29675">
        <ele>1059</ele>
        <time>2014-06-01T10:32:59Z</time>
      </trkpt>
      <trkpt lat="45.97144" lon="6.29677">
        <ele>1057</ele>
        <time>2014-06-01T10:33:01Z</time>
      </trkpt>
      <trkpt lat="45.97143" lon="6.2968">
        <ele>1055</ele>
        <time>2014-06-01T10:33:03Z</time>
      </trkpt>
      <trkpt lat="45.97144" lon="6.29683">
        <ele>1053</ele>
        <time>2014-06-01T10:33:05Z</time>
      </trkpt>
      <trkpt lat="45.97144" lon="6.2969">
        <ele>1052</ele>
        <time>2014-06-01T10:33:07Z</time>
      </trkpt>
      <trkpt lat="45.97144" lon="6.29691">
        <ele>1051</ele>
        <time>2014-06-01T10:33:10Z</time>
      </trkpt>
      <trkpt lat="45.97145" lon="6.29695">
        <ele>1050</ele>
        <time>2014-06-01T10:33:12Z</time>
      </trkpt>
      <trkpt lat="45.97144" lon="6.29698">
        <ele>1050</ele>
        <time>2014-06-01T10:33:14Z</time>
      </trkpt>
      <trkpt lat="45.97144" lon="6.29701">
        <ele>1050</ele>
        <time>2014-06-01T10:33:16Z</time>
      </trkpt>
      <trkpt lat="45.97144" lon="6.29706">
        <ele>1050</ele>
        <time>2014-06-01T10:33:19Z</time>
      </trkpt>
      <trkpt lat="45.97145" lon="6.29709">
        <ele>1050</ele>
        <time>2014-06-01T10:33:21Z</time>
      </trkpt>
      <trkpt lat="45.97145" lon="6.29712">
        <ele>1050</ele>
        <time>2014-06-01T10:33:23Z</time>
      </trkpt>
      <trkpt lat="45.97145" lon="6.29716">
        <ele>1050</ele>
        <time>2014-06-01T10:33:25Z</time>
      </trkpt>
      <trkpt lat="45.97145" lon="6.29722">
        <ele>1050</ele>
        <time>2014-06-01T10:33:27Z</time>
      </trkpt>
      <trkpt lat="45.97145" lon="6.29724">
        <ele>1050</ele>
        <time>2014-06-01T10:33:30Z</time>
      </trkpt>
      <trkpt lat="45.97145" lon="6.29726">
        <ele>1051</ele>
        <time>2014-06-01T10:33:32Z</time>
      </trkpt>
      <trkpt lat="45.97146" lon="6.2973">
        <ele>1051</ele>
        <time>2014-06-01T10:33:34Z</time>
      </trkpt>
      <trkpt lat="45.97147" lon="6.29734">
        <ele>1052</ele>
        <time>2014-06-01T10:33:36Z</time>
      </trkpt>
      <trkpt lat="45.97147" lon="6.29739">
        <ele>1052</ele>
        <time>2014-06-01T10:33:39Z</time>
      </trkpt>
      <trkpt lat="45.97147" lon="6.29743">
        <ele>1052</ele>
        <time>2014-06-01T10:33:41Z</time>
      </trkpt>
      <trkpt lat="45.97147" lon="6.29746">
        <ele>1052</ele>
        <time>2014-06-01T10:33:43Z</time>
      </trkpt>
      <trkpt lat="45.97148" lon="6.29749">
        <ele>1052</ele>
        <time>2014-06-01T10:33:45Z</time>
      </trkpt>
      <trkpt lat="45.97148" lon="6.29753">
        <ele>1054</ele>
        <time>2014-06-01T10:33:47Z</time>
      </trkpt>
      <trkpt lat="45.97149" lon="6.29756">
        <ele>1055</ele>
        <time>2014-06-01T10:33:50Z</time>
      </trkpt>
      <trkpt lat="45.97149" lon="6.29758">
        <ele>1056</ele>
        <time>2014-06-01T10:33:52Z</time>
      </trkpt>
      <trkpt lat="45.97149" lon="6.29762">
        <ele>1057</ele>
        <time>2014-06-01T10:33:54Z</time>
      </trkpt>
      <trkpt lat="45.97149" lon="6.29765">
        <ele>1059</ele>
        <time>2014-06-01T10:33:56Z</time>
      </trkpt>
      <trkpt lat="45.9715" lon="6.29768">
        <ele>1060</ele>
        <time>2014-06-01T10:33:59Z</time>
      </trkpt>
      <trkpt lat="45.9715" lon="6.29771">
        <ele>1061</ele>
        <time>2014-06-01T10:34:01Z</time>
      </trkpt>
      <trkpt lat="45.97151" lon="6.29775">
        <ele>1061</ele>
        <time>2014-06-01T10:34:03Z</time>
      </trkpt>
      <trkpt lat="45.97151" lon="6.29778">
        <ele>1062</ele>
        <time>2014-06-01T10:34:05Z</time>
      </trkpt>
      <trkpt lat="45.97152" lon="6.29783">
        <ele>1062</ele>
        <time>2014-06-01T10:34:07Z</time>
      </trkpt>
      <trkpt lat="45.97152" lon="6.29786">
        <ele>1062</ele>
        <time>2014-06-01T10:34:10Z</time>
      </trkpt>
      <trkpt lat="45.97152" lon="6.29788">
        <ele>1062</ele>
        <time>2014-06-01T10:34:12Z</time>
      </trkpt>
      <trkpt lat="45.97152" lon="6.29791">
        <ele>1062</ele>
        <time>2014-06-01T10:34:14Z</time>
      </trkpt>
      <trkpt lat="45.97152" lon="6.29797">
        <ele>1062</ele>
        <time>2014-06-01T10:34:16Z</time>
      </trkpt>
      <trkpt lat="45.97153" lon="6.29799">
        <ele>1062</ele>
        <time>2014-06-01T10:34:19Z</time>
      </trkpt>
      <trkpt lat="45.97155" lon="6.29802">
        <ele>1062</ele>
        <time>2014-06-01T10:34:21Z</time>
      </trkpt>
      <trkpt lat="45.97156" lon="6.29805">
        <ele>1062</ele>
        <time>2014-06-01T10:34:23Z</time>
      </trkpt>
      <trkpt lat="45.97157" lon="6.29807">
        <ele>1062</ele>
        <time>2014-06-01T10:34:25Z</time>
      </trkpt>
      <trkpt lat="45.97158" lon="6.29811">
        <ele>1062</ele>
        <time>2014-06-01T10:34:28Z</time>
      </trkpt>
      <trkpt lat="45.97158" lon="6.29813">
        <ele>1062</ele>
        <time>2014-06-01T10:34:30Z</time>
      </trkpt>
      <trkpt lat="45.97159" lon="6.29817">
        <ele>1062</ele>
        <time>2014-06-01T10:34:32Z</time>
      </trkpt>
      <trkpt lat="45.97159" lon="6.29819">
        <ele>1062</ele>
        <time>2014-06-01T10:34:34Z</time>
      </trkpt>
      <trkpt lat="45.9716" lon="6.29823">
        <ele>1062</ele>
        <time>2014-06-01T10:34:36Z</time>
      </trkpt>
      <trkpt lat="45.9716" lon="6.29825">
        <ele>1062</ele>
        <time>2014-06-01T10:34:39Z</time>
      </trkpt>
      <trkpt lat="45.9716" lon="6.29829">
        <ele>1063</ele>
        <time>2014-06-01T10:34:41Z</time>
      </trkpt>
      <trkpt lat="45.9716" lon="6.29833">
        <ele>1065</ele>
        <time>2014-06-01T10:34:43Z</time>
      </trkpt>
      <trkpt lat="45.97161" lon="6.29836">
        <ele>1066</ele>
        <time>2014-06-01T10:34:45Z</time>
      </trkpt>
      <trkpt lat="45.97161" lon="6.2984">
        <ele>1068</ele>
        <time>2014-06-01T10:34:48Z</time>
      </trkpt>
      <trkpt lat="45.97161" lon="6.29842">
        <ele>1070</ele>
        <time>2014-06-01T10:34:50Z</time>
      </trkpt>
      <trkpt lat="45.97161" lon="6.29844">
        <ele>1072</ele>
        <time>2014-06-01T10:34:52Z</time>
      </trkpt>
      <trkpt lat="45.97161" lon="6.29847">
        <ele>1074</ele>
        <time>2014-06-01T10:34:54Z</time>
      </trkpt>
      <trkpt lat="45.97161" lon="6.29852">
        <ele>1076</ele>
        <time>2014-06-01T10:34:56Z</time>
      </trkpt>
      <trkpt lat="45.9716" lon="6.29854">
        <ele>1078</ele>
        <time>2014-06-01T10:34:59Z</time>
      </trkpt>
      <trkpt lat="45.9716" lon="6.29855">
        <ele>1080</ele>
        <time>2014-06-01T10:35:01Z</time>
      </trkpt>
      <trkpt lat="45.9716" lon="6.29855">
        <ele>1082</ele>
        <time>2014-06-01T10:35:03Z</time>
      </trkpt>
      <trkpt lat="45.97159" lon="6.29858">
        <ele>1082</ele>
        <time>2014-06-01T10:35:05Z</time>
      </trkpt>
      <trkpt lat="45.9716" lon="6.29862">
        <ele>1083</ele>
        <time>2014-06-01T10:35:08Z</time>
      </trkpt>
      <trkpt lat="45.9716" lon="6.29865">
        <ele>1084</ele>
        <time>2014-06-01T10:35:10Z</time>
      </trkpt>
      <trkpt lat="45.9716" lon="6.29865">
        <ele>1085</ele>
        <time>2014-06-01T10:35:12Z</time>
      </trkpt>
      <trkpt lat="45.9716" lon="6.29865">
        <ele>1086</ele>
        <time>2014-06-01T10:35:14Z</time>
      </trkpt>
      <trkpt lat="45.97161" lon="6.29862">
        <ele>1086</ele>
        <time>2014-06-01T10:35:16Z</time>
      </trkpt>
      <trkpt lat="45.97162" lon="6.29859">
        <ele>1086</ele>
        <time>2014-06-01T10:35:19Z</time>
      </trkpt>
      <trkpt lat="45.97162" lon="6.29857">
        <ele>1086</ele>
        <time>2014-06-01T10:35:21Z</time>
      </trkpt>
      <trkpt lat="45.97163" lon="6.29854">
        <ele>1086</ele>
        <time>2014-06-01T10:35:23Z</time>
      </trkpt>
      <trkpt lat="45.97165" lon="6.29853">
        <ele>1086</ele>
        <time>2014-06-01T10:35:25Z</time>
      </trkpt>
      <trkpt lat="45.97167" lon="6.2985">
        <ele>1086</ele>
        <time>2014-06-01T10:35:28Z</time>
      </trkpt>
      <trkpt lat="45.97167" lon="6.29848">
        <ele>1086</ele>
        <time>2014-06-01T10:35:30Z</time>
      </trkpt>
      <trkpt lat="45.97167" lon="6.29845">
        <ele>1086</ele>
        <time>2014-06-01T10:35:32Z</time>
      </trkpt>
      <trkpt lat="45.97168" lon="6.29841">
        <ele>1087</ele>
        <time>2014-06-01T10:35:34Z</time>
      </trkpt>
      <trkpt lat="45.97169" lon="6.29839">
        <ele>1089</ele>
        <time>2014-06-01T10:35:36Z</time>
      </trkpt>
      <trkpt lat="45.97168" lon="6.29838">
        <ele>1090</ele>
        <time>2014-06-01T10:35:39Z</time>
      </trkpt>
      <trkpt lat="45.97168" lon="6.29835">
        <ele>1092</ele>
        <time>2014-06-01T10:35:41Z</time>
      </trkpt>
      <trkpt lat="45.97168" lon="6.29834">
        <ele>1094</ele>
        <time>2014-06-01T10:35:43Z</time>
      </trkpt>
      <trkpt lat="45.97168" lon="6.29833">
        <ele>1096</ele>
        <time>2014-06-01T10:35:45Z</time>
      </trkpt>
      <trkpt lat="45.97169" lon="6.29831">
        <ele>1098</ele>
        <time>2014-06-01T10:35:48Z</time>
      </trkpt>
      <trkpt lat="45.97168" lon="6.29828">
        <ele>1100</ele>
        <time>2014-06-01T10:35:50Z</time>
      </trkpt>
      <trkpt lat="45.97167" lon="6.29825">
        <ele>1102</ele>
        <time>2014-06-01T10:35:52Z</time>
      </trkpt>
      <trkpt lat="45.97167" lon="6.29822">
        <ele>1104</ele>
        <time>2014-06-01T10:35:54Z</time>
      </trkpt>
      <trkpt lat="45.97167" lon="6.29817">
        <ele>1106</ele>
        <time>2014-06-01T10:35:56Z</time>
      </trkpt>
      <trkpt lat="45.97166" lon="6.29814">
        <ele>1108</ele>
        <time>2014-06-01T10:35:59Z</time>
      </trkpt>
      <trkpt lat="45.97165" lon="6.29811">
        <ele>1110</ele>
        <time>2014-06-01T10:36:01Z</time>
      </trkpt>
      <trkpt lat="45.97165" lon="6.29808">
        <ele>1112</ele>
        <time>2014-06-01T10:36:03Z</time>
      </trkpt>
      <trkpt lat="45.97163" lon="6.29805">
        <ele>1113</ele>
        <time>2014-06-01T10:36:05Z</time>
      </trkpt>
      <trkpt lat="45.97162" lon="6.29802">
        <ele>1113</ele>
        <time>2014-06-01T10:36:08Z</time>
      </trkpt>
      <trkpt lat="45.97162" lon="6.298">
        <ele>1113</ele>
        <time>2014-06-01T10:36:10Z</time>
      </trkpt>
      <trkpt lat="45.97162" lon="6.29796">
        <ele>1113</ele>
        <time>2014-06-01T10:36:12Z</time>
      </trkpt>
      <trkpt lat="45.97162" lon="6.29793">
        <ele>1113</ele>
        <time>2014-06-01T10:36:14Z</time>
      </trkpt>
      <trkpt lat="45.97162" lon="6.29788">
        <ele>1113</ele>
        <time>2014-06-01T10:36:16Z</time>
      </trkpt>
      <trkpt lat="45.97163" lon="6.29786">
        <ele>1113</ele>
        <time>2014-06-01T10:36:19Z</time>
      </trkpt>
      <trkpt lat="45.97165" lon="6.29784">
        <ele>1113</ele>
        <time>2014-06-01T10:36:21Z</time>
      </trkpt>
      <trkpt lat="45.97167" lon="6.2978">
        <ele>1113</ele>
        <time>2014-06-01T10:36:23Z</time>
      </trkpt>
      <trkpt lat="45.97169" lon="6.29775">
        <ele>1112</ele>
        <time>2014-06-01T10:36:25Z</time>
      </trkpt>
      <trkpt lat="45.97171" lon="6.29772">
        <ele>1110</ele>
        <time>2014-06-01T10:36:28Z</time>
      </trkpt>
      <trkpt lat="45.97173" lon="6.29769">
        <ele>1108</ele>
        <time>2014-06-01T10:36:30Z</time>
      </trkpt>
      <trkpt lat="45.97174" lon="6.29765">
        <ele>1107</ele>
        <time>2014-06-01T10:36:32Z</time>
      </trkpt>
      <trkpt lat="45.97174" lon="6.29761">
        <ele>1106</ele>
        <time>2014-06-01T10:36:34Z</time>
      </trkpt>
      <trkpt lat="45.97175" lon="6.29754">
        <ele>1104</ele>
        <time>2014-06-01T10:36:37Z</time>
      </trkpt>
      <trkpt lat="45.97177" lon="6.29751">
        <ele>1102</ele>
        <time>2014-06-01T10:36:39Z</time>
      </trkpt>
      <trkpt lat="45.97178" lon="6.29749">
        <ele>1100</ele>
        <time>2014-06-01T10:36:41Z</time>
      </trkpt>
      <trkpt lat="45.9718" lon="6.29746">
        <ele>1098</ele>
        <time>2014-06-01T10:36:43Z</time>
      </trkpt>
      <trkpt lat="45.97182" lon="6.29744">
        <ele>1096</ele>
        <time>2014-06-01T10:36:46Z</time>
      </trkpt>
      <trkpt lat="45.97183" lon="6.2974">
        <ele>1094</ele>
        <time>2014-06-01T10:36:48Z</time>
      </trkpt>
      <trkpt lat="45.97185" lon="6.29737">
        <ele>1093</ele>
        <time>2014-06-01T10:36:50Z</time>
      </trkpt>
      <trkpt lat="45.97186" lon="6.29734">
        <ele>1091</ele>
        <time>2014-06-01T10:36:52Z</time>
      </trkpt>
      <trkpt lat="45.9719" lon="6.29728">
        <ele>1091</ele>
        <time>2014-06-01T10:36:54Z</time>
      </trkpt>
      <trkpt lat="45.97191" lon="6.29725">
        <ele>1091</ele>
        <time>2014-06-01T10:36:57Z</time>
      </trkpt>
      <trkpt lat="45.97194" lon="6.2972">
        <ele>1091</ele>
        <time>2014-06-01T10:36:59Z</time>
      </trkpt>
      <trkpt lat="45.97196" lon="6.29712">
        <ele>1091</ele>
        <time>2014-06-01T10:37:01Z</time>
      </trkpt>
      <trkpt lat="45.97199" lon="6.29704">
        <ele>1091</ele>
        <time>2014-06-01T10:37:03Z</time>
      </trkpt>
      <trkpt lat="45.97201" lon="6.29701">
        <ele>1091</ele>
        <time>2014-06-01T10:37:06Z</time>
      </trkpt>
      <trkpt lat="45.97204" lon="6.29697">
        <ele>1091</ele>
        <time>2014-06-01T10:37:08Z</time>
      </trkpt>
      <trkpt lat="45.97205" lon="6.29695">
        <ele>1091</ele>
        <time>2014-06-01T10:37:10Z</time>
      </trkpt>
      <trkpt lat="45.97209" lon="6.29692">
        <ele>1091</ele>
        <time>2014-06-01T10:37:12Z</time>
      </trkpt>
      <trkpt lat="45.97211" lon="6.2969">
        <ele>1092</ele>
        <time>2014-06-01T10:37:15Z</time>
      </trkpt>
      <trkpt lat="45.97214" lon="6.29687">
        <ele>1093</ele>
        <time>2014-06-01T10:37:17Z</time>
      </trkpt>
      <trkpt lat="45.97216" lon="6.29684">
        <ele>1094</ele>
        <time>2014-06-01T10:37:19Z</time>
      </trkpt>
      <trkpt lat="45.9722" lon="6.29681">
        <ele>1096</ele>
        <time>2014-06-01T10:37:21Z</time>
      </trkpt>
      <trkpt lat="45.97222" lon="6.2968">
        <ele>1098</ele>
        <time>2014-06-01T10:37:24Z</time>
      </trkpt>
      <trkpt lat="45.97224" lon="6.29677">
        <ele>1100</ele>
        <time>2014-06-01T10:37:26Z</time>
      </trkpt>
      <trkpt lat="45.97227" lon="6.29675">
        <ele>1102</ele>
        <time>2014-06-01T10:37:28Z</time>
      </trkpt>
      <trkpt lat="45.97229" lon="6.29673">
        <ele>1102</ele>
        <time>2014-06-01T10:37:30Z</time>
      </trkpt>
      <trkpt lat="45.97232" lon="6.29671">
        <ele>1103</ele>
        <time>2014-06-01T10:37:33Z</time>
      </trkpt>
      <trkpt lat="45.97234" lon="6.29671">
        <ele>1103</ele>
        <time>2014-06-01T10:37:35Z</time>
      </trkpt>
      <trkpt lat="45.97236" lon="6.29669">
        <ele>1103</ele>
        <time>2014-06-01T10:37:37Z</time>
      </trkpt>
      <trkpt lat="45.97238" lon="6.29668">
        <ele>1103</ele>
        <time>2014-06-01T10:37:39Z</time>
      </trkpt>
      <trkpt lat="45.97242" lon="6.29666">
        <ele>1103</ele>
        <time>2014-06-01T10:37:41Z</time>
      </trkpt>
      <trkpt lat="45.97245" lon="6.29663">
        <ele>1103</ele>
        <time>2014-06-01T10:37:44Z</time>
      </trkpt>
      <trkpt lat="45.97246" lon="6.29661">
        <ele>1103</ele>
        <time>2014-06-01T10:37:46Z</time>
      </trkpt>
      <trkpt lat="45.97249" lon="6.29659">
        <ele>1103</ele>
        <time>2014-06-01T10:37:48Z</time>
      </trkpt>
      <trkpt lat="45.97251" lon="6.29657">
        <ele>1103</ele>
        <time>2014-06-01T10:37:50Z</time>
      </trkpt>
      <trkpt lat="45.97255" lon="6.29653">
        <ele>1104</ele>
        <time>2014-06-01T10:37:53Z</time>
      </trkpt>
      <trkpt lat="45.97256" lon="6.29652">
        <ele>1105</ele>
        <time>2014-06-01T10:37:55Z</time>
      </trkpt>
      <trkpt lat="45.97258" lon="6.29651">
        <ele>1107</ele>
        <time>2014-06-01T10:37:57Z</time>
      </trkpt>
      <trkpt lat="45.9726" lon="6.2965">
        <ele>1109</ele>
        <time>2014-06-01T10:37:59Z</time>
      </trkpt>
      <trkpt lat="45.97262" lon="6.2965">
        <ele>1110</ele>
        <time>2014-06-01T10:38:01Z</time>
      </trkpt>
      <trkpt lat="45.97264" lon="6.29648">
        <ele>1111</ele>
        <time>2014-06-01T10:38:04Z</time>
      </trkpt>
      <trkpt lat="45.97265" lon="6.29646">
        <ele>1112</ele>
        <time>2014-06-01T10:38:06Z</time>
      </trkpt>
      <trkpt lat="45.97267" lon="6.29645">
        <ele>1112</ele>
        <time>2014-06-01T10:38:08Z</time>
      </trkpt>
      <trkpt lat="45.97269" lon="6.29643">
        <ele>1113</ele>
        <time>2014-06-01T10:38:10Z</time>
      </trkpt>
      <trkpt lat="45.97272" lon="6.2964">
        <ele>1114</ele>
        <time>2014-06-01T10:38:13Z</time>
      </trkpt>
      <trkpt lat="45.97275" lon="6.29639">
        <ele>1114</ele>
        <time>2014-06-01T10:38:15Z</time>
      </trkpt>
      <trkpt lat="45.97277" lon="6.29639">
        <ele>1115</ele>
        <time>2014-06-01T10:38:17Z</time>
      </trkpt>
      <trkpt lat="45.97279" lon="6.29638">
        <ele>1115</ele>
        <time>2014-06-01T10:38:19Z</time>
      </trkpt>
      <trkpt lat="45.97282" lon="6.29636">
        <ele>1115</ele>
        <time>2014-06-01T10:38:21Z</time>
      </trkpt>
      <trkpt lat="45.97284" lon="6.29637">
        <ele>1115</ele>
        <time>2014-06-01T10:38:24Z</time>
      </trkpt>
      <trkpt lat="45.97284" lon="6.29638">
        <ele>1115</ele>
        <time>2014-06-01T10:38:26Z</time>
      </trkpt>
      <trkpt lat="45.97284" lon="6.29641">
        <ele>1115</ele>
        <time>2014-06-01T10:38:28Z</time>
      </trkpt>
      <trkpt lat="45.97284" lon="6.29644">
        <ele>1115</ele>
        <time>2014-06-01T10:38:30Z</time>
      </trkpt>
      <trkpt lat="45.97284" lon="6.29647">
        <ele>1115</ele>
        <time>2014-06-01T10:38:33Z</time>
      </trkpt>
      <trkpt lat="45.97284" lon="6.29649">
        <ele>1115</ele>
        <time>2014-06-01T10:38:35Z</time>
      </trkpt>
      <trkpt lat="45.97283" lon="6.29651">
        <ele>1115</ele>
        <time>2014-06-01T10:38:37Z</time>
      </trkpt>
      <trkpt lat="45.97282" lon="6.29654">
        <ele>1115</ele>
        <time>2014-06-01T10:38:39Z</time>
      </trkpt>
      <trkpt lat="45.97281" lon="6.29658">
        <ele>1115</ele>
        <time>2014-06-01T10:38:41Z</time>
      </trkpt>
      <trkpt lat="45.97279" lon="6.2966">
        <ele>1115</ele>
        <time>2014-06-01T10:38:44Z</time>
      </trkpt>
      <trkpt lat="45.97279" lon="6.29663">
        <ele>1115</ele>
        <time>2014-06-01T10:38:46Z</time>
      </trkpt>
      <trkpt lat="45.97278" lon="6.29665">
        <ele>1115</ele>
        <time>2014-06-01T10:38:48Z</time>
      </trkpt>
      <trkpt lat="45.97277" lon="6.29669">
        <ele>1115</ele>
        <time>2014-06-01T10:38:50Z</time>
      </trkpt>
      <trkpt lat="45.97276" lon="6.29671">
        <ele>1115</ele>
        <time>2014-06-01T10:38:53Z</time>
      </trkpt>
      <trkpt lat="45.97275" lon="6.29675">
        <ele>1117</ele>
        <time>2014-06-01T10:38:55Z</time>
      </trkpt>
      <trkpt lat="45.97274" lon="6.29678">
        <ele>1118</ele>
        <time>2014-06-01T10:38:57Z</time>
      </trkpt>
      <trkpt lat="45.97273" lon="6.2968">
        <ele>1119</ele>
        <time>2014-06-01T10:38:59Z</time>
      </trkpt>
      <trkpt lat="45.97273" lon="6.29685">
        <ele>1119</ele>
        <time>2014-06-01T10:39:02Z</time>
      </trkpt>
      <trkpt lat="45.97272" lon="6.29689">
        <ele>1120</ele>
        <time>2014-06-01T10:39:04Z</time>
      </trkpt>
      <trkpt lat="45.97271" lon="6.2969">
        <ele>1121</ele>
        <time>2014-06-01T10:39:06Z</time>
      </trkpt>
      <trkpt lat="45.97269" lon="6.29692">
        <ele>1122</ele>
        <time>2014-06-01T10:39:08Z</time>
      </trkpt>
      <trkpt lat="45.97268" lon="6.29696">
        <ele>1123</ele>
        <time>2014-06-01T10:39:10Z</time>
      </trkpt>
      <trkpt lat="45.97267" lon="6.29699">
        <ele>1124</ele>
        <time>2014-06-01T10:39:13Z</time>
      </trkpt>
      <trkpt lat="45.97266" lon="6.29701">
        <ele>1125</ele>
        <time>2014-06-01T10:39:15Z</time>
      </trkpt>
      <trkpt lat="45.97267" lon="6.29703">
        <ele>1126</ele>
        <time>2014-06-01T10:39:17Z</time>
      </trkpt>
      <trkpt lat="45.97268" lon="6.29703">
        <ele>1126</ele>
        <time>2014-06-01T10:39:19Z</time>
      </trkpt>
      <trkpt lat="45.97269" lon="6.29701">
        <ele>1128</ele>
        <time>2014-06-01T10:39:22Z</time>
      </trkpt>
      <trkpt lat="45.97272" lon="6.29701">
        <ele>1130</ele>
        <time>2014-06-01T10:39:24Z</time>
      </trkpt>
      <trkpt lat="45.97274" lon="6.297">
        <ele>1132</ele>
        <time>2014-06-01T10:39:26Z</time>
      </trkpt>
      <trkpt lat="45.97275" lon="6.29698">
        <ele>1134</ele>
        <time>2014-06-01T10:39:28Z</time>
      </trkpt>
      <trkpt lat="45.97277" lon="6.29695">
        <ele>1134</ele>
        <time>2014-06-01T10:39:30Z</time>
      </trkpt>
      <trkpt lat="45.97278" lon="6.29694">
        <ele>1135</ele>
        <time>2014-06-01T10:39:33Z</time>
      </trkpt>
      <trkpt lat="45.97279" lon="6.29692">
        <ele>1135</ele>
        <time>2014-06-01T10:39:35Z</time>
      </trkpt>
      <trkpt lat="45.97279" lon="6.2969">
        <ele>1135</ele>
        <time>2014-06-01T10:39:37Z</time>
      </trkpt>
      <trkpt lat="45.97281" lon="6.29688">
        <ele>1135</ele>
        <time>2014-06-01T10:39:39Z</time>
      </trkpt>
      <trkpt lat="45.97284" lon="6.29686">
        <ele>1135</ele>
        <time>2014-06-01T10:39:42Z</time>
      </trkpt>
      <trkpt lat="45.97286" lon="6.29685">
        <ele>1135</ele>
        <time>2014-06-01T10:39:44Z</time>
      </trkpt>
      <trkpt lat="45.97287" lon="6.29684">
        <ele>1135</ele>
        <time>2014-06-01T10:39:46Z</time>
      </trkpt>
      <trkpt lat="45.97289" lon="6.29684">
        <ele>1134</ele>
        <time>2014-06-01T10:39:48Z</time>
      </trkpt>
      <trkpt lat="45.97288" lon="6.29686">
        <ele>1133</ele>
        <time>2014-06-01T10:39:50Z</time>
      </trkpt>
      <trkpt lat="45.97289" lon="6.29687">
        <ele>1132</ele>
        <time>2014-06-01T10:39:53Z</time>
      </trkpt>
      <trkpt lat="45.97289" lon="6.29688">
        <ele>1131</ele>
        <time>2014-06-01T10:39:55Z</time>
      </trkpt>
      <trkpt lat="45.9729" lon="6.2969">
        <ele>1131</ele>
        <time>2014-06-01T10:39:57Z</time>
      </trkpt>
      <trkpt lat="45.97289" lon="6.29694">
        <ele>1131</ele>
        <time>2014-06-01T10:39:59Z</time>
      </trkpt>
      <trkpt lat="45.97289" lon="6.29696">
        <ele>1131</ele>
        <time>2014-06-01T10:40:02Z</time>
      </trkpt>
      <trkpt lat="45.97289" lon="6.29697">
        <ele>1131</ele>
        <time>2014-06-01T10:40:04Z</time>
      </trkpt>
      <trkpt lat="45.97288" lon="6.29699">
        <ele>1131</ele>
        <time>2014-06-01T10:40:06Z</time>
      </trkpt>
      <trkpt lat="45.97287" lon="6.29701">
        <ele>1131</ele>
        <time>2014-06-01T10:40:08Z</time>
      </trkpt>
      <trkpt lat="45.97286" lon="6.29705">
        <ele>1132</ele>
        <time>2014-06-01T10:40:11Z</time>
      </trkpt>
      <trkpt lat="45.97286" lon="6.29707">
        <ele>1133</ele>
        <time>2014-06-01T10:40:13Z</time>
      </trkpt>
      <trkpt lat="45.97285" lon="6.29709">
        <ele>1134</ele>
        <time>2014-06-01T10:40:15Z</time>
      </trkpt>
      <trkpt lat="45.97285" lon="6.29713">
        <ele>1136</ele>
        <time>2014-06-01T10:40:17Z</time>
      </trkpt>
      <trkpt lat="45.97284" lon="6.29716">
        <ele>1137</ele>
        <time>2014-06-01T10:40:19Z</time>
      </trkpt>
      <trkpt lat="45.97283" lon="6.29719">
        <ele>1139</ele>
        <time>2014-06-01T10:40:22Z</time>
      </trkpt>
      <trkpt lat="45.97282" lon="6.2972">
        <ele>1139</ele>
        <time>2014-06-01T10:40:24Z</time>
      </trkpt>
      <trkpt lat="45.97281" lon="6.29723">
        <ele>1140</ele>
        <time>2014-06-01T10:40:26Z</time>
      </trkpt>
      <trkpt lat="45.97279" lon="6.29725">
        <ele>1140</ele>
        <time>2014-06-01T10:40:28Z</time>
      </trkpt>
      <trkpt lat="45.97277" lon="6.2973">
        <ele>1140</ele>
        <time>2014-06-01T10:40:31Z</time>
      </trkpt>
      <trkpt lat="45.97275" lon="6.29733">
        <ele>1140</ele>
        <time>2014-06-01T10:40:33Z</time>
      </trkpt>
      <trkpt lat="45.97274" lon="6.29737">
        <ele>1140</ele>
        <time>2014-06-01T10:40:35Z</time>
      </trkpt>
      <trkpt lat="45.97273" lon="6.2974">
        <ele>1140</ele>
        <time>2014-06-01T10:40:37Z</time>
      </trkpt>
      <trkpt lat="45.97271" lon="6.29744">
        <ele>1140</ele>
        <time>2014-06-01T10:40:39Z</time>
      </trkpt>
      <trkpt lat="45.9727" lon="6.29747">
        <ele>1140</ele>
        <time>2014-06-01T10:40:42Z</time>
      </trkpt>
      <trkpt lat="45.97269" lon="6.29751">
        <ele>1140</ele>
        <time>2014-06-01T10:40:44Z</time>
      </trkpt>
      <trkpt lat="45.97268" lon="6.29753">
        <ele>1140</ele>
        <time>2014-06-01T10:40:46Z</time>
      </trkpt>
      <trkpt lat="45.97267" lon="6.29757">
        <ele>1141</ele>
        <time>2014-06-01T10:40:48Z</time>
      </trkpt>
      <trkpt lat="45.97266" lon="6.2976">
        <ele>1142</ele>
        <time>2014-06-01T10:40:51Z</time>
      </trkpt>
      <trkpt lat="45.97266" lon="6.29765">
        <ele>1143</ele>
        <time>2014-06-01T10:40:53Z</time>
      </trkpt>
      <trkpt lat="45.97266" lon="6.29768">
        <ele>1143</ele>
        <time>2014-06-01T10:40:55Z</time>
      </trkpt>
      <trkpt lat="45.97266" lon="6.2977">
        <ele>1144</ele>
        <time>2014-06-01T10:40:57Z</time>
      </trkpt>
      <trkpt lat="45.97266" lon="6.29775">
        <ele>1144</ele>
        <time>2014-06-01T10:41:00Z</time>
      </trkpt>
      <trkpt lat="45.97267" lon="6.29777">
        <ele>1145</ele>
        <time>2014-06-01T10:41:02Z</time>
      </trkpt>
      <trkpt lat="45.97267" lon="6.2978">
        <ele>1145</ele>
        <time>2014-06-01T10:41:04Z</time>
      </trkpt>
      <trkpt lat="45.97267" lon="6.29782">
        <ele>1145</ele>
        <time>2014-06-01T10:41:06Z</time>
      </trkpt>
      <trkpt lat="45.97268" lon="6.29786">
        <ele>1146</ele>
        <time>2014-06-01T10:41:08Z</time>
      </trkpt>
      <trkpt lat="45.97269" lon="6.29786">
        <ele>1147</ele>
        <time>2014-06-01T10:41:11Z</time>
      </trkpt>
      <trkpt lat="45.9727" lon="6.29783">
        <ele>1148</ele>
        <time>2014-06-01T10:41:13Z</time>
      </trkpt>
      <trkpt lat="45.9727" lon="6.29783">
        <ele>1150</ele>
        <time>2014-06-01T10:41:15Z</time>
      </trkpt>
      <trkpt lat="45.97271" lon="6.29782">
        <ele>1151</ele>
        <time>2014-06-01T10:41:17Z</time>
      </trkpt>
      <trkpt lat="45.97271" lon="6.29779">
        <ele>1152</ele>
        <time>2014-06-01T10:41:20Z</time>
      </trkpt>
      <trkpt lat="45.97271" lon="6.29777">
        <ele>1153</ele>
        <time>2014-06-01T10:41:22Z</time>
      </trkpt>
      <trkpt lat="45.97272" lon="6.29776">
        <ele>1155</ele>
        <time>2014-06-01T10:41:24Z</time>
      </trkpt>
      <trkpt lat="45.97272" lon="6.29775">
        <ele>1156</ele>
        <time>2014-06-01T10:41:26Z</time>
      </trkpt>
      <trkpt lat="45.97273" lon="6.29772">
        <ele>1158</ele>
        <time>2014-06-01T10:41:28Z</time>
      </trkpt>
      <trkpt lat="45.97274" lon="6.2977">
        <ele>1159</ele>
        <time>2014-06-01T10:41:31Z</time>
      </trkpt>
      <trkpt lat="45.97275" lon="6.29768">
        <ele>1159</ele>
        <time>2014-06-01T10:41:33Z</time>
      </trkpt>
      <trkpt lat="45.97276" lon="6.29766">
        <ele>1159</ele>
        <time>2014-06-01T10:41:35Z</time>
      </trkpt>
      <trkpt lat="45.97276" lon="6.29765">
        <ele>1159</ele>
        <time>2014-06-01T10:41:37Z</time>
      </trkpt>
      <trkpt lat="45.97278" lon="6.29766">
        <ele>1159</ele>
        <time>2014-06-01T10:41:40Z</time>
      </trkpt>
      <trkpt lat="45.97278" lon="6.29767">
        <ele>1160</ele>
        <time>2014-06-01T10:41:42Z</time>
      </trkpt>
      <trkpt lat="45.97277" lon="6.29767">
        <ele>1160</ele>
        <time>2014-06-01T10:41:44Z</time>
      </trkpt>
      <trkpt lat="45.97276" lon="6.29769">
        <ele>1161</ele>
        <time>2014-06-01T10:41:46Z</time>
      </trkpt>
      <trkpt lat="45.97275" lon="6.29773">
        <ele>1161</ele>
        <time>2014-06-01T10:41:48Z</time>
      </trkpt>
      <trkpt lat="45.97275" lon="6.29776">
        <ele>1162</ele>
        <time>2014-06-01T10:41:51Z</time>
      </trkpt>
      <trkpt lat="45.97275" lon="6.29778">
        <ele>1162</ele>
        <time>2014-06-01T10:41:53Z</time>
      </trkpt>
      <trkpt lat="45.97275" lon="6.29781">
        <ele>1162</ele>
        <time>2014-06-01T10:41:55Z</time>
      </trkpt>
      <trkpt lat="45.97274" lon="6.29785">
        <ele>1162</ele>
        <time>2014-06-01T10:41:57Z</time>
      </trkpt>
      <trkpt lat="45.97273" lon="6.2979">
        <ele>1162</ele>
        <time>2014-06-01T10:42:00Z</time>
      </trkpt>
      <trkpt lat="45.97273" lon="6.29794">
        <ele>1162</ele>
        <time>2014-06-01T10:42:02Z</time>
      </trkpt>
      <trkpt lat="45.97273" lon="6.29797">
        <ele>1162</ele>
        <time>2014-06-01T10:42:04Z</time>
      </trkpt>
      <trkpt lat="45.97274" lon="6.29801">
        <ele>1162</ele>
        <time>2014-06-01T10:42:06Z</time>
      </trkpt>
      <trkpt lat="45.97274" lon="6.29807">
        <ele>1162</ele>
        <time>2014-06-01T10:42:08Z</time>
      </trkpt>
      <trkpt lat="45.97275" lon="6.29809">
        <ele>1162</ele>
        <time>2014-06-01T10:42:11Z</time>
      </trkpt>
      <trkpt lat="45.97276" lon="6.29812">
        <ele>1162</ele>
        <time>2014-06-01T10:42:13Z</time>
      </trkpt>
      <trkpt lat="45.97275" lon="6.29816">
        <ele>1162</ele>
        <time>2014-06-01T10:42:15Z</time>
      </trkpt>
      <trkpt lat="45.97275" lon="6.29819">
        <ele>1162</ele>
        <time>2014-06-01T10:42:17Z</time>
      </trkpt>
      <trkpt lat="45.97276" lon="6.29824">
        <ele>1162</ele>
        <time>2014-06-01T10:42:20Z</time>
      </trkpt>
      <trkpt lat="45.97277" lon="6.29826">
        <ele>1162</ele>
        <time>2014-06-01T10:42:22Z</time>
      </trkpt>
      <trkpt lat="45.97278" lon="6.29829">
        <ele>1164</ele>
        <time>2014-06-01T10:42:24Z</time>
      </trkpt>
      <trkpt lat="45.9728" lon="6.2983">
        <ele>1165</ele>
        <time>2014-06-01T10:42:26Z</time>
      </trkpt>
      <trkpt lat="45.97279" lon="6.29834">
        <ele>1167</ele>
        <time>2014-06-01T10:42:28Z</time>
      </trkpt>
      <trkpt lat="45.97279" lon="6.29838">
        <ele>1169</ele>
        <time>2014-06-01T10:42:31Z</time>
      </trkpt>
      <trkpt lat="45.97279" lon="6.29842">
        <ele>1171</ele>
        <time>2014-06-01T10:42:33Z</time>
      </trkpt>
      <trkpt lat="45.97279" lon="6.29845">
        <ele>1171</ele>
        <time>2014-06-01T10:42:35Z</time>
      </trkpt>
      <trkpt lat="45.9728" lon="6.2985">
        <ele>1172</ele>
        <time>2014-06-01T10:42:37Z</time>
      </trkpt>
      <trkpt lat="45.97282" lon="6.29854">
        <ele>1172</ele>
        <time>2014-06-01T10:42:40Z</time>
      </trkpt>
      <trkpt lat="45.97284" lon="6.29856">
        <ele>1172</ele>
        <time>2014-06-01T10:42:42Z</time>
      </trkpt>
      <trkpt lat="45.97285" lon="6.2986">
        <ele>1172</ele>
        <time>2014-06-01T10:42:44Z</time>
      </trkpt>
      <trkpt lat="45.97286" lon="6.29862">
        <ele>1172</ele>
        <time>2014-06-01T10:42:46Z</time>
      </trkpt>
      <trkpt lat="45.97288" lon="6.29866">
        <ele>1172</ele>
        <time>2014-06-01T10:42:49Z</time>
      </trkpt>
      <trkpt lat="45.97289" lon="6.29869">
        <ele>1172</ele>
        <time>2014-06-01T10:42:51Z</time>
      </trkpt>
      <trkpt lat="45.97289" lon="6.29871">
        <ele>1172</ele>
        <time>2014-06-01T10:42:53Z</time>
      </trkpt>
      <trkpt lat="45.97289" lon="6.29874">
        <ele>1172</ele>
        <time>2014-06-01T10:42:55Z</time>
      </trkpt>
      <trkpt lat="45.97291" lon="6.29876">
        <ele>1172</ele>
        <time>2014-06-01T10:42:57Z</time>
      </trkpt>
      <trkpt lat="45.97293" lon="6.29876">
        <ele>1172</ele>
        <time>2014-06-01T10:43:00Z</time>
      </trkpt>
      <trkpt lat="45.97294" lon="6.29876">
        <ele>1172</ele>
        <time>2014-06-01T10:43:02Z</time>
      </trkpt>
      <trkpt lat="45.97295" lon="6.29878">
        <ele>1172</ele>
        <time>2014-06-01T10:43:04Z</time>
      </trkpt>
      <trkpt lat="45.97295" lon="6.2988">
        <ele>1172</ele>
        <time>2014-06-01T10:43:06Z</time>
      </trkpt>
      <trkpt lat="45.97296" lon="6.29884">
        <ele>1172</ele>
        <time>2014-06-01T10:43:09Z</time>
      </trkpt>
      <trkpt lat="45.97295" lon="6.29886">
        <ele>1173</ele>
        <time>2014-06-01T10:43:11Z</time>
      </trkpt>
      <trkpt lat="45.97298" lon="6.29904">
        <ele>1172</ele>
        <time>2014-06-01T10:43:29Z</time>
      </trkpt>
      <trkpt lat="45.97242" lon="6.301">
        <ele>1194</ele>
        <time>2014-06-01T10:48:08Z</time>
      </trkpt>
      <trkpt lat="45.97246" lon="6.30101">
        <ele>1212</ele>
        <time>2014-06-01T10:48:13Z</time>
      </trkpt>
      <trkpt lat="45.97248" lon="6.30104">
        <ele>1224</ele>
        <time>2014-06-01T10:48:15Z</time>
      </trkpt>
      <trkpt lat="45.97249" lon="6.30107">
        <ele>1232</ele>
        <time>2014-06-01T10:48:17Z</time>
      </trkpt>
      <trkpt lat="45.97249" lon="6.30109">
        <ele>1237</ele>
        <time>2014-06-01T10:48:19Z</time>
      </trkpt>
      <trkpt lat="45.97249" lon="6.30113">
        <ele>1241</ele>
        <time>2014-06-01T10:48:22Z</time>
      </trkpt>
      <trkpt lat="45.97249" lon="6.30115">
        <ele>1243</ele>
        <time>2014-06-01T10:48:24Z</time>
      </trkpt>
      <trkpt lat="45.97248" lon="6.30116">
        <ele>1245</ele>
        <time>2014-06-01T10:48:26Z</time>
      </trkpt>
      <trkpt lat="45.97248" lon="6.30117">
        <ele>1247</ele>
        <time>2014-06-01T10:48:28Z</time>
      </trkpt>
      <trkpt lat="45.97248" lon="6.3012">
        <ele>1249</ele>
        <time>2014-06-01T10:48:30Z</time>
      </trkpt>
      <trkpt lat="45.97248" lon="6.30121">
        <ele>1249</ele>
        <time>2014-06-01T10:48:33Z</time>
      </trkpt>
      <trkpt lat="45.97247" lon="6.30124">
        <ele>1249</ele>
        <time>2014-06-01T10:48:35Z</time>
      </trkpt>
      <trkpt lat="45.97247" lon="6.30126">
        <ele>1249</ele>
        <time>2014-06-01T10:48:37Z</time>
      </trkpt>
      <trkpt lat="45.97247" lon="6.30129">
        <ele>1249</ele>
        <time>2014-06-01T10:48:39Z</time>
      </trkpt>
      <trkpt lat="45.97247" lon="6.30131">
        <ele>1249</ele>
        <time>2014-06-01T10:48:42Z</time>
      </trkpt>
      <trkpt lat="45.97248" lon="6.30132">
        <ele>1249</ele>
        <time>2014-06-01T10:48:44Z</time>
      </trkpt>
      <trkpt lat="45.97249" lon="6.30132">
        <ele>1249</ele>
        <time>2014-06-01T10:48:46Z</time>
      </trkpt>
      <trkpt lat="45.9725" lon="6.30132">
        <ele>1249</ele>
        <time>2014-06-01T10:48:48Z</time>
      </trkpt>
      <trkpt lat="45.9725" lon="6.30134">
        <ele>1249</ele>
        <time>2014-06-01T10:48:51Z</time>
      </trkpt>
      <trkpt lat="45.97249" lon="6.30136">
        <ele>1249</ele>
        <time>2014-06-01T10:48:53Z</time>
      </trkpt>
      <trkpt lat="45.97249" lon="6.30137">
        <ele>1249</ele>
        <time>2014-06-01T10:48:55Z</time>
      </trkpt>
      <trkpt lat="45.97249" lon="6.30138">
        <ele>1249</ele>
        <time>2014-06-01T10:48:57Z</time>
      </trkpt>
      <trkpt lat="45.9725" lon="6.30139">
        <ele>1249</ele>
        <time>2014-06-01T10:48:59Z</time>
      </trkpt>
      <trkpt lat="45.9725" lon="6.3014">
        <ele>1249</ele>
        <time>2014-06-01T10:49:02Z</time>
      </trkpt>
      <trkpt lat="45.9725" lon="6.30142">
        <ele>1249</ele>
        <time>2014-06-01T10:49:04Z</time>
      </trkpt>
      <trkpt lat="45.97251" lon="6.30143">
        <ele>1249</ele>
        <time>2014-06-01T10:49:06Z</time>
      </trkpt>
      <trkpt lat="45.97251" lon="6.30144">
        <ele>1249</ele>
        <time>2014-06-01T10:49:08Z</time>
      </trkpt>
      <trkpt lat="45.97251" lon="6.30144">
        <ele>1249</ele>
        <time>2014-06-01T10:49:11Z</time>
      </trkpt>
      <trkpt lat="45.9725" lon="6.30145">
        <ele>1249</ele>
        <time>2014-06-01T10:49:13Z</time>
      </trkpt>
      <trkpt lat="45.9725" lon="6.30147">
        <ele>1250</ele>
        <time>2014-06-01T10:49:15Z</time>
      </trkpt>
      <trkpt lat="45.97251" lon="6.30149">
        <ele>1251</ele>
        <time>2014-06-01T10:49:17Z</time>
      </trkpt>
      <trkpt lat="45.97252" lon="6.30151">
        <ele>1252</ele>
        <time>2014-06-01T10:49:20Z</time>
      </trkpt>
      <trkpt lat="45.97251" lon="6.30153">
        <ele>1253</ele>
        <time>2014-06-01T10:49:22Z</time>
      </trkpt>
      <trkpt lat="45.97251" lon="6.30156">
        <ele>1253</ele>
        <time>2014-06-01T10:49:24Z</time>
      </trkpt>
      <trkpt lat="45.9725" lon="6.30157">
        <ele>1254</ele>
        <time>2014-06-01T10:49:26Z</time>
      </trkpt>
      <trkpt lat="45.97248" lon="6.3016">
        <ele>1256</ele>
        <time>2014-06-01T10:49:28Z</time>
      </trkpt>
      <trkpt lat="45.97247" lon="6.30161">
        <ele>1257</ele>
        <time>2014-06-01T10:49:31Z</time>
      </trkpt>
      <trkpt lat="45.97246" lon="6.30164">
        <ele>1258</ele>
        <time>2014-06-01T10:49:33Z</time>
      </trkpt>
      <trkpt lat="45.97246" lon="6.30166">
        <ele>1258</ele>
        <time>2014-06-01T10:49:35Z</time>
      </trkpt>
      <trkpt lat="45.97246" lon="6.30166">
        <ele>1259</ele>
        <time>2014-06-01T10:49:37Z</time>
      </trkpt>
      <trkpt lat="45.97247" lon="6.30165">
        <ele>1259</ele>
        <time>2014-06-01T10:49:40Z</time>
      </trkpt>
      <trkpt lat="45.9725" lon="6.30165">
        <ele>1259</ele>
        <time>2014-06-01T10:49:42Z</time>
      </trkpt>
      <trkpt lat="45.97251" lon="6.30164">
        <ele>1260</ele>
        <time>2014-06-01T10:49:44Z</time>
      </trkpt>
      <trkpt lat="45.97252" lon="6.30164">
        <ele>1261</ele>
        <time>2014-06-01T10:49:46Z</time>
      </trkpt>
      <trkpt lat="45.97255" lon="6.30164">
        <ele>1262</ele>
        <time>2014-06-01T10:49:48Z</time>
      </trkpt>
      <trkpt lat="45.97256" lon="6.30164">
        <ele>1262</ele>
        <time>2014-06-01T10:49:51Z</time>
      </trkpt>
      <trkpt lat="45.97256" lon="6.30161">
        <ele>1262</ele>
        <time>2014-06-01T10:49:53Z</time>
      </trkpt>
      <trkpt lat="45.97258" lon="6.30159">
        <ele>1262</ele>
        <time>2014-06-01T10:49:55Z</time>
      </trkpt>
      <trkpt lat="45.97259" lon="6.30155">
        <ele>1262</ele>
        <time>2014-06-01T10:49:57Z</time>
      </trkpt>
      <trkpt lat="45.97261" lon="6.30152">
        <ele>1262</ele>
        <time>2014-06-01T10:50:00Z</time>
      </trkpt>
      <trkpt lat="45.97263" lon="6.3015">
        <ele>1262</ele>
        <time>2014-06-01T10:50:02Z</time>
      </trkpt>
      <trkpt lat="45.97265" lon="6.30149">
        <ele>1262</ele>
        <time>2014-06-01T10:50:04Z</time>
      </trkpt>
      <trkpt lat="45.97266" lon="6.30148">
        <ele>1262</ele>
        <time>2014-06-01T10:50:06Z</time>
      </trkpt>
      <trkpt lat="45.97267" lon="6.30141">
        <ele>1262</ele>
        <time>2014-06-01T10:50:09Z</time>
      </trkpt>
      <trkpt lat="45.97268" lon="6.30138">
        <ele>1262</ele>
        <time>2014-06-01T10:50:11Z</time>
      </trkpt>
      <trkpt lat="45.97269" lon="6.30135">
        <ele>1262</ele>
        <time>2014-06-01T10:50:13Z</time>
      </trkpt>
      <trkpt lat="45.9727" lon="6.30132">
        <ele>1263</ele>
        <time>2014-06-01T10:50:15Z</time>
      </trkpt>
      <trkpt lat="45.9727" lon="6.30126">
        <ele>1265</ele>
        <time>2014-06-01T10:50:18Z</time>
      </trkpt>
      <trkpt lat="45.9727" lon="6.30122">
        <ele>1267</ele>
        <time>2014-06-01T10:50:20Z</time>
      </trkpt>
      <trkpt lat="45.9727" lon="6.30118">
        <ele>1269</ele>
        <time>2014-06-01T10:50:22Z</time>
      </trkpt>
      <trkpt lat="45.97269" lon="6.30115">
        <ele>1271</ele>
        <time>2014-06-01T10:50:24Z</time>
      </trkpt>
      <trkpt lat="45.97267" lon="6.30111">
        <ele>1273</ele>
        <time>2014-06-01T10:50:26Z</time>
      </trkpt>
      <trkpt lat="45.97265" lon="6.30109">
        <ele>1275</ele>
        <time>2014-06-01T10:50:29Z</time>
      </trkpt>
      <trkpt lat="45.97264" lon="6.30108">
        <ele>1276</ele>
        <time>2014-06-01T10:50:31Z</time>
      </trkpt>
      <trkpt lat="45.97263" lon="6.30107">
        <ele>1276</ele>
        <time>2014-06-01T10:50:33Z</time>
      </trkpt>
      <trkpt lat="45.97263" lon="6.30107">
        <ele>1276</ele>
        <time>2014-06-01T10:50:35Z</time>
      </trkpt>
      <trkpt lat="45.97263" lon="6.30108">
        <ele>1276</ele>
        <time>2014-06-01T10:50:38Z</time>
      </trkpt>
      <trkpt lat="45.97263" lon="6.30108">
        <ele>1276</ele>
        <time>2014-06-01T10:50:40Z</time>
      </trkpt>
      <trkpt lat="45.97263" lon="6.30109">
        <ele>1276</ele>
        <time>2014-06-01T10:50:42Z</time>
      </trkpt>
      <trkpt lat="45.97263" lon="6.3011">
        <ele>1276</ele>
        <time>2014-06-01T10:50:44Z</time>
      </trkpt>
      <trkpt lat="45.97263" lon="6.3011">
        <ele>1276</ele>
        <time>2014-06-01T10:50:46Z</time>
      </trkpt>
      <trkpt lat="45.97263" lon="6.3011">
        <ele>1276</ele>
        <time>2014-06-01T10:50:49Z</time>
      </trkpt>
      <trkpt lat="45.97263" lon="6.3011">
        <ele>1275</ele>
        <time>2014-06-01T10:50:51Z</time>
      </trkpt>
      <trkpt lat="45.97263" lon="6.3011">
        <ele>1275</ele>
        <time>2014-06-01T10:50:53Z</time>
      </trkpt>
      <trkpt lat="45.97263" lon="6.3011">
        <ele>1275</ele>
        <time>2014-06-01T10:50:55Z</time>
      </trkpt>
      <trkpt lat="45.97264" lon="6.3011">
        <ele>1273</ele>
        <time>2014-06-01T10:50:58Z</time>
      </trkpt>
      <trkpt lat="45.97264" lon="6.3011">
        <ele>1273</ele>
        <time>2014-06-01T10:51:00Z</time>
      </trkpt>
      <trkpt lat="45.97264" lon="6.3011">
        <ele>1273</ele>
        <time>2014-06-01T10:51:02Z</time>
      </trkpt>
      <trkpt lat="45.97264" lon="6.3011">
        <ele>1273</ele>
        <time>2014-06-01T10:51:04Z</time>
      </trkpt>
      <trkpt lat="45.97264" lon="6.3011">
        <ele>1273</ele>
        <time>2014-06-01T10:51:06Z</time>
      </trkpt>
      <trkpt lat="45.97264" lon="6.3011">
        <ele>1273</ele>
        <time>2014-06-01T10:51:09Z</time>
      </trkpt>
      <trkpt lat="45.97264" lon="6.3011">
        <ele>1273</ele>
        <time>2014-06-01T10:51:11Z</time>
      </trkpt>
      <trkpt lat="45.97264" lon="6.3011">
        <ele>1273</ele>
        <time>2014-06-01T10:51:13Z</time>
      </trkpt>
      <trkpt lat="45.97264" lon="6.3011">
        <ele>1273</ele>
        <time>2014-06-01T10:51:15Z</time>
      </trkpt>
      <trkpt lat="45.97264" lon="6.3011">
        <ele>1273</ele>
        <time>2014-06-01T10:51:18Z</time>
      </trkpt>
      <trkpt lat="45.97263" lon="6.3011">
        <ele>1273</ele>
        <time>2014-06-01T10:51:20Z</time>
      </trkpt>
      <trkpt lat="45.97263" lon="6.3011">
        <ele>1273</ele>
        <time>2014-06-01T10:51:22Z</time>
      </trkpt>
      <trkpt lat="45.97263" lon="6.30111">
        <ele>1273</ele>
        <time>2014-06-01T10:51:24Z</time>
      </trkpt>
      <trkpt lat="45.97262" lon="6.30111">
        <ele>1273</ele>
        <time>2014-06-01T10:51:26Z</time>
      </trkpt>
      <trkpt lat="45.97261" lon="6.30111">
        <ele>1274</ele>
        <time>2014-06-01T10:51:29Z</time>
      </trkpt>
      <trkpt lat="45.9726" lon="6.30112">
        <ele>1276</ele>
        <time>2014-06-01T10:51:33Z</time>
      </trkpt>
      <trkpt lat="45.9726" lon="6.30112">
        <ele>1276</ele>
        <time>2014-06-01T10:51:35Z</time>
      </trkpt>
      <trkpt lat="45.9726" lon="6.30111">
        <ele>1276</ele>
        <time>2014-06-01T10:51:38Z</time>
      </trkpt>
      <trkpt lat="45.9726" lon="6.3011">
        <ele>1276</ele>
        <time>2014-06-01T10:51:40Z</time>
      </trkpt>
      <trkpt lat="45.9726" lon="6.30111">
        <ele>1276</ele>
        <time>2014-06-01T10:51:42Z</time>
      </trkpt>
      <trkpt lat="45.9726" lon="6.30111">
        <ele>1276</ele>
        <time>2014-06-01T10:51:44Z</time>
      </trkpt>
      <trkpt lat="45.9726" lon="6.30111">
        <ele>1276</ele>
        <time>2014-06-01T10:51:46Z</time>
      </trkpt>
      <trkpt lat="45.97259" lon="6.30112">
        <ele>1276</ele>
        <time>2014-06-01T10:51:49Z</time>
      </trkpt>
      <trkpt lat="45.97258" lon="6.30113">
        <ele>1276</ele>
        <time>2014-06-01T10:51:51Z</time>
      </trkpt>
      <trkpt lat="45.97257" lon="6.30112">
        <ele>1277</ele>
        <time>2014-06-01T10:51:53Z</time>
      </trkpt>
      <trkpt lat="45.97257" lon="6.30112">
        <ele>1279</ele>
        <time>2014-06-01T10:51:55Z</time>
      </trkpt>
      <trkpt lat="45.97256" lon="6.30113">
        <ele>1280</ele>
        <time>2014-06-01T10:51:58Z</time>
      </trkpt>
      <trkpt lat="45.97256" lon="6.30113">
        <ele>1281</ele>
        <time>2014-06-01T10:52:00Z</time>
      </trkpt>
      <trkpt lat="45.97256" lon="6.30113">
        <ele>1281</ele>
        <time>2014-06-01T10:52:02Z</time>
      </trkpt>
      <trkpt lat="45.97256" lon="6.30112">
        <ele>1282</ele>
        <time>2014-06-01T10:52:04Z</time>
      </trkpt>
      <trkpt lat="45.97256" lon="6.30112">
        <ele>1282</ele>
        <time>2014-06-01T10:52:06Z</time>
      </trkpt>
      <trkpt lat="45.97256" lon="6.30112">
        <ele>1282</ele>
        <time>2014-06-01T10:52:09Z</time>
      </trkpt>
      <trkpt lat="45.97257" lon="6.30112">
        <ele>1283</ele>
        <time>2014-06-01T10:52:11Z</time>
      </trkpt>
      <trkpt lat="45.97257" lon="6.30111">
        <ele>1283</ele>
        <time>2014-06-01T10:52:13Z</time>
      </trkpt>
      <trkpt lat="45.97258" lon="6.30111">
        <ele>1283</ele>
        <time>2014-06-01T10:52:15Z</time>
      </trkpt>
      <trkpt lat="45.97258" lon="6.30111">
        <ele>1283</ele>
        <time>2014-06-01T10:52:18Z</time>
      </trkpt>
      <trkpt lat="45.97259" lon="6.3011">
        <ele>1283</ele>
        <time>2014-06-01T10:52:20Z</time>
      </trkpt>
      <trkpt lat="45.97259" lon="6.3011">
        <ele>1282</ele>
        <time>2014-06-01T10:52:22Z</time>
      </trkpt>
      <trkpt lat="45.97259" lon="6.30111">
        <ele>1280</ele>
        <time>2014-06-01T10:52:24Z</time>
      </trkpt>
      <trkpt lat="45.97259" lon="6.30111">
        <ele>1280</ele>
        <time>2014-06-01T10:52:27Z</time>
      </trkpt>
      <trkpt lat="45.97259" lon="6.30111">
        <ele>1280</ele>
        <time>2014-06-01T10:52:29Z</time>
      </trkpt>
      <trkpt lat="45.97259" lon="6.30111">
        <ele>1280</ele>
        <time>2014-06-01T10:52:31Z</time>
      </trkpt>
      <trkpt lat="45.97259" lon="6.30111">
        <ele>1280</ele>
        <time>2014-06-01T10:52:33Z</time>
      </trkpt>
      <trkpt lat="45.97259" lon="6.30111">
        <ele>1280</ele>
        <time>2014-06-01T10:52:36Z</time>
      </trkpt>
      <trkpt lat="45.97259" lon="6.30111">
        <ele>1280</ele>
        <time>2014-06-01T10:52:38Z</time>
      </trkpt>
      <trkpt lat="45.9726" lon="6.3011">
        <ele>1280</ele>
        <time>2014-06-01T10:52:40Z</time>
      </trkpt>
      <trkpt lat="45.9726" lon="6.3011">
        <ele>1280</ele>
        <time>2014-06-01T10:52:42Z</time>
      </trkpt>
      <trkpt lat="45.9726" lon="6.3011">
        <ele>1280</ele>
        <time>2014-06-01T10:52:44Z</time>
      </trkpt>
      <trkpt lat="45.9726" lon="6.3011">
        <ele>1280</ele>
        <time>2014-06-01T10:52:47Z</time>
      </trkpt>
      <trkpt lat="45.9726" lon="6.30109">
        <ele>1280</ele>
        <time>2014-06-01T10:52:49Z</time>
      </trkpt>
      <trkpt lat="45.9726" lon="6.3011">
        <ele>1280</ele>
        <time>2014-06-01T10:52:51Z</time>
      </trkpt>
      <trkpt lat="45.9726" lon="6.3011">
        <ele>1279</ele>
        <time>2014-06-01T10:52:53Z</time>
      </trkpt>
      <trkpt lat="45.9726" lon="6.3011">
        <ele>1278</ele>
        <time>2014-06-01T10:52:56Z</time>
      </trkpt>
      <trkpt lat="45.97261" lon="6.3011">
        <ele>1277</ele>
        <time>2014-06-01T10:52:58Z</time>
      </trkpt>
      <trkpt lat="45.97261" lon="6.3011">
        <ele>1276</ele>
        <time>2014-06-01T10:53:00Z</time>
      </trkpt>
      <trkpt lat="45.97261" lon="6.3011">
        <ele>1276</ele>
        <time>2014-06-01T10:53:02Z</time>
      </trkpt>
      <trkpt lat="45.97261" lon="6.30109">
        <ele>1276</ele>
        <time>2014-06-01T10:53:04Z</time>
      </trkpt>
      <trkpt lat="45.97261" lon="6.30109">
        <ele>1276</ele>
        <time>2014-06-01T10:53:07Z</time>
      </trkpt>
      <trkpt lat="45.97261" lon="6.30109">
        <ele>1276</ele>
        <time>2014-06-01T10:53:09Z</time>
      </trkpt>
      <trkpt lat="45.97261" lon="6.30109">
        <ele>1276</ele>
        <time>2014-06-01T10:53:11Z</time>
      </trkpt>
      <trkpt lat="45.97261" lon="6.30109">
        <ele>1276</ele>
        <time>2014-06-01T10:53:13Z</time>
      </trkpt>
      <trkpt lat="45.97261" lon="6.30109">
        <ele>1275</ele>
        <time>2014-06-01T10:53:16Z</time>
      </trkpt>
      <trkpt lat="45.97261" lon="6.30109">
        <ele>1275</ele>
        <time>2014-06-01T10:53:18Z</time>
      </trkpt>
      <trkpt lat="45.97261" lon="6.30109">
        <ele>1275</ele>
        <time>2014-06-01T10:53:20Z</time>
      </trkpt>
      <trkpt lat="45.97261" lon="6.30109">
        <ele>1275</ele>
        <time>2014-06-01T10:53:22Z</time>
      </trkpt>
      <trkpt lat="45.97262" lon="6.30109">
        <ele>1275</ele>
        <time>2014-06-01T10:53:24Z</time>
      </trkpt>
      <trkpt lat="45.97262" lon="6.30109">
        <ele>1275</ele>
        <time>2014-06-01T10:53:27Z</time>
      </trkpt>
      <trkpt lat="45.97262" lon="6.30109">
        <ele>1273</ele>
        <time>2014-06-01T10:53:29Z</time>
      </trkpt>
      <trkpt lat="45.97262" lon="6.30109">
        <ele>1273</ele>
        <time>2014-06-01T10:53:31Z</time>
      </trkpt>
      <trkpt lat="45.97262" lon="6.30109">
        <ele>1273</ele>
        <time>2014-06-01T10:53:33Z</time>
      </trkpt>
      <trkpt lat="45.97262" lon="6.3011">
        <ele>1273</ele>
        <time>2014-06-01T10:53:36Z</time>
      </trkpt>
      <trkpt lat="45.97262" lon="6.3011">
        <ele>1273</ele>
        <time>2014-06-01T10:53:38Z</time>
      </trkpt>
      <trkpt lat="45.97262" lon="6.30111">
        <ele>1273</ele>
        <time>2014-06-01T10:53:40Z</time>
      </trkpt>
      <trkpt lat="45.97262" lon="6.30111">
        <ele>1272</ele>
        <time>2014-06-01T10:53:42Z</time>
      </trkpt>
      <trkpt lat="45.97262" lon="6.30111">
        <ele>1272</ele>
        <time>2014-06-01T10:53:44Z</time>
      </trkpt>
      <trkpt lat="45.97262" lon="6.30112">
        <ele>1272</ele>
        <time>2014-06-01T10:53:47Z</time>
      </trkpt>
      <trkpt lat="45.97263" lon="6.30113">
        <ele>1271</ele>
        <time>2014-06-01T10:53:49Z</time>
      </trkpt>
      <trkpt lat="45.97263" lon="6.30113">
        <ele>1271</ele>
        <time>2014-06-01T10:53:51Z</time>
      </trkpt>
      <trkpt lat="45.97263" lon="6.30113">
        <ele>1271</ele>
        <time>2014-06-01T10:53:53Z</time>
      </trkpt>
      <trkpt lat="45.97263" lon="6.30112">
        <ele>1271</ele>
        <time>2014-06-01T10:53:56Z</time>
      </trkpt>
      <trkpt lat="45.97263" lon="6.30112">
        <ele>1271</ele>
        <time>2014-06-01T10:53:58Z</time>
      </trkpt>
      <trkpt lat="45.97263" lon="6.30112">
        <ele>1271</ele>
        <time>2014-06-01T10:54:00Z</time>
      </trkpt>
      <trkpt lat="45.97263" lon="6.30112">
        <ele>1271</ele>
        <time>2014-06-01T10:54:02Z</time>
      </trkpt>
      <trkpt lat="45.97263" lon="6.30111">
        <ele>1271</ele>
        <time>2014-06-01T10:54:04Z</time>
      </trkpt>
      <trkpt lat="45.97263" lon="6.30111">
        <ele>1271</ele>
        <time>2014-06-01T10:54:07Z</time>
      </trkpt>
      <trkpt lat="45.97262" lon="6.30111">
        <ele>1271</ele>
        <time>2014-06-01T10:54:09Z</time>
      </trkpt>
      <trkpt lat="45.97262" lon="6.30111">
        <ele>1271</ele>
        <time>2014-06-01T10:54:11Z</time>
      </trkpt>
      <trkpt lat="45.97262" lon="6.30111">
        <ele>1271</ele>
        <time>2014-06-01T10:54:13Z</time>
      </trkpt>
      <trkpt lat="45.97262" lon="6.3011">
        <ele>1271</ele>
        <time>2014-06-01T10:54:16Z</time>
      </trkpt>
      <trkpt lat="45.97262" lon="6.30111">
        <ele>1271</ele>
        <time>2014-06-01T10:54:18Z</time>
      </trkpt>
      <trkpt lat="45.97264" lon="6.30111">
        <ele>1271</ele>
        <time>2014-06-01T10:54:20Z</time>
      </trkpt>
      <trkpt lat="45.97266" lon="6.30113">
        <ele>1271</ele>
        <time>2014-06-01T10:54:22Z</time>
      </trkpt>
      <trkpt lat="45.97268" lon="6.30114">
        <ele>1271</ele>
        <time>2014-06-01T10:54:24Z</time>
      </trkpt>
      <trkpt lat="45.9727" lon="6.30115">
        <ele>1271</ele>
        <time>2014-06-01T10:54:27Z</time>
      </trkpt>
      <trkpt lat="45.97272" lon="6.30116">
        <ele>1271</ele>
        <time>2014-06-01T10:54:29Z</time>
      </trkpt>
      <trkpt lat="45.97273" lon="6.30115">
        <ele>1271</ele>
        <time>2014-06-01T10:54:31Z</time>
      </trkpt>
      <trkpt lat="45.97273" lon="6.30116">
        <ele>1271</ele>
        <time>2014-06-01T10:54:33Z</time>
      </trkpt>
      <trkpt lat="45.97276" lon="6.30117">
        <ele>1271</ele>
        <time>2014-06-01T10:54:36Z</time>
      </trkpt>
      <trkpt lat="45.97278" lon="6.30117">
        <ele>1272</ele>
        <time>2014-06-01T10:54:38Z</time>
      </trkpt>
      <trkpt lat="45.9728" lon="6.30121">
        <ele>1272</ele>
        <time>2014-06-01T10:54:42Z</time>
      </trkpt>
      <trkpt lat="45.97281" lon="6.30121">
        <ele>1272</ele>
        <time>2014-06-01T10:54:44Z</time>
      </trkpt>
      <trkpt lat="45.97282" lon="6.30123">
        <ele>1272</ele>
        <time>2014-06-01T10:54:47Z</time>
      </trkpt>
      <trkpt lat="45.97283" lon="6.30123">
        <ele>1272</ele>
        <time>2014-06-01T10:54:49Z</time>
      </trkpt>
      <trkpt lat="45.97284" lon="6.30124">
        <ele>1272</ele>
        <time>2014-06-01T10:54:51Z</time>
      </trkpt>
      <trkpt lat="45.97287" lon="6.30125">
        <ele>1272</ele>
        <time>2014-06-01T10:54:53Z</time>
      </trkpt>
      <trkpt lat="45.97288" lon="6.30127">
        <ele>1272</ele>
        <time>2014-06-01T10:54:56Z</time>
      </trkpt>
      <trkpt lat="45.97289" lon="6.30128">
        <ele>1272</ele>
        <time>2014-06-01T10:54:58Z</time>
      </trkpt>
      <trkpt lat="45.9729" lon="6.3013">
        <ele>1272</ele>
        <time>2014-06-01T10:55:00Z</time>
      </trkpt>
      <trkpt lat="45.97291" lon="6.30131">
        <ele>1272</ele>
        <time>2014-06-01T10:55:02Z</time>
      </trkpt>
      <trkpt lat="45.97293" lon="6.30133">
        <ele>1272</ele>
        <time>2014-06-01T10:55:04Z</time>
      </trkpt>
      <trkpt lat="45.97294" lon="6.30135">
        <ele>1272</ele>
        <time>2014-06-01T10:55:07Z</time>
      </trkpt>
      <trkpt lat="45.97295" lon="6.30137">
        <ele>1272</ele>
        <time>2014-06-01T10:55:09Z</time>
      </trkpt>
      <trkpt lat="45.97295" lon="6.30139">
        <ele>1272</ele>
        <time>2014-06-01T10:55:11Z</time>
      </trkpt>
      <trkpt lat="45.97296" lon="6.3014">
        <ele>1272</ele>
        <time>2014-06-01T10:55:13Z</time>
      </trkpt>
      <trkpt lat="45.97297" lon="6.30141">
        <ele>1273</ele>
        <time>2014-06-01T10:55:16Z</time>
      </trkpt>
      <trkpt lat="45.97298" lon="6.30141">
        <ele>1275</ele>
        <time>2014-06-01T10:55:18Z</time>
      </trkpt>
      <trkpt lat="45.97299" lon="6.3014">
        <ele>1277</ele>
        <time>2014-06-01T10:55:20Z</time>
      </trkpt>
      <trkpt lat="45.973" lon="6.30139">
        <ele>1278</ele>
        <time>2014-06-01T10:55:22Z</time>
      </trkpt>
      <trkpt lat="45.973" lon="6.30137">
        <ele>1280</ele>
        <time>2014-06-01T10:55:24Z</time>
      </trkpt>
      <trkpt lat="45.97299" lon="6.30135">
        <ele>1282</ele>
        <time>2014-06-01T10:55:27Z</time>
      </trkpt>
      <trkpt lat="45.97299" lon="6.30132">
        <ele>1284</ele>
        <time>2014-06-01T10:55:29Z</time>
      </trkpt>
      <trkpt lat="45.97296" lon="6.30129">
        <ele>1285</ele>
        <time>2014-06-01T10:55:31Z</time>
      </trkpt>
      <trkpt lat="45.97295" lon="6.30127">
        <ele>1288</ele>
        <time>2014-06-01T10:55:33Z</time>
      </trkpt>
      <trkpt lat="45.97292" lon="6.30124">
        <ele>1290</ele>
        <time>2014-06-01T10:55:36Z</time>
      </trkpt>
      <trkpt lat="45.9729" lon="6.30122">
        <ele>1292</ele>
        <time>2014-06-01T10:55:38Z</time>
      </trkpt>
      <trkpt lat="45.9729" lon="6.30121">
        <ele>1294</ele>
        <time>2014-06-01T10:55:40Z</time>
      </trkpt>
      <trkpt lat="45.97289" lon="6.30119">
        <ele>1296</ele>
        <time>2014-06-01T10:55:42Z</time>
      </trkpt>
      <trkpt lat="45.97289" lon="6.30118">
        <ele>1296</ele>
        <time>2014-06-01T10:55:44Z</time>
      </trkpt>
      <trkpt lat="45.9729" lon="6.30117">
        <ele>1296</ele>
        <time>2014-06-01T10:55:47Z</time>
      </trkpt>
      <trkpt lat="45.9729" lon="6.30116">
        <ele>1296</ele>
        <time>2014-06-01T10:55:49Z</time>
      </trkpt>
      <trkpt lat="45.97291" lon="6.30114">
        <ele>1296</ele>
        <time>2014-06-01T10:55:51Z</time>
      </trkpt>
      <trkpt lat="45.97292" lon="6.30113">
        <ele>1295</ele>
        <time>2014-06-01T10:55:53Z</time>
      </trkpt>
      <trkpt lat="45.97293" lon="6.3011">
        <ele>1293</ele>
        <time>2014-06-01T10:55:56Z</time>
      </trkpt>
      <trkpt lat="45.97295" lon="6.30109">
        <ele>1293</ele>
        <time>2014-06-01T10:55:58Z</time>
      </trkpt>
      <trkpt lat="45.97296" lon="6.30109">
        <ele>1293</ele>
        <time>2014-06-01T10:56:00Z</time>
      </trkpt>
      <trkpt lat="45.97298" lon="6.3011">
        <ele>1293</ele>
        <time>2014-06-01T10:56:02Z</time>
      </trkpt>
      <trkpt lat="45.973" lon="6.30109">
        <ele>1293</ele>
        <time>2014-06-01T10:56:05Z</time>
      </trkpt>
      <trkpt lat="45.97301" lon="6.3011">
        <ele>1293</ele>
        <time>2014-06-01T10:56:07Z</time>
      </trkpt>
      <trkpt lat="45.97302" lon="6.30111">
        <ele>1293</ele>
        <time>2014-06-01T10:56:09Z</time>
      </trkpt>
      <trkpt lat="45.97304" lon="6.30112">
        <ele>1293</ele>
        <time>2014-06-01T10:56:11Z</time>
      </trkpt>
      <trkpt lat="45.97306" lon="6.30113">
        <ele>1293</ele>
        <time>2014-06-01T10:56:13Z</time>
      </trkpt>
      <trkpt lat="45.97307" lon="6.30114">
        <ele>1293</ele>
        <time>2014-06-01T10:56:16Z</time>
      </trkpt>
      <trkpt lat="45.97309" lon="6.30115">
        <ele>1292</ele>
        <time>2014-06-01T10:56:18Z</time>
      </trkpt>
      <trkpt lat="45.97311" lon="6.30116">
        <ele>1291</ele>
        <time>2014-06-01T10:56:20Z</time>
      </trkpt>
      <trkpt lat="45.97313" lon="6.30117">
        <ele>1291</ele>
        <time>2014-06-01T10:56:22Z</time>
      </trkpt>
      <trkpt lat="45.97316" lon="6.30118">
        <ele>1291</ele>
        <time>2014-06-01T10:56:25Z</time>
      </trkpt>
      <trkpt lat="45.97317" lon="6.30119">
        <ele>1291</ele>
        <time>2014-06-01T10:56:27Z</time>
      </trkpt>
      <trkpt lat="45.97319" lon="6.3012">
        <ele>1291</ele>
        <time>2014-06-01T10:56:29Z</time>
      </trkpt>
      <trkpt lat="45.9732" lon="6.3012">
        <ele>1291</ele>
        <time>2014-06-01T10:56:31Z</time>
      </trkpt>
      <trkpt lat="45.97322" lon="6.30121">
        <ele>1291</ele>
        <time>2014-06-01T10:56:34Z</time>
      </trkpt>
      <trkpt lat="45.97324" lon="6.30121">
        <ele>1291</ele>
        <time>2014-06-01T10:56:36Z</time>
      </trkpt>
      <trkpt lat="45.97325" lon="6.30123">
        <ele>1291</ele>
        <time>2014-06-01T10:56:38Z</time>
      </trkpt>
      <trkpt lat="45.97328" lon="6.30124">
        <ele>1291</ele>
        <time>2014-06-01T10:56:40Z</time>
      </trkpt>
      <trkpt lat="45.9733" lon="6.30124">
        <ele>1291</ele>
        <time>2014-06-01T10:56:42Z</time>
      </trkpt>
      <trkpt lat="45.97333" lon="6.30126">
        <ele>1291</ele>
        <time>2014-06-01T10:56:45Z</time>
      </trkpt>
      <trkpt lat="45.97334" lon="6.30127">
        <ele>1291</ele>
        <time>2014-06-01T10:56:47Z</time>
      </trkpt>
      <trkpt lat="45.97337" lon="6.30127">
        <ele>1293</ele>
        <time>2014-06-01T10:56:49Z</time>
      </trkpt>
      <trkpt lat="45.97338" lon="6.30129">
        <ele>1295</ele>
        <time>2014-06-01T10:56:51Z</time>
      </trkpt>
      <trkpt lat="45.97339" lon="6.30131">
        <ele>1297</ele>
        <time>2014-06-01T10:56:54Z</time>
      </trkpt>
      <trkpt lat="45.97341" lon="6.3013">
        <ele>1299</ele>
        <time>2014-06-01T10:56:56Z</time>
      </trkpt>
      <trkpt lat="45.97342" lon="6.30132">
        <ele>1300</ele>
        <time>2014-06-01T10:56:58Z</time>
      </trkpt>
      <trkpt lat="45.97343" lon="6.30134">
        <ele>1301</ele>
        <time>2014-06-01T10:57:00Z</time>
      </trkpt>
      <trkpt lat="45.97344" lon="6.30135">
        <ele>1302</ele>
        <time>2014-06-01T10:57:02Z</time>
      </trkpt>
      <trkpt lat="45.97346" lon="6.30136">
        <ele>1303</ele>
        <time>2014-06-01T10:57:05Z</time>
      </trkpt>
      <trkpt lat="45.97347" lon="6.30138">
        <ele>1304</ele>
        <time>2014-06-01T10:57:07Z</time>
      </trkpt>
      <trkpt lat="45.97348" lon="6.3014">
        <ele>1305</ele>
        <time>2014-06-01T10:57:09Z</time>
      </trkpt>
      <trkpt lat="45.9735" lon="6.30142">
        <ele>1305</ele>
        <time>2014-06-01T10:57:11Z</time>
      </trkpt>
      <trkpt lat="45.97351" lon="6.30144">
        <ele>1305</ele>
        <time>2014-06-01T10:57:14Z</time>
      </trkpt>
      <trkpt lat="45.97353" lon="6.30144">
        <ele>1306</ele>
        <time>2014-06-01T10:57:16Z</time>
      </trkpt>
      <trkpt lat="45.97353" lon="6.30145">
        <ele>1308</ele>
        <time>2014-06-01T10:57:18Z</time>
      </trkpt>
      <trkpt lat="45.97354" lon="6.30146">
        <ele>1310</ele>
        <time>2014-06-01T10:57:20Z</time>
      </trkpt>
      <trkpt lat="45.97356" lon="6.30149">
        <ele>1312</ele>
        <time>2014-06-01T10:57:22Z</time>
      </trkpt>
      <trkpt lat="45.97356" lon="6.30151">
        <ele>1314</ele>
        <time>2014-06-01T10:57:25Z</time>
      </trkpt>
      <trkpt lat="45.97356" lon="6.30152">
        <ele>1316</ele>
        <time>2014-06-01T10:57:27Z</time>
      </trkpt>
      <trkpt lat="45.97356" lon="6.30153">
        <ele>1318</ele>
        <time>2014-06-01T10:57:29Z</time>
      </trkpt>
      <trkpt lat="45.97357" lon="6.30153">
        <ele>1320</ele>
        <time>2014-06-01T10:57:31Z</time>
      </trkpt>
      <trkpt lat="45.97357" lon="6.30152">
        <ele>1322</ele>
        <time>2014-06-01T10:57:34Z</time>
      </trkpt>
      <trkpt lat="45.97356" lon="6.30153">
        <ele>1325</ele>
        <time>2014-06-01T10:57:36Z</time>
      </trkpt>
      <trkpt lat="45.97355" lon="6.30154">
        <ele>1329</ele>
        <time>2014-06-01T10:57:38Z</time>
      </trkpt>
      <trkpt lat="45.97355" lon="6.30157">
        <ele>1333</ele>
        <time>2014-06-01T10:57:40Z</time>
      </trkpt>
      <trkpt lat="45.97356" lon="6.30159">
        <ele>1337</ele>
        <time>2014-06-01T10:57:43Z</time>
      </trkpt>
      <trkpt lat="45.97356" lon="6.30162">
        <ele>1341</ele>
        <time>2014-06-01T10:57:45Z</time>
      </trkpt>
      <trkpt lat="45.97356" lon="6.30164">
        <ele>1343</ele>
        <time>2014-06-01T10:57:47Z</time>
      </trkpt>
      <trkpt lat="45.97356" lon="6.30167">
        <ele>1345</ele>
        <time>2014-06-01T10:57:49Z</time>
      </trkpt>
      <trkpt lat="45.97357" lon="6.30173">
        <ele>1346</ele>
        <time>2014-06-01T10:57:51Z</time>
      </trkpt>
      <trkpt lat="45.97359" lon="6.30177">
        <ele>1346</ele>
        <time>2014-06-01T10:57:54Z</time>
      </trkpt>
      <trkpt lat="45.97361" lon="6.30181">
        <ele>1345</ele>
        <time>2014-06-01T10:57:56Z</time>
      </trkpt>
      <trkpt lat="45.97362" lon="6.30185">
        <ele>1343</ele>
        <time>2014-06-01T10:57:58Z</time>
      </trkpt>
      <trkpt lat="45.97365" lon="6.30189">
        <ele>1341</ele>
        <time>2014-06-01T10:58:00Z</time>
      </trkpt>
      <trkpt lat="45.97368" lon="6.30193">
        <ele>1339</ele>
        <time>2014-06-01T10:58:03Z</time>
      </trkpt>
      <trkpt lat="45.9737" lon="6.30194">
        <ele>1338</ele>
        <time>2014-06-01T10:58:05Z</time>
      </trkpt>
      <trkpt lat="45.97373" lon="6.30195">
        <ele>1336</ele>
        <time>2014-06-01T10:58:07Z</time>
      </trkpt>
      <trkpt lat="45.97374" lon="6.30196">
        <ele>1334</ele>
        <time>2014-06-01T10:58:09Z</time>
      </trkpt>
      <trkpt lat="45.97378" lon="6.30197">
        <ele>1332</ele>
        <time>2014-06-01T10:58:11Z</time>
      </trkpt>
      <trkpt lat="45.9738" lon="6.30198">
        <ele>1330</ele>
        <time>2014-06-01T10:58:14Z</time>
      </trkpt>
      <trkpt lat="45.97382" lon="6.30198">
        <ele>1328</ele>
        <time>2014-06-01T10:58:16Z</time>
      </trkpt>
      <trkpt lat="45.97384" lon="6.30199">
        <ele>1326</ele>
        <time>2014-06-01T10:58:18Z</time>
      </trkpt>
      <trkpt lat="45.97386" lon="6.30202">
        <ele>1324</ele>
        <time>2014-06-01T10:58:20Z</time>
      </trkpt>
      <trkpt lat="45.97388" lon="6.30206">
        <ele>1322</ele>
        <time>2014-06-01T10:58:23Z</time>
      </trkpt>
      <trkpt lat="45.97389" lon="6.30209">
        <ele>1320</ele>
        <time>2014-06-01T10:58:25Z</time>
      </trkpt>
      <trkpt lat="45.97391" lon="6.30211">
        <ele>1319</ele>
        <time>2014-06-01T10:58:27Z</time>
      </trkpt>
      <trkpt lat="45.97393" lon="6.30214">
        <ele>1318</ele>
        <time>2014-06-01T10:58:29Z</time>
      </trkpt>
      <trkpt lat="45.97395" lon="6.30218">
        <ele>1316</ele>
        <time>2014-06-01T10:58:32Z</time>
      </trkpt>
      <trkpt lat="45.97397" lon="6.3022">
        <ele>1316</ele>
        <time>2014-06-01T10:58:34Z</time>
      </trkpt>
      <trkpt lat="45.97399" lon="6.30224">
        <ele>1315</ele>
        <time>2014-06-01T10:58:36Z</time>
      </trkpt>
      <trkpt lat="45.97402" lon="6.30226">
        <ele>1315</ele>
        <time>2014-06-01T10:58:38Z</time>
      </trkpt>
      <trkpt lat="45.97404" lon="6.3023">
        <ele>1315</ele>
        <time>2014-06-01T10:58:40Z</time>
      </trkpt>
      <trkpt lat="45.97405" lon="6.30232">
        <ele>1315</ele>
        <time>2014-06-01T10:58:43Z</time>
      </trkpt>
      <trkpt lat="45.97405" lon="6.30235">
        <ele>1315</ele>
        <time>2014-06-01T10:58:45Z</time>
      </trkpt>
      <trkpt lat="45.97405" lon="6.3024">
        <ele>1315</ele>
        <time>2014-06-01T10:58:47Z</time>
      </trkpt>
      <trkpt lat="45.97406" lon="6.30244">
        <ele>1316</ele>
        <time>2014-06-01T10:58:49Z</time>
      </trkpt>
      <trkpt lat="45.97407" lon="6.30249">
        <ele>1318</ele>
        <time>2014-06-01T10:58:52Z</time>
      </trkpt>
      <trkpt lat="45.97407" lon="6.30254">
        <ele>1320</ele>
        <time>2014-06-01T10:58:54Z</time>
      </trkpt>
      <trkpt lat="45.97408" lon="6.30258">
        <ele>1321</ele>
        <time>2014-06-01T10:58:56Z</time>
      </trkpt>
      <trkpt lat="45.97408" lon="6.30264">
        <ele>1322</ele>
        <time>2014-06-01T10:58:58Z</time>
      </trkpt>
      <trkpt lat="45.97409" lon="6.30271">
        <ele>1323</ele>
        <time>2014-06-01T10:59:00Z</time>
      </trkpt>
      <trkpt lat="45.97411" lon="6.30276">
        <ele>1323</ele>
        <time>2014-06-01T10:59:03Z</time>
      </trkpt>
      <trkpt lat="45.97411" lon="6.30281">
        <ele>1323</ele>
        <time>2014-06-01T10:59:05Z</time>
      </trkpt>
      <trkpt lat="45.97413" lon="6.30286">
        <ele>1323</ele>
        <time>2014-06-01T10:59:07Z</time>
      </trkpt>
      <trkpt lat="45.97416" lon="6.30289">
        <ele>1323</ele>
        <time>2014-06-01T10:59:09Z</time>
      </trkpt>
      <trkpt lat="45.9742" lon="6.30292">
        <ele>1323</ele>
        <time>2014-06-01T10:59:12Z</time>
      </trkpt>
      <trkpt lat="45.97421" lon="6.30297">
        <ele>1323</ele>
        <time>2014-06-01T10:59:14Z</time>
      </trkpt>
      <trkpt lat="45.97423" lon="6.30299">
        <ele>1322</ele>
        <time>2014-06-01T10:59:16Z</time>
      </trkpt>
      <trkpt lat="45.97424" lon="6.30303">
        <ele>1322</ele>
        <time>2014-06-01T10:59:18Z</time>
      </trkpt>
      <trkpt lat="45.97427" lon="6.30311">
        <ele>1321</ele>
        <time>2014-06-01T10:59:20Z</time>
      </trkpt>
      <trkpt lat="45.97429" lon="6.30315">
        <ele>1320</ele>
        <time>2014-06-01T10:59:23Z</time>
      </trkpt>
      <trkpt lat="45.97431" lon="6.30318">
        <ele>1318</ele>
        <time>2014-06-01T10:59:25Z</time>
      </trkpt>
      <trkpt lat="45.97434" lon="6.30321">
        <ele>1318</ele>
        <time>2014-06-01T10:59:27Z</time>
      </trkpt>
      <trkpt lat="45.97438" lon="6.30324">
        <ele>1316</ele>
        <time>2014-06-01T10:59:29Z</time>
      </trkpt>
      <trkpt lat="45.97441" lon="6.30329">
        <ele>1314</ele>
        <time>2014-06-01T10:59:32Z</time>
      </trkpt>
      <trkpt lat="45.97442" lon="6.30332">
        <ele>1312</ele>
        <time>2014-06-01T10:59:34Z</time>
      </trkpt>
      <trkpt lat="45.97444" lon="6.30336">
        <ele>1311</ele>
        <time>2014-06-01T10:59:36Z</time>
      </trkpt>
      <trkpt lat="45.97447" lon="6.30338">
        <ele>1310</ele>
        <time>2014-06-01T10:59:38Z</time>
      </trkpt>
      <trkpt lat="45.97451" lon="6.30342">
        <ele>1309</ele>
        <time>2014-06-01T10:59:41Z</time>
      </trkpt>
      <trkpt lat="45.97453" lon="6.30346">
        <ele>1308</ele>
        <time>2014-06-01T10:59:43Z</time>
      </trkpt>
      <trkpt lat="45.97454" lon="6.30351">
        <ele>1308</ele>
        <time>2014-06-01T10:59:45Z</time>
      </trkpt>
      <trkpt lat="45.97457" lon="6.30355">
        <ele>1308</ele>
        <time>2014-06-01T10:59:47Z</time>
      </trkpt>
      <trkpt lat="45.97458" lon="6.30359">
        <ele>1308</ele>
        <time>2014-06-01T10:59:49Z</time>
      </trkpt>
      <trkpt lat="45.9746" lon="6.30361">
        <ele>1307</ele>
        <time>2014-06-01T10:59:52Z</time>
      </trkpt>
      <trkpt lat="45.97462" lon="6.30363">
        <ele>1306</ele>
        <time>2014-06-01T10:59:54Z</time>
      </trkpt>
      <trkpt lat="45.97464" lon="6.30366">
        <ele>1306</ele>
        <time>2014-06-01T10:59:56Z</time>
      </trkpt>
      <trkpt lat="45.97468" lon="6.30369">
        <ele>1306</ele>
        <time>2014-06-01T10:59:58Z</time>
      </trkpt>
      <trkpt lat="45.9747" lon="6.30371">
        <ele>1306</ele>
        <time>2014-06-01T11:00:01Z</time>
      </trkpt>
      <trkpt lat="45.97472" lon="6.30374">
        <ele>1306</ele>
        <time>2014-06-01T11:00:03Z</time>
      </trkpt>
      <trkpt lat="45.97474" lon="6.30376">
        <ele>1306</ele>
        <time>2014-06-01T11:00:05Z</time>
      </trkpt>
      <trkpt lat="45.97477" lon="6.3038">
        <ele>1306</ele>
        <time>2014-06-01T11:00:07Z</time>
      </trkpt>
      <trkpt lat="45.97479" lon="6.30383">
        <ele>1306</ele>
        <time>2014-06-01T11:00:10Z</time>
      </trkpt>
      <trkpt lat="45.97482" lon="6.30386">
        <ele>1306</ele>
        <time>2014-06-01T11:00:12Z</time>
      </trkpt>
      <trkpt lat="45.97483" lon="6.30389">
        <ele>1306</ele>
        <time>2014-06-01T11:00:14Z</time>
      </trkpt>
      <trkpt lat="45.97485" lon="6.30392">
        <ele>1306</ele>
        <time>2014-06-01T11:00:16Z</time>
      </trkpt>
      <trkpt lat="45.97488" lon="6.30396">
        <ele>1306</ele>
        <time>2014-06-01T11:00:19Z</time>
      </trkpt>
      <trkpt lat="45.9749" lon="6.30399">
        <ele>1308</ele>
        <time>2014-06-01T11:00:21Z</time>
      </trkpt>
      <trkpt lat="45.97493" lon="6.30402">
        <ele>1310</ele>
        <time>2014-06-01T11:00:23Z</time>
      </trkpt>
      <trkpt lat="45.97495" lon="6.30406">
        <ele>1311</ele>
        <time>2014-06-01T11:00:25Z</time>
      </trkpt>
      <trkpt lat="45.97499" lon="6.3041">
        <ele>1312</ele>
        <time>2014-06-01T11:00:27Z</time>
      </trkpt>
      <trkpt lat="45.975" lon="6.30412">
        <ele>1313</ele>
        <time>2014-06-01T11:00:30Z</time>
      </trkpt>
      <trkpt lat="45.97501" lon="6.30415">
        <ele>1314</ele>
        <time>2014-06-01T11:00:32Z</time>
      </trkpt>
      <trkpt lat="45.97501" lon="6.30417">
        <ele>1314</ele>
        <time>2014-06-01T11:00:34Z</time>
      </trkpt>
      <trkpt lat="45.97502" lon="6.3042">
        <ele>1314</ele>
        <time>2014-06-01T11:00:36Z</time>
      </trkpt>
      <trkpt lat="45.97505" lon="6.30424">
        <ele>1315</ele>
        <time>2014-06-01T11:00:39Z</time>
      </trkpt>
      <trkpt lat="45.97508" lon="6.30427">
        <ele>1315</ele>
        <time>2014-06-01T11:00:41Z</time>
      </trkpt>
      <trkpt lat="45.9751" lon="6.3043">
        <ele>1316</ele>
        <time>2014-06-01T11:00:43Z</time>
      </trkpt>
      <trkpt lat="45.97512" lon="6.30431">
        <ele>1316</ele>
        <time>2014-06-01T11:00:45Z</time>
      </trkpt>
      <trkpt lat="45.97514" lon="6.30434">
        <ele>1317</ele>
        <time>2014-06-01T11:00:48Z</time>
      </trkpt>
      <trkpt lat="45.97516" lon="6.30436">
        <ele>1317</ele>
        <time>2014-06-01T11:00:50Z</time>
      </trkpt>
      <trkpt lat="45.97518" lon="6.30438">
        <ele>1318</ele>
        <time>2014-06-01T11:00:52Z</time>
      </trkpt>
      <trkpt lat="45.9752" lon="6.3044">
        <ele>1318</ele>
        <time>2014-06-01T11:00:54Z</time>
      </trkpt>
      <trkpt lat="45.97521" lon="6.30444">
        <ele>1318</ele>
        <time>2014-06-01T11:00:56Z</time>
      </trkpt>
      <trkpt lat="45.97522" lon="6.30449">
        <ele>1319</ele>
        <time>2014-06-01T11:00:59Z</time>
      </trkpt>
      <trkpt lat="45.97524" lon="6.30453">
        <ele>1319</ele>
        <time>2014-06-01T11:01:01Z</time>
      </trkpt>
      <trkpt lat="45.97525" lon="6.30457">
        <ele>1319</ele>
        <time>2014-06-01T11:01:03Z</time>
      </trkpt>
      <trkpt lat="45.97527" lon="6.30461">
        <ele>1319</ele>
        <time>2014-06-01T11:01:05Z</time>
      </trkpt>
      <trkpt lat="45.97529" lon="6.30466">
        <ele>1319</ele>
        <time>2014-06-01T11:01:08Z</time>
      </trkpt>
      <trkpt lat="45.97533" lon="6.30468">
        <ele>1319</ele>
        <time>2014-06-01T11:01:10Z</time>
      </trkpt>
      <trkpt lat="45.97534" lon="6.3047">
        <ele>1319</ele>
        <time>2014-06-01T11:01:12Z</time>
      </trkpt>
      <trkpt lat="45.97536" lon="6.30473">
        <ele>1319</ele>
        <time>2014-06-01T11:01:14Z</time>
      </trkpt>
      <trkpt lat="45.97539" lon="6.30476">
        <ele>1319</ele>
        <time>2014-06-01T11:01:16Z</time>
      </trkpt>
      <trkpt lat="45.97542" lon="6.30479">
        <ele>1319</ele>
        <time>2014-06-01T11:01:19Z</time>
      </trkpt>
      <trkpt lat="45.97544" lon="6.30482">
        <ele>1319</ele>
        <time>2014-06-01T11:01:21Z</time>
      </trkpt>
      <trkpt lat="45.97545" lon="6.30485">
        <ele>1319</ele>
        <time>2014-06-01T11:01:23Z</time>
      </trkpt>
      <trkpt lat="45.97545" lon="6.30488">
        <ele>1319</ele>
        <time>2014-06-01T11:01:25Z</time>
      </trkpt>
      <trkpt lat="45.97546" lon="6.30495">
        <ele>1319</ele>
        <time>2014-06-01T11:01:28Z</time>
      </trkpt>
      <trkpt lat="45.97547" lon="6.30499">
        <ele>1319</ele>
        <time>2014-06-01T11:01:30Z</time>
      </trkpt>
      <trkpt lat="45.97549" lon="6.30503">
        <ele>1319</ele>
        <time>2014-06-01T11:01:32Z</time>
      </trkpt>
      <trkpt lat="45.97549" lon="6.30508">
        <ele>1319</ele>
        <time>2014-06-01T11:01:34Z</time>
      </trkpt>
      <trkpt lat="45.9755" lon="6.30514">
        <ele>1319</ele>
        <time>2014-06-01T11:01:36Z</time>
      </trkpt>
      <trkpt lat="45.97551" lon="6.30518">
        <ele>1319</ele>
        <time>2014-06-01T11:01:39Z</time>
      </trkpt>
      <trkpt lat="45.97552" lon="6.30521">
        <ele>1319</ele>
        <time>2014-06-01T11:01:41Z</time>
      </trkpt>
      <trkpt lat="45.97554" lon="6.30524">
        <ele>1319</ele>
        <time>2014-06-01T11:01:43Z</time>
      </trkpt>
      <trkpt lat="45.97556" lon="6.30527">
        <ele>1319</ele>
        <time>2014-06-01T11:01:45Z</time>
      </trkpt>
      <trkpt lat="45.97558" lon="6.30532">
        <ele>1319</ele>
        <time>2014-06-01T11:01:48Z</time>
      </trkpt>
      <trkpt lat="45.9756" lon="6.30533">
        <ele>1319</ele>
        <time>2014-06-01T11:01:50Z</time>
      </trkpt>
      <trkpt lat="45.97562" lon="6.30537">
        <ele>1319</ele>
        <time>2014-06-01T11:01:52Z</time>
      </trkpt>
      <trkpt lat="45.97564" lon="6.30541">
        <ele>1319</ele>
        <time>2014-06-01T11:01:54Z</time>
      </trkpt>
      <trkpt lat="45.97567" lon="6.30545">
        <ele>1319</ele>
        <time>2014-06-01T11:01:57Z</time>
      </trkpt>
      <trkpt lat="45.97568" lon="6.30547">
        <ele>1319</ele>
        <time>2014-06-01T11:01:59Z</time>
      </trkpt>
      <trkpt lat="45.9757" lon="6.30549">
        <ele>1319</ele>
        <time>2014-06-01T11:02:01Z</time>
      </trkpt>
      <trkpt lat="45.97571" lon="6.30552">
        <ele>1319</ele>
        <time>2014-06-01T11:02:03Z</time>
      </trkpt>
      <trkpt lat="45.97572" lon="6.30555">
        <ele>1319</ele>
        <time>2014-06-01T11:02:05Z</time>
      </trkpt>
      <trkpt lat="45.97574" lon="6.3056">
        <ele>1319</ele>
        <time>2014-06-01T11:02:08Z</time>
      </trkpt>
      <trkpt lat="45.97576" lon="6.30563">
        <ele>1320</ele>
        <time>2014-06-01T11:02:10Z</time>
      </trkpt>
      <trkpt lat="45.97578" lon="6.30565">
        <ele>1322</ele>
        <time>2014-06-01T11:02:12Z</time>
      </trkpt>
      <trkpt lat="45.97579" lon="6.30567">
        <ele>1322</ele>
        <time>2014-06-01T11:02:14Z</time>
      </trkpt>
      <trkpt lat="45.97581" lon="6.30571">
        <ele>1324</ele>
        <time>2014-06-01T11:02:17Z</time>
      </trkpt>
      <trkpt lat="45.97583" lon="6.30574">
        <ele>1326</ele>
        <time>2014-06-01T11:02:19Z</time>
      </trkpt>
      <trkpt lat="45.97585" lon="6.30578">
        <ele>1326</ele>
        <time>2014-06-01T11:02:21Z</time>
      </trkpt>
      <trkpt lat="45.97587" lon="6.3058">
        <ele>1327</ele>
        <time>2014-06-01T11:02:23Z</time>
      </trkpt>
      <trkpt lat="45.9759" lon="6.30584">
        <ele>1328</ele>
        <time>2014-06-01T11:02:25Z</time>
      </trkpt>
      <trkpt lat="45.97591" lon="6.30588">
        <ele>1328</ele>
        <time>2014-06-01T11:02:28Z</time>
      </trkpt>
      <trkpt lat="45.97593" lon="6.30591">
        <ele>1328</ele>
        <time>2014-06-01T11:02:30Z</time>
      </trkpt>
      <trkpt lat="45.97595" lon="6.30594">
        <ele>1328</ele>
        <time>2014-06-01T11:02:32Z</time>
      </trkpt>
      <trkpt lat="45.97598" lon="6.30598">
        <ele>1329</ele>
        <time>2014-06-01T11:02:34Z</time>
      </trkpt>
      <trkpt lat="45.976" lon="6.30603">
        <ele>1329</ele>
        <time>2014-06-01T11:02:37Z</time>
      </trkpt>
      <trkpt lat="45.97603" lon="6.30605">
        <ele>1330</ele>
        <time>2014-06-01T11:02:39Z</time>
      </trkpt>
      <trkpt lat="45.97605" lon="6.30608">
        <ele>1330</ele>
        <time>2014-06-01T11:02:41Z</time>
      </trkpt>
      <trkpt lat="45.97608" lon="6.3061">
        <ele>1330</ele>
        <time>2014-06-01T11:02:43Z</time>
      </trkpt>
      <trkpt lat="45.9761" lon="6.30614">
        <ele>1331</ele>
        <time>2014-06-01T11:02:45Z</time>
      </trkpt>
      <trkpt lat="45.97611" lon="6.30617">
        <ele>1332</ele>
        <time>2014-06-01T11:02:48Z</time>
      </trkpt>
      <trkpt lat="45.97612" lon="6.3062">
        <ele>1333</ele>
        <time>2014-06-01T11:02:50Z</time>
      </trkpt>
      <trkpt lat="45.97614" lon="6.30624">
        <ele>1334</ele>
        <time>2014-06-01T11:02:52Z</time>
      </trkpt>
      <trkpt lat="45.97616" lon="6.30627">
        <ele>1336</ele>
        <time>2014-06-01T11:02:54Z</time>
      </trkpt>
      <trkpt lat="45.9762" lon="6.3063">
        <ele>1337</ele>
        <time>2014-06-01T11:02:57Z</time>
      </trkpt>
      <trkpt lat="45.97622" lon="6.30633">
        <ele>1339</ele>
        <time>2014-06-01T11:02:59Z</time>
      </trkpt>
      <trkpt lat="45.97624" lon="6.30637">
        <ele>1341</ele>
        <time>2014-06-01T11:03:01Z</time>
      </trkpt>
      <trkpt lat="45.97625" lon="6.3064">
        <ele>1343</ele>
        <time>2014-06-01T11:03:03Z</time>
      </trkpt>
      <trkpt lat="45.97629" lon="6.30644">
        <ele>1343</ele>
        <time>2014-06-01T11:03:06Z</time>
      </trkpt>
      <trkpt lat="45.9763" lon="6.30646">
        <ele>1343</ele>
        <time>2014-06-01T11:03:08Z</time>
      </trkpt>
      <trkpt lat="45.97633" lon="6.30649">
        <ele>1343</ele>
        <time>2014-06-01T11:03:10Z</time>
      </trkpt>
      <trkpt lat="45.97634" lon="6.30652">
        <ele>1343</ele>
        <time>2014-06-01T11:03:12Z</time>
      </trkpt>
      <trkpt lat="45.97636" lon="6.30657">
        <ele>1344</ele>
        <time>2014-06-01T11:03:14Z</time>
      </trkpt>
      <trkpt lat="45.97639" lon="6.3066">
        <ele>1345</ele>
        <time>2014-06-01T11:03:17Z</time>
      </trkpt>
      <trkpt lat="45.97641" lon="6.30663">
        <ele>1345</ele>
        <time>2014-06-01T11:03:19Z</time>
      </trkpt>
      <trkpt lat="45.97643" lon="6.30666">
        <ele>1346</ele>
        <time>2014-06-01T11:03:21Z</time>
      </trkpt>
      <trkpt lat="45.97646" lon="6.30669">
        <ele>1347</ele>
        <time>2014-06-01T11:03:23Z</time>
      </trkpt>
      <trkpt lat="45.97651" lon="6.30671">
        <ele>1347</ele>
        <time>2014-06-01T11:03:26Z</time>
      </trkpt>
      <trkpt lat="45.97654" lon="6.30673">
        <ele>1347</ele>
        <time>2014-06-01T11:03:28Z</time>
      </trkpt>
      <trkpt lat="45.97656" lon="6.30675">
        <ele>1348</ele>
        <time>2014-06-01T11:03:30Z</time>
      </trkpt>
      <trkpt lat="45.97658" lon="6.30678">
        <ele>1348</ele>
        <time>2014-06-01T11:03:32Z</time>
      </trkpt>
      <trkpt lat="45.97661" lon="6.30681">
        <ele>1348</ele>
        <time>2014-06-01T11:03:34Z</time>
      </trkpt>
      <trkpt lat="45.97665" lon="6.30683">
        <ele>1349</ele>
        <time>2014-06-01T11:03:37Z</time>
      </trkpt>
      <trkpt lat="45.97667" lon="6.30686">
        <ele>1350</ele>
        <time>2014-06-01T11:03:39Z</time>
      </trkpt>
      <trkpt lat="45.9767" lon="6.30687">
        <ele>1350</ele>
        <time>2014-06-01T11:03:41Z</time>
      </trkpt>
      <trkpt lat="45.97674" lon="6.30688">
        <ele>1352</ele>
        <time>2014-06-01T11:03:43Z</time>
      </trkpt>
      <trkpt lat="45.97679" lon="6.3069">
        <ele>1353</ele>
        <time>2014-06-01T11:03:46Z</time>
      </trkpt>
      <trkpt lat="45.97682" lon="6.30691">
        <ele>1355</ele>
        <time>2014-06-01T11:03:48Z</time>
      </trkpt>
      <trkpt lat="45.97686" lon="6.30692">
        <ele>1356</ele>
        <time>2014-06-01T11:03:50Z</time>
      </trkpt>
      <trkpt lat="45.97688" lon="6.30695">
        <ele>1356</ele>
        <time>2014-06-01T11:03:52Z</time>
      </trkpt>
      <trkpt lat="45.97692" lon="6.30699">
        <ele>1357</ele>
        <time>2014-06-01T11:03:54Z</time>
      </trkpt>
      <trkpt lat="45.97694" lon="6.30702">
        <ele>1357</ele>
        <time>2014-06-01T11:03:57Z</time>
      </trkpt>
      <trkpt lat="45.97696" lon="6.30704">
        <ele>1358</ele>
        <time>2014-06-01T11:03:59Z</time>
      </trkpt>
      <trkpt lat="45.97699" lon="6.30707">
        <ele>1358</ele>
        <time>2014-06-01T11:04:01Z</time>
      </trkpt>
      <trkpt lat="45.97701" lon="6.30709">
        <ele>1358</ele>
        <time>2014-06-01T11:04:03Z</time>
      </trkpt>
      <trkpt lat="45.97704" lon="6.30711">
        <ele>1358</ele>
        <time>2014-06-01T11:04:06Z</time>
      </trkpt>
      <trkpt lat="45.97706" lon="6.30711">
        <ele>1358</ele>
        <time>2014-06-01T11:04:08Z</time>
      </trkpt>
      <trkpt lat="45.97708" lon="6.30708">
        <ele>1358</ele>
        <time>2014-06-01T11:04:10Z</time>
      </trkpt>
      <trkpt lat="45.97711" lon="6.30707">
        <ele>1358</ele>
        <time>2014-06-01T11:04:12Z</time>
      </trkpt>
      <trkpt lat="45.97715" lon="6.30707">
        <ele>1358</ele>
        <time>2014-06-01T11:04:15Z</time>
      </trkpt>
      <trkpt lat="45.97717" lon="6.30708">
        <ele>1358</ele>
        <time>2014-06-01T11:04:17Z</time>
      </trkpt>
      <trkpt lat="45.97719" lon="6.30711">
        <ele>1358</ele>
        <time>2014-06-01T11:04:19Z</time>
      </trkpt>
      <trkpt lat="45.97721" lon="6.30713">
        <ele>1358</ele>
        <time>2014-06-01T11:04:21Z</time>
      </trkpt>
      <trkpt lat="45.97723" lon="6.30715">
        <ele>1358</ele>
        <time>2014-06-01T11:04:23Z</time>
      </trkpt>
      <trkpt lat="45.97727" lon="6.30717">
        <ele>1358</ele>
        <time>2014-06-01T11:04:26Z</time>
      </trkpt>
      <trkpt lat="45.97731" lon="6.30718">
        <ele>1358</ele>
        <time>2014-06-01T11:04:28Z</time>
      </trkpt>
      <trkpt lat="45.97734" lon="6.30721">
        <ele>1358</ele>
        <time>2014-06-01T11:04:30Z</time>
      </trkpt>
      <trkpt lat="45.97736" lon="6.30723">
        <ele>1358</ele>
        <time>2014-06-01T11:04:32Z</time>
      </trkpt>
      <trkpt lat="45.9774" lon="6.30728">
        <ele>1358</ele>
        <time>2014-06-01T11:04:35Z</time>
      </trkpt>
      <trkpt lat="45.97743" lon="6.30731">
        <ele>1358</ele>
        <time>2014-06-01T11:04:37Z</time>
      </trkpt>
      <trkpt lat="45.97746" lon="6.30733">
        <ele>1358</ele>
        <time>2014-06-01T11:04:39Z</time>
      </trkpt>
      <trkpt lat="45.97748" lon="6.30734">
        <ele>1358</ele>
        <time>2014-06-01T11:04:41Z</time>
      </trkpt>
      <trkpt lat="45.97751" lon="6.30736">
        <ele>1358</ele>
        <time>2014-06-01T11:04:43Z</time>
      </trkpt>
      <trkpt lat="45.97753" lon="6.30737">
        <ele>1358</ele>
        <time>2014-06-01T11:04:46Z</time>
      </trkpt>
      <trkpt lat="45.97756" lon="6.30738">
        <ele>1359</ele>
        <time>2014-06-01T11:04:48Z</time>
      </trkpt>
      <trkpt lat="45.97758" lon="6.30741">
        <ele>1359</ele>
        <time>2014-06-01T11:04:50Z</time>
      </trkpt>
      <trkpt lat="45.9776" lon="6.30741">
        <ele>1360</ele>
        <time>2014-06-01T11:04:52Z</time>
      </trkpt>
      <trkpt lat="45.97764" lon="6.30744">
        <ele>1361</ele>
        <time>2014-06-01T11:04:55Z</time>
      </trkpt>
      <trkpt lat="45.97767" lon="6.30744">
        <ele>1362</ele>
        <time>2014-06-01T11:04:57Z</time>
      </trkpt>
      <trkpt lat="45.97768" lon="6.30745">
        <ele>1363</ele>
        <time>2014-06-01T11:04:59Z</time>
      </trkpt>
      <trkpt lat="45.97769" lon="6.30745">
        <ele>1364</ele>
        <time>2014-06-01T11:05:01Z</time>
      </trkpt>
      <trkpt lat="45.97771" lon="6.30748">
        <ele>1365</ele>
        <time>2014-06-01T11:05:04Z</time>
      </trkpt>
      <trkpt lat="45.97772" lon="6.30749">
        <ele>1366</ele>
        <time>2014-06-01T11:05:06Z</time>
      </trkpt>
      <trkpt lat="45.97773" lon="6.3075">
        <ele>1367</ele>
        <time>2014-06-01T11:05:08Z</time>
      </trkpt>
      <trkpt lat="45.97775" lon="6.30753">
        <ele>1368</ele>
        <time>2014-06-01T11:05:10Z</time>
      </trkpt>
      <trkpt lat="45.97777" lon="6.30755">
        <ele>1369</ele>
        <time>2014-06-01T11:05:12Z</time>
      </trkpt>
      <trkpt lat="45.97778" lon="6.30758">
        <ele>1369</ele>
        <time>2014-06-01T11:05:15Z</time>
      </trkpt>
      <trkpt lat="45.97779" lon="6.30762">
        <ele>1369</ele>
        <time>2014-06-01T11:05:17Z</time>
      </trkpt>
      <trkpt lat="45.9778" lon="6.30764">
        <ele>1369</ele>
        <time>2014-06-01T11:05:19Z</time>
      </trkpt>
      <trkpt lat="45.97781" lon="6.30767">
        <ele>1369</ele>
        <time>2014-06-01T11:05:21Z</time>
      </trkpt>
      <trkpt lat="45.97782" lon="6.30773">
        <ele>1369</ele>
        <time>2014-06-01T11:05:24Z</time>
      </trkpt>
      <trkpt lat="45.97784" lon="6.30775">
        <ele>1369</ele>
        <time>2014-06-01T11:05:26Z</time>
      </trkpt>
      <trkpt lat="45.97785" lon="6.3078">
        <ele>1369</ele>
        <time>2014-06-01T11:05:28Z</time>
      </trkpt>
      <trkpt lat="45.97786" lon="6.30784">
        <ele>1369</ele>
        <time>2014-06-01T11:05:30Z</time>
      </trkpt>
      <trkpt lat="45.97789" lon="6.30787">
        <ele>1369</ele>
        <time>2014-06-01T11:05:32Z</time>
      </trkpt>
      <trkpt lat="45.97791" lon="6.30789">
        <ele>1369</ele>
        <time>2014-06-01T11:05:35Z</time>
      </trkpt>
      <trkpt lat="45.97792" lon="6.30793">
        <ele>1368</ele>
        <time>2014-06-01T11:05:37Z</time>
      </trkpt>
      <trkpt lat="45.97792" lon="6.30796">
        <ele>1368</ele>
        <time>2014-06-01T11:05:39Z</time>
      </trkpt>
      <trkpt lat="45.97795" lon="6.30798">
        <ele>1368</ele>
        <time>2014-06-01T11:05:41Z</time>
      </trkpt>
      <trkpt lat="45.978" lon="6.30798">
        <ele>1368</ele>
        <time>2014-06-01T11:05:44Z</time>
      </trkpt>
      <trkpt lat="45.97803" lon="6.30798">
        <ele>1368</ele>
        <time>2014-06-01T11:05:46Z</time>
      </trkpt>
      <trkpt lat="45.97804" lon="6.30801">
        <ele>1368</ele>
        <time>2014-06-01T11:05:48Z</time>
      </trkpt>
      <trkpt lat="45.97805" lon="6.30804">
        <ele>1368</ele>
        <time>2014-06-01T11:05:50Z</time>
      </trkpt>
      <trkpt lat="45.97809" lon="6.30809">
        <ele>1368</ele>
        <time>2014-06-01T11:05:53Z</time>
      </trkpt>
      <trkpt lat="45.97811" lon="6.30812">
        <ele>1368</ele>
        <time>2014-06-01T11:05:55Z</time>
      </trkpt>
      <trkpt lat="45.97813" lon="6.30815">
        <ele>1368</ele>
        <time>2014-06-01T11:05:57Z</time>
      </trkpt>
      <trkpt lat="45.97815" lon="6.30819">
        <ele>1368</ele>
        <time>2014-06-01T11:05:59Z</time>
      </trkpt>
      <trkpt lat="45.97818" lon="6.30824">
        <ele>1368</ele>
        <time>2014-06-01T11:06:01Z</time>
      </trkpt>
      <trkpt lat="45.9782" lon="6.30827">
        <ele>1368</ele>
        <time>2014-06-01T11:06:04Z</time>
      </trkpt>
      <trkpt lat="45.97822" lon="6.3083">
        <ele>1368</ele>
        <time>2014-06-01T11:06:06Z</time>
      </trkpt>
      <trkpt lat="45.97824" lon="6.30834">
        <ele>1368</ele>
        <time>2014-06-01T11:06:08Z</time>
      </trkpt>
      <trkpt lat="45.97826" lon="6.30838">
        <ele>1368</ele>
        <time>2014-06-01T11:06:10Z</time>
      </trkpt>
      <trkpt lat="45.97827" lon="6.30843">
        <ele>1368</ele>
        <time>2014-06-01T11:06:13Z</time>
      </trkpt>
      <trkpt lat="45.9783" lon="6.30847">
        <ele>1368</ele>
        <time>2014-06-01T11:06:15Z</time>
      </trkpt>
      <trkpt lat="45.97832" lon="6.3085">
        <ele>1368</ele>
        <time>2014-06-01T11:06:17Z</time>
      </trkpt>
      <trkpt lat="45.97835" lon="6.30854">
        <ele>1368</ele>
        <time>2014-06-01T11:06:19Z</time>
      </trkpt>
      <trkpt lat="45.97838" lon="6.30859">
        <ele>1368</ele>
        <time>2014-06-01T11:06:21Z</time>
      </trkpt>
      <trkpt lat="45.97841" lon="6.30863">
        <ele>1368</ele>
        <time>2014-06-01T11:06:24Z</time>
      </trkpt>
      <trkpt lat="45.97843" lon="6.30867">
        <ele>1368</ele>
        <time>2014-06-01T11:06:26Z</time>
      </trkpt>
      <trkpt lat="45.97845" lon="6.30871">
        <ele>1368</ele>
        <time>2014-06-01T11:06:28Z</time>
      </trkpt>
      <trkpt lat="45.97846" lon="6.30875">
        <ele>1368</ele>
        <time>2014-06-01T11:06:30Z</time>
      </trkpt>
      <trkpt lat="45.97849" lon="6.3088">
        <ele>1368</ele>
        <time>2014-06-01T11:06:33Z</time>
      </trkpt>
      <trkpt lat="45.97851" lon="6.30883">
        <ele>1368</ele>
        <time>2014-06-01T11:06:35Z</time>
      </trkpt>
      <trkpt lat="45.97854" lon="6.30886">
        <ele>1368</ele>
        <time>2014-06-01T11:06:37Z</time>
      </trkpt>
      <trkpt lat="45.97856" lon="6.30889">
        <ele>1368</ele>
        <time>2014-06-01T11:06:39Z</time>
      </trkpt>
      <trkpt lat="45.97859" lon="6.30894">
        <ele>1368</ele>
        <time>2014-06-01T11:06:42Z</time>
      </trkpt>
      <trkpt lat="45.97861" lon="6.30898">
        <ele>1368</ele>
        <time>2014-06-01T11:06:44Z</time>
      </trkpt>
      <trkpt lat="45.97862" lon="6.30901">
        <ele>1368</ele>
        <time>2014-06-01T11:06:46Z</time>
      </trkpt>
      <trkpt lat="45.97864" lon="6.30904">
        <ele>1368</ele>
        <time>2014-06-01T11:06:48Z</time>
      </trkpt>
      <trkpt lat="45.97867" lon="6.30908">
        <ele>1368</ele>
        <time>2014-06-01T11:06:50Z</time>
      </trkpt>
      <trkpt lat="45.97868" lon="6.30911">
        <ele>1368</ele>
        <time>2014-06-01T11:06:53Z</time>
      </trkpt>
      <trkpt lat="45.97869" lon="6.30915">
        <ele>1368</ele>
        <time>2014-06-01T11:06:55Z</time>
      </trkpt>
      <trkpt lat="45.97872" lon="6.30918">
        <ele>1368</ele>
        <time>2014-06-01T11:06:57Z</time>
      </trkpt>
      <trkpt lat="45.97874" lon="6.30922">
        <ele>1368</ele>
        <time>2014-06-01T11:06:59Z</time>
      </trkpt>
      <trkpt lat="45.97877" lon="6.30926">
        <ele>1368</ele>
        <time>2014-06-01T11:07:02Z</time>
      </trkpt>
      <trkpt lat="45.97879" lon="6.3093">
        <ele>1368</ele>
        <time>2014-06-01T11:07:04Z</time>
      </trkpt>
      <trkpt lat="45.97882" lon="6.30933">
        <ele>1368</ele>
        <time>2014-06-01T11:07:06Z</time>
      </trkpt>
      <trkpt lat="45.97884" lon="6.30936">
        <ele>1368</ele>
        <time>2014-06-01T11:07:08Z</time>
      </trkpt>
      <trkpt lat="45.97887" lon="6.3094">
        <ele>1368</ele>
        <time>2014-06-01T11:07:10Z</time>
      </trkpt>
      <trkpt lat="45.97889" lon="6.30943">
        <ele>1368</ele>
        <time>2014-06-01T11:07:13Z</time>
      </trkpt>
      <trkpt lat="45.9789" lon="6.30946">
        <ele>1368</ele>
        <time>2014-06-01T11:07:15Z</time>
      </trkpt>
      <trkpt lat="45.97892" lon="6.30949">
        <ele>1368</ele>
        <time>2014-06-01T11:07:17Z</time>
      </trkpt>
      <trkpt lat="45.97894" lon="6.30952">
        <ele>1368</ele>
        <time>2014-06-01T11:07:19Z</time>
      </trkpt>
      <trkpt lat="45.97897" lon="6.30955">
        <ele>1368</ele>
        <time>2014-06-01T11:07:22Z</time>
      </trkpt>
      <trkpt lat="45.97899" lon="6.30958">
        <ele>1368</ele>
        <time>2014-06-01T11:07:24Z</time>
      </trkpt>
      <trkpt lat="45.97901" lon="6.3096">
        <ele>1368</ele>
        <time>2014-06-01T11:07:26Z</time>
      </trkpt>
      <trkpt lat="45.97902" lon="6.30963">
        <ele>1368</ele>
        <time>2014-06-01T11:07:28Z</time>
      </trkpt>
      <trkpt lat="45.97905" lon="6.30967">
        <ele>1368</ele>
        <time>2014-06-01T11:07:31Z</time>
      </trkpt>
      <trkpt lat="45.97906" lon="6.3097">
        <ele>1368</ele>
        <time>2014-06-01T11:07:33Z</time>
      </trkpt>
      <trkpt lat="45.97908" lon="6.30972">
        <ele>1368</ele>
        <time>2014-06-01T11:07:35Z</time>
      </trkpt>
      <trkpt lat="45.9791" lon="6.30974">
        <ele>1368</ele>
        <time>2014-06-01T11:07:37Z</time>
      </trkpt>
      <trkpt lat="45.97913" lon="6.30979">
        <ele>1368</ele>
        <time>2014-06-01T11:07:40Z</time>
      </trkpt>
      <trkpt lat="45.97914" lon="6.30983">
        <ele>1368</ele>
        <time>2014-06-01T11:07:42Z</time>
      </trkpt>
      <trkpt lat="45.97916" lon="6.30989">
        <ele>1368</ele>
        <time>2014-06-01T11:07:44Z</time>
      </trkpt>
      <trkpt lat="45.97918" lon="6.30994">
        <ele>1368</ele>
        <time>2014-06-01T11:07:46Z</time>
      </trkpt>
      <trkpt lat="45.97919" lon="6.31002">
        <ele>1367</ele>
        <time>2014-06-01T11:07:48Z</time>
      </trkpt>
      <trkpt lat="45.97919" lon="6.31005">
        <ele>1365</ele>
        <time>2014-06-01T11:07:51Z</time>
      </trkpt>
      <trkpt lat="45.97916" lon="6.3101">
        <ele>1365</ele>
        <time>2014-06-01T11:07:53Z</time>
      </trkpt>
      <trkpt lat="45.97917" lon="6.31014">
        <ele>1364</ele>
        <time>2014-06-01T11:07:55Z</time>
      </trkpt>
      <trkpt lat="45.97916" lon="6.3102">
        <ele>1363</ele>
        <time>2014-06-01T11:07:57Z</time>
      </trkpt>
      <trkpt lat="45.97917" lon="6.31027">
        <ele>1363</ele>
        <time>2014-06-01T11:08:00Z</time>
      </trkpt>
      <trkpt lat="45.97917" lon="6.31032">
        <ele>1361</ele>
        <time>2014-06-01T11:08:02Z</time>
      </trkpt>
      <trkpt lat="45.97917" lon="6.31037">
        <ele>1360</ele>
        <time>2014-06-01T11:08:04Z</time>
      </trkpt>
      <trkpt lat="45.97918" lon="6.31042">
        <ele>1359</ele>
        <time>2014-06-01T11:08:06Z</time>
      </trkpt>
      <trkpt lat="45.97921" lon="6.31047">
        <ele>1358</ele>
        <time>2014-06-01T11:08:08Z</time>
      </trkpt>
      <trkpt lat="45.97924" lon="6.31051">
        <ele>1356</ele>
        <time>2014-06-01T11:08:11Z</time>
      </trkpt>
      <trkpt lat="45.97925" lon="6.31055">
        <ele>1354</ele>
        <time>2014-06-01T11:08:13Z</time>
      </trkpt>
      <trkpt lat="45.97926" lon="6.31059">
        <ele>1353</ele>
        <time>2014-06-01T11:08:15Z</time>
      </trkpt>
      <trkpt lat="45.97927" lon="6.31063">
        <ele>1352</ele>
        <time>2014-06-01T11:08:17Z</time>
      </trkpt>
      <trkpt lat="45.9793" lon="6.3107">
        <ele>1351</ele>
        <time>2014-06-01T11:08:20Z</time>
      </trkpt>
      <trkpt lat="45.97931" lon="6.31073">
        <ele>1350</ele>
        <time>2014-06-01T11:08:22Z</time>
      </trkpt>
      <trkpt lat="45.97932" lon="6.31077">
        <ele>1348</ele>
        <time>2014-06-01T11:08:24Z</time>
      </trkpt>
      <trkpt lat="45.97934" lon="6.31081">
        <ele>1348</ele>
        <time>2014-06-01T11:08:26Z</time>
      </trkpt>
      <trkpt lat="45.97934" lon="6.31087">
        <ele>1347</ele>
        <time>2014-06-01T11:08:28Z</time>
      </trkpt>
      <trkpt lat="45.97934" lon="6.3109">
        <ele>1347</ele>
        <time>2014-06-01T11:08:31Z</time>
      </trkpt>
      <trkpt lat="45.97934" lon="6.31093">
        <ele>1347</ele>
        <time>2014-06-01T11:08:33Z</time>
      </trkpt>
      <trkpt lat="45.97935" lon="6.31097">
        <ele>1346</ele>
        <time>2014-06-01T11:08:35Z</time>
      </trkpt>
      <trkpt lat="45.97936" lon="6.311">
        <ele>1346</ele>
        <time>2014-06-01T11:08:37Z</time>
      </trkpt>
      <trkpt lat="45.97938" lon="6.31105">
        <ele>1346</ele>
        <time>2014-06-01T11:08:40Z</time>
      </trkpt>
      <trkpt lat="45.97939" lon="6.31109">
        <ele>1345</ele>
        <time>2014-06-01T11:08:42Z</time>
      </trkpt>
      <trkpt lat="45.9794" lon="6.31113">
        <ele>1344</ele>
        <time>2014-06-01T11:08:44Z</time>
      </trkpt>
      <trkpt lat="45.97941" lon="6.31116">
        <ele>1343</ele>
        <time>2014-06-01T11:08:46Z</time>
      </trkpt>
      <trkpt lat="45.97942" lon="6.31121">
        <ele>1342</ele>
        <time>2014-06-01T11:08:49Z</time>
      </trkpt>
      <trkpt lat="45.97944" lon="6.31126">
        <ele>1340</ele>
        <time>2014-06-01T11:08:51Z</time>
      </trkpt>
      <trkpt lat="45.97945" lon="6.31132">
        <ele>1338</ele>
        <time>2014-06-01T11:08:53Z</time>
      </trkpt>
      <trkpt lat="45.97945" lon="6.31139">
        <ele>1337</ele>
        <time>2014-06-01T11:08:55Z</time>
      </trkpt>
      <trkpt lat="45.97945" lon="6.31142">
        <ele>1337</ele>
        <time>2014-06-01T11:08:57Z</time>
      </trkpt>
      <trkpt lat="45.97945" lon="6.31148">
        <ele>1337</ele>
        <time>2014-06-01T11:09:00Z</time>
      </trkpt>
      <trkpt lat="45.97945" lon="6.31152">
        <ele>1337</ele>
        <time>2014-06-01T11:09:02Z</time>
      </trkpt>
      <trkpt lat="45.97945" lon="6.31155">
        <ele>1337</ele>
        <time>2014-06-01T11:09:04Z</time>
      </trkpt>
      <trkpt lat="45.97944" lon="6.3116">
        <ele>1337</ele>
        <time>2014-06-01T11:09:06Z</time>
      </trkpt>
      <trkpt lat="45.97944" lon="6.31169">
        <ele>1337</ele>
        <time>2014-06-01T11:09:09Z</time>
      </trkpt>
      <trkpt lat="45.97944" lon="6.31173">
        <ele>1337</ele>
        <time>2014-06-01T11:09:11Z</time>
      </trkpt>
      <trkpt lat="45.97943" lon="6.31177">
        <ele>1337</ele>
        <time>2014-06-01T11:09:13Z</time>
      </trkpt>
      <trkpt lat="45.97943" lon="6.31182">
        <ele>1337</ele>
        <time>2014-06-01T11:09:15Z</time>
      </trkpt>
      <trkpt lat="45.97943" lon="6.31187">
        <ele>1337</ele>
        <time>2014-06-01T11:09:17Z</time>
      </trkpt>
      <trkpt lat="45.97943" lon="6.31194">
        <ele>1337</ele>
        <time>2014-06-01T11:09:20Z</time>
      </trkpt>
      <trkpt lat="45.97943" lon="6.31197">
        <ele>1337</ele>
        <time>2014-06-01T11:09:22Z</time>
      </trkpt>
      <trkpt lat="45.97943" lon="6.31202">
        <ele>1337</ele>
        <time>2014-06-01T11:09:24Z</time>
      </trkpt>
      <trkpt lat="45.97943" lon="6.31206">
        <ele>1337</ele>
        <time>2014-06-01T11:09:26Z</time>
      </trkpt>
      <trkpt lat="45.97944" lon="6.31213">
        <ele>1337</ele>
        <time>2014-06-01T11:09:29Z</time>
      </trkpt>
      <trkpt lat="45.97943" lon="6.31217">
        <ele>1337</ele>
        <time>2014-06-01T11:09:31Z</time>
      </trkpt>
      <trkpt lat="45.97943" lon="6.31222">
        <ele>1337</ele>
        <time>2014-06-01T11:09:33Z</time>
      </trkpt>
      <trkpt lat="45.97944" lon="6.31227">
        <ele>1337</ele>
        <time>2014-06-01T11:09:35Z</time>
      </trkpt>
      <trkpt lat="45.97945" lon="6.31233">
        <ele>1337</ele>
        <time>2014-06-01T11:09:37Z</time>
      </trkpt>
      <trkpt lat="45.97944" lon="6.3124">
        <ele>1336</ele>
        <time>2014-06-01T11:09:40Z</time>
      </trkpt>
      <trkpt lat="45.97943" lon="6.31245">
        <ele>1335</ele>
        <time>2014-06-01T11:09:42Z</time>
      </trkpt>
      <trkpt lat="45.97943" lon="6.31249">
        <ele>1335</ele>
        <time>2014-06-01T11:09:44Z</time>
      </trkpt>
      <trkpt lat="45.97942" lon="6.31253">
        <ele>1335</ele>
        <time>2014-06-01T11:09:46Z</time>
      </trkpt>
      <trkpt lat="45.97942" lon="6.31259">
        <ele>1335</ele>
        <time>2014-06-01T11:09:49Z</time>
      </trkpt>
      <trkpt lat="45.97942" lon="6.31263">
        <ele>1335</ele>
        <time>2014-06-01T11:09:51Z</time>
      </trkpt>
      <trkpt lat="45.97942" lon="6.31268">
        <ele>1335</ele>
        <time>2014-06-01T11:09:53Z</time>
      </trkpt>
      <trkpt lat="45.97942" lon="6.31273">
        <ele>1335</ele>
        <time>2014-06-01T11:09:55Z</time>
      </trkpt>
      <trkpt lat="45.97943" lon="6.31279">
        <ele>1335</ele>
        <time>2014-06-01T11:09:57Z</time>
      </trkpt>
      <trkpt lat="45.97943" lon="6.31282">
        <ele>1335</ele>
        <time>2014-06-01T11:10:00Z</time>
      </trkpt>
      <trkpt lat="45.97943" lon="6.31287">
        <ele>1335</ele>
        <time>2014-06-01T11:10:02Z</time>
      </trkpt>
      <trkpt lat="45.97944" lon="6.31291">
        <ele>1335</ele>
        <time>2014-06-01T11:10:04Z</time>
      </trkpt>
      <trkpt lat="45.97944" lon="6.31295">
        <ele>1335</ele>
        <time>2014-06-01T11:10:06Z</time>
      </trkpt>
      <trkpt lat="45.97945" lon="6.31301">
        <ele>1334</ele>
        <time>2014-06-01T11:10:09Z</time>
      </trkpt>
      <trkpt lat="45.97946" lon="6.31305">
        <ele>1333</ele>
        <time>2014-06-01T11:10:11Z</time>
      </trkpt>
      <trkpt lat="45.97947" lon="6.31309">
        <ele>1333</ele>
        <time>2014-06-01T11:10:13Z</time>
      </trkpt>
      <trkpt lat="45.97947" lon="6.31313">
        <ele>1333</ele>
        <time>2014-06-01T11:10:15Z</time>
      </trkpt>
      <trkpt lat="45.9795" lon="6.31318">
        <ele>1333</ele>
        <time>2014-06-01T11:10:18Z</time>
      </trkpt>
      <trkpt lat="45.97951" lon="6.31321">
        <ele>1333</ele>
        <time>2014-06-01T11:10:20Z</time>
      </trkpt>
      <trkpt lat="45.97953" lon="6.31325">
        <ele>1333</ele>
        <time>2014-06-01T11:10:22Z</time>
      </trkpt>
      <trkpt lat="45.97954" lon="6.31329">
        <ele>1333</ele>
        <time>2014-06-01T11:10:24Z</time>
      </trkpt>
      <trkpt lat="45.97956" lon="6.31332">
        <ele>1333</ele>
        <time>2014-06-01T11:10:26Z</time>
      </trkpt>
      <trkpt lat="45.97958" lon="6.31337">
        <ele>1333</ele>
        <time>2014-06-01T11:10:29Z</time>
      </trkpt>
      <trkpt lat="45.9796" lon="6.31342">
        <ele>1333</ele>
        <time>2014-06-01T11:10:31Z</time>
      </trkpt>
      <trkpt lat="45.97961" lon="6.31345">
        <ele>1333</ele>
        <time>2014-06-01T11:10:33Z</time>
      </trkpt>
      <trkpt lat="45.97962" lon="6.3135">
        <ele>1333</ele>
        <time>2014-06-01T11:10:35Z</time>
      </trkpt>
      <trkpt lat="45.97964" lon="6.31356">
        <ele>1333</ele>
        <time>2014-06-01T11:10:38Z</time>
      </trkpt>
      <trkpt lat="45.97965" lon="6.3136">
        <ele>1333</ele>
        <time>2014-06-01T11:10:40Z</time>
      </trkpt>
      <trkpt lat="45.97967" lon="6.31365">
        <ele>1333</ele>
        <time>2014-06-01T11:10:42Z</time>
      </trkpt>
      <trkpt lat="45.97969" lon="6.3137">
        <ele>1333</ele>
        <time>2014-06-01T11:10:44Z</time>
      </trkpt>
      <trkpt lat="45.97971" lon="6.31377">
        <ele>1333</ele>
        <time>2014-06-01T11:10:46Z</time>
      </trkpt>
      <trkpt lat="45.97973" lon="6.3138">
        <ele>1333</ele>
        <time>2014-06-01T11:10:49Z</time>
      </trkpt>
      <trkpt lat="45.97974" lon="6.31384">
        <ele>1333</ele>
        <time>2014-06-01T11:10:51Z</time>
      </trkpt>
      <trkpt lat="45.97976" lon="6.31389">
        <ele>1333</ele>
        <time>2014-06-01T11:10:53Z</time>
      </trkpt>
      <trkpt lat="45.97977" lon="6.31394">
        <ele>1333</ele>
        <time>2014-06-01T11:10:55Z</time>
      </trkpt>
      <trkpt lat="45.97981" lon="6.314">
        <ele>1333</ele>
        <time>2014-06-01T11:10:58Z</time>
      </trkpt>
      <trkpt lat="45.97983" lon="6.31404">
        <ele>1333</ele>
        <time>2014-06-01T11:11:00Z</time>
      </trkpt>
      <trkpt lat="45.97984" lon="6.31408">
        <ele>1333</ele>
        <time>2014-06-01T11:11:02Z</time>
      </trkpt>
      <trkpt lat="45.97986" lon="6.31411">
        <ele>1333</ele>
        <time>2014-06-01T11:11:04Z</time>
      </trkpt>
      <trkpt lat="45.97989" lon="6.31417">
        <ele>1333</ele>
        <time>2014-06-01T11:11:07Z</time>
      </trkpt>
      <trkpt lat="45.9799" lon="6.31421">
        <ele>1333</ele>
        <time>2014-06-01T11:11:09Z</time>
      </trkpt>
      <trkpt lat="45.97992" lon="6.31422">
        <ele>1333</ele>
        <time>2014-06-01T11:11:11Z</time>
      </trkpt>
      <trkpt lat="45.97994" lon="6.31426">
        <ele>1333</ele>
        <time>2014-06-01T11:11:13Z</time>
      </trkpt>
      <trkpt lat="45.97996" lon="6.31433">
        <ele>1334</ele>
        <time>2014-06-01T11:11:15Z</time>
      </trkpt>
      <trkpt lat="45.97997" lon="6.31437">
        <ele>1334</ele>
        <time>2014-06-01T11:11:18Z</time>
      </trkpt>
      <trkpt lat="45.97999" lon="6.31441">
        <ele>1334</ele>
        <time>2014-06-01T11:11:20Z</time>
      </trkpt>
      <trkpt lat="45.98" lon="6.31444">
        <ele>1334</ele>
        <time>2014-06-01T11:11:22Z</time>
      </trkpt>
      <trkpt lat="45.98002" lon="6.31448">
        <ele>1334</ele>
        <time>2014-06-01T11:11:24Z</time>
      </trkpt>
      <trkpt lat="45.98004" lon="6.31453">
        <ele>1334</ele>
        <time>2014-06-01T11:11:27Z</time>
      </trkpt>
      <trkpt lat="45.98006" lon="6.31457">
        <ele>1334</ele>
        <time>2014-06-01T11:11:29Z</time>
      </trkpt>
      <trkpt lat="45.98007" lon="6.31461">
        <ele>1334</ele>
        <time>2014-06-01T11:11:31Z</time>
      </trkpt>
      <trkpt lat="45.98009" lon="6.31464">
        <ele>1334</ele>
        <time>2014-06-01T11:11:33Z</time>
      </trkpt>
      <trkpt lat="45.9801" lon="6.31471">
        <ele>1334</ele>
        <time>2014-06-01T11:11:36Z</time>
      </trkpt>
      <trkpt lat="45.98011" lon="6.31476">
        <ele>1335</ele>
        <time>2014-06-01T11:11:38Z</time>
      </trkpt>
      <trkpt lat="45.98012" lon="6.31481">
        <ele>1335</ele>
        <time>2014-06-01T11:11:40Z</time>
      </trkpt>
      <trkpt lat="45.98013" lon="6.31486">
        <ele>1335</ele>
        <time>2014-06-01T11:11:42Z</time>
      </trkpt>
      <trkpt lat="45.98014" lon="6.31491">
        <ele>1335</ele>
        <time>2014-06-01T11:11:44Z</time>
      </trkpt>
      <trkpt lat="45.98015" lon="6.31498">
        <ele>1335</ele>
        <time>2014-06-01T11:11:47Z</time>
      </trkpt>
      <trkpt lat="45.98015" lon="6.31503">
        <ele>1335</ele>
        <time>2014-06-01T11:11:49Z</time>
      </trkpt>
      <trkpt lat="45.98015" lon="6.31508">
        <ele>1335</ele>
        <time>2014-06-01T11:11:51Z</time>
      </trkpt>
      <trkpt lat="45.98016" lon="6.31512">
        <ele>1335</ele>
        <time>2014-06-01T11:11:53Z</time>
      </trkpt>
      <trkpt lat="45.98017" lon="6.31519">
        <ele>1335</ele>
        <time>2014-06-01T11:11:56Z</time>
      </trkpt>
      <trkpt lat="45.98018" lon="6.31524">
        <ele>1335</ele>
        <time>2014-06-01T11:11:58Z</time>
      </trkpt>
      <trkpt lat="45.98018" lon="6.31529">
        <ele>1335</ele>
        <time>2014-06-01T11:12:00Z</time>
      </trkpt>
      <trkpt lat="45.98018" lon="6.31534">
        <ele>1335</ele>
        <time>2014-06-01T11:12:02Z</time>
      </trkpt>
      <trkpt lat="45.98018" lon="6.3154">
        <ele>1333</ele>
        <time>2014-06-01T11:12:05Z</time>
      </trkpt>
      <trkpt lat="45.9802" lon="6.31545">
        <ele>1333</ele>
        <time>2014-06-01T11:12:07Z</time>
      </trkpt>
      <trkpt lat="45.9802" lon="6.31549">
        <ele>1333</ele>
        <time>2014-06-01T11:12:09Z</time>
      </trkpt>
      <trkpt lat="45.9802" lon="6.31553">
        <ele>1333</ele>
        <time>2014-06-01T11:12:11Z</time>
      </trkpt>
      <trkpt lat="45.98021" lon="6.31558">
        <ele>1333</ele>
        <time>2014-06-01T11:12:13Z</time>
      </trkpt>
      <trkpt lat="45.98024" lon="6.31564">
        <ele>1333</ele>
        <time>2014-06-01T11:12:16Z</time>
      </trkpt>
      <trkpt lat="45.98025" lon="6.31568">
        <ele>1332</ele>
        <time>2014-06-01T11:12:18Z</time>
      </trkpt>
      <trkpt lat="45.98026" lon="6.31572">
        <ele>1331</ele>
        <time>2014-06-01T11:12:20Z</time>
      </trkpt>
      <trkpt lat="45.98026" lon="6.31576">
        <ele>1331</ele>
        <time>2014-06-01T11:12:22Z</time>
      </trkpt>
      <trkpt lat="45.98028" lon="6.31583">
        <ele>1330</ele>
        <time>2014-06-01T11:12:25Z</time>
      </trkpt>
      <trkpt lat="45.9803" lon="6.31587">
        <ele>1329</ele>
        <time>2014-06-01T11:12:27Z</time>
      </trkpt>
      <trkpt lat="45.98032" lon="6.3159">
        <ele>1328</ele>
        <time>2014-06-01T11:12:29Z</time>
      </trkpt>
      <trkpt lat="45.98033" lon="6.31594">
        <ele>1326</ele>
        <time>2014-06-01T11:12:31Z</time>
      </trkpt>
      <trkpt lat="45.98034" lon="6.31598">
        <ele>1325</ele>
        <time>2014-06-01T11:12:33Z</time>
      </trkpt>
      <trkpt lat="45.98037" lon="6.31604">
        <ele>1324</ele>
        <time>2014-06-01T11:12:36Z</time>
      </trkpt>
      <trkpt lat="45.98038" lon="6.31608">
        <ele>1323</ele>
        <time>2014-06-01T11:12:38Z</time>
      </trkpt>
      <trkpt lat="45.98038" lon="6.31612">
        <ele>1322</ele>
        <time>2014-06-01T11:12:40Z</time>
      </trkpt>
      <trkpt lat="45.98039" lon="6.31617">
        <ele>1322</ele>
        <time>2014-06-01T11:12:42Z</time>
      </trkpt>
      <trkpt lat="45.98039" lon="6.31623">
        <ele>1322</ele>
        <time>2014-06-01T11:12:45Z</time>
      </trkpt>
      <trkpt lat="45.98041" lon="6.31627">
        <ele>1322</ele>
        <time>2014-06-01T11:12:47Z</time>
      </trkpt>
      <trkpt lat="45.98041" lon="6.31632">
        <ele>1322</ele>
        <time>2014-06-01T11:12:49Z</time>
      </trkpt>
      <trkpt lat="45.98041" lon="6.31638">
        <ele>1322</ele>
        <time>2014-06-01T11:12:51Z</time>
      </trkpt>
      <trkpt lat="45.98041" lon="6.31645">
        <ele>1322</ele>
        <time>2014-06-01T11:12:54Z</time>
      </trkpt>
      <trkpt lat="45.98041" lon="6.31649">
        <ele>1322</ele>
        <time>2014-06-01T11:12:56Z</time>
      </trkpt>
      <trkpt lat="45.98042" lon="6.31653">
        <ele>1322</ele>
        <time>2014-06-01T11:12:58Z</time>
      </trkpt>
      <trkpt lat="45.98042" lon="6.31658">
        <ele>1323</ele>
        <time>2014-06-01T11:13:00Z</time>
      </trkpt>
      <trkpt lat="45.98044" lon="6.31662">
        <ele>1323</ele>
        <time>2014-06-01T11:13:02Z</time>
      </trkpt>
      <trkpt lat="45.98046" lon="6.31668">
        <ele>1324</ele>
        <time>2014-06-01T11:13:05Z</time>
      </trkpt>
      <trkpt lat="45.98048" lon="6.31671">
        <ele>1324</ele>
        <time>2014-06-01T11:13:07Z</time>
      </trkpt>
      <trkpt lat="45.98048" lon="6.31675">
        <ele>1324</ele>
        <time>2014-06-01T11:13:09Z</time>
      </trkpt>
      <trkpt lat="45.98048" lon="6.31679">
        <ele>1324</ele>
        <time>2014-06-01T11:13:11Z</time>
      </trkpt>
      <trkpt lat="45.98048" lon="6.31684">
        <ele>1324</ele>
        <time>2014-06-01T11:13:14Z</time>
      </trkpt>
      <trkpt lat="45.98048" lon="6.31689">
        <ele>1324</ele>
        <time>2014-06-01T11:13:16Z</time>
      </trkpt>
      <trkpt lat="45.98048" lon="6.31694">
        <ele>1324</ele>
        <time>2014-06-01T11:13:18Z</time>
      </trkpt>
      <trkpt lat="45.98047" lon="6.31698">
        <ele>1324</ele>
        <time>2014-06-01T11:13:20Z</time>
      </trkpt>
      <trkpt lat="45.98048" lon="6.31703">
        <ele>1324</ele>
        <time>2014-06-01T11:13:22Z</time>
      </trkpt>
      <trkpt lat="45.98049" lon="6.31709">
        <ele>1324</ele>
        <time>2014-06-01T11:13:25Z</time>
      </trkpt>
      <trkpt lat="45.9805" lon="6.31713">
        <ele>1324</ele>
        <time>2014-06-01T11:13:27Z</time>
      </trkpt>
      <trkpt lat="45.98051" lon="6.31718">
        <ele>1324</ele>
        <time>2014-06-01T11:13:29Z</time>
      </trkpt>
      <trkpt lat="45.98053" lon="6.31722">
        <ele>1324</ele>
        <time>2014-06-01T11:13:31Z</time>
      </trkpt>
      <trkpt lat="45.98055" lon="6.31728">
        <ele>1324</ele>
        <time>2014-06-01T11:13:34Z</time>
      </trkpt>
      <trkpt lat="45.98057" lon="6.31732">
        <ele>1324</ele>
        <time>2014-06-01T11:13:36Z</time>
      </trkpt>
      <trkpt lat="45.98058" lon="6.31737">
        <ele>1324</ele>
        <time>2014-06-01T11:13:38Z</time>
      </trkpt>
      <trkpt lat="45.98058" lon="6.31742">
        <ele>1324</ele>
        <time>2014-06-01T11:13:40Z</time>
      </trkpt>
      <trkpt lat="45.9806" lon="6.31747">
        <ele>1324</ele>
        <time>2014-06-01T11:13:42Z</time>
      </trkpt>
      <trkpt lat="45.98061" lon="6.31754">
        <ele>1323</ele>
        <time>2014-06-01T11:13:45Z</time>
      </trkpt>
      <trkpt lat="45.98062" lon="6.31759">
        <ele>1323</ele>
        <time>2014-06-01T11:13:47Z</time>
      </trkpt>
      <trkpt lat="45.98063" lon="6.31762">
        <ele>1323</ele>
        <time>2014-06-01T11:13:49Z</time>
      </trkpt>
      <trkpt lat="45.98064" lon="6.31767">
        <ele>1323</ele>
        <time>2014-06-01T11:13:51Z</time>
      </trkpt>
      <trkpt lat="45.98067" lon="6.31772">
        <ele>1323</ele>
        <time>2014-06-01T11:13:54Z</time>
      </trkpt>
      <trkpt lat="45.98068" lon="6.31776">
        <ele>1323</ele>
        <time>2014-06-01T11:13:56Z</time>
      </trkpt>
      <trkpt lat="45.98068" lon="6.3178">
        <ele>1323</ele>
        <time>2014-06-01T11:13:58Z</time>
      </trkpt>
      <trkpt lat="45.98068" lon="6.31784">
        <ele>1323</ele>
        <time>2014-06-01T11:14:00Z</time>
      </trkpt>
      <trkpt lat="45.98069" lon="6.3179">
        <ele>1323</ele>
        <time>2014-06-01T11:14:03Z</time>
      </trkpt>
      <trkpt lat="45.9807" lon="6.31794">
        <ele>1323</ele>
        <time>2014-06-01T11:14:05Z</time>
      </trkpt>
      <trkpt lat="45.98071" lon="6.31798">
        <ele>1323</ele>
        <time>2014-06-01T11:14:07Z</time>
      </trkpt>
      <trkpt lat="45.98071" lon="6.31801">
        <ele>1323</ele>
        <time>2014-06-01T11:14:09Z</time>
      </trkpt>
      <trkpt lat="45.98072" lon="6.31806">
        <ele>1323</ele>
        <time>2014-06-01T11:14:11Z</time>
      </trkpt>
      <trkpt lat="45.98073" lon="6.31812">
        <ele>1323</ele>
        <time>2014-06-01T11:14:14Z</time>
      </trkpt>
      <trkpt lat="45.98075" lon="6.31816">
        <ele>1323</ele>
        <time>2014-06-01T11:14:16Z</time>
      </trkpt>
      <trkpt lat="45.98076" lon="6.31821">
        <ele>1323</ele>
        <time>2014-06-01T11:14:18Z</time>
      </trkpt>
      <trkpt lat="45.98074" lon="6.31823">
        <ele>1323</ele>
        <time>2014-06-01T11:14:20Z</time>
      </trkpt>
      <trkpt lat="45.98073" lon="6.3183">
        <ele>1323</ele>
        <time>2014-06-01T11:14:23Z</time>
      </trkpt>
      <trkpt lat="45.98072" lon="6.31837">
        <ele>1323</ele>
        <time>2014-06-01T11:14:25Z</time>
      </trkpt>
      <trkpt lat="45.98071" lon="6.31841">
        <ele>1323</ele>
        <time>2014-06-01T11:14:27Z</time>
      </trkpt>
      <trkpt lat="45.98069" lon="6.31844">
        <ele>1323</ele>
        <time>2014-06-01T11:14:29Z</time>
      </trkpt>
      <trkpt lat="45.98065" lon="6.31845">
        <ele>1323</ele>
        <time>2014-06-01T11:14:32Z</time>
      </trkpt>
      <trkpt lat="45.98063" lon="6.31846">
        <ele>1324</ele>
        <time>2014-06-01T11:14:34Z</time>
      </trkpt>
      <trkpt lat="45.98062" lon="6.31846">
        <ele>1326</ele>
        <time>2014-06-01T11:14:36Z</time>
      </trkpt>
      <trkpt lat="45.98061" lon="6.31849">
        <ele>1328</ele>
        <time>2014-06-01T11:14:38Z</time>
      </trkpt>
      <trkpt lat="45.98059" lon="6.31852">
        <ele>1330</ele>
        <time>2014-06-01T11:14:40Z</time>
      </trkpt>
      <trkpt lat="45.98056" lon="6.31858">
        <ele>1332</ele>
        <time>2014-06-01T11:14:43Z</time>
      </trkpt>
      <trkpt lat="45.98054" lon="6.3186">
        <ele>1333</ele>
        <time>2014-06-01T11:14:45Z</time>
      </trkpt>
      <trkpt lat="45.98051" lon="6.31862">
        <ele>1335</ele>
        <time>2014-06-01T11:14:47Z</time>
      </trkpt>
      <trkpt lat="45.98048" lon="6.31864">
        <ele>1336</ele>
        <time>2014-06-01T11:14:49Z</time>
      </trkpt>
      <trkpt lat="45.98044" lon="6.31866">
        <ele>1337</ele>
        <time>2014-06-01T11:14:52Z</time>
      </trkpt>
      <trkpt lat="45.98041" lon="6.31868">
        <ele>1338</ele>
        <time>2014-06-01T11:14:54Z</time>
      </trkpt>
      <trkpt lat="45.98038" lon="6.31871">
        <ele>1339</ele>
        <time>2014-06-01T11:14:56Z</time>
      </trkpt>
      <trkpt lat="45.98036" lon="6.31874">
        <ele>1340</ele>
        <time>2014-06-01T11:14:58Z</time>
      </trkpt>
      <trkpt lat="45.98033" lon="6.31877">
        <ele>1341</ele>
        <time>2014-06-01T11:15:00Z</time>
      </trkpt>
      <trkpt lat="45.98029" lon="6.3188">
        <ele>1342</ele>
        <time>2014-06-01T11:15:03Z</time>
      </trkpt>
      <trkpt lat="45.98026" lon="6.31881">
        <ele>1343</ele>
        <time>2014-06-01T11:15:05Z</time>
      </trkpt>
      <trkpt lat="45.98023" lon="6.31883">
        <ele>1343</ele>
        <time>2014-06-01T11:15:07Z</time>
      </trkpt>
      <trkpt lat="45.98019" lon="6.31885">
        <ele>1344</ele>
        <time>2014-06-01T11:15:09Z</time>
      </trkpt>
      <trkpt lat="45.98016" lon="6.31886">
        <ele>1345</ele>
        <time>2014-06-01T11:15:12Z</time>
      </trkpt>
      <trkpt lat="45.98014" lon="6.31886">
        <ele>1347</ele>
        <time>2014-06-01T11:15:14Z</time>
      </trkpt>
      <trkpt lat="45.98011" lon="6.31887">
        <ele>1348</ele>
        <time>2014-06-01T11:15:16Z</time>
      </trkpt>
      <trkpt lat="45.98009" lon="6.31888">
        <ele>1348</ele>
        <time>2014-06-01T11:15:18Z</time>
      </trkpt>
      <trkpt lat="45.98005" lon="6.31888">
        <ele>1349</ele>
        <time>2014-06-01T11:15:21Z</time>
      </trkpt>
      <trkpt lat="45.98002" lon="6.31889">
        <ele>1350</ele>
        <time>2014-06-01T11:15:23Z</time>
      </trkpt>
      <trkpt lat="45.97999" lon="6.3189">
        <ele>1351</ele>
        <time>2014-06-01T11:15:25Z</time>
      </trkpt>
      <trkpt lat="45.97996" lon="6.31891">
        <ele>1352</ele>
        <time>2014-06-01T11:15:27Z</time>
      </trkpt>
      <trkpt lat="45.97992" lon="6.31891">
        <ele>1354</ele>
        <time>2014-06-01T11:15:30Z</time>
      </trkpt>
      <trkpt lat="45.97989" lon="6.31892">
        <ele>1355</ele>
        <time>2014-06-01T11:15:32Z</time>
      </trkpt>
      <trkpt lat="45.97987" lon="6.31892">
        <ele>1356</ele>
        <time>2014-06-01T11:15:34Z</time>
      </trkpt>
      <trkpt lat="45.97985" lon="6.31892">
        <ele>1357</ele>
        <time>2014-06-01T11:15:36Z</time>
      </trkpt>
      <trkpt lat="45.97981" lon="6.31893">
        <ele>1358</ele>
        <time>2014-06-01T11:15:39Z</time>
      </trkpt>
      <trkpt lat="45.97979" lon="6.31894">
        <ele>1359</ele>
        <time>2014-06-01T11:15:41Z</time>
      </trkpt>
      <trkpt lat="45.97977" lon="6.31894">
        <ele>1360</ele>
        <time>2014-06-01T11:15:43Z</time>
      </trkpt>
      <trkpt lat="45.97974" lon="6.31894">
        <ele>1361</ele>
        <time>2014-06-01T11:15:45Z</time>
      </trkpt>
      <trkpt lat="45.97972" lon="6.31892">
        <ele>1361</ele>
        <time>2014-06-01T11:15:47Z</time>
      </trkpt>
      <trkpt lat="45.97969" lon="6.31891">
        <ele>1362</ele>
        <time>2014-06-01T11:15:50Z</time>
      </trkpt>
      <trkpt lat="45.97967" lon="6.31891">
        <ele>1363</ele>
        <time>2014-06-01T11:15:52Z</time>
      </trkpt>
      <trkpt lat="45.97966" lon="6.31893">
        <ele>1363</ele>
        <time>2014-06-01T11:15:54Z</time>
      </trkpt>
      <trkpt lat="45.97965" lon="6.31895">
        <ele>1364</ele>
        <time>2014-06-01T11:15:56Z</time>
      </trkpt>
      <trkpt lat="45.97963" lon="6.31896">
        <ele>1366</ele>
        <time>2014-06-01T11:15:59Z</time>
      </trkpt>
      <trkpt lat="45.97963" lon="6.31897">
        <ele>1368</ele>
        <time>2014-06-01T11:16:01Z</time>
      </trkpt>
      <trkpt lat="45.97963" lon="6.31898">
        <ele>1369</ele>
        <time>2014-06-01T11:16:03Z</time>
      </trkpt>
      <trkpt lat="45.97963" lon="6.319">
        <ele>1371</ele>
        <time>2014-06-01T11:16:05Z</time>
      </trkpt>
      <trkpt lat="45.97963" lon="6.31901">
        <ele>1372</ele>
        <time>2014-06-01T11:16:07Z</time>
      </trkpt>
      <trkpt lat="45.97964" lon="6.31903">
        <ele>1373</ele>
        <time>2014-06-01T11:16:10Z</time>
      </trkpt>
      <trkpt lat="45.97964" lon="6.31906">
        <ele>1374</ele>
        <time>2014-06-01T11:16:12Z</time>
      </trkpt>
      <trkpt lat="45.97963" lon="6.31906">
        <ele>1375</ele>
        <time>2014-06-01T11:16:14Z</time>
      </trkpt>
      <trkpt lat="45.97962" lon="6.31905">
        <ele>1376</ele>
        <time>2014-06-01T11:16:16Z</time>
      </trkpt>
      <trkpt lat="45.97961" lon="6.31903">
        <ele>1377</ele>
        <time>2014-06-01T11:16:19Z</time>
      </trkpt>
      <trkpt lat="45.97959" lon="6.31902">
        <ele>1378</ele>
        <time>2014-06-01T11:16:21Z</time>
      </trkpt>
      <trkpt lat="45.97958" lon="6.31903">
        <ele>1379</ele>
        <time>2014-06-01T11:16:23Z</time>
      </trkpt>
      <trkpt lat="45.97958" lon="6.31905">
        <ele>1379</ele>
        <time>2014-06-01T11:16:25Z</time>
      </trkpt>
      <trkpt lat="45.97958" lon="6.31905">
        <ele>1380</ele>
        <time>2014-06-01T11:16:27Z</time>
      </trkpt>
      <trkpt lat="45.97956" lon="6.31905">
        <ele>1380</ele>
        <time>2014-06-01T11:16:30Z</time>
      </trkpt>
      <trkpt lat="45.97955" lon="6.31906">
        <ele>1381</ele>
        <time>2014-06-01T11:16:32Z</time>
      </trkpt>
      <trkpt lat="45.97955" lon="6.31905">
        <ele>1381</ele>
        <time>2014-06-01T11:16:34Z</time>
      </trkpt>
      <trkpt lat="45.97953" lon="6.31905">
        <ele>1381</ele>
        <time>2014-06-01T11:16:36Z</time>
      </trkpt>
      <trkpt lat="45.9795" lon="6.31904">
        <ele>1381</ele>
        <time>2014-06-01T11:16:39Z</time>
      </trkpt>
      <trkpt lat="45.97948" lon="6.31902">
        <ele>1381</ele>
        <time>2014-06-01T11:16:41Z</time>
      </trkpt>
      <trkpt lat="45.97946" lon="6.31901">
        <ele>1381</ele>
        <time>2014-06-01T11:16:43Z</time>
      </trkpt>
      <trkpt lat="45.97945" lon="6.31899">
        <ele>1382</ele>
        <time>2014-06-01T11:16:45Z</time>
      </trkpt>
      <trkpt lat="45.97943" lon="6.31896">
        <ele>1382</ele>
        <time>2014-06-01T11:16:48Z</time>
      </trkpt>
      <trkpt lat="45.97941" lon="6.31894">
        <ele>1384</ele>
        <time>2014-06-01T11:16:50Z</time>
      </trkpt>
      <trkpt lat="45.9794" lon="6.31892">
        <ele>1385</ele>
        <time>2014-06-01T11:16:52Z</time>
      </trkpt>
      <trkpt lat="45.97938" lon="6.3189">
        <ele>1386</ele>
        <time>2014-06-01T11:16:54Z</time>
      </trkpt>
      <trkpt lat="45.97937" lon="6.31888">
        <ele>1387</ele>
        <time>2014-06-01T11:16:56Z</time>
      </trkpt>
      <trkpt lat="45.97934" lon="6.31885">
        <ele>1388</ele>
        <time>2014-06-01T11:16:59Z</time>
      </trkpt>
      <trkpt lat="45.97932" lon="6.31883">
        <ele>1389</ele>
        <time>2014-06-01T11:17:01Z</time>
      </trkpt>
      <trkpt lat="45.9793" lon="6.31879">
        <ele>1390</ele>
        <time>2014-06-01T11:17:03Z</time>
      </trkpt>
      <trkpt lat="45.97928" lon="6.31876">
        <ele>1391</ele>
        <time>2014-06-01T11:17:05Z</time>
      </trkpt>
      <trkpt lat="45.97924" lon="6.31872">
        <ele>1391</ele>
        <time>2014-06-01T11:17:08Z</time>
      </trkpt>
      <trkpt lat="45.97922" lon="6.31869">
        <ele>1391</ele>
        <time>2014-06-01T11:17:10Z</time>
      </trkpt>
      <trkpt lat="45.9792" lon="6.31867">
        <ele>1391</ele>
        <time>2014-06-01T11:17:12Z</time>
      </trkpt>
      <trkpt lat="45.97919" lon="6.31864">
        <ele>1391</ele>
        <time>2014-06-01T11:17:14Z</time>
      </trkpt>
      <trkpt lat="45.97917" lon="6.31861">
        <ele>1391</ele>
        <time>2014-06-01T11:17:16Z</time>
      </trkpt>
      <trkpt lat="45.97912" lon="6.31859">
        <ele>1391</ele>
        <time>2014-06-01T11:17:19Z</time>
      </trkpt>
      <trkpt lat="45.9791" lon="6.31857">
        <ele>1391</ele>
        <time>2014-06-01T11:17:21Z</time>
      </trkpt>
      <trkpt lat="45.97907" lon="6.31856">
        <ele>1391</ele>
        <time>2014-06-01T11:17:23Z</time>
      </trkpt>
      <trkpt lat="45.97904" lon="6.31855">
        <ele>1391</ele>
        <time>2014-06-01T11:17:25Z</time>
      </trkpt>
      <trkpt lat="45.97901" lon="6.31854">
        <ele>1391</ele>
        <time>2014-06-01T11:17:28Z</time>
      </trkpt>
      <trkpt lat="45.97899" lon="6.31853">
        <ele>1392</ele>
        <time>2014-06-01T11:17:30Z</time>
      </trkpt>
      <trkpt lat="45.97899" lon="6.31852">
        <ele>1392</ele>
        <time>2014-06-01T11:17:32Z</time>
      </trkpt>
      <trkpt lat="45.97897" lon="6.31851">
        <ele>1392</ele>
        <time>2014-06-01T11:17:34Z</time>
      </trkpt>
      <trkpt lat="45.97895" lon="6.31849">
        <ele>1393</ele>
        <time>2014-06-01T11:17:36Z</time>
      </trkpt>
      <trkpt lat="45.97894" lon="6.31848">
        <ele>1393</ele>
        <time>2014-06-01T11:17:39Z</time>
      </trkpt>
      <trkpt lat="45.97893" lon="6.31847">
        <ele>1393</ele>
        <time>2014-06-01T11:17:41Z</time>
      </trkpt>
      <trkpt lat="45.97892" lon="6.31847">
        <ele>1394</ele>
        <time>2014-06-01T11:17:43Z</time>
      </trkpt>
      <trkpt lat="45.97891" lon="6.31849">
        <ele>1395</ele>
        <time>2014-06-01T11:17:45Z</time>
      </trkpt>
      <trkpt lat="45.97891" lon="6.31851">
        <ele>1397</ele>
        <time>2014-06-01T11:17:48Z</time>
      </trkpt>
      <trkpt lat="45.97892" lon="6.31851">
        <ele>1398</ele>
        <time>2014-06-01T11:17:50Z</time>
      </trkpt>
      <trkpt lat="45.97892" lon="6.31852">
        <ele>1400</ele>
        <time>2014-06-01T11:17:52Z</time>
      </trkpt>
      <trkpt lat="45.97892" lon="6.31852">
        <ele>1402</ele>
        <time>2014-06-01T11:17:54Z</time>
      </trkpt>
      <trkpt lat="45.97891" lon="6.31851">
        <ele>1404</ele>
        <time>2014-06-01T11:17:57Z</time>
      </trkpt>
      <trkpt lat="45.97891" lon="6.3185">
        <ele>1406</ele>
        <time>2014-06-01T11:17:59Z</time>
      </trkpt>
      <trkpt lat="45.97891" lon="6.31849">
        <ele>1407</ele>
        <time>2014-06-01T11:18:01Z</time>
      </trkpt>
      <trkpt lat="45.97892" lon="6.31849">
        <ele>1408</ele>
        <time>2014-06-01T11:18:03Z</time>
      </trkpt>
      <trkpt lat="45.97891" lon="6.31847">
        <ele>1408</ele>
        <time>2014-06-01T11:18:05Z</time>
      </trkpt>
      <trkpt lat="45.9789" lon="6.31846">
        <ele>1410</ele>
        <time>2014-06-01T11:18:08Z</time>
      </trkpt>
      <trkpt lat="45.97889" lon="6.31844">
        <ele>1411</ele>
        <time>2014-06-01T11:18:10Z</time>
      </trkpt>
      <trkpt lat="45.97887" lon="6.31843">
        <ele>1411</ele>
        <time>2014-06-01T11:18:12Z</time>
      </trkpt>
      <trkpt lat="45.97885" lon="6.31841">
        <ele>1412</ele>
        <time>2014-06-01T11:18:14Z</time>
      </trkpt>
      <trkpt lat="45.97882" lon="6.31842">
        <ele>1412</ele>
        <time>2014-06-01T11:18:17Z</time>
      </trkpt>
      <trkpt lat="45.97881" lon="6.31843">
        <ele>1412</ele>
        <time>2014-06-01T11:18:19Z</time>
      </trkpt>
      <trkpt lat="45.9788" lon="6.31844">
        <ele>1412</ele>
        <time>2014-06-01T11:18:21Z</time>
      </trkpt>
      <trkpt lat="45.97878" lon="6.31844">
        <ele>1412</ele>
        <time>2014-06-01T11:18:23Z</time>
      </trkpt>
      <trkpt lat="45.97877" lon="6.31843">
        <ele>1412</ele>
        <time>2014-06-01T11:18:25Z</time>
      </trkpt>
      <trkpt lat="45.97875" lon="6.31842">
        <ele>1412</ele>
        <time>2014-06-01T11:18:28Z</time>
      </trkpt>
      <trkpt lat="45.97874" lon="6.31842">
        <ele>1412</ele>
        <time>2014-06-01T11:18:30Z</time>
      </trkpt>
      <trkpt lat="45.97873" lon="6.31843">
        <ele>1412</ele>
        <time>2014-06-01T11:18:32Z</time>
      </trkpt>
      <trkpt lat="45.97871" lon="6.31844">
        <ele>1412</ele>
        <time>2014-06-01T11:18:34Z</time>
      </trkpt>
      <trkpt lat="45.97869" lon="6.31844">
        <ele>1412</ele>
        <time>2014-06-01T11:18:37Z</time>
      </trkpt>
      <trkpt lat="45.97868" lon="6.31843">
        <ele>1412</ele>
        <time>2014-06-01T11:18:39Z</time>
      </trkpt>
      <trkpt lat="45.97866" lon="6.31844">
        <ele>1412</ele>
        <time>2014-06-01T11:18:41Z</time>
      </trkpt>
      <trkpt lat="45.97865" lon="6.31845">
        <ele>1412</ele>
        <time>2014-06-01T11:18:43Z</time>
      </trkpt>
      <trkpt lat="45.97863" lon="6.31846">
        <ele>1412</ele>
        <time>2014-06-01T11:18:45Z</time>
      </trkpt>
      <trkpt lat="45.97863" lon="6.31847">
        <ele>1412</ele>
        <time>2014-06-01T11:18:48Z</time>
      </trkpt>
      <trkpt lat="45.97863" lon="6.31848">
        <ele>1412</ele>
        <time>2014-06-01T11:18:50Z</time>
      </trkpt>
      <trkpt lat="45.97862" lon="6.31849">
        <ele>1412</ele>
        <time>2014-06-01T11:18:52Z</time>
      </trkpt>
      <trkpt lat="45.97862" lon="6.3185">
        <ele>1412</ele>
        <time>2014-06-01T11:18:54Z</time>
      </trkpt>
      <trkpt lat="45.97863" lon="6.31851">
        <ele>1412</ele>
        <time>2014-06-01T11:18:57Z</time>
      </trkpt>
      <trkpt lat="45.97863" lon="6.31851">
        <ele>1412</ele>
        <time>2014-06-01T11:18:59Z</time>
      </trkpt>
      <trkpt lat="45.97862" lon="6.31851">
        <ele>1413</ele>
        <time>2014-06-01T11:19:01Z</time>
      </trkpt>
      <trkpt lat="45.97863" lon="6.31851">
        <ele>1414</ele>
        <time>2014-06-01T11:19:03Z</time>
      </trkpt>
      <trkpt lat="45.97863" lon="6.31851">
        <ele>1416</ele>
        <time>2014-06-01T11:19:05Z</time>
      </trkpt>
      <trkpt lat="45.97863" lon="6.31849">
        <ele>1417</ele>
        <time>2014-06-01T11:19:08Z</time>
      </trkpt>
      <trkpt lat="45.97862" lon="6.31848">
        <ele>1418</ele>
        <time>2014-06-01T11:19:10Z</time>
      </trkpt>
      <trkpt lat="45.9786" lon="6.31848">
        <ele>1419</ele>
        <time>2014-06-01T11:19:12Z</time>
      </trkpt>
      <trkpt lat="45.97858" lon="6.31847">
        <ele>1419</ele>
        <time>2014-06-01T11:19:14Z</time>
      </trkpt>
      <trkpt lat="45.97856" lon="6.31847">
        <ele>1419</ele>
        <time>2014-06-01T11:19:17Z</time>
      </trkpt>
      <trkpt lat="45.97854" lon="6.31847">
        <ele>1420</ele>
        <time>2014-06-01T11:19:19Z</time>
      </trkpt>
      <trkpt lat="45.97854" lon="6.31847">
        <ele>1420</ele>
        <time>2014-06-01T11:19:21Z</time>
      </trkpt>
      <trkpt lat="45.97852" lon="6.31848">
        <ele>1421</ele>
        <time>2014-06-01T11:19:23Z</time>
      </trkpt>
      <trkpt lat="45.97852" lon="6.31848">
        <ele>1422</ele>
        <time>2014-06-01T11:19:25Z</time>
      </trkpt>
      <trkpt lat="45.97852" lon="6.31849">
        <ele>1423</ele>
        <time>2014-06-01T11:19:28Z</time>
      </trkpt>
      <trkpt lat="45.97851" lon="6.31851">
        <ele>1424</ele>
        <time>2014-06-01T11:19:30Z</time>
      </trkpt>
      <trkpt lat="45.97851" lon="6.31851">
        <ele>1424</ele>
        <time>2014-06-01T11:19:32Z</time>
      </trkpt>
      <trkpt lat="45.9785" lon="6.31851">
        <ele>1425</ele>
        <time>2014-06-01T11:19:34Z</time>
      </trkpt>
      <trkpt lat="45.97848" lon="6.31851">
        <ele>1425</ele>
        <time>2014-06-01T11:19:37Z</time>
      </trkpt>
      <trkpt lat="45.97846" lon="6.31851">
        <ele>1426</ele>
        <time>2014-06-01T11:19:39Z</time>
      </trkpt>
      <trkpt lat="45.97845" lon="6.3185">
        <ele>1426</ele>
        <time>2014-06-01T11:19:41Z</time>
      </trkpt>
      <trkpt lat="45.97843" lon="6.31849">
        <ele>1426</ele>
        <time>2014-06-01T11:19:43Z</time>
      </trkpt>
      <trkpt lat="45.97842" lon="6.31849">
        <ele>1426</ele>
        <time>2014-06-01T11:19:45Z</time>
      </trkpt>
      <trkpt lat="45.9784" lon="6.3185">
        <ele>1426</ele>
        <time>2014-06-01T11:19:48Z</time>
      </trkpt>
      <trkpt lat="45.97839" lon="6.31849">
        <ele>1426</ele>
        <time>2014-06-01T11:19:50Z</time>
      </trkpt>
      <trkpt lat="45.97837" lon="6.31849">
        <ele>1426</ele>
        <time>2014-06-01T11:19:52Z</time>
      </trkpt>
      <trkpt lat="45.97836" lon="6.31848">
        <ele>1427</ele>
        <time>2014-06-01T11:19:54Z</time>
      </trkpt>
      <trkpt lat="45.97834" lon="6.31848">
        <ele>1427</ele>
        <time>2014-06-01T11:19:57Z</time>
      </trkpt>
      <trkpt lat="45.97832" lon="6.31848">
        <ele>1428</ele>
        <time>2014-06-01T11:19:59Z</time>
      </trkpt>
      <trkpt lat="45.97831" lon="6.31848">
        <ele>1428</ele>
        <time>2014-06-01T11:20:01Z</time>
      </trkpt>
      <trkpt lat="45.97829" lon="6.31848">
        <ele>1428</ele>
        <time>2014-06-01T11:20:03Z</time>
      </trkpt>
      <trkpt lat="45.97827" lon="6.31848">
        <ele>1428</ele>
        <time>2014-06-01T11:20:05Z</time>
      </trkpt>
      <trkpt lat="45.97824" lon="6.31847">
        <ele>1428</ele>
        <time>2014-06-01T11:20:08Z</time>
      </trkpt>
      <trkpt lat="45.97823" lon="6.31847">
        <ele>1429</ele>
        <time>2014-06-01T11:20:10Z</time>
      </trkpt>
      <trkpt lat="45.97821" lon="6.31847">
        <ele>1429</ele>
        <time>2014-06-01T11:20:12Z</time>
      </trkpt>
      <trkpt lat="45.9782" lon="6.31848">
        <ele>1430</ele>
        <time>2014-06-01T11:20:14Z</time>
      </trkpt>
      <trkpt lat="45.97817" lon="6.31847">
        <ele>1431</ele>
        <time>2014-06-01T11:20:17Z</time>
      </trkpt>
      <trkpt lat="45.97816" lon="6.31847">
        <ele>1431</ele>
        <time>2014-06-01T11:20:19Z</time>
      </trkpt>
      <trkpt lat="45.97814" lon="6.31848">
        <ele>1432</ele>
        <time>2014-06-01T11:20:21Z</time>
      </trkpt>
      <trkpt lat="45.97813" lon="6.31849">
        <ele>1432</ele>
        <time>2014-06-01T11:20:23Z</time>
      </trkpt>
      <trkpt lat="45.97814" lon="6.31852">
        <ele>1433</ele>
        <time>2014-06-01T11:20:25Z</time>
      </trkpt>
      <trkpt lat="45.97814" lon="6.31853">
        <ele>1433</ele>
        <time>2014-06-01T11:20:28Z</time>
      </trkpt>
      <trkpt lat="45.97814" lon="6.31855">
        <ele>1434</ele>
        <time>2014-06-01T11:20:30Z</time>
      </trkpt>
      <trkpt lat="45.97814" lon="6.31857">
        <ele>1434</ele>
        <time>2014-06-01T11:20:32Z</time>
      </trkpt>
      <trkpt lat="45.97815" lon="6.3186">
        <ele>1434</ele>
        <time>2014-06-01T11:20:34Z</time>
      </trkpt>
      <trkpt lat="45.97817" lon="6.31862">
        <ele>1434</ele>
        <time>2014-06-01T11:20:37Z</time>
      </trkpt>
      <trkpt lat="45.97817" lon="6.31864">
        <ele>1435</ele>
        <time>2014-06-01T11:20:39Z</time>
      </trkpt>
      <trkpt lat="45.97818" lon="6.31866">
        <ele>1435</ele>
        <time>2014-06-01T11:20:41Z</time>
      </trkpt>
      <trkpt lat="45.97819" lon="6.31868">
        <ele>1436</ele>
        <time>2014-06-01T11:20:43Z</time>
      </trkpt>
      <trkpt lat="45.9782" lon="6.3187">
        <ele>1438</ele>
        <time>2014-06-01T11:20:46Z</time>
      </trkpt>
      <trkpt lat="45.97821" lon="6.31872">
        <ele>1439</ele>
        <time>2014-06-01T11:20:48Z</time>
      </trkpt>
      <trkpt lat="45.97822" lon="6.31874">
        <ele>1440</ele>
        <time>2014-06-01T11:20:50Z</time>
      </trkpt>
      <trkpt lat="45.97822" lon="6.31876">
        <ele>1441</ele>
        <time>2014-06-01T11:20:52Z</time>
      </trkpt>
      <trkpt lat="45.97823" lon="6.31878">
        <ele>1442</ele>
        <time>2014-06-01T11:20:54Z</time>
      </trkpt>
      <trkpt lat="45.97824" lon="6.3188">
        <ele>1443</ele>
        <time>2014-06-01T11:20:57Z</time>
      </trkpt>
      <trkpt lat="45.97824" lon="6.31881">
        <ele>1445</ele>
        <time>2014-06-01T11:20:59Z</time>
      </trkpt>
      <trkpt lat="45.97824" lon="6.31882">
        <ele>1447</ele>
        <time>2014-06-01T11:21:01Z</time>
      </trkpt>
      <trkpt lat="45.97824" lon="6.31884">
        <ele>1448</ele>
        <time>2014-06-01T11:21:03Z</time>
      </trkpt>
      <trkpt lat="45.97825" lon="6.31886">
        <ele>1450</ele>
        <time>2014-06-01T11:21:06Z</time>
      </trkpt>
      <trkpt lat="45.97825" lon="6.31888">
        <ele>1452</ele>
        <time>2014-06-01T11:21:08Z</time>
      </trkpt>
      <trkpt lat="45.97824" lon="6.3189">
        <ele>1453</ele>
        <time>2014-06-01T11:21:10Z</time>
      </trkpt>
      <trkpt lat="45.97824" lon="6.31891">
        <ele>1454</ele>
        <time>2014-06-01T11:21:12Z</time>
      </trkpt>
      <trkpt lat="45.97825" lon="6.31892">
        <ele>1456</ele>
        <time>2014-06-01T11:21:15Z</time>
      </trkpt>
      <trkpt lat="45.97826" lon="6.31894">
        <ele>1458</ele>
        <time>2014-06-01T11:21:17Z</time>
      </trkpt>
      <trkpt lat="45.97827" lon="6.31895">
        <ele>1459</ele>
        <time>2014-06-01T11:21:19Z</time>
      </trkpt>
      <trkpt lat="45.97827" lon="6.31897">
        <ele>1461</ele>
        <time>2014-06-01T11:21:21Z</time>
      </trkpt>
      <trkpt lat="45.97826" lon="6.31898">
        <ele>1462</ele>
        <time>2014-06-01T11:21:23Z</time>
      </trkpt>
      <trkpt lat="45.97826" lon="6.31899">
        <ele>1464</ele>
        <time>2014-06-01T11:21:26Z</time>
      </trkpt>
      <trkpt lat="45.97826" lon="6.319">
        <ele>1465</ele>
        <time>2014-06-01T11:21:28Z</time>
      </trkpt>
      <trkpt lat="45.97825" lon="6.31902">
        <ele>1466</ele>
        <time>2014-06-01T11:21:30Z</time>
      </trkpt>
      <trkpt lat="45.97825" lon="6.31904">
        <ele>1467</ele>
        <time>2014-06-01T11:21:32Z</time>
      </trkpt>
      <trkpt lat="45.97823" lon="6.31906">
        <ele>1467</ele>
        <time>2014-06-01T11:21:35Z</time>
      </trkpt>
      <trkpt lat="45.97822" lon="6.31907">
        <ele>1467</ele>
        <time>2014-06-01T11:21:37Z</time>
      </trkpt>
      <trkpt lat="45.97821" lon="6.31909">
        <ele>1467</ele>
        <time>2014-06-01T11:21:39Z</time>
      </trkpt>
      <trkpt lat="45.97821" lon="6.3191">
        <ele>1467</ele>
        <time>2014-06-01T11:21:41Z</time>
      </trkpt>
      <trkpt lat="45.97821" lon="6.31912">
        <ele>1467</ele>
        <time>2014-06-01T11:21:43Z</time>
      </trkpt>
      <trkpt lat="45.97822" lon="6.31914">
        <ele>1467</ele>
        <time>2014-06-01T11:21:46Z</time>
      </trkpt>
      <trkpt lat="45.97823" lon="6.31916">
        <ele>1467</ele>
        <time>2014-06-01T11:21:48Z</time>
      </trkpt>
      <trkpt lat="45.97824" lon="6.31917">
        <ele>1468</ele>
        <time>2014-06-01T11:21:50Z</time>
      </trkpt>
      <trkpt lat="45.97825" lon="6.31917">
        <ele>1469</ele>
        <time>2014-06-01T11:21:52Z</time>
      </trkpt>
      <trkpt lat="45.97823" lon="6.31918">
        <ele>1470</ele>
        <time>2014-06-01T11:21:55Z</time>
      </trkpt>
      <trkpt lat="45.97824" lon="6.31919">
        <ele>1471</ele>
        <time>2014-06-01T11:21:57Z</time>
      </trkpt>
      <trkpt lat="45.97824" lon="6.3192">
        <ele>1471</ele>
        <time>2014-06-01T11:21:59Z</time>
      </trkpt>
      <trkpt lat="45.97823" lon="6.31923">
        <ele>1471</ele>
        <time>2014-06-01T11:22:01Z</time>
      </trkpt>
      <trkpt lat="45.97824" lon="6.31926">
        <ele>1471</ele>
        <time>2014-06-01T11:22:04Z</time>
      </trkpt>
      <trkpt lat="45.97824" lon="6.31928">
        <ele>1471</ele>
        <time>2014-06-01T11:22:06Z</time>
      </trkpt>
      <trkpt lat="45.97825" lon="6.31929">
        <ele>1471</ele>
        <time>2014-06-01T11:22:08Z</time>
      </trkpt>
      <trkpt lat="45.97825" lon="6.3193">
        <ele>1471</ele>
        <time>2014-06-01T11:22:10Z</time>
      </trkpt>
      <trkpt lat="45.97824" lon="6.31932">
        <ele>1471</ele>
        <time>2014-06-01T11:22:12Z</time>
      </trkpt>
      <trkpt lat="45.97824" lon="6.31935">
        <ele>1471</ele>
        <time>2014-06-01T11:22:15Z</time>
      </trkpt>
      <trkpt lat="45.97825" lon="6.31937">
        <ele>1470</ele>
        <time>2014-06-01T11:22:17Z</time>
      </trkpt>
      <trkpt lat="45.97824" lon="6.3194">
        <ele>1470</ele>
        <time>2014-06-01T11:22:19Z</time>
      </trkpt>
      <trkpt lat="45.97825" lon="6.31943">
        <ele>1468</ele>
        <time>2014-06-01T11:22:21Z</time>
      </trkpt>
      <trkpt lat="45.97825" lon="6.31945">
        <ele>1468</ele>
        <time>2014-06-01T11:22:24Z</time>
      </trkpt>
      <trkpt lat="45.97826" lon="6.31947">
        <ele>1468</ele>
        <time>2014-06-01T11:22:26Z</time>
      </trkpt>
      <trkpt lat="45.97826" lon="6.31949">
        <ele>1468</ele>
        <time>2014-06-01T11:22:28Z</time>
      </trkpt>
      <trkpt lat="45.97827" lon="6.31951">
        <ele>1468</ele>
        <time>2014-06-01T11:22:30Z</time>
      </trkpt>
      <trkpt lat="45.97827" lon="6.31953">
        <ele>1468</ele>
        <time>2014-06-01T11:22:33Z</time>
      </trkpt>
      <trkpt lat="45.97827" lon="6.31956">
        <ele>1468</ele>
        <time>2014-06-01T11:22:35Z</time>
      </trkpt>
      <trkpt lat="45.97828" lon="6.31958">
        <ele>1468</ele>
        <time>2014-06-01T11:22:37Z</time>
      </trkpt>
      <trkpt lat="45.97828" lon="6.3196">
        <ele>1468</ele>
        <time>2014-06-01T11:22:39Z</time>
      </trkpt>
      <trkpt lat="45.97829" lon="6.31961">
        <ele>1468</ele>
        <time>2014-06-01T11:22:41Z</time>
      </trkpt>
      <trkpt lat="45.9783" lon="6.31964">
        <ele>1468</ele>
        <time>2014-06-01T11:22:44Z</time>
      </trkpt>
      <trkpt lat="45.9783" lon="6.31965">
        <ele>1468</ele>
        <time>2014-06-01T11:22:46Z</time>
      </trkpt>
      <trkpt lat="45.97831" lon="6.31968">
        <ele>1468</ele>
        <time>2014-06-01T11:22:48Z</time>
      </trkpt>
      <trkpt lat="45.97831" lon="6.3197">
        <ele>1468</ele>
        <time>2014-06-01T11:22:50Z</time>
      </trkpt>
      <trkpt lat="45.97832" lon="6.31972">
        <ele>1468</ele>
        <time>2014-06-01T11:22:53Z</time>
      </trkpt>
      <trkpt lat="45.97833" lon="6.31974">
        <ele>1468</ele>
        <time>2014-06-01T11:22:55Z</time>
      </trkpt>
      <trkpt lat="45.97834" lon="6.31975">
        <ele>1468</ele>
        <time>2014-06-01T11:22:57Z</time>
      </trkpt>
      <trkpt lat="45.97835" lon="6.31977">
        <ele>1468</ele>
        <time>2014-06-01T11:22:59Z</time>
      </trkpt>
      <trkpt lat="45.97836" lon="6.3198">
        <ele>1470</ele>
        <time>2014-06-01T11:23:02Z</time>
      </trkpt>
      <trkpt lat="45.97839" lon="6.31982">
        <ele>1471</ele>
        <time>2014-06-01T11:23:04Z</time>
      </trkpt>
      <trkpt lat="45.9784" lon="6.31984">
        <ele>1471</ele>
        <time>2014-06-01T11:23:06Z</time>
      </trkpt>
      <trkpt lat="45.9784" lon="6.31985">
        <ele>1472</ele>
        <time>2014-06-01T11:23:08Z</time>
      </trkpt>
      <trkpt lat="45.97841" lon="6.31986">
        <ele>1472</ele>
        <time>2014-06-01T11:23:10Z</time>
      </trkpt>
      <trkpt lat="45.97843" lon="6.3199">
        <ele>1473</ele>
        <time>2014-06-01T11:23:13Z</time>
      </trkpt>
      <trkpt lat="45.97844" lon="6.31992">
        <ele>1474</ele>
        <time>2014-06-01T11:23:15Z</time>
      </trkpt>
      <trkpt lat="45.97844" lon="6.31994">
        <ele>1474</ele>
        <time>2014-06-01T11:23:17Z</time>
      </trkpt>
      <trkpt lat="45.97845" lon="6.31996">
        <ele>1474</ele>
        <time>2014-06-01T11:23:19Z</time>
      </trkpt>
      <trkpt lat="45.97848" lon="6.31996">
        <ele>1474</ele>
        <time>2014-06-01T11:23:22Z</time>
      </trkpt>
      <trkpt lat="45.97849" lon="6.31997">
        <ele>1474</ele>
        <time>2014-06-01T11:23:24Z</time>
      </trkpt>
      <trkpt lat="45.97849" lon="6.31998">
        <ele>1474</ele>
        <time>2014-06-01T11:23:26Z</time>
      </trkpt>
      <trkpt lat="45.97849" lon="6.31998">
        <ele>1475</ele>
        <time>2014-06-01T11:23:28Z</time>
      </trkpt>
      <trkpt lat="45.97851" lon="6.31999">
        <ele>1476</ele>
        <time>2014-06-01T11:23:31Z</time>
      </trkpt>
      <trkpt lat="45.97851" lon="6.31999">
        <ele>1478</ele>
        <time>2014-06-01T11:23:33Z</time>
      </trkpt>
      <trkpt lat="45.97852" lon="6.32">
        <ele>1479</ele>
        <time>2014-06-01T11:23:35Z</time>
      </trkpt>
      <trkpt lat="45.97851" lon="6.32">
        <ele>1480</ele>
        <time>2014-06-01T11:23:37Z</time>
      </trkpt>
      <trkpt lat="45.9785" lon="6.32">
        <ele>1481</ele>
        <time>2014-06-01T11:23:39Z</time>
      </trkpt>
      <trkpt lat="45.97852" lon="6.32">
        <ele>1482</ele>
        <time>2014-06-01T11:23:42Z</time>
      </trkpt>
      <trkpt lat="45.97852" lon="6.32001">
        <ele>1483</ele>
        <time>2014-06-01T11:23:44Z</time>
      </trkpt>
      <trkpt lat="45.97853" lon="6.32001">
        <ele>1484</ele>
        <time>2014-06-01T11:23:46Z</time>
      </trkpt>
      <trkpt lat="45.97853" lon="6.32001">
        <ele>1485</ele>
        <time>2014-06-01T11:23:48Z</time>
      </trkpt>
      <trkpt lat="45.97853" lon="6.32001">
        <ele>1486</ele>
        <time>2014-06-01T11:23:51Z</time>
      </trkpt>
      <trkpt lat="45.97853" lon="6.32001">
        <ele>1487</ele>
        <time>2014-06-01T11:23:53Z</time>
      </trkpt>
      <trkpt lat="45.97853" lon="6.32001">
        <ele>1487</ele>
        <time>2014-06-01T11:23:55Z</time>
      </trkpt>
      <trkpt lat="45.97853" lon="6.32001">
        <ele>1487</ele>
        <time>2014-06-01T11:23:57Z</time>
      </trkpt>
      <trkpt lat="45.97853" lon="6.32002">
        <ele>1487</ele>
        <time>2014-06-01T11:23:59Z</time>
      </trkpt>
      <trkpt lat="45.97854" lon="6.32004">
        <ele>1487</ele>
        <time>2014-06-01T11:24:02Z</time>
      </trkpt>
      <trkpt lat="45.97854" lon="6.32004">
        <ele>1487</ele>
        <time>2014-06-01T11:24:04Z</time>
      </trkpt>
      <trkpt lat="45.97854" lon="6.32005">
        <ele>1487</ele>
        <time>2014-06-01T11:24:06Z</time>
      </trkpt>
      <trkpt lat="45.97853" lon="6.32005">
        <ele>1487</ele>
        <time>2014-06-01T11:24:08Z</time>
      </trkpt>
      <trkpt lat="45.97853" lon="6.32006">
        <ele>1487</ele>
        <time>2014-06-01T11:24:11Z</time>
      </trkpt>
      <trkpt lat="45.97853" lon="6.32006">
        <ele>1487</ele>
        <time>2014-06-01T11:24:13Z</time>
      </trkpt>
      <trkpt lat="45.97853" lon="6.32006">
        <ele>1487</ele>
        <time>2014-06-01T11:24:15Z</time>
      </trkpt>
      <trkpt lat="45.97852" lon="6.32006">
        <ele>1487</ele>
        <time>2014-06-01T11:24:17Z</time>
      </trkpt>
      <trkpt lat="45.97851" lon="6.32006">
        <ele>1487</ele>
        <time>2014-06-01T11:24:19Z</time>
      </trkpt>
      <trkpt lat="45.97852" lon="6.32006">
        <ele>1487</ele>
        <time>2014-06-01T11:24:22Z</time>
      </trkpt>
      <trkpt lat="45.97853" lon="6.32007">
        <ele>1487</ele>
        <time>2014-06-01T11:24:24Z</time>
      </trkpt>
      <trkpt lat="45.97853" lon="6.32007">
        <ele>1487</ele>
        <time>2014-06-01T11:24:26Z</time>
      </trkpt>
      <trkpt lat="45.97853" lon="6.32007">
        <ele>1487</ele>
        <time>2014-06-01T11:24:28Z</time>
      </trkpt>
      <trkpt lat="45.97853" lon="6.32007">
        <ele>1487</ele>
        <time>2014-06-01T11:24:31Z</time>
      </trkpt>
      <trkpt lat="45.97853" lon="6.32007">
        <ele>1487</ele>
        <time>2014-06-01T11:24:33Z</time>
      </trkpt>
      <trkpt lat="45.97853" lon="6.32007">
        <ele>1487</ele>
        <time>2014-06-01T11:24:35Z</time>
      </trkpt>
      <trkpt lat="45.97853" lon="6.32007">
        <ele>1487</ele>
        <time>2014-06-01T11:24:37Z</time>
      </trkpt>
      <trkpt lat="45.97853" lon="6.32007">
        <ele>1487</ele>
        <time>2014-06-01T11:24:39Z</time>
      </trkpt>
      <trkpt lat="45.97853" lon="6.32008">
        <ele>1487</ele>
        <time>2014-06-01T11:24:42Z</time>
      </trkpt>
      <trkpt lat="45.97853" lon="6.32008">
        <ele>1487</ele>
        <time>2014-06-01T11:24:44Z</time>
      </trkpt>
      <trkpt lat="45.97853" lon="6.32008">
        <ele>1488</ele>
        <time>2014-06-01T11:24:46Z</time>
      </trkpt>
      <trkpt lat="45.97852" lon="6.32008">
        <ele>1488</ele>
        <time>2014-06-01T11:24:48Z</time>
      </trkpt>
      <trkpt lat="45.97852" lon="6.32008">
        <ele>1488</ele>
        <time>2014-06-01T11:24:51Z</time>
      </trkpt>
      <trkpt lat="45.97851" lon="6.32008">
        <ele>1488</ele>
        <time>2014-06-01T11:24:53Z</time>
      </trkpt>
      <trkpt lat="45.97851" lon="6.32008">
        <ele>1488</ele>
        <time>2014-06-01T11:24:55Z</time>
      </trkpt>
      <trkpt lat="45.97851" lon="6.32008">
        <ele>1488</ele>
        <time>2014-06-01T11:24:57Z</time>
      </trkpt>
      <trkpt lat="45.97851" lon="6.32008">
        <ele>1488</ele>
        <time>2014-06-01T11:24:59Z</time>
      </trkpt>
      <trkpt lat="45.97853" lon="6.32008">
        <ele>1488</ele>
        <time>2014-06-01T11:25:02Z</time>
      </trkpt>
      <trkpt lat="45.97854" lon="6.32008">
        <ele>1488</ele>
        <time>2014-06-01T11:25:04Z</time>
      </trkpt>
      <trkpt lat="45.97854" lon="6.32008">
        <ele>1488</ele>
        <time>2014-06-01T11:25:06Z</time>
      </trkpt>
      <trkpt lat="45.97854" lon="6.32008">
        <ele>1488</ele>
        <time>2014-06-01T11:25:08Z</time>
      </trkpt>
      <trkpt lat="45.97854" lon="6.32008">
        <ele>1488</ele>
        <time>2014-06-01T11:25:11Z</time>
      </trkpt>
      <trkpt lat="45.97853" lon="6.32008">
        <ele>1488</ele>
        <time>2014-06-01T11:25:13Z</time>
      </trkpt>
      <trkpt lat="45.97853" lon="6.32008">
        <ele>1488</ele>
        <time>2014-06-01T11:25:15Z</time>
      </trkpt>
      <trkpt lat="45.97853" lon="6.32008">
        <ele>1488</ele>
        <time>2014-06-01T11:25:17Z</time>
      </trkpt>
      <trkpt lat="45.97853" lon="6.32008">
        <ele>1487</ele>
        <time>2014-06-01T11:25:19Z</time>
      </trkpt>
      <trkpt lat="45.97853" lon="6.32008">
        <ele>1486</ele>
        <time>2014-06-01T11:25:22Z</time>
      </trkpt>
      <trkpt lat="45.97853" lon="6.32008">
        <ele>1485</ele>
        <time>2014-06-01T11:25:24Z</time>
      </trkpt>
      <trkpt lat="45.97852" lon="6.32008">
        <ele>1485</ele>
        <time>2014-06-01T11:25:26Z</time>
      </trkpt>
      <trkpt lat="45.97852" lon="6.32008">
        <ele>1485</ele>
        <time>2014-06-01T11:25:28Z</time>
      </trkpt>
      <trkpt lat="45.97851" lon="6.32008">
        <ele>1485</ele>
        <time>2014-06-01T11:25:31Z</time>
      </trkpt>
      <trkpt lat="45.9785" lon="6.32008">
        <ele>1484</ele>
        <time>2014-06-01T11:25:33Z</time>
      </trkpt>
      <trkpt lat="45.97849" lon="6.32008">
        <ele>1483</ele>
        <time>2014-06-01T11:25:35Z</time>
      </trkpt>
      <trkpt lat="45.97849" lon="6.32008">
        <ele>1483</ele>
        <time>2014-06-01T11:25:37Z</time>
      </trkpt>
      <trkpt lat="45.97849" lon="6.32008">
        <ele>1483</ele>
        <time>2014-06-01T11:25:39Z</time>
      </trkpt>
      <trkpt lat="45.97848" lon="6.32008">
        <ele>1483</ele>
        <time>2014-06-01T11:25:42Z</time>
      </trkpt>
      <trkpt lat="45.97848" lon="6.32007">
        <ele>1483</ele>
        <time>2014-06-01T11:25:44Z</time>
      </trkpt>
      <trkpt lat="45.97848" lon="6.32007">
        <ele>1483</ele>
        <time>2014-06-01T11:25:46Z</time>
      </trkpt>
      <trkpt lat="45.97848" lon="6.32007">
        <ele>1483</ele>
        <time>2014-06-01T11:25:48Z</time>
      </trkpt>
      <trkpt lat="45.97848" lon="6.32007">
        <ele>1483</ele>
        <time>2014-06-01T11:25:51Z</time>
      </trkpt>
      <trkpt lat="45.97847" lon="6.32007">
        <ele>1482</ele>
        <time>2014-06-01T11:25:53Z</time>
      </trkpt>
      <trkpt lat="45.97847" lon="6.32007">
        <ele>1482</ele>
        <time>2014-06-01T11:25:55Z</time>
      </trkpt>
      <trkpt lat="45.97847" lon="6.32007">
        <ele>1482</ele>
        <time>2014-06-01T11:25:57Z</time>
      </trkpt>
      <trkpt lat="45.97847" lon="6.32006">
        <ele>1482</ele>
        <time>2014-06-01T11:25:59Z</time>
      </trkpt>
      <trkpt lat="45.97846" lon="6.32006">
        <ele>1482</ele>
        <time>2014-06-01T11:26:02Z</time>
      </trkpt>
      <trkpt lat="45.97846" lon="6.32006">
        <ele>1482</ele>
        <time>2014-06-01T11:26:04Z</time>
      </trkpt>
      <trkpt lat="45.97846" lon="6.32006">
        <ele>1482</ele>
        <time>2014-06-01T11:26:06Z</time>
      </trkpt>
      <trkpt lat="45.97846" lon="6.32006">
        <ele>1482</ele>
        <time>2014-06-01T11:26:08Z</time>
      </trkpt>
      <trkpt lat="45.97846" lon="6.32006">
        <ele>1482</ele>
        <time>2014-06-01T11:26:11Z</time>
      </trkpt>
      <trkpt lat="45.97845" lon="6.32007">
        <ele>1481</ele>
        <time>2014-06-01T11:26:13Z</time>
      </trkpt>
      <trkpt lat="45.97846" lon="6.32007">
        <ele>1481</ele>
        <time>2014-06-01T11:26:15Z</time>
      </trkpt>
      <trkpt lat="45.97847" lon="6.32009">
        <ele>1481</ele>
        <time>2014-06-01T11:26:17Z</time>
      </trkpt>
      <trkpt lat="45.97847" lon="6.3201">
        <ele>1481</ele>
        <time>2014-06-01T11:26:19Z</time>
      </trkpt>
      <trkpt lat="45.97848" lon="6.32012">
        <ele>1480</ele>
        <time>2014-06-01T11:26:22Z</time>
      </trkpt>
      <trkpt lat="45.97848" lon="6.32013">
        <ele>1480</ele>
        <time>2014-06-01T11:26:24Z</time>
      </trkpt>
      <trkpt lat="45.97849" lon="6.32014">
        <ele>1480</ele>
        <time>2014-06-01T11:26:26Z</time>
      </trkpt>
      <trkpt lat="45.97849" lon="6.32015">
        <ele>1480</ele>
        <time>2014-06-01T11:26:28Z</time>
      </trkpt>
      <trkpt lat="45.9785" lon="6.32017">
        <ele>1480</ele>
        <time>2014-06-01T11:26:31Z</time>
      </trkpt>
      <trkpt lat="45.97851" lon="6.32018">
        <ele>1480</ele>
        <time>2014-06-01T11:26:33Z</time>
      </trkpt>
      <trkpt lat="45.97852" lon="6.3202">
        <ele>1480</ele>
        <time>2014-06-01T11:26:35Z</time>
      </trkpt>
      <trkpt lat="45.97853" lon="6.32022">
        <ele>1480</ele>
        <time>2014-06-01T11:26:37Z</time>
      </trkpt>
      <trkpt lat="45.97854" lon="6.32023">
        <ele>1480</ele>
        <time>2014-06-01T11:26:40Z</time>
      </trkpt>
      <trkpt lat="45.97855" lon="6.32027">
        <ele>1480</ele>
        <time>2014-06-01T11:26:42Z</time>
      </trkpt>
      <trkpt lat="45.97856" lon="6.32028">
        <ele>1480</ele>
        <time>2014-06-01T11:26:44Z</time>
      </trkpt>
      <trkpt lat="45.97857" lon="6.3203">
        <ele>1481</ele>
        <time>2014-06-01T11:26:46Z</time>
      </trkpt>
      <trkpt lat="45.97858" lon="6.32031">
        <ele>1482</ele>
        <time>2014-06-01T11:26:48Z</time>
      </trkpt>
      <trkpt lat="45.97859" lon="6.32036">
        <ele>1483</ele>
        <time>2014-06-01T11:26:51Z</time>
      </trkpt>
      <trkpt lat="45.97861" lon="6.32039">
        <ele>1483</ele>
        <time>2014-06-01T11:26:53Z</time>
      </trkpt>
      <trkpt lat="45.97862" lon="6.32042">
        <ele>1484</ele>
        <time>2014-06-01T11:26:55Z</time>
      </trkpt>
      <trkpt lat="45.97863" lon="6.32044">
        <ele>1484</ele>
        <time>2014-06-01T11:26:57Z</time>
      </trkpt>
      <trkpt lat="45.97864" lon="6.32048">
        <ele>1484</ele>
        <time>2014-06-01T11:27:00Z</time>
      </trkpt>
      <trkpt lat="45.97865" lon="6.3205">
        <ele>1485</ele>
        <time>2014-06-01T11:27:02Z</time>
      </trkpt>
      <trkpt lat="45.97866" lon="6.32052">
        <ele>1486</ele>
        <time>2014-06-01T11:27:04Z</time>
      </trkpt>
      <trkpt lat="45.97867" lon="6.32054">
        <ele>1487</ele>
        <time>2014-06-01T11:27:06Z</time>
      </trkpt>
      <trkpt lat="45.97868" lon="6.32056">
        <ele>1488</ele>
        <time>2014-06-01T11:27:08Z</time>
      </trkpt>
      <trkpt lat="45.97869" lon="6.32059">
        <ele>1488</ele>
        <time>2014-06-01T11:27:11Z</time>
      </trkpt>
      <trkpt lat="45.9787" lon="6.32062">
        <ele>1488</ele>
        <time>2014-06-01T11:27:13Z</time>
      </trkpt>
      <trkpt lat="45.97871" lon="6.32065">
        <ele>1488</ele>
        <time>2014-06-01T11:27:15Z</time>
      </trkpt>
      <trkpt lat="45.97872" lon="6.32066">
        <ele>1489</ele>
        <time>2014-06-01T11:27:17Z</time>
      </trkpt>
      <trkpt lat="45.97874" lon="6.32069">
        <ele>1490</ele>
        <time>2014-06-01T11:27:20Z</time>
      </trkpt>
      <trkpt lat="45.97875" lon="6.32072">
        <ele>1491</ele>
        <time>2014-06-01T11:27:22Z</time>
      </trkpt>
      <trkpt lat="45.97877" lon="6.32075">
        <ele>1491</ele>
        <time>2014-06-01T11:27:24Z</time>
      </trkpt>
      <trkpt lat="45.97878" lon="6.32078">
        <ele>1492</ele>
        <time>2014-06-01T11:27:26Z</time>
      </trkpt>
      <trkpt lat="45.97879" lon="6.32081">
        <ele>1492</ele>
        <time>2014-06-01T11:27:28Z</time>
      </trkpt>
      <trkpt lat="45.97881" lon="6.32085">
        <ele>1492</ele>
        <time>2014-06-01T11:27:31Z</time>
      </trkpt>
      <trkpt lat="45.97883" lon="6.32088">
        <ele>1492</ele>
        <time>2014-06-01T11:27:33Z</time>
      </trkpt>
      <trkpt lat="45.97884" lon="6.3209">
        <ele>1493</ele>
        <time>2014-06-01T11:27:35Z</time>
      </trkpt>
      <trkpt lat="45.97884" lon="6.32092">
        <ele>1493</ele>
        <time>2014-06-01T11:27:37Z</time>
      </trkpt>
      <trkpt lat="45.97886" lon="6.32096">
        <ele>1494</ele>
        <time>2014-06-01T11:27:40Z</time>
      </trkpt>
      <trkpt lat="45.97887" lon="6.32099">
        <ele>1495</ele>
        <time>2014-06-01T11:27:42Z</time>
      </trkpt>
      <trkpt lat="45.97888" lon="6.32101">
        <ele>1495</ele>
        <time>2014-06-01T11:27:44Z</time>
      </trkpt>
      <trkpt lat="45.97889" lon="6.32103">
        <ele>1495</ele>
        <time>2014-06-01T11:27:46Z</time>
      </trkpt>
      <trkpt lat="45.97891" lon="6.32106">
        <ele>1496</ele>
        <time>2014-06-01T11:27:49Z</time>
      </trkpt>
      <trkpt lat="45.97893" lon="6.32109">
        <ele>1496</ele>
        <time>2014-06-01T11:27:51Z</time>
      </trkpt>
      <trkpt lat="45.97894" lon="6.32111">
        <ele>1496</ele>
        <time>2014-06-01T11:27:53Z</time>
      </trkpt>
      <trkpt lat="45.97895" lon="6.32113">
        <ele>1496</ele>
        <time>2014-06-01T11:27:55Z</time>
      </trkpt>
      <trkpt lat="45.97896" lon="6.32116">
        <ele>1496</ele>
        <time>2014-06-01T11:27:57Z</time>
      </trkpt>
      <trkpt lat="45.97896" lon="6.32118">
        <ele>1496</ele>
        <time>2014-06-01T11:28:00Z</time>
      </trkpt>
      <trkpt lat="45.97896" lon="6.32119">
        <ele>1496</ele>
        <time>2014-06-01T11:28:02Z</time>
      </trkpt>
      <trkpt lat="45.97897" lon="6.32121">
        <ele>1496</ele>
        <time>2014-06-01T11:28:04Z</time>
      </trkpt>
      <trkpt lat="45.97897" lon="6.32123">
        <ele>1497</ele>
        <time>2014-06-01T11:28:06Z</time>
      </trkpt>
      <trkpt lat="45.97897" lon="6.32126">
        <ele>1498</ele>
        <time>2014-06-01T11:28:09Z</time>
      </trkpt>
      <trkpt lat="45.97896" lon="6.32127">
        <ele>1499</ele>
        <time>2014-06-01T11:28:11Z</time>
      </trkpt>
      <trkpt lat="45.97895" lon="6.32128">
        <ele>1499</ele>
        <time>2014-06-01T11:28:13Z</time>
      </trkpt>
      <trkpt lat="45.97894" lon="6.32128">
        <ele>1500</ele>
        <time>2014-06-01T11:28:15Z</time>
      </trkpt>
      <trkpt lat="45.97892" lon="6.3213">
        <ele>1500</ele>
        <time>2014-06-01T11:28:17Z</time>
      </trkpt>
      <trkpt lat="45.9789" lon="6.32132">
        <ele>1500</ele>
        <time>2014-06-01T11:28:20Z</time>
      </trkpt>
      <trkpt lat="45.97888" lon="6.32133">
        <ele>1500</ele>
        <time>2014-06-01T11:28:22Z</time>
      </trkpt>
      <trkpt lat="45.97887" lon="6.32133">
        <ele>1500</ele>
        <time>2014-06-01T11:28:24Z</time>
      </trkpt>
      <trkpt lat="45.97886" lon="6.32132">
        <ele>1500</ele>
        <time>2014-06-01T11:28:26Z</time>
      </trkpt>
      <trkpt lat="45.97885" lon="6.32133">
        <ele>1500</ele>
        <time>2014-06-01T11:28:29Z</time>
      </trkpt>
      <trkpt lat="45.97884" lon="6.32133">
        <ele>1500</ele>
        <time>2014-06-01T11:28:31Z</time>
      </trkpt>
      <trkpt lat="45.97883" lon="6.32134">
        <ele>1500</ele>
        <time>2014-06-01T11:28:33Z</time>
      </trkpt>
      <trkpt lat="45.97881" lon="6.32134">
        <ele>1500</ele>
        <time>2014-06-01T11:28:35Z</time>
      </trkpt>
      <trkpt lat="45.97878" lon="6.32134">
        <ele>1500</ele>
        <time>2014-06-01T11:28:38Z</time>
      </trkpt>
      <trkpt lat="45.97876" lon="6.32133">
        <ele>1500</ele>
        <time>2014-06-01T11:28:40Z</time>
      </trkpt>
      <trkpt lat="45.97874" lon="6.32133">
        <ele>1500</ele>
        <time>2014-06-01T11:28:42Z</time>
      </trkpt>
      <trkpt lat="45.97873" lon="6.32134">
        <ele>1500</ele>
        <time>2014-06-01T11:28:44Z</time>
      </trkpt>
      <trkpt lat="45.97872" lon="6.32134">
        <ele>1500</ele>
        <time>2014-06-01T11:28:46Z</time>
      </trkpt>
      <trkpt lat="45.97872" lon="6.32135">
        <ele>1500</ele>
        <time>2014-06-01T11:28:49Z</time>
      </trkpt>
      <trkpt lat="45.97872" lon="6.32136">
        <ele>1500</ele>
        <time>2014-06-01T11:28:51Z</time>
      </trkpt>
      <trkpt lat="45.97872" lon="6.32138">
        <ele>1500</ele>
        <time>2014-06-01T11:28:53Z</time>
      </trkpt>
      <trkpt lat="45.97872" lon="6.3214">
        <ele>1500</ele>
        <time>2014-06-01T11:28:55Z</time>
      </trkpt>
      <trkpt lat="45.97869" lon="6.32139">
        <ele>1501</ele>
        <time>2014-06-01T11:28:58Z</time>
      </trkpt>
      <trkpt lat="45.97867" lon="6.32139">
        <ele>1502</ele>
        <time>2014-06-01T11:29:00Z</time>
      </trkpt>
      <trkpt lat="45.97865" lon="6.32138">
        <ele>1502</ele>
        <time>2014-06-01T11:29:02Z</time>
      </trkpt>
      <trkpt lat="45.97864" lon="6.32138">
        <ele>1502</ele>
        <time>2014-06-01T11:29:04Z</time>
      </trkpt>
      <trkpt lat="45.97862" lon="6.32139">
        <ele>1502</ele>
        <time>2014-06-01T11:29:06Z</time>
      </trkpt>
      <trkpt lat="45.9786" lon="6.32138">
        <ele>1502</ele>
        <time>2014-06-01T11:29:09Z</time>
      </trkpt>
      <trkpt lat="45.97859" lon="6.32138">
        <ele>1502</ele>
        <time>2014-06-01T11:29:11Z</time>
      </trkpt>
      <trkpt lat="45.97858" lon="6.32137">
        <ele>1502</ele>
        <time>2014-06-01T11:29:13Z</time>
      </trkpt>
      <trkpt lat="45.97857" lon="6.32137">
        <ele>1503</ele>
        <time>2014-06-01T11:29:15Z</time>
      </trkpt>
      <trkpt lat="45.97854" lon="6.32136">
        <ele>1503</ele>
        <time>2014-06-01T11:29:18Z</time>
      </trkpt>
      <trkpt lat="45.97852" lon="6.32136">
        <ele>1503</ele>
        <time>2014-06-01T11:29:20Z</time>
      </trkpt>
      <trkpt lat="45.9785" lon="6.32136">
        <ele>1504</ele>
        <time>2014-06-01T11:29:22Z</time>
      </trkpt>
      <trkpt lat="45.97848" lon="6.32136">
        <ele>1504</ele>
        <time>2014-06-01T11:29:24Z</time>
      </trkpt>
      <trkpt lat="45.97847" lon="6.32136">
        <ele>1504</ele>
        <time>2014-06-01T11:29:26Z</time>
      </trkpt>
      <trkpt lat="45.97846" lon="6.32135">
        <ele>1505</ele>
        <time>2014-06-01T11:29:29Z</time>
      </trkpt>
      <trkpt lat="45.97846" lon="6.32135">
        <ele>1505</ele>
        <time>2014-06-01T11:29:31Z</time>
      </trkpt>
      <trkpt lat="45.97846" lon="6.32134">
        <ele>1506</ele>
        <time>2014-06-01T11:29:33Z</time>
      </trkpt>
      <trkpt lat="45.97846" lon="6.32134">
        <ele>1506</ele>
        <time>2014-06-01T11:29:35Z</time>
      </trkpt>
      <trkpt lat="45.97846" lon="6.32133">
        <ele>1506</ele>
        <time>2014-06-01T11:29:38Z</time>
      </trkpt>
      <trkpt lat="45.97847" lon="6.32133">
        <ele>1507</ele>
        <time>2014-06-01T11:29:40Z</time>
      </trkpt>
      <trkpt lat="45.97847" lon="6.32132">
        <ele>1508</ele>
        <time>2014-06-01T11:29:42Z</time>
      </trkpt>
      <trkpt lat="45.97847" lon="6.32132">
        <ele>1509</ele>
        <time>2014-06-01T11:29:44Z</time>
      </trkpt>
      <trkpt lat="45.97848" lon="6.32132">
        <ele>1510</ele>
        <time>2014-06-01T11:29:46Z</time>
      </trkpt>
      <trkpt lat="45.97846" lon="6.32134">
        <ele>1511</ele>
        <time>2014-06-01T11:29:49Z</time>
      </trkpt>
      <trkpt lat="45.97844" lon="6.32135">
        <ele>1511</ele>
        <time>2014-06-01T11:29:51Z</time>
      </trkpt>
      <trkpt lat="45.97843" lon="6.32135">
        <ele>1512</ele>
        <time>2014-06-01T11:29:53Z</time>
      </trkpt>
      <trkpt lat="45.97842" lon="6.32135">
        <ele>1512</ele>
        <time>2014-06-01T11:29:55Z</time>
      </trkpt>
      <trkpt lat="45.9784" lon="6.32135">
        <ele>1513</ele>
        <time>2014-06-01T11:29:58Z</time>
      </trkpt>
      <trkpt lat="45.97838" lon="6.32135">
        <ele>1513</ele>
        <time>2014-06-01T11:30:00Z</time>
      </trkpt>
      <trkpt lat="45.97837" lon="6.32136">
        <ele>1514</ele>
        <time>2014-06-01T11:30:02Z</time>
      </trkpt>
      <trkpt lat="45.97836" lon="6.32137">
        <ele>1514</ele>
        <time>2014-06-01T11:30:04Z</time>
      </trkpt>
      <trkpt lat="45.97835" lon="6.32137">
        <ele>1515</ele>
        <time>2014-06-01T11:30:06Z</time>
      </trkpt>
      <trkpt lat="45.97835" lon="6.32139">
        <ele>1516</ele>
        <time>2014-06-01T11:30:09Z</time>
      </trkpt>
      <trkpt lat="45.97834" lon="6.3214">
        <ele>1517</ele>
        <time>2014-06-01T11:30:11Z</time>
      </trkpt>
      <trkpt lat="45.97832" lon="6.32142">
        <ele>1518</ele>
        <time>2014-06-01T11:30:13Z</time>
      </trkpt>
      <trkpt lat="45.97831" lon="6.32143">
        <ele>1519</ele>
        <time>2014-06-01T11:30:15Z</time>
      </trkpt>
      <trkpt lat="45.97828" lon="6.32144">
        <ele>1520</ele>
        <time>2014-06-01T11:30:18Z</time>
      </trkpt>
      <trkpt lat="45.97827" lon="6.32145">
        <ele>1521</ele>
        <time>2014-06-01T11:30:20Z</time>
      </trkpt>
      <trkpt lat="45.97827" lon="6.32147">
        <ele>1521</ele>
        <time>2014-06-01T11:30:22Z</time>
      </trkpt>
      <trkpt lat="45.97826" lon="6.32149">
        <ele>1521</ele>
        <time>2014-06-01T11:30:24Z</time>
      </trkpt>
      <trkpt lat="45.97823" lon="6.3215">
        <ele>1521</ele>
        <time>2014-06-01T11:30:27Z</time>
      </trkpt>
      <trkpt lat="45.97822" lon="6.3215">
        <ele>1522</ele>
        <time>2014-06-01T11:30:29Z</time>
      </trkpt>
      <trkpt lat="45.97821" lon="6.32151">
        <ele>1522</ele>
        <time>2014-06-01T11:30:31Z</time>
      </trkpt>
      <trkpt lat="45.97819" lon="6.32151">
        <ele>1523</ele>
        <time>2014-06-01T11:30:33Z</time>
      </trkpt>
      <trkpt lat="45.97817" lon="6.32151">
        <ele>1523</ele>
        <time>2014-06-01T11:30:36Z</time>
      </trkpt>
      <trkpt lat="45.97813" lon="6.32152">
        <ele>1523</ele>
        <time>2014-06-01T11:30:38Z</time>
      </trkpt>
      <trkpt lat="45.9781" lon="6.32153">
        <ele>1523</ele>
        <time>2014-06-01T11:30:40Z</time>
      </trkpt>
      <trkpt lat="45.97808" lon="6.32152">
        <ele>1523</ele>
        <time>2014-06-01T11:30:42Z</time>
      </trkpt>
      <trkpt lat="45.97804" lon="6.32153">
        <ele>1523</ele>
        <time>2014-06-01T11:30:44Z</time>
      </trkpt>
      <trkpt lat="45.97801" lon="6.32154">
        <ele>1523</ele>
        <time>2014-06-01T11:30:47Z</time>
      </trkpt>
      <trkpt lat="45.97798" lon="6.32152">
        <ele>1523</ele>
        <time>2014-06-01T11:30:49Z</time>
      </trkpt>
      <trkpt lat="45.97795" lon="6.32152">
        <ele>1523</ele>
        <time>2014-06-01T11:30:51Z</time>
      </trkpt>
      <trkpt lat="45.97792" lon="6.32151">
        <ele>1523</ele>
        <time>2014-06-01T11:30:53Z</time>
      </trkpt>
      <trkpt lat="45.97789" lon="6.32151">
        <ele>1523</ele>
        <time>2014-06-01T11:30:56Z</time>
      </trkpt>
      <trkpt lat="45.97786" lon="6.3215">
        <ele>1523</ele>
        <time>2014-06-01T11:30:58Z</time>
      </trkpt>
      <trkpt lat="45.97782" lon="6.3215">
        <ele>1522</ele>
        <time>2014-06-01T11:31:00Z</time>
      </trkpt>
      <trkpt lat="45.9778" lon="6.32148">
        <ele>1522</ele>
        <time>2014-06-01T11:31:02Z</time>
      </trkpt>
      <trkpt lat="45.97779" lon="6.32147">
        <ele>1521</ele>
        <time>2014-06-01T11:31:04Z</time>
      </trkpt>
      <trkpt lat="45.97776" lon="6.32145">
        <ele>1521</ele>
        <time>2014-06-01T11:31:07Z</time>
      </trkpt>
      <trkpt lat="45.97775" lon="6.32144">
        <ele>1521</ele>
        <time>2014-06-01T11:31:09Z</time>
      </trkpt>
      <trkpt lat="45.97775" lon="6.3214">
        <ele>1521</ele>
        <time>2014-06-01T11:31:11Z</time>
      </trkpt>
      <trkpt lat="45.97774" lon="6.32136">
        <ele>1521</ele>
        <time>2014-06-01T11:31:13Z</time>
      </trkpt>
      <trkpt lat="45.97772" lon="6.32132">
        <ele>1521</ele>
        <time>2014-06-01T11:31:16Z</time>
      </trkpt>
      <trkpt lat="45.97769" lon="6.32129">
        <ele>1521</ele>
        <time>2014-06-01T11:31:18Z</time>
      </trkpt>
      <trkpt lat="45.97767" lon="6.32127">
        <ele>1521</ele>
        <time>2014-06-01T11:31:20Z</time>
      </trkpt>
      <trkpt lat="45.97767" lon="6.32125">
        <ele>1520</ele>
        <time>2014-06-01T11:31:22Z</time>
      </trkpt>
      <trkpt lat="45.97765" lon="6.32123">
        <ele>1520</ele>
        <time>2014-06-01T11:31:24Z</time>
      </trkpt>
      <trkpt lat="45.97762" lon="6.32119">
        <ele>1520</ele>
        <time>2014-06-01T11:31:27Z</time>
      </trkpt>
      <trkpt lat="45.97761" lon="6.32116">
        <ele>1518</ele>
        <time>2014-06-01T11:31:29Z</time>
      </trkpt>
      <trkpt lat="45.97759" lon="6.32113">
        <ele>1518</ele>
        <time>2014-06-01T11:31:31Z</time>
      </trkpt>
      <trkpt lat="45.97758" lon="6.32111">
        <ele>1518</ele>
        <time>2014-06-01T11:31:33Z</time>
      </trkpt>
      <trkpt lat="45.97756" lon="6.32108">
        <ele>1518</ele>
        <time>2014-06-01T11:31:36Z</time>
      </trkpt>
      <trkpt lat="45.97754" lon="6.32103">
        <ele>1518</ele>
        <time>2014-06-01T11:31:38Z</time>
      </trkpt>
      <trkpt lat="45.97753" lon="6.32102">
        <ele>1518</ele>
        <time>2014-06-01T11:31:40Z</time>
      </trkpt>
      <trkpt lat="45.97751" lon="6.32101">
        <ele>1518</ele>
        <time>2014-06-01T11:31:42Z</time>
      </trkpt>
      <trkpt lat="45.97749" lon="6.32099">
        <ele>1518</ele>
        <time>2014-06-01T11:31:44Z</time>
      </trkpt>
      <trkpt lat="45.97746" lon="6.32097">
        <ele>1518</ele>
        <time>2014-06-01T11:31:47Z</time>
      </trkpt>
      <trkpt lat="45.97744" lon="6.32096">
        <ele>1518</ele>
        <time>2014-06-01T11:31:49Z</time>
      </trkpt>
      <trkpt lat="45.97742" lon="6.32095">
        <ele>1518</ele>
        <time>2014-06-01T11:31:51Z</time>
      </trkpt>
      <trkpt lat="45.9774" lon="6.32093">
        <ele>1518</ele>
        <time>2014-06-01T11:31:53Z</time>
      </trkpt>
      <trkpt lat="45.97737" lon="6.32091">
        <ele>1518</ele>
        <time>2014-06-01T11:31:56Z</time>
      </trkpt>
      <trkpt lat="45.97734" lon="6.32088">
        <ele>1518</ele>
        <time>2014-06-01T11:31:58Z</time>
      </trkpt>
      <trkpt lat="45.97732" lon="6.32086">
        <ele>1518</ele>
        <time>2014-06-01T11:32:00Z</time>
      </trkpt>
      <trkpt lat="45.97728" lon="6.32085">
        <ele>1518</ele>
        <time>2014-06-01T11:32:02Z</time>
      </trkpt>
      <trkpt lat="45.97725" lon="6.32084">
        <ele>1518</ele>
        <time>2014-06-01T11:32:04Z</time>
      </trkpt>
      <trkpt lat="45.97721" lon="6.32083">
        <ele>1518</ele>
        <time>2014-06-01T11:32:07Z</time>
      </trkpt>
      <trkpt lat="45.97718" lon="6.32082">
        <ele>1518</ele>
        <time>2014-06-01T11:32:09Z</time>
      </trkpt>
      <trkpt lat="45.97715" lon="6.32082">
        <ele>1517</ele>
        <time>2014-06-01T11:32:11Z</time>
      </trkpt>
      <trkpt lat="45.97713" lon="6.32081">
        <ele>1517</ele>
        <time>2014-06-01T11:32:13Z</time>
      </trkpt>
      <trkpt lat="45.97709" lon="6.32079">
        <ele>1517</ele>
        <time>2014-06-01T11:32:16Z</time>
      </trkpt>
      <trkpt lat="45.97708" lon="6.32078">
        <ele>1517</ele>
        <time>2014-06-01T11:32:18Z</time>
      </trkpt>
      <trkpt lat="45.97706" lon="6.32078">
        <ele>1517</ele>
        <time>2014-06-01T11:32:20Z</time>
      </trkpt>
      <trkpt lat="45.97704" lon="6.32078">
        <ele>1517</ele>
        <time>2014-06-01T11:32:22Z</time>
      </trkpt>
      <trkpt lat="45.97701" lon="6.32077">
        <ele>1518</ele>
        <time>2014-06-01T11:32:24Z</time>
      </trkpt>
      <trkpt lat="45.97698" lon="6.32078">
        <ele>1520</ele>
        <time>2014-06-01T11:32:27Z</time>
      </trkpt>
      <trkpt lat="45.97695" lon="6.32077">
        <ele>1521</ele>
        <time>2014-06-01T11:32:29Z</time>
      </trkpt>
      <trkpt lat="45.97692" lon="6.32077">
        <ele>1521</ele>
        <time>2014-06-01T11:32:31Z</time>
      </trkpt>
      <trkpt lat="45.9769" lon="6.32077">
        <ele>1522</ele>
        <time>2014-06-01T11:32:33Z</time>
      </trkpt>
      <trkpt lat="45.97688" lon="6.32078">
        <ele>1522</ele>
        <time>2014-06-01T11:32:36Z</time>
      </trkpt>
      <trkpt lat="45.97686" lon="6.32079">
        <ele>1522</ele>
        <time>2014-06-01T11:32:38Z</time>
      </trkpt>
      <trkpt lat="45.97683" lon="6.32079">
        <ele>1523</ele>
        <time>2014-06-01T11:32:40Z</time>
      </trkpt>
      <trkpt lat="45.97682" lon="6.3208">
        <ele>1523</ele>
        <time>2014-06-01T11:32:42Z</time>
      </trkpt>
      <trkpt lat="45.9768" lon="6.32081">
        <ele>1524</ele>
        <time>2014-06-01T11:32:44Z</time>
      </trkpt>
      <trkpt lat="45.97676" lon="6.32081">
        <ele>1525</ele>
        <time>2014-06-01T11:32:47Z</time>
      </trkpt>
      <trkpt lat="45.97674" lon="6.32082">
        <ele>1527</ele>
        <time>2014-06-01T11:32:49Z</time>
      </trkpt>
      <trkpt lat="45.97673" lon="6.32083">
        <ele>1528</ele>
        <time>2014-06-01T11:32:51Z</time>
      </trkpt>
      <trkpt lat="45.9767" lon="6.32084">
        <ele>1528</ele>
        <time>2014-06-01T11:32:53Z</time>
      </trkpt>
      <trkpt lat="45.97667" lon="6.32085">
        <ele>1529</ele>
        <time>2014-06-01T11:32:56Z</time>
      </trkpt>
      <trkpt lat="45.97666" lon="6.32086">
        <ele>1530</ele>
        <time>2014-06-01T11:32:58Z</time>
      </trkpt>
      <trkpt lat="45.97665" lon="6.32087">
        <ele>1530</ele>
        <time>2014-06-01T11:33:00Z</time>
      </trkpt>
      <trkpt lat="45.97664" lon="6.3209">
        <ele>1530</ele>
        <time>2014-06-01T11:33:02Z</time>
      </trkpt>
      <trkpt lat="45.97663" lon="6.32092">
        <ele>1531</ele>
        <time>2014-06-01T11:33:04Z</time>
      </trkpt>
      <trkpt lat="45.97662" lon="6.32095">
        <ele>1531</ele>
        <time>2014-06-01T11:33:07Z</time>
      </trkpt>
      <trkpt lat="45.97662" lon="6.32097">
        <ele>1531</ele>
        <time>2014-06-01T11:33:09Z</time>
      </trkpt>
      <trkpt lat="45.97661" lon="6.321">
        <ele>1532</ele>
        <time>2014-06-01T11:33:11Z</time>
      </trkpt>
      <trkpt lat="45.9766" lon="6.32102">
        <ele>1533</ele>
        <time>2014-06-01T11:33:13Z</time>
      </trkpt>
      <trkpt lat="45.97659" lon="6.32106">
        <ele>1533</ele>
        <time>2014-06-01T11:33:16Z</time>
      </trkpt>
      <trkpt lat="45.97658" lon="6.32109">
        <ele>1534</ele>
        <time>2014-06-01T11:33:18Z</time>
      </trkpt>
      <trkpt lat="45.97657" lon="6.32111">
        <ele>1536</ele>
        <time>2014-06-01T11:33:20Z</time>
      </trkpt>
      <trkpt lat="45.97656" lon="6.32112">
        <ele>1537</ele>
        <time>2014-06-01T11:33:22Z</time>
      </trkpt>
      <trkpt lat="45.97655" lon="6.32113">
        <ele>1537</ele>
        <time>2014-06-01T11:33:24Z</time>
      </trkpt>
      <trkpt lat="45.97653" lon="6.32115">
        <ele>1538</ele>
        <time>2014-06-01T11:33:27Z</time>
      </trkpt>
      <trkpt lat="45.97652" lon="6.32116">
        <ele>1540</ele>
        <time>2014-06-01T11:33:29Z</time>
      </trkpt>
      <trkpt lat="45.9765" lon="6.32118">
        <ele>1540</ele>
        <time>2014-06-01T11:33:31Z</time>
      </trkpt>
      <trkpt lat="45.97648" lon="6.32118">
        <ele>1542</ele>
        <time>2014-06-01T11:33:33Z</time>
      </trkpt>
      <trkpt lat="45.97646" lon="6.3212">
        <ele>1544</ele>
        <time>2014-06-01T11:33:36Z</time>
      </trkpt>
      <trkpt lat="45.97644" lon="6.32122">
        <ele>1546</ele>
        <time>2014-06-01T11:33:38Z</time>
      </trkpt>
      <trkpt lat="45.97643" lon="6.32124">
        <ele>1548</ele>
        <time>2014-06-01T11:33:40Z</time>
      </trkpt>
      <trkpt lat="45.97641" lon="6.32127">
        <ele>1549</ele>
        <time>2014-06-01T11:33:42Z</time>
      </trkpt>
      <trkpt lat="45.9764" lon="6.32129">
        <ele>1550</ele>
        <time>2014-06-01T11:33:45Z</time>
      </trkpt>
      <trkpt lat="45.97638" lon="6.32132">
        <ele>1551</ele>
        <time>2014-06-01T11:33:47Z</time>
      </trkpt>
      <trkpt lat="45.97637" lon="6.32135">
        <ele>1551</ele>
        <time>2014-06-01T11:33:49Z</time>
      </trkpt>
      <trkpt lat="45.97636" lon="6.32136">
        <ele>1552</ele>
        <time>2014-06-01T11:33:51Z</time>
      </trkpt>
      <trkpt lat="45.97635" lon="6.32139">
        <ele>1552</ele>
        <time>2014-06-01T11:33:53Z</time>
      </trkpt>
      <trkpt lat="45.97633" lon="6.32141">
        <ele>1553</ele>
        <time>2014-06-01T11:33:56Z</time>
      </trkpt>
      <trkpt lat="45.97633" lon="6.32144">
        <ele>1554</ele>
        <time>2014-06-01T11:33:58Z</time>
      </trkpt>
      <trkpt lat="45.97631" lon="6.32146">
        <ele>1555</ele>
        <time>2014-06-01T11:34:00Z</time>
      </trkpt>
      <trkpt lat="45.9763" lon="6.32147">
        <ele>1557</ele>
        <time>2014-06-01T11:34:02Z</time>
      </trkpt>
      <trkpt lat="45.97628" lon="6.32147">
        <ele>1559</ele>
        <time>2014-06-01T11:34:05Z</time>
      </trkpt>
      <trkpt lat="45.97627" lon="6.32149">
        <ele>1561</ele>
        <time>2014-06-01T11:34:07Z</time>
      </trkpt>
      <trkpt lat="45.97626" lon="6.3215">
        <ele>1563</ele>
        <time>2014-06-01T11:34:09Z</time>
      </trkpt>
      <trkpt lat="45.97626" lon="6.32151">
        <ele>1565</ele>
        <time>2014-06-01T11:34:11Z</time>
      </trkpt>
      <trkpt lat="45.97624" lon="6.32153">
        <ele>1567</ele>
        <time>2014-06-01T11:34:13Z</time>
      </trkpt>
      <trkpt lat="45.97622" lon="6.32155">
        <ele>1569</ele>
        <time>2014-06-01T11:34:16Z</time>
      </trkpt>
      <trkpt lat="45.97622" lon="6.32156">
        <ele>1570</ele>
        <time>2014-06-01T11:34:18Z</time>
      </trkpt>
      <trkpt lat="45.9762" lon="6.32157">
        <ele>1571</ele>
        <time>2014-06-01T11:34:20Z</time>
      </trkpt>
      <trkpt lat="45.97619" lon="6.32159">
        <ele>1571</ele>
        <time>2014-06-01T11:34:22Z</time>
      </trkpt>
      <trkpt lat="45.97617" lon="6.32163">
        <ele>1571</ele>
        <time>2014-06-01T11:34:25Z</time>
      </trkpt>
      <trkpt lat="45.97616" lon="6.32165">
        <ele>1571</ele>
        <time>2014-06-01T11:34:27Z</time>
      </trkpt>
      <trkpt lat="45.97614" lon="6.32169">
        <ele>1571</ele>
        <time>2014-06-01T11:34:29Z</time>
      </trkpt>
      <trkpt lat="45.97613" lon="6.32171">
        <ele>1572</ele>
        <time>2014-06-01T11:34:31Z</time>
      </trkpt>
      <trkpt lat="45.97612" lon="6.32173">
        <ele>1572</ele>
        <time>2014-06-01T11:34:33Z</time>
      </trkpt>
      <trkpt lat="45.9761" lon="6.32176">
        <ele>1572</ele>
        <time>2014-06-01T11:34:36Z</time>
      </trkpt>
      <trkpt lat="45.97608" lon="6.32178">
        <ele>1573</ele>
        <time>2014-06-01T11:34:38Z</time>
      </trkpt>
      <trkpt lat="45.97608" lon="6.3218">
        <ele>1573</ele>
        <time>2014-06-01T11:34:40Z</time>
      </trkpt>
      <trkpt lat="45.97606" lon="6.32182">
        <ele>1573</ele>
        <time>2014-06-01T11:34:42Z</time>
      </trkpt>
      <trkpt lat="45.97604" lon="6.32185">
        <ele>1573</ele>
        <time>2014-06-01T11:34:45Z</time>
      </trkpt>
      <trkpt lat="45.97601" lon="6.32188">
        <ele>1573</ele>
        <time>2014-06-01T11:34:47Z</time>
      </trkpt>
      <trkpt lat="45.97599" lon="6.32189">
        <ele>1573</ele>
        <time>2014-06-01T11:34:49Z</time>
      </trkpt>
      <trkpt lat="45.97597" lon="6.32192">
        <ele>1573</ele>
        <time>2014-06-01T11:34:51Z</time>
      </trkpt>
      <trkpt lat="45.97596" lon="6.32194">
        <ele>1573</ele>
        <time>2014-06-01T11:34:54Z</time>
      </trkpt>
      <trkpt lat="45.97593" lon="6.32197">
        <ele>1573</ele>
        <time>2014-06-01T11:34:56Z</time>
      </trkpt>
      <trkpt lat="45.97592" lon="6.32199">
        <ele>1573</ele>
        <time>2014-06-01T11:34:58Z</time>
      </trkpt>
      <trkpt lat="45.97591" lon="6.32199">
        <ele>1573</ele>
        <time>2014-06-01T11:35:00Z</time>
      </trkpt>
      <trkpt lat="45.97589" lon="6.32202">
        <ele>1573</ele>
        <time>2014-06-01T11:35:02Z</time>
      </trkpt>
      <trkpt lat="45.97587" lon="6.32204">
        <ele>1574</ele>
        <time>2014-06-01T11:35:05Z</time>
      </trkpt>
      <trkpt lat="45.97586" lon="6.32206">
        <ele>1574</ele>
        <time>2014-06-01T11:35:07Z</time>
      </trkpt>
      <trkpt lat="45.97585" lon="6.32208">
        <ele>1575</ele>
        <time>2014-06-01T11:35:09Z</time>
      </trkpt>
      <trkpt lat="45.97583" lon="6.32211">
        <ele>1575</ele>
        <time>2014-06-01T11:35:11Z</time>
      </trkpt>
      <trkpt lat="45.97582" lon="6.32214">
        <ele>1575</ele>
        <time>2014-06-01T11:35:14Z</time>
      </trkpt>
      <trkpt lat="45.97583" lon="6.32217">
        <ele>1576</ele>
        <time>2014-06-01T11:35:16Z</time>
      </trkpt>
      <trkpt lat="45.97582" lon="6.32218">
        <ele>1577</ele>
        <time>2014-06-01T11:35:18Z</time>
      </trkpt>
      <trkpt lat="45.97581" lon="6.32221">
        <ele>1578</ele>
        <time>2014-06-01T11:35:20Z</time>
      </trkpt>
      <trkpt lat="45.9758" lon="6.32221">
        <ele>1578</ele>
        <time>2014-06-01T11:35:23Z</time>
      </trkpt>
      <trkpt lat="45.97578" lon="6.32223">
        <ele>1579</ele>
        <time>2014-06-01T11:35:25Z</time>
      </trkpt>
      <trkpt lat="45.97576" lon="6.32224">
        <ele>1579</ele>
        <time>2014-06-01T11:35:27Z</time>
      </trkpt>
      <trkpt lat="45.97576" lon="6.32226">
        <ele>1579</ele>
        <time>2014-06-01T11:35:29Z</time>
      </trkpt>
      <trkpt lat="45.97574" lon="6.32228">
        <ele>1579</ele>
        <time>2014-06-01T11:35:31Z</time>
      </trkpt>
      <trkpt lat="45.97573" lon="6.3223">
        <ele>1579</ele>
        <time>2014-06-01T11:35:34Z</time>
      </trkpt>
      <trkpt lat="45.97572" lon="6.32232">
        <ele>1579</ele>
        <time>2014-06-01T11:35:36Z</time>
      </trkpt>
      <trkpt lat="45.97571" lon="6.32234">
        <ele>1579</ele>
        <time>2014-06-01T11:35:38Z</time>
      </trkpt>
      <trkpt lat="45.9757" lon="6.32236">
        <ele>1580</ele>
        <time>2014-06-01T11:35:40Z</time>
      </trkpt>
      <trkpt lat="45.97567" lon="6.3224">
        <ele>1580</ele>
        <time>2014-06-01T11:35:43Z</time>
      </trkpt>
      <trkpt lat="45.97565" lon="6.32242">
        <ele>1580</ele>
        <time>2014-06-01T11:35:45Z</time>
      </trkpt>
      <trkpt lat="45.97563" lon="6.32244">
        <ele>1580</ele>
        <time>2014-06-01T11:35:47Z</time>
      </trkpt>
      <trkpt lat="45.97561" lon="6.32245">
        <ele>1580</ele>
        <time>2014-06-01T11:35:49Z</time>
      </trkpt>
      <trkpt lat="45.97559" lon="6.32247">
        <ele>1580</ele>
        <time>2014-06-01T11:35:51Z</time>
      </trkpt>
      <trkpt lat="45.97558" lon="6.32249">
        <ele>1580</ele>
        <time>2014-06-01T11:35:54Z</time>
      </trkpt>
      <trkpt lat="45.97556" lon="6.32251">
        <ele>1580</ele>
        <time>2014-06-01T11:35:56Z</time>
      </trkpt>
      <trkpt lat="45.97555" lon="6.32253">
        <ele>1580</ele>
        <time>2014-06-01T11:35:58Z</time>
      </trkpt>
      <trkpt lat="45.97553" lon="6.32255">
        <ele>1580</ele>
        <time>2014-06-01T11:36:00Z</time>
      </trkpt>
      <trkpt lat="45.97551" lon="6.32259">
        <ele>1580</ele>
        <time>2014-06-01T11:36:03Z</time>
      </trkpt>
      <trkpt lat="45.97549" lon="6.32261">
        <ele>1580</ele>
        <time>2014-06-01T11:36:05Z</time>
      </trkpt>
      <trkpt lat="45.97548" lon="6.32263">
        <ele>1580</ele>
        <time>2014-06-01T11:36:07Z</time>
      </trkpt>
      <trkpt lat="45.97547" lon="6.32265">
        <ele>1580</ele>
        <time>2014-06-01T11:36:09Z</time>
      </trkpt>
      <trkpt lat="45.97545" lon="6.32268">
        <ele>1580</ele>
        <time>2014-06-01T11:36:12Z</time>
      </trkpt>
      <trkpt lat="45.97543" lon="6.32269">
        <ele>1580</ele>
        <time>2014-06-01T11:36:14Z</time>
      </trkpt>
      <trkpt lat="45.97541" lon="6.32271">
        <ele>1580</ele>
        <time>2014-06-01T11:36:16Z</time>
      </trkpt>
      <trkpt lat="45.97539" lon="6.32274">
        <ele>1580</ele>
        <time>2014-06-01T11:36:18Z</time>
      </trkpt>
      <trkpt lat="45.97538" lon="6.32275">
        <ele>1580</ele>
        <time>2014-06-01T11:36:20Z</time>
      </trkpt>
      <trkpt lat="45.97536" lon="6.32277">
        <ele>1580</ele>
        <time>2014-06-01T11:36:23Z</time>
      </trkpt>
      <trkpt lat="45.97535" lon="6.32279">
        <ele>1580</ele>
        <time>2014-06-01T11:36:25Z</time>
      </trkpt>
      <trkpt lat="45.97534" lon="6.32282">
        <ele>1580</ele>
        <time>2014-06-01T11:36:27Z</time>
      </trkpt>
      <trkpt lat="45.97533" lon="6.32284">
        <ele>1580</ele>
        <time>2014-06-01T11:36:29Z</time>
      </trkpt>
      <trkpt lat="45.97531" lon="6.32287">
        <ele>1581</ele>
        <time>2014-06-01T11:36:32Z</time>
      </trkpt>
      <trkpt lat="45.97529" lon="6.32289">
        <ele>1582</ele>
        <time>2014-06-01T11:36:34Z</time>
      </trkpt>
      <trkpt lat="45.97527" lon="6.32291">
        <ele>1582</ele>
        <time>2014-06-01T11:36:36Z</time>
      </trkpt>
      <trkpt lat="45.97525" lon="6.32291">
        <ele>1583</ele>
        <time>2014-06-01T11:36:38Z</time>
      </trkpt>
      <trkpt lat="45.97524" lon="6.32293">
        <ele>1583</ele>
        <time>2014-06-01T11:36:40Z</time>
      </trkpt>
      <trkpt lat="45.97522" lon="6.32295">
        <ele>1584</ele>
        <time>2014-06-01T11:36:43Z</time>
      </trkpt>
      <trkpt lat="45.97521" lon="6.32296">
        <ele>1584</ele>
        <time>2014-06-01T11:36:45Z</time>
      </trkpt>
      <trkpt lat="45.9752" lon="6.32297">
        <ele>1584</ele>
        <time>2014-06-01T11:36:47Z</time>
      </trkpt>
      <trkpt lat="45.97518" lon="6.32297">
        <ele>1584</ele>
        <time>2014-06-01T11:36:49Z</time>
      </trkpt>
      <trkpt lat="45.97516" lon="6.32299">
        <ele>1584</ele>
        <time>2014-06-01T11:36:52Z</time>
      </trkpt>
      <trkpt lat="45.97515" lon="6.32301">
        <ele>1584</ele>
        <time>2014-06-01T11:36:54Z</time>
      </trkpt>
      <trkpt lat="45.97514" lon="6.32302">
        <ele>1584</ele>
        <time>2014-06-01T11:36:56Z</time>
      </trkpt>
      <trkpt lat="45.97513" lon="6.32304">
        <ele>1584</ele>
        <time>2014-06-01T11:36:58Z</time>
      </trkpt>
      <trkpt lat="45.97512" lon="6.32307">
        <ele>1584</ele>
        <time>2014-06-01T11:37:00Z</time>
      </trkpt>
      <trkpt lat="45.97511" lon="6.32311">
        <ele>1584</ele>
        <time>2014-06-01T11:37:03Z</time>
      </trkpt>
      <trkpt lat="45.97509" lon="6.32314">
        <ele>1584</ele>
        <time>2014-06-01T11:37:05Z</time>
      </trkpt>
      <trkpt lat="45.97508" lon="6.32316">
        <ele>1584</ele>
        <time>2014-06-01T11:37:07Z</time>
      </trkpt>
      <trkpt lat="45.97505" lon="6.32317">
        <ele>1584</ele>
        <time>2014-06-01T11:37:09Z</time>
      </trkpt>
      <trkpt lat="45.97503" lon="6.3232">
        <ele>1584</ele>
        <time>2014-06-01T11:37:12Z</time>
      </trkpt>
      <trkpt lat="45.97501" lon="6.32322">
        <ele>1584</ele>
        <time>2014-06-01T11:37:14Z</time>
      </trkpt>
      <trkpt lat="45.97498" lon="6.32324">
        <ele>1584</ele>
        <time>2014-06-01T11:37:16Z</time>
      </trkpt>
      <trkpt lat="45.97496" lon="6.32326">
        <ele>1584</ele>
        <time>2014-06-01T11:37:18Z</time>
      </trkpt>
      <trkpt lat="45.97495" lon="6.3233">
        <ele>1584</ele>
        <time>2014-06-01T11:37:21Z</time>
      </trkpt>
      <trkpt lat="45.97493" lon="6.32332">
        <ele>1584</ele>
        <time>2014-06-01T11:37:23Z</time>
      </trkpt>
      <trkpt lat="45.97492" lon="6.32334">
        <ele>1584</ele>
        <time>2014-06-01T11:37:25Z</time>
      </trkpt>
      <trkpt lat="45.9749" lon="6.32336">
        <ele>1584</ele>
        <time>2014-06-01T11:37:27Z</time>
      </trkpt>
      <trkpt lat="45.97489" lon="6.32339">
        <ele>1584</ele>
        <time>2014-06-01T11:37:29Z</time>
      </trkpt>
      <trkpt lat="45.97486" lon="6.32343">
        <ele>1584</ele>
        <time>2014-06-01T11:37:32Z</time>
      </trkpt>
      <trkpt lat="45.97484" lon="6.32346">
        <ele>1585</ele>
        <time>2014-06-01T11:37:34Z</time>
      </trkpt>
      <trkpt lat="45.97483" lon="6.32348">
        <ele>1585</ele>
        <time>2014-06-01T11:37:36Z</time>
      </trkpt>
      <trkpt lat="45.97482" lon="6.3235">
        <ele>1585</ele>
        <time>2014-06-01T11:37:38Z</time>
      </trkpt>
      <trkpt lat="45.9748" lon="6.32354">
        <ele>1585</ele>
        <time>2014-06-01T11:37:41Z</time>
      </trkpt>
      <trkpt lat="45.97479" lon="6.32356">
        <ele>1585</ele>
        <time>2014-06-01T11:37:43Z</time>
      </trkpt>
      <trkpt lat="45.97477" lon="6.32358">
        <ele>1585</ele>
        <time>2014-06-01T11:37:45Z</time>
      </trkpt>
      <trkpt lat="45.97476" lon="6.32359">
        <ele>1585</ele>
        <time>2014-06-01T11:37:47Z</time>
      </trkpt>
      <trkpt lat="45.97474" lon="6.3236">
        <ele>1585</ele>
        <time>2014-06-01T11:37:50Z</time>
      </trkpt>
      <trkpt lat="45.97471" lon="6.32363">
        <ele>1585</ele>
        <time>2014-06-01T11:37:52Z</time>
      </trkpt>
      <trkpt lat="45.9747" lon="6.32364">
        <ele>1585</ele>
        <time>2014-06-01T11:37:54Z</time>
      </trkpt>
      <trkpt lat="45.97468" lon="6.32365">
        <ele>1585</ele>
        <time>2014-06-01T11:37:56Z</time>
      </trkpt>
      <trkpt lat="45.97467" lon="6.32366">
        <ele>1585</ele>
        <time>2014-06-01T11:37:58Z</time>
      </trkpt>
      <trkpt lat="45.97464" lon="6.32367">
        <ele>1585</ele>
        <time>2014-06-01T11:38:01Z</time>
      </trkpt>
      <trkpt lat="45.97461" lon="6.32368">
        <ele>1585</ele>
        <time>2014-06-01T11:38:03Z</time>
      </trkpt>
      <trkpt lat="45.97459" lon="6.3237">
        <ele>1585</ele>
        <time>2014-06-01T11:38:05Z</time>
      </trkpt>
      <trkpt lat="45.97457" lon="6.32371">
        <ele>1585</ele>
        <time>2014-06-01T11:38:07Z</time>
      </trkpt>
      <trkpt lat="45.97454" lon="6.32373">
        <ele>1585</ele>
        <time>2014-06-01T11:38:10Z</time>
      </trkpt>
      <trkpt lat="45.97452" lon="6.32376">
        <ele>1585</ele>
        <time>2014-06-01T11:38:12Z</time>
      </trkpt>
      <trkpt lat="45.97451" lon="6.32378">
        <ele>1585</ele>
        <time>2014-06-01T11:38:14Z</time>
      </trkpt>
      <trkpt lat="45.97448" lon="6.32381">
        <ele>1585</ele>
        <time>2014-06-01T11:38:16Z</time>
      </trkpt>
      <trkpt lat="45.97446" lon="6.32383">
        <ele>1585</ele>
        <time>2014-06-01T11:38:19Z</time>
      </trkpt>
      <trkpt lat="45.97442" lon="6.32388">
        <ele>1585</ele>
        <time>2014-06-01T11:38:21Z</time>
      </trkpt>
      <trkpt lat="45.97441" lon="6.32389">
        <ele>1585</ele>
        <time>2014-06-01T11:38:23Z</time>
      </trkpt>
      <trkpt lat="45.97439" lon="6.32392">
        <ele>1585</ele>
        <time>2014-06-01T11:38:25Z</time>
      </trkpt>
      <trkpt lat="45.97437" lon="6.32394">
        <ele>1585</ele>
        <time>2014-06-01T11:38:27Z</time>
      </trkpt>
      <trkpt lat="45.97435" lon="6.32398">
        <ele>1585</ele>
        <time>2014-06-01T11:38:30Z</time>
      </trkpt>
      <trkpt lat="45.97434" lon="6.324">
        <ele>1585</ele>
        <time>2014-06-01T11:38:32Z</time>
      </trkpt>
      <trkpt lat="45.97432" lon="6.32402">
        <ele>1585</ele>
        <time>2014-06-01T11:38:34Z</time>
      </trkpt>
      <trkpt lat="45.97431" lon="6.32404">
        <ele>1585</ele>
        <time>2014-06-01T11:38:36Z</time>
      </trkpt>
      <trkpt lat="45.97429" lon="6.32405">
        <ele>1585</ele>
        <time>2014-06-01T11:38:39Z</time>
      </trkpt>
      <trkpt lat="45.97427" lon="6.32408">
        <ele>1585</ele>
        <time>2014-06-01T11:38:41Z</time>
      </trkpt>
      <trkpt lat="45.97426" lon="6.32409">
        <ele>1585</ele>
        <time>2014-06-01T11:38:43Z</time>
      </trkpt>
      <trkpt lat="45.97424" lon="6.32409">
        <ele>1585</ele>
        <time>2014-06-01T11:38:45Z</time>
      </trkpt>
      <trkpt lat="45.97423" lon="6.3241">
        <ele>1585</ele>
        <time>2014-06-01T11:38:47Z</time>
      </trkpt>
      <trkpt lat="45.9742" lon="6.32414">
        <ele>1586</ele>
        <time>2014-06-01T11:38:50Z</time>
      </trkpt>
      <trkpt lat="45.97418" lon="6.32414">
        <ele>1587</ele>
        <time>2014-06-01T11:38:52Z</time>
      </trkpt>
      <trkpt lat="45.97416" lon="6.32416">
        <ele>1588</ele>
        <time>2014-06-01T11:38:54Z</time>
      </trkpt>
      <trkpt lat="45.97413" lon="6.32417">
        <ele>1589</ele>
        <time>2014-06-01T11:38:56Z</time>
      </trkpt>
      <trkpt lat="45.97411" lon="6.32419">
        <ele>1590</ele>
        <time>2014-06-01T11:38:59Z</time>
      </trkpt>
      <trkpt lat="45.97408" lon="6.32422">
        <ele>1590</ele>
        <time>2014-06-01T11:39:01Z</time>
      </trkpt>
      <trkpt lat="45.97407" lon="6.32424">
        <ele>1591</ele>
        <time>2014-06-01T11:39:03Z</time>
      </trkpt>
      <trkpt lat="45.97405" lon="6.32425">
        <ele>1591</ele>
        <time>2014-06-01T11:39:05Z</time>
      </trkpt>
      <trkpt lat="45.97403" lon="6.32428">
        <ele>1591</ele>
        <time>2014-06-01T11:39:07Z</time>
      </trkpt>
      <trkpt lat="45.97399" lon="6.32432">
        <ele>1591</ele>
        <time>2014-06-01T11:39:10Z</time>
      </trkpt>
      <trkpt lat="45.97397" lon="6.32434">
        <ele>1591</ele>
        <time>2014-06-01T11:39:12Z</time>
      </trkpt>
      <trkpt lat="45.97396" lon="6.32437">
        <ele>1591</ele>
        <time>2014-06-01T11:39:14Z</time>
      </trkpt>
      <trkpt lat="45.97394" lon="6.32441">
        <ele>1591</ele>
        <time>2014-06-01T11:39:16Z</time>
      </trkpt>
      <trkpt lat="45.97393" lon="6.32443">
        <ele>1591</ele>
        <time>2014-06-01T11:39:19Z</time>
      </trkpt>
      <trkpt lat="45.9739" lon="6.32446">
        <ele>1591</ele>
        <time>2014-06-01T11:39:21Z</time>
      </trkpt>
      <trkpt lat="45.97389" lon="6.32448">
        <ele>1591</ele>
        <time>2014-06-01T11:39:23Z</time>
      </trkpt>
      <trkpt lat="45.97388" lon="6.3245">
        <ele>1591</ele>
        <time>2014-06-01T11:39:25Z</time>
      </trkpt>
      <trkpt lat="45.97387" lon="6.32453">
        <ele>1591</ele>
        <time>2014-06-01T11:39:27Z</time>
      </trkpt>
      <trkpt lat="45.97384" lon="6.32459">
        <ele>1591</ele>
        <time>2014-06-01T11:39:30Z</time>
      </trkpt>
      <trkpt lat="45.97382" lon="6.32461">
        <ele>1592</ele>
        <time>2014-06-01T11:39:32Z</time>
      </trkpt>
      <trkpt lat="45.9738" lon="6.32465">
        <ele>1592</ele>
        <time>2014-06-01T11:39:34Z</time>
      </trkpt>
      <trkpt lat="45.97378" lon="6.32467">
        <ele>1593</ele>
        <time>2014-06-01T11:39:36Z</time>
      </trkpt>
      <trkpt lat="45.97375" lon="6.32471">
        <ele>1594</ele>
        <time>2014-06-01T11:39:39Z</time>
      </trkpt>
      <trkpt lat="45.97373" lon="6.32473">
        <ele>1594</ele>
        <time>2014-06-01T11:39:41Z</time>
      </trkpt>
      <trkpt lat="45.97371" lon="6.32476">
        <ele>1595</ele>
        <time>2014-06-01T11:39:43Z</time>
      </trkpt>
      <trkpt lat="45.97369" lon="6.32479">
        <ele>1595</ele>
        <time>2014-06-01T11:39:45Z</time>
      </trkpt>
      <trkpt lat="45.97366" lon="6.32482">
        <ele>1595</ele>
        <time>2014-06-01T11:39:47Z</time>
      </trkpt>
      <trkpt lat="45.97364" lon="6.32486">
        <ele>1595</ele>
        <time>2014-06-01T11:39:50Z</time>
      </trkpt>
      <trkpt lat="45.97362" lon="6.32489">
        <ele>1595</ele>
        <time>2014-06-01T11:39:52Z</time>
      </trkpt>
      <trkpt lat="45.9736" lon="6.32492">
        <ele>1595</ele>
        <time>2014-06-01T11:39:54Z</time>
      </trkpt>
      <trkpt lat="45.97358" lon="6.32495">
        <ele>1595</ele>
        <time>2014-06-01T11:39:56Z</time>
      </trkpt>
      <trkpt lat="45.97354" lon="6.32495">
        <ele>1595</ele>
        <time>2014-06-01T11:39:59Z</time>
      </trkpt>
      <trkpt lat="45.97353" lon="6.32496">
        <ele>1595</ele>
        <time>2014-06-01T11:40:01Z</time>
      </trkpt>
      <trkpt lat="45.97351" lon="6.32497">
        <ele>1595</ele>
        <time>2014-06-01T11:40:03Z</time>
      </trkpt>
      <trkpt lat="45.97347" lon="6.32497">
        <ele>1595</ele>
        <time>2014-06-01T11:40:05Z</time>
      </trkpt>
      <trkpt lat="45.97344" lon="6.32497">
        <ele>1595</ele>
        <time>2014-06-01T11:40:08Z</time>
      </trkpt>
      <trkpt lat="45.9734" lon="6.32498">
        <ele>1595</ele>
        <time>2014-06-01T11:40:10Z</time>
      </trkpt>
      <trkpt lat="45.97337" lon="6.32498">
        <ele>1595</ele>
        <time>2014-06-01T11:40:12Z</time>
      </trkpt>
      <trkpt lat="45.97334" lon="6.32498">
        <ele>1595</ele>
        <time>2014-06-01T11:40:14Z</time>
      </trkpt>
      <trkpt lat="45.97332" lon="6.325">
        <ele>1595</ele>
        <time>2014-06-01T11:40:16Z</time>
      </trkpt>
      <trkpt lat="45.97329" lon="6.32502">
        <ele>1595</ele>
        <time>2014-06-01T11:40:19Z</time>
      </trkpt>
      <trkpt lat="45.97327" lon="6.32503">
        <ele>1595</ele>
        <time>2014-06-01T11:40:21Z</time>
      </trkpt>
      <trkpt lat="45.97324" lon="6.32504">
        <ele>1595</ele>
        <time>2014-06-01T11:40:23Z</time>
      </trkpt>
      <trkpt lat="45.9732" lon="6.32504">
        <ele>1595</ele>
        <time>2014-06-01T11:40:25Z</time>
      </trkpt>
      <trkpt lat="45.97318" lon="6.32504">
        <ele>1595</ele>
        <time>2014-06-01T11:40:28Z</time>
      </trkpt>
      <trkpt lat="45.97313" lon="6.32504">
        <ele>1595</ele>
        <time>2014-06-01T11:40:30Z</time>
      </trkpt>
      <trkpt lat="45.97309" lon="6.32503">
        <ele>1595</ele>
        <time>2014-06-01T11:40:32Z</time>
      </trkpt>
      <trkpt lat="45.97306" lon="6.32502">
        <ele>1595</ele>
        <time>2014-06-01T11:40:34Z</time>
      </trkpt>
      <trkpt lat="45.97302" lon="6.32501">
        <ele>1593</ele>
        <time>2014-06-01T11:40:36Z</time>
      </trkpt>
      <trkpt lat="45.97297" lon="6.32499">
        <ele>1592</ele>
        <time>2014-06-01T11:40:39Z</time>
      </trkpt>
      <trkpt lat="45.97293" lon="6.32498">
        <ele>1591</ele>
        <time>2014-06-01T11:40:41Z</time>
      </trkpt>
      <trkpt lat="45.97289" lon="6.32497">
        <ele>1589</ele>
        <time>2014-06-01T11:40:43Z</time>
      </trkpt>
      <trkpt lat="45.97285" lon="6.32496">
        <ele>1588</ele>
        <time>2014-06-01T11:40:45Z</time>
      </trkpt>
      <trkpt lat="45.97283" lon="6.32496">
        <ele>1586</ele>
        <time>2014-06-01T11:40:48Z</time>
      </trkpt>
      <trkpt lat="45.97279" lon="6.32496">
        <ele>1586</ele>
        <time>2014-06-01T11:40:50Z</time>
      </trkpt>
      <trkpt lat="45.97277" lon="6.32496">
        <ele>1586</ele>
        <time>2014-06-01T11:40:52Z</time>
      </trkpt>
      <trkpt lat="45.97275" lon="6.32496">
        <ele>1585</ele>
        <time>2014-06-01T11:40:54Z</time>
      </trkpt>
      <trkpt lat="45.97273" lon="6.32495">
        <ele>1585</ele>
        <time>2014-06-01T11:40:56Z</time>
      </trkpt>
      <trkpt lat="45.97269" lon="6.32495">
        <ele>1585</ele>
        <time>2014-06-01T11:40:59Z</time>
      </trkpt>
      <trkpt lat="45.97267" lon="6.32495">
        <ele>1585</ele>
        <time>2014-06-01T11:41:01Z</time>
      </trkpt>
      <trkpt lat="45.97266" lon="6.32495">
        <ele>1585</ele>
        <time>2014-06-01T11:41:03Z</time>
      </trkpt>
      <trkpt lat="45.97264" lon="6.32495">
        <ele>1585</ele>
        <time>2014-06-01T11:41:05Z</time>
      </trkpt>
      <trkpt lat="45.9726" lon="6.32497">
        <ele>1585</ele>
        <time>2014-06-01T11:41:08Z</time>
      </trkpt>
      <trkpt lat="45.97259" lon="6.32499">
        <ele>1585</ele>
        <time>2014-06-01T11:41:10Z</time>
      </trkpt>
      <trkpt lat="45.97257" lon="6.325">
        <ele>1585</ele>
        <time>2014-06-01T11:41:12Z</time>
      </trkpt>
      <trkpt lat="45.97254" lon="6.325">
        <ele>1585</ele>
        <time>2014-06-01T11:41:14Z</time>
      </trkpt>
      <trkpt lat="45.97253" lon="6.32502">
        <ele>1585</ele>
        <time>2014-06-01T11:41:16Z</time>
      </trkpt>
      <trkpt lat="45.97251" lon="6.32505">
        <ele>1585</ele>
        <time>2014-06-01T11:41:19Z</time>
      </trkpt>
      <trkpt lat="45.97248" lon="6.32508">
        <ele>1585</ele>
        <time>2014-06-01T11:41:21Z</time>
      </trkpt>
      <trkpt lat="45.97246" lon="6.32511">
        <ele>1585</ele>
        <time>2014-06-01T11:41:23Z</time>
      </trkpt>
      <trkpt lat="45.97243" lon="6.32514">
        <ele>1585</ele>
        <time>2014-06-01T11:41:25Z</time>
      </trkpt>
      <trkpt lat="45.9724" lon="6.32516">
        <ele>1585</ele>
        <time>2014-06-01T11:41:28Z</time>
      </trkpt>
      <trkpt lat="45.97239" lon="6.32518">
        <ele>1585</ele>
        <time>2014-06-01T11:41:30Z</time>
      </trkpt>
      <trkpt lat="45.97235" lon="6.32521">
        <ele>1585</ele>
        <time>2014-06-01T11:41:32Z</time>
      </trkpt>
      <trkpt lat="45.97233" lon="6.32524">
        <ele>1585</ele>
        <time>2014-06-01T11:41:34Z</time>
      </trkpt>
      <trkpt lat="45.97232" lon="6.32526">
        <ele>1585</ele>
        <time>2014-06-01T11:41:37Z</time>
      </trkpt>
      <trkpt lat="45.9723" lon="6.32529">
        <ele>1585</ele>
        <time>2014-06-01T11:41:39Z</time>
      </trkpt>
      <trkpt lat="45.97229" lon="6.32532">
        <ele>1585</ele>
        <time>2014-06-01T11:41:41Z</time>
      </trkpt>
      <trkpt lat="45.97227" lon="6.32533">
        <ele>1585</ele>
        <time>2014-06-01T11:41:43Z</time>
      </trkpt>
      <trkpt lat="45.97225" lon="6.32535">
        <ele>1585</ele>
        <time>2014-06-01T11:41:45Z</time>
      </trkpt>
      <trkpt lat="45.97223" lon="6.3254">
        <ele>1586</ele>
        <time>2014-06-01T11:41:48Z</time>
      </trkpt>
      <trkpt lat="45.9722" lon="6.32541">
        <ele>1586</ele>
        <time>2014-06-01T11:41:50Z</time>
      </trkpt>
      <trkpt lat="45.97217" lon="6.32544">
        <ele>1586</ele>
        <time>2014-06-01T11:41:52Z</time>
      </trkpt>
      <trkpt lat="45.97214" lon="6.32547">
        <ele>1586</ele>
        <time>2014-06-01T11:41:54Z</time>
      </trkpt>
      <trkpt lat="45.97212" lon="6.32551">
        <ele>1586</ele>
        <time>2014-06-01T11:41:57Z</time>
      </trkpt>
      <trkpt lat="45.97209" lon="6.32557">
        <ele>1586</ele>
        <time>2014-06-01T11:41:59Z</time>
      </trkpt>
      <trkpt lat="45.97207" lon="6.3256">
        <ele>1586</ele>
        <time>2014-06-01T11:42:01Z</time>
      </trkpt>
      <trkpt lat="45.97204" lon="6.32562">
        <ele>1586</ele>
        <time>2014-06-01T11:42:03Z</time>
      </trkpt>
      <trkpt lat="45.97201" lon="6.32562">
        <ele>1586</ele>
        <time>2014-06-01T11:42:05Z</time>
      </trkpt>
      <trkpt lat="45.97196" lon="6.32563">
        <ele>1586</ele>
        <time>2014-06-01T11:42:08Z</time>
      </trkpt>
      <trkpt lat="45.97193" lon="6.32563">
        <ele>1586</ele>
        <time>2014-06-01T11:42:10Z</time>
      </trkpt>
      <trkpt lat="45.9719" lon="6.32564">
        <ele>1586</ele>
        <time>2014-06-01T11:42:12Z</time>
      </trkpt>
      <trkpt lat="45.97188" lon="6.32563">
        <ele>1586</ele>
        <time>2014-06-01T11:42:14Z</time>
      </trkpt>
      <trkpt lat="45.97185" lon="6.32562">
        <ele>1586</ele>
        <time>2014-06-01T11:42:17Z</time>
      </trkpt>
      <trkpt lat="45.9718" lon="6.32562">
        <ele>1586</ele>
        <time>2014-06-01T11:42:19Z</time>
      </trkpt>
      <trkpt lat="45.97176" lon="6.32561">
        <ele>1586</ele>
        <time>2014-06-01T11:42:21Z</time>
      </trkpt>
      <trkpt lat="45.97173" lon="6.3256">
        <ele>1586</ele>
        <time>2014-06-01T11:42:23Z</time>
      </trkpt>
      <trkpt lat="45.97168" lon="6.32559">
        <ele>1586</ele>
        <time>2014-06-01T11:42:25Z</time>
      </trkpt>
      <trkpt lat="45.97164" lon="6.32559">
        <ele>1585</ele>
        <time>2014-06-01T11:42:28Z</time>
      </trkpt>
      <trkpt lat="45.97161" lon="6.32559">
        <ele>1585</ele>
        <time>2014-06-01T11:42:30Z</time>
      </trkpt>
      <trkpt lat="45.97159" lon="6.3256">
        <ele>1584</ele>
        <time>2014-06-01T11:42:32Z</time>
      </trkpt>
      <trkpt lat="45.97156" lon="6.32561">
        <ele>1583</ele>
        <time>2014-06-01T11:42:34Z</time>
      </trkpt>
      <trkpt lat="45.97152" lon="6.32565">
        <ele>1583</ele>
        <time>2014-06-01T11:42:37Z</time>
      </trkpt>
      <trkpt lat="45.97147" lon="6.32567">
        <ele>1583</ele>
        <time>2014-06-01T11:42:39Z</time>
      </trkpt>
      <trkpt lat="45.97145" lon="6.32567">
        <ele>1583</ele>
        <time>2014-06-01T11:42:41Z</time>
      </trkpt>
      <trkpt lat="45.97142" lon="6.32566">
        <ele>1583</ele>
        <time>2014-06-01T11:42:43Z</time>
      </trkpt>
      <trkpt lat="45.97138" lon="6.32567">
        <ele>1583</ele>
        <time>2014-06-01T11:42:45Z</time>
      </trkpt>
      <trkpt lat="45.97133" lon="6.32566">
        <ele>1583</ele>
        <time>2014-06-01T11:42:48Z</time>
      </trkpt>
      <trkpt lat="45.97129" lon="6.32566">
        <ele>1582</ele>
        <time>2014-06-01T11:42:50Z</time>
      </trkpt>
      <trkpt lat="45.97126" lon="6.32566">
        <ele>1581</ele>
        <time>2014-06-01T11:42:52Z</time>
      </trkpt>
      <trkpt lat="45.97125" lon="6.32567">
        <ele>1580</ele>
        <time>2014-06-01T11:42:54Z</time>
      </trkpt>
      <trkpt lat="45.97121" lon="6.32569">
        <ele>1578</ele>
        <time>2014-06-01T11:42:57Z</time>
      </trkpt>
      <trkpt lat="45.97118" lon="6.3257">
        <ele>1578</ele>
        <time>2014-06-01T11:42:59Z</time>
      </trkpt>
      <trkpt lat="45.97115" lon="6.32569">
        <ele>1578</ele>
        <time>2014-06-01T11:43:01Z</time>
      </trkpt>
      <trkpt lat="45.97111" lon="6.32569">
        <ele>1578</ele>
        <time>2014-06-01T11:43:03Z</time>
      </trkpt>
      <trkpt lat="45.97108" lon="6.32567">
        <ele>1578</ele>
        <time>2014-06-01T11:43:06Z</time>
      </trkpt>
      <trkpt lat="45.97102" lon="6.32568">
        <ele>1578</ele>
        <time>2014-06-01T11:43:08Z</time>
      </trkpt>
      <trkpt lat="45.97099" lon="6.32571">
        <ele>1578</ele>
        <time>2014-06-01T11:43:10Z</time>
      </trkpt>
      <trkpt lat="45.97097" lon="6.32573">
        <ele>1578</ele>
        <time>2014-06-01T11:43:12Z</time>
      </trkpt>
      <trkpt lat="45.97094" lon="6.32574">
        <ele>1578</ele>
        <time>2014-06-01T11:43:14Z</time>
      </trkpt>
      <trkpt lat="45.97091" lon="6.32578">
        <ele>1578</ele>
        <time>2014-06-01T11:43:17Z</time>
      </trkpt>
      <trkpt lat="45.97089" lon="6.32581">
        <ele>1578</ele>
        <time>2014-06-01T11:43:19Z</time>
      </trkpt>
      <trkpt lat="45.97087" lon="6.32584">
        <ele>1578</ele>
        <time>2014-06-01T11:43:21Z</time>
      </trkpt>
      <trkpt lat="45.97084" lon="6.32586">
        <ele>1578</ele>
        <time>2014-06-01T11:43:23Z</time>
      </trkpt>
      <trkpt lat="45.9708" lon="6.32587">
        <ele>1578</ele>
        <time>2014-06-01T11:43:26Z</time>
      </trkpt>
      <trkpt lat="45.97074" lon="6.32589">
        <ele>1578</ele>
        <time>2014-06-01T11:43:28Z</time>
      </trkpt>
      <trkpt lat="45.97071" lon="6.3259">
        <ele>1577</ele>
        <time>2014-06-01T11:43:30Z</time>
      </trkpt>
      <trkpt lat="45.97068" lon="6.32591">
        <ele>1577</ele>
        <time>2014-06-01T11:43:32Z</time>
      </trkpt>
      <trkpt lat="45.97065" lon="6.32593">
        <ele>1577</ele>
        <time>2014-06-01T11:43:34Z</time>
      </trkpt>
      <trkpt lat="45.97061" lon="6.32599">
        <ele>1577</ele>
        <time>2014-06-01T11:43:37Z</time>
      </trkpt>
      <trkpt lat="45.97058" lon="6.32601">
        <ele>1577</ele>
        <time>2014-06-01T11:43:39Z</time>
      </trkpt>
      <trkpt lat="45.97055" lon="6.32604">
        <ele>1577</ele>
        <time>2014-06-01T11:43:41Z</time>
      </trkpt>
      <trkpt lat="45.97052" lon="6.32607">
        <ele>1577</ele>
        <time>2014-06-01T11:43:43Z</time>
      </trkpt>
      <trkpt lat="45.9705" lon="6.3261">
        <ele>1577</ele>
        <time>2014-06-01T11:43:46Z</time>
      </trkpt>
      <trkpt lat="45.97044" lon="6.32612">
        <ele>1577</ele>
        <time>2014-06-01T11:43:48Z</time>
      </trkpt>
      <trkpt lat="45.97041" lon="6.32614">
        <ele>1577</ele>
        <time>2014-06-01T11:43:50Z</time>
      </trkpt>
      <trkpt lat="45.97038" lon="6.32616">
        <ele>1577</ele>
        <time>2014-06-01T11:43:52Z</time>
      </trkpt>
      <trkpt lat="45.97034" lon="6.32618">
        <ele>1577</ele>
        <time>2014-06-01T11:43:54Z</time>
      </trkpt>
      <trkpt lat="45.97029" lon="6.3262">
        <ele>1577</ele>
        <time>2014-06-01T11:43:57Z</time>
      </trkpt>
      <trkpt lat="45.97026" lon="6.32621">
        <ele>1576</ele>
        <time>2014-06-01T11:43:59Z</time>
      </trkpt>
      <trkpt lat="45.97022" lon="6.32623">
        <ele>1576</ele>
        <time>2014-06-01T11:44:01Z</time>
      </trkpt>
      <trkpt lat="45.97019" lon="6.32624">
        <ele>1575</ele>
        <time>2014-06-01T11:44:03Z</time>
      </trkpt>
      <trkpt lat="45.97014" lon="6.32626">
        <ele>1574</ele>
        <time>2014-06-01T11:44:06Z</time>
      </trkpt>
      <trkpt lat="45.97013" lon="6.32627">
        <ele>1573</ele>
        <time>2014-06-01T11:44:08Z</time>
      </trkpt>
      <trkpt lat="45.97011" lon="6.32628">
        <ele>1573</ele>
        <time>2014-06-01T11:44:10Z</time>
      </trkpt>
      <trkpt lat="45.9701" lon="6.32629">
        <ele>1573</ele>
        <time>2014-06-01T11:44:12Z</time>
      </trkpt>
      <trkpt lat="45.97009" lon="6.3263">
        <ele>1573</ele>
        <time>2014-06-01T11:44:14Z</time>
      </trkpt>
      <trkpt lat="45.97007" lon="6.32631">
        <ele>1573</ele>
        <time>2014-06-01T11:44:17Z</time>
      </trkpt>
      <trkpt lat="45.97006" lon="6.32632">
        <ele>1573</ele>
        <time>2014-06-01T11:44:19Z</time>
      </trkpt>
      <trkpt lat="45.97005" lon="6.32633">
        <ele>1573</ele>
        <time>2014-06-01T11:44:21Z</time>
      </trkpt>
      <trkpt lat="45.97004" lon="6.32634">
        <ele>1573</ele>
        <time>2014-06-01T11:44:23Z</time>
      </trkpt>
      <trkpt lat="45.97003" lon="6.32635">
        <ele>1573</ele>
        <time>2014-06-01T11:44:26Z</time>
      </trkpt>
      <trkpt lat="45.97002" lon="6.32635">
        <ele>1573</ele>
        <time>2014-06-01T11:44:28Z</time>
      </trkpt>
      <trkpt lat="45.97001" lon="6.32636">
        <ele>1573</ele>
        <time>2014-06-01T11:44:30Z</time>
      </trkpt>
      <trkpt lat="45.97" lon="6.32636">
        <ele>1573</ele>
        <time>2014-06-01T11:44:32Z</time>
      </trkpt>
      <trkpt lat="45.97" lon="6.32637">
        <ele>1573</ele>
        <time>2014-06-01T11:44:35Z</time>
      </trkpt>
      <trkpt lat="45.96999" lon="6.32637">
        <ele>1573</ele>
        <time>2014-06-01T11:44:37Z</time>
      </trkpt>
      <trkpt lat="45.96998" lon="6.32637">
        <ele>1573</ele>
        <time>2014-06-01T11:44:39Z</time>
      </trkpt>
      <trkpt lat="45.96997" lon="6.32637">
        <ele>1573</ele>
        <time>2014-06-01T11:44:41Z</time>
      </trkpt>
      <trkpt lat="45.96997" lon="6.32637">
        <ele>1573</ele>
        <time>2014-06-01T11:44:43Z</time>
      </trkpt>
      <trkpt lat="45.96996" lon="6.32637">
        <ele>1573</ele>
        <time>2014-06-01T11:44:46Z</time>
      </trkpt>
      <trkpt lat="45.96996" lon="6.32637">
        <ele>1573</ele>
        <time>2014-06-01T11:44:48Z</time>
      </trkpt>
      <trkpt lat="45.96996" lon="6.32636">
        <ele>1573</ele>
        <time>2014-06-01T11:44:50Z</time>
      </trkpt>
      <trkpt lat="45.96996" lon="6.32636">
        <ele>1573</ele>
        <time>2014-06-01T11:44:52Z</time>
      </trkpt>
      <trkpt lat="45.96995" lon="6.32636">
        <ele>1573</ele>
        <time>2014-06-01T11:44:55Z</time>
      </trkpt>
      <trkpt lat="45.96995" lon="6.32635">
        <ele>1572</ele>
        <time>2014-06-01T11:44:57Z</time>
      </trkpt>
      <trkpt lat="45.96995" lon="6.32634">
        <ele>1572</ele>
        <time>2014-06-01T11:44:59Z</time>
      </trkpt>
      <trkpt lat="45.96995" lon="6.32634">
        <ele>1572</ele>
        <time>2014-06-01T11:45:01Z</time>
      </trkpt>
      <trkpt lat="45.96995" lon="6.32633">
        <ele>1572</ele>
        <time>2014-06-01T11:45:03Z</time>
      </trkpt>
      <trkpt lat="45.96994" lon="6.32633">
        <ele>1572</ele>
        <time>2014-06-01T11:45:06Z</time>
      </trkpt>
      <trkpt lat="45.96994" lon="6.32633">
        <ele>1572</ele>
        <time>2014-06-01T11:45:08Z</time>
      </trkpt>
      <trkpt lat="45.96993" lon="6.32633">
        <ele>1572</ele>
        <time>2014-06-01T11:45:10Z</time>
      </trkpt>
      <trkpt lat="45.96992" lon="6.32633">
        <ele>1572</ele>
        <time>2014-06-01T11:45:12Z</time>
      </trkpt>
      <trkpt lat="45.96992" lon="6.32633">
        <ele>1572</ele>
        <time>2014-06-01T11:45:15Z</time>
      </trkpt>
      <trkpt lat="45.96991" lon="6.32634">
        <ele>1572</ele>
        <time>2014-06-01T11:45:17Z</time>
      </trkpt>
      <trkpt lat="45.96991" lon="6.32634">
        <ele>1572</ele>
        <time>2014-06-01T11:45:19Z</time>
      </trkpt>
      <trkpt lat="45.9699" lon="6.32634">
        <ele>1572</ele>
        <time>2014-06-01T11:45:21Z</time>
      </trkpt>
      <trkpt lat="45.9699" lon="6.32634">
        <ele>1572</ele>
        <time>2014-06-01T11:45:23Z</time>
      </trkpt>
      <trkpt lat="45.96989" lon="6.32635">
        <ele>1572</ele>
        <time>2014-06-01T11:45:26Z</time>
      </trkpt>
      <trkpt lat="45.96989" lon="6.32635">
        <ele>1572</ele>
        <time>2014-06-01T11:45:28Z</time>
      </trkpt>
      <trkpt lat="45.96989" lon="6.32635">
        <ele>1572</ele>
        <time>2014-06-01T11:45:30Z</time>
      </trkpt>
      <trkpt lat="45.96989" lon="6.32634">
        <ele>1572</ele>
        <time>2014-06-01T11:45:32Z</time>
      </trkpt>
      <trkpt lat="45.96988" lon="6.32634">
        <ele>1573</ele>
        <time>2014-06-01T11:45:35Z</time>
      </trkpt>
      <trkpt lat="45.96988" lon="6.32634">
        <ele>1573</ele>
        <time>2014-06-01T11:45:37Z</time>
      </trkpt>
      <trkpt lat="45.96988" lon="6.32633">
        <ele>1574</ele>
        <time>2014-06-01T11:45:39Z</time>
      </trkpt>
      <trkpt lat="45.96988" lon="6.32633">
        <ele>1574</ele>
        <time>2014-06-01T11:45:41Z</time>
      </trkpt>
      <trkpt lat="45.96986" lon="6.32631">
        <ele>1574</ele>
        <time>2014-06-01T11:45:44Z</time>
      </trkpt>
      <trkpt lat="45.96985" lon="6.3263">
        <ele>1574</ele>
        <time>2014-06-01T11:45:46Z</time>
      </trkpt>
      <trkpt lat="45.96985" lon="6.32629">
        <ele>1574</ele>
        <time>2014-06-01T11:45:48Z</time>
      </trkpt>
      <trkpt lat="45.96984" lon="6.32629">
        <ele>1574</ele>
        <time>2014-06-01T11:45:50Z</time>
      </trkpt>
      <trkpt lat="45.96983" lon="6.32629">
        <ele>1574</ele>
        <time>2014-06-01T11:45:52Z</time>
      </trkpt>
      <trkpt lat="45.96983" lon="6.32627">
        <ele>1574</ele>
        <time>2014-06-01T11:45:55Z</time>
      </trkpt>
      <trkpt lat="45.96983" lon="6.32626">
        <ele>1574</ele>
        <time>2014-06-01T11:45:57Z</time>
      </trkpt>
      <trkpt lat="45.96982" lon="6.32626">
        <ele>1574</ele>
        <time>2014-06-01T11:45:59Z</time>
      </trkpt>
      <trkpt lat="45.96982" lon="6.32625">
        <ele>1574</ele>
        <time>2014-06-01T11:46:01Z</time>
      </trkpt>
      <trkpt lat="45.96983" lon="6.32624">
        <ele>1574</ele>
        <time>2014-06-01T11:46:04Z</time>
      </trkpt>
      <trkpt lat="45.96983" lon="6.32624">
        <ele>1574</ele>
        <time>2014-06-01T11:46:06Z</time>
      </trkpt>
      <trkpt lat="45.96983" lon="6.32623">
        <ele>1574</ele>
        <time>2014-06-01T11:46:08Z</time>
      </trkpt>
      <trkpt lat="45.96983" lon="6.32623">
        <ele>1574</ele>
        <time>2014-06-01T11:46:10Z</time>
      </trkpt>
      <trkpt lat="45.96984" lon="6.32623">
        <ele>1574</ele>
        <time>2014-06-01T11:46:12Z</time>
      </trkpt>
      <trkpt lat="45.96982" lon="6.32622">
        <ele>1573</ele>
        <time>2014-06-01T11:46:15Z</time>
      </trkpt>
      <trkpt lat="45.9698" lon="6.32622">
        <ele>1573</ele>
        <time>2014-06-01T11:46:17Z</time>
      </trkpt>
      <trkpt lat="45.96978" lon="6.32621">
        <ele>1572</ele>
        <time>2014-06-01T11:46:19Z</time>
      </trkpt>
      <trkpt lat="45.96976" lon="6.3262">
        <ele>1572</ele>
        <time>2014-06-01T11:46:21Z</time>
      </trkpt>
      <trkpt lat="45.96973" lon="6.3262">
        <ele>1572</ele>
        <time>2014-06-01T11:46:24Z</time>
      </trkpt>
      <trkpt lat="45.96971" lon="6.32621">
        <ele>1571</ele>
        <time>2014-06-01T11:46:26Z</time>
      </trkpt>
      <trkpt lat="45.96969" lon="6.3262">
        <ele>1571</ele>
        <time>2014-06-01T11:46:28Z</time>
      </trkpt>
      <trkpt lat="45.96967" lon="6.3262">
        <ele>1570</ele>
        <time>2014-06-01T11:46:30Z</time>
      </trkpt>
      <trkpt lat="45.96965" lon="6.3262">
        <ele>1570</ele>
        <time>2014-06-01T11:46:33Z</time>
      </trkpt>
      <trkpt lat="45.96963" lon="6.32621">
        <ele>1568</ele>
        <time>2014-06-01T11:46:35Z</time>
      </trkpt>
      <trkpt lat="45.9696" lon="6.32622">
        <ele>1567</ele>
        <time>2014-06-01T11:46:37Z</time>
      </trkpt>
      <trkpt lat="45.96958" lon="6.32625">
        <ele>1567</ele>
        <time>2014-06-01T11:46:39Z</time>
      </trkpt>
      <trkpt lat="45.96956" lon="6.32626">
        <ele>1566</ele>
        <time>2014-06-01T11:46:41Z</time>
      </trkpt>
      <trkpt lat="45.96953" lon="6.32628">
        <ele>1566</ele>
        <time>2014-06-01T11:46:44Z</time>
      </trkpt>
      <trkpt lat="45.96952" lon="6.32628">
        <ele>1566</ele>
        <time>2014-06-01T11:46:46Z</time>
      </trkpt>
      <trkpt lat="45.9695" lon="6.3263">
        <ele>1566</ele>
        <time>2014-06-01T11:46:48Z</time>
      </trkpt>
      <trkpt lat="45.96948" lon="6.32633">
        <ele>1565</ele>
        <time>2014-06-01T11:46:50Z</time>
      </trkpt>
      <trkpt lat="45.96945" lon="6.32637">
        <ele>1564</ele>
        <time>2014-06-01T11:46:53Z</time>
      </trkpt>
      <trkpt lat="45.96944" lon="6.32639">
        <ele>1563</ele>
        <time>2014-06-01T11:46:55Z</time>
      </trkpt>
      <trkpt lat="45.96943" lon="6.3264">
        <ele>1563</ele>
        <time>2014-06-01T11:46:57Z</time>
      </trkpt>
      <trkpt lat="45.96942" lon="6.32642">
        <ele>1562</ele>
        <time>2014-06-01T11:46:59Z</time>
      </trkpt>
      <trkpt lat="45.96941" lon="6.32643">
        <ele>1562</ele>
        <time>2014-06-01T11:47:01Z</time>
      </trkpt>
      <trkpt lat="45.96942" lon="6.32644">
        <ele>1562</ele>
        <time>2014-06-01T11:47:04Z</time>
      </trkpt>
      <trkpt lat="45.96941" lon="6.32645">
        <ele>1562</ele>
        <time>2014-06-01T11:47:06Z</time>
      </trkpt>
      <trkpt lat="45.96941" lon="6.32646">
        <ele>1562</ele>
        <time>2014-06-01T11:47:08Z</time>
      </trkpt>
      <trkpt lat="45.96941" lon="6.32647">
        <ele>1562</ele>
        <time>2014-06-01T11:47:10Z</time>
      </trkpt>
      <trkpt lat="45.9694" lon="6.32648">
        <ele>1562</ele>
        <time>2014-06-01T11:47:13Z</time>
      </trkpt>
      <trkpt lat="45.9694" lon="6.32649">
        <ele>1562</ele>
        <time>2014-06-01T11:47:15Z</time>
      </trkpt>
      <trkpt lat="45.9694" lon="6.3265">
        <ele>1562</ele>
        <time>2014-06-01T11:47:17Z</time>
      </trkpt>
      <trkpt lat="45.9694" lon="6.3265">
        <ele>1562</ele>
        <time>2014-06-01T11:47:19Z</time>
      </trkpt>
      <trkpt lat="45.9694" lon="6.32651">
        <ele>1562</ele>
        <time>2014-06-01T11:47:22Z</time>
      </trkpt>
      <trkpt lat="45.96939" lon="6.32651">
        <ele>1562</ele>
        <time>2014-06-01T11:47:24Z</time>
      </trkpt>
      <trkpt lat="45.96939" lon="6.32652">
        <ele>1562</ele>
        <time>2014-06-01T11:47:26Z</time>
      </trkpt>
      <trkpt lat="45.96937" lon="6.32651">
        <ele>1562</ele>
        <time>2014-06-01T11:47:28Z</time>
      </trkpt>
      <trkpt lat="45.96935" lon="6.3265">
        <ele>1562</ele>
        <time>2014-06-01T11:47:30Z</time>
      </trkpt>
      <trkpt lat="45.96932" lon="6.32651">
        <ele>1562</ele>
        <time>2014-06-01T11:47:33Z</time>
      </trkpt>
      <trkpt lat="45.9693" lon="6.32651">
        <ele>1562</ele>
        <time>2014-06-01T11:47:35Z</time>
      </trkpt>
      <trkpt lat="45.96929" lon="6.32651">
        <ele>1562</ele>
        <time>2014-06-01T11:47:37Z</time>
      </trkpt>
      <trkpt lat="45.96925" lon="6.32652">
        <ele>1562</ele>
        <time>2014-06-01T11:47:39Z</time>
      </trkpt>
      <trkpt lat="45.96921" lon="6.32651">
        <ele>1561</ele>
        <time>2014-06-01T11:47:42Z</time>
      </trkpt>
      <trkpt lat="45.96917" lon="6.32649">
        <ele>1559</ele>
        <time>2014-06-01T11:47:44Z</time>
      </trkpt>
      <trkpt lat="45.96913" lon="6.32648">
        <ele>1558</ele>
        <time>2014-06-01T11:47:46Z</time>
      </trkpt>
      <trkpt lat="45.96909" lon="6.32647">
        <ele>1557</ele>
        <time>2014-06-01T11:47:48Z</time>
      </trkpt>
      <trkpt lat="45.96905" lon="6.32645">
        <ele>1556</ele>
        <time>2014-06-01T11:47:50Z</time>
      </trkpt>
      <trkpt lat="45.96899" lon="6.32642">
        <ele>1555</ele>
        <time>2014-06-01T11:47:53Z</time>
      </trkpt>
      <trkpt lat="45.96896" lon="6.32638">
        <ele>1553</ele>
        <time>2014-06-01T11:47:55Z</time>
      </trkpt>
      <trkpt lat="45.96894" lon="6.32636">
        <ele>1551</ele>
        <time>2014-06-01T11:47:57Z</time>
      </trkpt>
      <trkpt lat="45.96893" lon="6.32632">
        <ele>1550</ele>
        <time>2014-06-01T11:47:59Z</time>
      </trkpt>
      <trkpt lat="45.96889" lon="6.32627">
        <ele>1548</ele>
        <time>2014-06-01T11:48:02Z</time>
      </trkpt>
      <trkpt lat="45.96887" lon="6.32625">
        <ele>1547</ele>
        <time>2014-06-01T11:48:04Z</time>
      </trkpt>
      <trkpt lat="45.96885" lon="6.32623">
        <ele>1546</ele>
        <time>2014-06-01T11:48:06Z</time>
      </trkpt>
      <trkpt lat="45.96884" lon="6.32621">
        <ele>1546</ele>
        <time>2014-06-01T11:48:08Z</time>
      </trkpt>
      <trkpt lat="45.96882" lon="6.32619">
        <ele>1545</ele>
        <time>2014-06-01T11:48:11Z</time>
      </trkpt>
      <trkpt lat="45.96878" lon="6.32613">
        <ele>1545</ele>
        <time>2014-06-01T11:48:13Z</time>
      </trkpt>
      <trkpt lat="45.96875" lon="6.32609">
        <ele>1545</ele>
        <time>2014-06-01T11:48:15Z</time>
      </trkpt>
      <trkpt lat="45.96874" lon="6.32607">
        <ele>1545</ele>
        <time>2014-06-01T11:48:17Z</time>
      </trkpt>
      <trkpt lat="45.96871" lon="6.32604">
        <ele>1545</ele>
        <time>2014-06-01T11:48:19Z</time>
      </trkpt>
      <trkpt lat="45.96868" lon="6.32599">
        <ele>1543</ele>
        <time>2014-06-01T11:48:22Z</time>
      </trkpt>
      <trkpt lat="45.96866" lon="6.32595">
        <ele>1543</ele>
        <time>2014-06-01T11:48:24Z</time>
      </trkpt>
      <trkpt lat="45.96864" lon="6.32589">
        <ele>1541</ele>
        <time>2014-06-01T11:48:26Z</time>
      </trkpt>
      <trkpt lat="45.96864" lon="6.32582">
        <ele>1540</ele>
        <time>2014-06-01T11:48:28Z</time>
      </trkpt>
      <trkpt lat="45.96864" lon="6.32572">
        <ele>1538</ele>
        <time>2014-06-01T11:48:31Z</time>
      </trkpt>
      <trkpt lat="45.96864" lon="6.32565">
        <ele>1536</ele>
        <time>2014-06-01T11:48:33Z</time>
      </trkpt>
      <trkpt lat="45.96862" lon="6.32559">
        <ele>1534</ele>
        <time>2014-06-01T11:48:35Z</time>
      </trkpt>
      <trkpt lat="45.96858" lon="6.32552">
        <ele>1532</ele>
        <time>2014-06-01T11:48:37Z</time>
      </trkpt>
      <trkpt lat="45.96855" lon="6.32544">
        <ele>1530</ele>
        <time>2014-06-01T11:48:40Z</time>
      </trkpt>
      <trkpt lat="45.96852" lon="6.32531">
        <ele>1528</ele>
        <time>2014-06-01T11:48:42Z</time>
      </trkpt>
      <trkpt lat="45.9685" lon="6.32524">
        <ele>1526</ele>
        <time>2014-06-01T11:48:44Z</time>
      </trkpt>
      <trkpt lat="45.96847" lon="6.32517">
        <ele>1526</ele>
        <time>2014-06-01T11:48:46Z</time>
      </trkpt>
      <trkpt lat="45.96843" lon="6.32512">
        <ele>1525</ele>
        <time>2014-06-01T11:48:48Z</time>
      </trkpt>
      <trkpt lat="45.96835" lon="6.32503">
        <ele>1525</ele>
        <time>2014-06-01T11:48:51Z</time>
      </trkpt>
      <trkpt lat="45.96829" lon="6.32497">
        <ele>1525</ele>
        <time>2014-06-01T11:48:53Z</time>
      </trkpt>
      <trkpt lat="45.96825" lon="6.32491">
        <ele>1525</ele>
        <time>2014-06-01T11:48:55Z</time>
      </trkpt>
      <trkpt lat="45.9682" lon="6.32483">
        <ele>1525</ele>
        <time>2014-06-01T11:48:57Z</time>
      </trkpt>
      <trkpt lat="45.96815" lon="6.32475">
        <ele>1525</ele>
        <time>2014-06-01T11:49:00Z</time>
      </trkpt>
      <trkpt lat="45.9681" lon="6.32464">
        <ele>1525</ele>
        <time>2014-06-01T11:49:02Z</time>
      </trkpt>
      <trkpt lat="45.96806" lon="6.32458">
        <ele>1525</ele>
        <time>2014-06-01T11:49:04Z</time>
      </trkpt>
      <trkpt lat="45.96801" lon="6.32453">
        <ele>1525</ele>
        <time>2014-06-01T11:49:06Z</time>
      </trkpt>
      <trkpt lat="45.96796" lon="6.32446">
        <ele>1525</ele>
        <time>2014-06-01T11:49:08Z</time>
      </trkpt>
      <trkpt lat="45.9679" lon="6.32435">
        <ele>1526</ele>
        <time>2014-06-01T11:49:11Z</time>
      </trkpt>
      <trkpt lat="45.96786" lon="6.32428">
        <ele>1526</ele>
        <time>2014-06-01T11:49:13Z</time>
      </trkpt>
      <trkpt lat="45.96781" lon="6.32423">
        <ele>1526</ele>
        <time>2014-06-01T11:49:15Z</time>
      </trkpt>
      <trkpt lat="45.96777" lon="6.32417">
        <ele>1526</ele>
        <time>2014-06-01T11:49:17Z</time>
      </trkpt>
      <trkpt lat="45.96774" lon="6.32411">
        <ele>1526</ele>
        <time>2014-06-01T11:49:20Z</time>
      </trkpt>
      <trkpt lat="45.96767" lon="6.32403">
        <ele>1526</ele>
        <time>2014-06-01T11:49:22Z</time>
      </trkpt>
      <trkpt lat="45.96764" lon="6.32396">
        <ele>1526</ele>
        <time>2014-06-01T11:49:24Z</time>
      </trkpt>
      <trkpt lat="45.96761" lon="6.3239">
        <ele>1524</ele>
        <time>2014-06-01T11:49:26Z</time>
      </trkpt>
      <trkpt lat="45.96758" lon="6.32381">
        <ele>1523</ele>
        <time>2014-06-01T11:49:28Z</time>
      </trkpt>
      <trkpt lat="45.96753" lon="6.32373">
        <ele>1522</ele>
        <time>2014-06-01T11:49:31Z</time>
      </trkpt>
      <trkpt lat="45.96749" lon="6.32366">
        <ele>1522</ele>
        <time>2014-06-01T11:49:33Z</time>
      </trkpt>
      <trkpt lat="45.96745" lon="6.32358">
        <ele>1522</ele>
        <time>2014-06-01T11:49:35Z</time>
      </trkpt>
      <trkpt lat="45.96741" lon="6.3235">
        <ele>1522</ele>
        <time>2014-06-01T11:49:37Z</time>
      </trkpt>
      <trkpt lat="45.96738" lon="6.3234">
        <ele>1522</ele>
        <time>2014-06-01T11:49:40Z</time>
      </trkpt>
      <trkpt lat="45.96735" lon="6.32333">
        <ele>1521</ele>
        <time>2014-06-01T11:49:42Z</time>
      </trkpt>
      <trkpt lat="45.96732" lon="6.32327">
        <ele>1521</ele>
        <time>2014-06-01T11:49:44Z</time>
      </trkpt>
      <trkpt lat="45.96727" lon="6.32319">
        <ele>1521</ele>
        <time>2014-06-01T11:49:46Z</time>
      </trkpt>
      <trkpt lat="45.96722" lon="6.32312">
        <ele>1520</ele>
        <time>2014-06-01T11:49:49Z</time>
      </trkpt>
      <trkpt lat="45.96715" lon="6.32303">
        <ele>1518</ele>
        <time>2014-06-01T11:49:51Z</time>
      </trkpt>
      <trkpt lat="45.9671" lon="6.32296">
        <ele>1517</ele>
        <time>2014-06-01T11:49:53Z</time>
      </trkpt>
      <trkpt lat="45.96704" lon="6.3229">
        <ele>1515</ele>
        <time>2014-06-01T11:49:55Z</time>
      </trkpt>
      <trkpt lat="45.96698" lon="6.32283">
        <ele>1515</ele>
        <time>2014-06-01T11:49:57Z</time>
      </trkpt>
      <trkpt lat="45.9669" lon="6.32276">
        <ele>1515</ele>
        <time>2014-06-01T11:50:00Z</time>
      </trkpt>
      <trkpt lat="45.96683" lon="6.32271">
        <ele>1515</ele>
        <time>2014-06-01T11:50:02Z</time>
      </trkpt>
      <trkpt lat="45.96677" lon="6.32267">
        <ele>1515</ele>
        <time>2014-06-01T11:50:04Z</time>
      </trkpt>
      <trkpt lat="45.96672" lon="6.32262">
        <ele>1515</ele>
        <time>2014-06-01T11:50:06Z</time>
      </trkpt>
      <trkpt lat="45.96664" lon="6.32253">
        <ele>1515</ele>
        <time>2014-06-01T11:50:09Z</time>
      </trkpt>
      <trkpt lat="45.96659" lon="6.32247">
        <ele>1513</ele>
        <time>2014-06-01T11:50:11Z</time>
      </trkpt>
      <trkpt lat="45.96655" lon="6.32243">
        <ele>1513</ele>
        <time>2014-06-01T11:50:13Z</time>
      </trkpt>
      <trkpt lat="45.9665" lon="6.32241">
        <ele>1511</ele>
        <time>2014-06-01T11:50:15Z</time>
      </trkpt>
      <trkpt lat="45.96644" lon="6.32239">
        <ele>1510</ele>
        <time>2014-06-01T11:50:18Z</time>
      </trkpt>
      <trkpt lat="45.96637" lon="6.32235">
        <ele>1508</ele>
        <time>2014-06-01T11:50:20Z</time>
      </trkpt>
      <trkpt lat="45.96632" lon="6.32232">
        <ele>1506</ele>
        <time>2014-06-01T11:50:22Z</time>
      </trkpt>
      <trkpt lat="45.96627" lon="6.3223">
        <ele>1505</ele>
        <time>2014-06-01T11:50:24Z</time>
      </trkpt>
      <trkpt lat="45.9662" lon="6.32228">
        <ele>1505</ele>
        <time>2014-06-01T11:50:26Z</time>
      </trkpt>
      <trkpt lat="45.96612" lon="6.32229">
        <ele>1505</ele>
        <time>2014-06-01T11:50:29Z</time>
      </trkpt>
      <trkpt lat="45.96607" lon="6.32229">
        <ele>1505</ele>
        <time>2014-06-01T11:50:31Z</time>
      </trkpt>
      <trkpt lat="45.96603" lon="6.32228">
        <ele>1505</ele>
        <time>2014-06-01T11:50:33Z</time>
      </trkpt>
      <trkpt lat="45.96601" lon="6.32228">
        <ele>1505</ele>
        <time>2014-06-01T11:50:35Z</time>
      </trkpt>
      <trkpt lat="45.96598" lon="6.32227">
        <ele>1505</ele>
        <time>2014-06-01T11:50:38Z</time>
      </trkpt>
      <trkpt lat="45.96592" lon="6.32223">
        <ele>1505</ele>
        <time>2014-06-01T11:50:40Z</time>
      </trkpt>
      <trkpt lat="45.96588" lon="6.32221">
        <ele>1505</ele>
        <time>2014-06-01T11:50:42Z</time>
      </trkpt>
      <trkpt lat="45.96584" lon="6.32218">
        <ele>1506</ele>
        <time>2014-06-01T11:50:44Z</time>
      </trkpt>
      <trkpt lat="45.96582" lon="6.32215">
        <ele>1506</ele>
        <time>2014-06-01T11:50:46Z</time>
      </trkpt>
      <trkpt lat="45.96578" lon="6.32211">
        <ele>1506</ele>
        <time>2014-06-01T11:50:49Z</time>
      </trkpt>
      <trkpt lat="45.96575" lon="6.32209">
        <ele>1506</ele>
        <time>2014-06-01T11:50:51Z</time>
      </trkpt>
      <trkpt lat="45.96572" lon="6.32205">
        <ele>1506</ele>
        <time>2014-06-01T11:50:53Z</time>
      </trkpt>
      <trkpt lat="45.96569" lon="6.32201">
        <ele>1506</ele>
        <time>2014-06-01T11:50:55Z</time>
      </trkpt>
      <trkpt lat="45.96565" lon="6.32195">
        <ele>1506</ele>
        <time>2014-06-01T11:50:58Z</time>
      </trkpt>
      <trkpt lat="45.96562" lon="6.32191">
        <ele>1506</ele>
        <time>2014-06-01T11:51:00Z</time>
      </trkpt>
      <trkpt lat="45.9656" lon="6.32187">
        <ele>1506</ele>
        <time>2014-06-01T11:51:02Z</time>
      </trkpt>
      <trkpt lat="45.96556" lon="6.32182">
        <ele>1507</ele>
        <time>2014-06-01T11:51:04Z</time>
      </trkpt>
      <trkpt lat="45.9655" lon="6.32177">
        <ele>1507</ele>
        <time>2014-06-01T11:51:07Z</time>
      </trkpt>
      <trkpt lat="45.96543" lon="6.32171">
        <ele>1507</ele>
        <time>2014-06-01T11:51:09Z</time>
      </trkpt>
      <trkpt lat="45.96539" lon="6.32167">
        <ele>1508</ele>
        <time>2014-06-01T11:51:11Z</time>
      </trkpt>
      <trkpt lat="45.96536" lon="6.32164">
        <ele>1508</ele>
        <time>2014-06-01T11:51:13Z</time>
      </trkpt>
      <trkpt lat="45.96532" lon="6.32162">
        <ele>1508</ele>
        <time>2014-06-01T11:51:15Z</time>
      </trkpt>
      <trkpt lat="45.96527" lon="6.32158">
        <ele>1508</ele>
        <time>2014-06-01T11:51:18Z</time>
      </trkpt>
      <trkpt lat="45.96523" lon="6.32156">
        <ele>1508</ele>
        <time>2014-06-01T11:51:20Z</time>
      </trkpt>
      <trkpt lat="45.9652" lon="6.32153">
        <ele>1508</ele>
        <time>2014-06-01T11:51:22Z</time>
      </trkpt>
      <trkpt lat="45.96516" lon="6.32151">
        <ele>1508</ele>
        <time>2014-06-01T11:51:24Z</time>
      </trkpt>
      <trkpt lat="45.96512" lon="6.32149">
        <ele>1508</ele>
        <time>2014-06-01T11:51:27Z</time>
      </trkpt>
      <trkpt lat="45.96506" lon="6.32145">
        <ele>1508</ele>
        <time>2014-06-01T11:51:29Z</time>
      </trkpt>
      <trkpt lat="45.96502" lon="6.32143">
        <ele>1508</ele>
        <time>2014-06-01T11:51:31Z</time>
      </trkpt>
      <trkpt lat="45.96499" lon="6.32141">
        <ele>1508</ele>
        <time>2014-06-01T11:51:33Z</time>
      </trkpt>
      <trkpt lat="45.96495" lon="6.32137">
        <ele>1508</ele>
        <time>2014-06-01T11:51:35Z</time>
      </trkpt>
      <trkpt lat="45.9649" lon="6.32133">
        <ele>1507</ele>
        <time>2014-06-01T11:51:38Z</time>
      </trkpt>
      <trkpt lat="45.96487" lon="6.32131">
        <ele>1506</ele>
        <time>2014-06-01T11:51:40Z</time>
      </trkpt>
      <trkpt lat="45.96483" lon="6.32129">
        <ele>1506</ele>
        <time>2014-06-01T11:51:42Z</time>
      </trkpt>
      <trkpt lat="45.9648" lon="6.32128">
        <ele>1506</ele>
        <time>2014-06-01T11:51:44Z</time>
      </trkpt>
      <trkpt lat="45.96475" lon="6.32125">
        <ele>1506</ele>
        <time>2014-06-01T11:51:47Z</time>
      </trkpt>
      <trkpt lat="45.96471" lon="6.32123">
        <ele>1506</ele>
        <time>2014-06-01T11:51:49Z</time>
      </trkpt>
      <trkpt lat="45.96468" lon="6.32122">
        <ele>1506</ele>
        <time>2014-06-01T11:51:51Z</time>
      </trkpt>
      <trkpt lat="45.96465" lon="6.32121">
        <ele>1506</ele>
        <time>2014-06-01T11:51:53Z</time>
      </trkpt>
      <trkpt lat="45.96462" lon="6.3212">
        <ele>1506</ele>
        <time>2014-06-01T11:51:56Z</time>
      </trkpt>
      <trkpt lat="45.96458" lon="6.32118">
        <ele>1506</ele>
        <time>2014-06-01T11:51:58Z</time>
      </trkpt>
      <trkpt lat="45.96455" lon="6.32117">
        <ele>1506</ele>
        <time>2014-06-01T11:52:00Z</time>
      </trkpt>
      <trkpt lat="45.96453" lon="6.32116">
        <ele>1506</ele>
        <time>2014-06-01T11:52:02Z</time>
      </trkpt>
      <trkpt lat="45.9645" lon="6.32115">
        <ele>1506</ele>
        <time>2014-06-01T11:52:04Z</time>
      </trkpt>
      <trkpt lat="45.96445" lon="6.32114">
        <ele>1506</ele>
        <time>2014-06-01T11:52:07Z</time>
      </trkpt>
      <trkpt lat="45.96442" lon="6.32113">
        <ele>1506</ele>
        <time>2014-06-01T11:52:09Z</time>
      </trkpt>
      <trkpt lat="45.96438" lon="6.32111">
        <ele>1506</ele>
        <time>2014-06-01T11:52:11Z</time>
      </trkpt>
      <trkpt lat="45.96435" lon="6.3211">
        <ele>1506</ele>
        <time>2014-06-01T11:52:13Z</time>
      </trkpt>
      <trkpt lat="45.96432" lon="6.32108">
        <ele>1506</ele>
        <time>2014-06-01T11:52:16Z</time>
      </trkpt>
      <trkpt lat="45.96429" lon="6.32107">
        <ele>1506</ele>
        <time>2014-06-01T11:52:18Z</time>
      </trkpt>
      <trkpt lat="45.96425" lon="6.32105">
        <ele>1506</ele>
        <time>2014-06-01T11:52:20Z</time>
      </trkpt>
      <trkpt lat="45.96421" lon="6.32103">
        <ele>1506</ele>
        <time>2014-06-01T11:52:22Z</time>
      </trkpt>
      <trkpt lat="45.96417" lon="6.32102">
        <ele>1506</ele>
        <time>2014-06-01T11:52:25Z</time>
      </trkpt>
      <trkpt lat="45.96412" lon="6.32102">
        <ele>1506</ele>
        <time>2014-06-01T11:52:27Z</time>
      </trkpt>
      <trkpt lat="45.9641" lon="6.32102">
        <ele>1506</ele>
        <time>2014-06-01T11:52:29Z</time>
      </trkpt>
      <trkpt lat="45.96407" lon="6.32102">
        <ele>1506</ele>
        <time>2014-06-01T11:52:31Z</time>
      </trkpt>
      <trkpt lat="45.96405" lon="6.32103">
        <ele>1506</ele>
        <time>2014-06-01T11:52:33Z</time>
      </trkpt>
      <trkpt lat="45.96399" lon="6.32104">
        <ele>1506</ele>
        <time>2014-06-01T11:52:36Z</time>
      </trkpt>
      <trkpt lat="45.96396" lon="6.32104">
        <ele>1506</ele>
        <time>2014-06-01T11:52:38Z</time>
      </trkpt>
      <trkpt lat="45.96392" lon="6.32106">
        <ele>1506</ele>
        <time>2014-06-01T11:52:40Z</time>
      </trkpt>
      <trkpt lat="45.96388" lon="6.32107">
        <ele>1506</ele>
        <time>2014-06-01T11:52:42Z</time>
      </trkpt>
      <trkpt lat="45.96386" lon="6.32108">
        <ele>1506</ele>
        <time>2014-06-01T11:52:45Z</time>
      </trkpt>
      <trkpt lat="45.96382" lon="6.3211">
        <ele>1506</ele>
        <time>2014-06-01T11:52:47Z</time>
      </trkpt>
      <trkpt lat="45.96378" lon="6.32111">
        <ele>1506</ele>
        <time>2014-06-01T11:52:49Z</time>
      </trkpt>
      <trkpt lat="45.96374" lon="6.32112">
        <ele>1506</ele>
        <time>2014-06-01T11:52:51Z</time>
      </trkpt>
      <trkpt lat="45.9637" lon="6.32112">
        <ele>1506</ele>
        <time>2014-06-01T11:52:53Z</time>
      </trkpt>
      <trkpt lat="45.96364" lon="6.32114">
        <ele>1506</ele>
        <time>2014-06-01T11:52:56Z</time>
      </trkpt>
      <trkpt lat="45.96359" lon="6.32116">
        <ele>1506</ele>
        <time>2014-06-01T11:52:58Z</time>
      </trkpt>
      <trkpt lat="45.96354" lon="6.32117">
        <ele>1506</ele>
        <time>2014-06-01T11:53:00Z</time>
      </trkpt>
      <trkpt lat="45.96351" lon="6.32117">
        <ele>1506</ele>
        <time>2014-06-01T11:53:02Z</time>
      </trkpt>
      <trkpt lat="45.96348" lon="6.32119">
        <ele>1506</ele>
        <time>2014-06-01T11:53:05Z</time>
      </trkpt>
      <trkpt lat="45.96347" lon="6.32119">
        <ele>1506</ele>
        <time>2014-06-01T11:53:07Z</time>
      </trkpt>
      <trkpt lat="45.96347" lon="6.32119">
        <ele>1506</ele>
        <time>2014-06-01T11:53:09Z</time>
      </trkpt>
      <trkpt lat="45.96347" lon="6.32119">
        <ele>1506</ele>
        <time>2014-06-01T11:53:11Z</time>
      </trkpt>
      <trkpt lat="45.96347" lon="6.32118">
        <ele>1506</ele>
        <time>2014-06-01T11:53:14Z</time>
      </trkpt>
      <trkpt lat="45.96346" lon="6.32118">
        <ele>1506</ele>
        <time>2014-06-01T11:53:16Z</time>
      </trkpt>
      <trkpt lat="45.96345" lon="6.32117">
        <ele>1506</ele>
        <time>2014-06-01T11:53:18Z</time>
      </trkpt>
      <trkpt lat="45.96344" lon="6.32116">
        <ele>1506</ele>
        <time>2014-06-01T11:53:20Z</time>
      </trkpt>
      <trkpt lat="45.96345" lon="6.32115">
        <ele>1505</ele>
        <time>2014-06-01T11:53:23Z</time>
      </trkpt>
      <trkpt lat="45.96345" lon="6.32115">
        <ele>1505</ele>
        <time>2014-06-01T11:53:25Z</time>
      </trkpt>
      <trkpt lat="45.96346" lon="6.32115">
        <ele>1505</ele>
        <time>2014-06-01T11:53:27Z</time>
      </trkpt>
      <trkpt lat="45.96346" lon="6.32115">
        <ele>1505</ele>
        <time>2014-06-01T11:53:29Z</time>
      </trkpt>
      <trkpt lat="45.96346" lon="6.32115">
        <ele>1505</ele>
        <time>2014-06-01T11:53:31Z</time>
      </trkpt>
      <trkpt lat="45.96346" lon="6.32115">
        <ele>1505</ele>
        <time>2014-06-01T11:53:34Z</time>
      </trkpt>
      <trkpt lat="45.96347" lon="6.32115">
        <ele>1505</ele>
        <time>2014-06-01T11:53:36Z</time>
      </trkpt>
      <trkpt lat="45.96347" lon="6.32115">
        <ele>1505</ele>
        <time>2014-06-01T11:53:38Z</time>
      </trkpt>
      <trkpt lat="45.96347" lon="6.32114">
        <ele>1505</ele>
        <time>2014-06-01T11:53:40Z</time>
      </trkpt>
      <trkpt lat="45.96347" lon="6.32114">
        <ele>1505</ele>
        <time>2014-06-01T11:53:43Z</time>
      </trkpt>
      <trkpt lat="45.96347" lon="6.32114">
        <ele>1505</ele>
        <time>2014-06-01T11:53:45Z</time>
      </trkpt>
      <trkpt lat="45.96347" lon="6.32114">
        <ele>1505</ele>
        <time>2014-06-01T11:53:47Z</time>
      </trkpt>
      <trkpt lat="45.96348" lon="6.32114">
        <ele>1505</ele>
        <time>2014-06-01T11:53:49Z</time>
      </trkpt>
      <trkpt lat="45.96348" lon="6.32114">
        <ele>1505</ele>
        <time>2014-06-01T11:53:51Z</time>
      </trkpt>
      <trkpt lat="45.96346" lon="6.32116">
        <ele>1505</ele>
        <time>2014-06-01T11:53:54Z</time>
      </trkpt>
      <trkpt lat="45.96343" lon="6.32116">
        <ele>1505</ele>
        <time>2014-06-01T11:53:56Z</time>
      </trkpt>
      <trkpt lat="45.9634" lon="6.32118">
        <ele>1505</ele>
        <time>2014-06-01T11:53:58Z</time>
      </trkpt>
      <trkpt lat="45.96338" lon="6.32121">
        <ele>1505</ele>
        <time>2014-06-01T11:54:00Z</time>
      </trkpt>
      <trkpt lat="45.96334" lon="6.32123">
        <ele>1503</ele>
        <time>2014-06-01T11:54:03Z</time>
      </trkpt>
      <trkpt lat="45.9633" lon="6.32126">
        <ele>1503</ele>
        <time>2014-06-01T11:54:05Z</time>
      </trkpt>
      <trkpt lat="45.96328" lon="6.32129">
        <ele>1501</ele>
        <time>2014-06-01T11:54:07Z</time>
      </trkpt>
      <trkpt lat="45.96325" lon="6.32133">
        <ele>1500</ele>
        <time>2014-06-01T11:54:09Z</time>
      </trkpt>
      <trkpt lat="45.96322" lon="6.32136">
        <ele>1498</ele>
        <time>2014-06-01T11:54:11Z</time>
      </trkpt>
      <trkpt lat="45.96317" lon="6.3214">
        <ele>1497</ele>
        <time>2014-06-01T11:54:14Z</time>
      </trkpt>
      <trkpt lat="45.96314" lon="6.32145">
        <ele>1495</ele>
        <time>2014-06-01T11:54:16Z</time>
      </trkpt>
      <trkpt lat="45.96312" lon="6.32149">
        <ele>1493</ele>
        <time>2014-06-01T11:54:18Z</time>
      </trkpt>
      <trkpt lat="45.9631" lon="6.32155">
        <ele>1492</ele>
        <time>2014-06-01T11:54:20Z</time>
      </trkpt>
      <trkpt lat="45.96308" lon="6.32166">
        <ele>1490</ele>
        <time>2014-06-01T11:54:23Z</time>
      </trkpt>
      <trkpt lat="45.96308" lon="6.32175">
        <ele>1488</ele>
        <time>2014-06-01T11:54:25Z</time>
      </trkpt>
      <trkpt lat="45.9631" lon="6.32182">
        <ele>1486</ele>
        <time>2014-06-01T11:54:27Z</time>
      </trkpt>
      <trkpt lat="45.96312" lon="6.32186">
        <ele>1484</ele>
        <time>2014-06-01T11:54:29Z</time>
      </trkpt>
      <trkpt lat="45.96313" lon="6.32189">
        <ele>1482</ele>
        <time>2014-06-01T11:54:31Z</time>
      </trkpt>
      <trkpt lat="45.96315" lon="6.32193">
        <ele>1481</ele>
        <time>2014-06-01T11:54:34Z</time>
      </trkpt>
      <trkpt lat="45.96316" lon="6.32195">
        <ele>1479</ele>
        <time>2014-06-01T11:54:36Z</time>
      </trkpt>
      <trkpt lat="45.96316" lon="6.32196">
        <ele>1477</ele>
        <time>2014-06-01T11:54:38Z</time>
      </trkpt>
      <trkpt lat="45.96318" lon="6.32198">
        <ele>1476</ele>
        <time>2014-06-01T11:54:40Z</time>
      </trkpt>
      <trkpt lat="45.9632" lon="6.32204">
        <ele>1475</ele>
        <time>2014-06-01T11:54:43Z</time>
      </trkpt>
      <trkpt lat="45.96323" lon="6.32214">
        <ele>1473</ele>
        <time>2014-06-01T11:54:45Z</time>
      </trkpt>
      <trkpt lat="45.96324" lon="6.32222">
        <ele>1471</ele>
        <time>2014-06-01T11:54:47Z</time>
      </trkpt>
      <trkpt lat="45.96325" lon="6.3223">
        <ele>1469</ele>
        <time>2014-06-01T11:54:49Z</time>
      </trkpt>
      <trkpt lat="45.96325" lon="6.32235">
        <ele>1468</ele>
        <time>2014-06-01T11:54:51Z</time>
      </trkpt>
      <trkpt lat="45.96324" lon="6.32236">
        <ele>1466</ele>
        <time>2014-06-01T11:54:54Z</time>
      </trkpt>
      <trkpt lat="45.96324" lon="6.32237">
        <ele>1465</ele>
        <time>2014-06-01T11:54:56Z</time>
      </trkpt>
      <trkpt lat="45.96324" lon="6.32237">
        <ele>1465</ele>
        <time>2014-06-01T11:54:58Z</time>
      </trkpt>
      <trkpt lat="45.96323" lon="6.32239">
        <ele>1465</ele>
        <time>2014-06-01T11:55:00Z</time>
      </trkpt>
      <trkpt lat="45.96324" lon="6.32245">
        <ele>1464</ele>
        <time>2014-06-01T11:55:03Z</time>
      </trkpt>
      <trkpt lat="45.96324" lon="6.3225">
        <ele>1463</ele>
        <time>2014-06-01T11:55:05Z</time>
      </trkpt>
      <trkpt lat="45.96324" lon="6.32251">
        <ele>1462</ele>
        <time>2014-06-01T11:55:07Z</time>
      </trkpt>
      <trkpt lat="45.96324" lon="6.32253">
        <ele>1460</ele>
        <time>2014-06-01T11:55:09Z</time>
      </trkpt>
      <trkpt lat="45.96321" lon="6.32255">
        <ele>1458</ele>
        <time>2014-06-01T11:55:11Z</time>
      </trkpt>
      <trkpt lat="45.9632" lon="6.32259">
        <ele>1458</ele>
        <time>2014-06-01T11:55:14Z</time>
      </trkpt>
      <trkpt lat="45.96319" lon="6.32263">
        <ele>1458</ele>
        <time>2014-06-01T11:55:16Z</time>
      </trkpt>
      <trkpt lat="45.96317" lon="6.32268">
        <ele>1457</ele>
        <time>2014-06-01T11:55:18Z</time>
      </trkpt>
      <trkpt lat="45.96315" lon="6.32275">
        <ele>1456</ele>
        <time>2014-06-01T11:55:20Z</time>
      </trkpt>
      <trkpt lat="45.96312" lon="6.32282">
        <ele>1455</ele>
        <time>2014-06-01T11:55:23Z</time>
      </trkpt>
      <trkpt lat="45.96308" lon="6.32291">
        <ele>1453</ele>
        <time>2014-06-01T11:55:25Z</time>
      </trkpt>
      <trkpt lat="45.96307" lon="6.32298">
        <ele>1452</ele>
        <time>2014-06-01T11:55:27Z</time>
      </trkpt>
      <trkpt lat="45.96305" lon="6.32305">
        <ele>1450</ele>
        <time>2014-06-01T11:55:29Z</time>
      </trkpt>
      <trkpt lat="45.96303" lon="6.32312">
        <ele>1449</ele>
        <time>2014-06-01T11:55:31Z</time>
      </trkpt>
      <trkpt lat="45.963" lon="6.32322">
        <ele>1448</ele>
        <time>2014-06-01T11:55:34Z</time>
      </trkpt>
      <trkpt lat="45.96297" lon="6.32329">
        <ele>1448</ele>
        <time>2014-06-01T11:55:36Z</time>
      </trkpt>
      <trkpt lat="45.96292" lon="6.32336">
        <ele>1447</ele>
        <time>2014-06-01T11:55:38Z</time>
      </trkpt>
      <trkpt lat="45.96286" lon="6.32343">
        <ele>1446</ele>
        <time>2014-06-01T11:55:40Z</time>
      </trkpt>
      <trkpt lat="45.9628" lon="6.32354">
        <ele>1445</ele>
        <time>2014-06-01T11:55:43Z</time>
      </trkpt>
      <trkpt lat="45.96277" lon="6.32359">
        <ele>1444</ele>
        <time>2014-06-01T11:55:45Z</time>
      </trkpt>
      <trkpt lat="45.96272" lon="6.32363">
        <ele>1443</ele>
        <time>2014-06-01T11:55:47Z</time>
      </trkpt>
      <trkpt lat="45.96267" lon="6.32367">
        <ele>1443</ele>
        <time>2014-06-01T11:55:49Z</time>
      </trkpt>
      <trkpt lat="45.96262" lon="6.32373">
        <ele>1443</ele>
        <time>2014-06-01T11:55:52Z</time>
      </trkpt>
      <trkpt lat="45.96253" lon="6.3238">
        <ele>1442</ele>
        <time>2014-06-01T11:55:54Z</time>
      </trkpt>
      <trkpt lat="45.96247" lon="6.32386">
        <ele>1440</ele>
        <time>2014-06-01T11:55:56Z</time>
      </trkpt>
      <trkpt lat="45.96243" lon="6.32389">
        <ele>1439</ele>
        <time>2014-06-01T11:55:58Z</time>
      </trkpt>
      <trkpt lat="45.96238" lon="6.32394">
        <ele>1438</ele>
        <time>2014-06-01T11:56:00Z</time>
      </trkpt>
      <trkpt lat="45.96231" lon="6.32403">
        <ele>1437</ele>
        <time>2014-06-01T11:56:03Z</time>
      </trkpt>
      <trkpt lat="45.96226" lon="6.3241">
        <ele>1435</ele>
        <time>2014-06-01T11:56:05Z</time>
      </trkpt>
      <trkpt lat="45.96222" lon="6.32415">
        <ele>1433</ele>
        <time>2014-06-01T11:56:07Z</time>
      </trkpt>
      <trkpt lat="45.96217" lon="6.3242">
        <ele>1431</ele>
        <time>2014-06-01T11:56:09Z</time>
      </trkpt>
      <trkpt lat="45.96213" lon="6.32424">
        <ele>1429</ele>
        <time>2014-06-01T11:56:12Z</time>
      </trkpt>
      <trkpt lat="45.9621" lon="6.32427">
        <ele>1427</ele>
        <time>2014-06-01T11:56:14Z</time>
      </trkpt>
      <trkpt lat="45.9621" lon="6.32426">
        <ele>1426</ele>
        <time>2014-06-01T11:56:16Z</time>
      </trkpt>
      <trkpt lat="45.9621" lon="6.32427">
        <ele>1425</ele>
        <time>2014-06-01T11:56:18Z</time>
      </trkpt>
      <trkpt lat="45.96209" lon="6.32426">
        <ele>1425</ele>
        <time>2014-06-01T11:56:21Z</time>
      </trkpt>
      <trkpt lat="45.96209" lon="6.32427">
        <ele>1425</ele>
        <time>2014-06-01T11:56:23Z</time>
      </trkpt>
      <trkpt lat="45.96207" lon="6.32429">
        <ele>1425</ele>
        <time>2014-06-01T11:56:25Z</time>
      </trkpt>
      <trkpt lat="45.96206" lon="6.3243">
        <ele>1425</ele>
        <time>2014-06-01T11:56:27Z</time>
      </trkpt>
      <trkpt lat="45.96205" lon="6.3243">
        <ele>1425</ele>
        <time>2014-06-01T11:56:29Z</time>
      </trkpt>
      <trkpt lat="45.96205" lon="6.3243">
        <ele>1425</ele>
        <time>2014-06-01T11:56:32Z</time>
      </trkpt>
      <trkpt lat="45.96204" lon="6.32431">
        <ele>1425</ele>
        <time>2014-06-01T11:56:34Z</time>
      </trkpt>
      <trkpt lat="45.96203" lon="6.32432">
        <ele>1425</ele>
        <time>2014-06-01T11:56:36Z</time>
      </trkpt>
      <trkpt lat="45.96202" lon="6.32433">
        <ele>1425</ele>
        <time>2014-06-01T11:56:38Z</time>
      </trkpt>
      <trkpt lat="45.96201" lon="6.32434">
        <ele>1425</ele>
        <time>2014-06-01T11:56:41Z</time>
      </trkpt>
      <trkpt lat="45.96199" lon="6.32436">
        <ele>1425</ele>
        <time>2014-06-01T11:56:43Z</time>
      </trkpt>
      <trkpt lat="45.96198" lon="6.32437">
        <ele>1425</ele>
        <time>2014-06-01T11:56:45Z</time>
      </trkpt>
      <trkpt lat="45.96198" lon="6.32437">
        <ele>1425</ele>
        <time>2014-06-01T11:56:47Z</time>
      </trkpt>
      <trkpt lat="45.96197" lon="6.32438">
        <ele>1425</ele>
        <time>2014-06-01T11:56:49Z</time>
      </trkpt>
      <trkpt lat="45.96197" lon="6.32439">
        <ele>1425</ele>
        <time>2014-06-01T11:56:52Z</time>
      </trkpt>
      <trkpt lat="45.96197" lon="6.32439">
        <ele>1425</ele>
        <time>2014-06-01T11:56:54Z</time>
      </trkpt>
      <trkpt lat="45.96197" lon="6.32439">
        <ele>1425</ele>
        <time>2014-06-01T11:56:56Z</time>
      </trkpt>
      <trkpt lat="45.96197" lon="6.32439">
        <ele>1425</ele>
        <time>2014-06-01T11:56:58Z</time>
      </trkpt>
      <trkpt lat="45.96197" lon="6.32439">
        <ele>1425</ele>
        <time>2014-06-01T11:57:01Z</time>
      </trkpt>
      <trkpt lat="45.96196" lon="6.32439">
        <ele>1425</ele>
        <time>2014-06-01T11:57:03Z</time>
      </trkpt>
      <trkpt lat="45.96196" lon="6.32438">
        <ele>1425</ele>
        <time>2014-06-01T11:57:05Z</time>
      </trkpt>
      <trkpt lat="45.96196" lon="6.32438">
        <ele>1425</ele>
        <time>2014-06-01T11:57:07Z</time>
      </trkpt>
      <trkpt lat="45.96196" lon="6.32438">
        <ele>1424</ele>
        <time>2014-06-01T11:57:09Z</time>
      </trkpt>
      <trkpt lat="45.96196" lon="6.32438">
        <ele>1423</ele>
        <time>2014-06-01T11:57:12Z</time>
      </trkpt>
      <trkpt lat="45.96196" lon="6.32438">
        <ele>1423</ele>
        <time>2014-06-01T11:57:14Z</time>
      </trkpt>
      <trkpt lat="45.96196" lon="6.32438">
        <ele>1423</ele>
        <time>2014-06-01T11:57:16Z</time>
      </trkpt>
      <trkpt lat="45.96197" lon="6.32438">
        <ele>1423</ele>
        <time>2014-06-01T11:57:18Z</time>
      </trkpt>
      <trkpt lat="45.96196" lon="6.32437">
        <ele>1423</ele>
        <time>2014-06-01T11:57:21Z</time>
      </trkpt>
      <trkpt lat="45.96197" lon="6.32438">
        <ele>1423</ele>
        <time>2014-06-01T11:57:23Z</time>
      </trkpt>
      <trkpt lat="45.96197" lon="6.32439">
        <ele>1423</ele>
        <time>2014-06-01T11:57:25Z</time>
      </trkpt>
      <trkpt lat="45.96197" lon="6.32438">
        <ele>1423</ele>
        <time>2014-06-01T11:57:27Z</time>
      </trkpt>
      <trkpt lat="45.96197" lon="6.32438">
        <ele>1423</ele>
        <time>2014-06-01T11:57:29Z</time>
      </trkpt>
      <trkpt lat="45.96197" lon="6.32438">
        <ele>1423</ele>
        <time>2014-06-01T11:57:32Z</time>
      </trkpt>
      <trkpt lat="45.96197" lon="6.32438">
        <ele>1423</ele>
        <time>2014-06-01T11:57:34Z</time>
      </trkpt>
      <trkpt lat="45.96197" lon="6.32438">
        <ele>1423</ele>
        <time>2014-06-01T11:57:36Z</time>
      </trkpt>
      <trkpt lat="45.96197" lon="6.32438">
        <ele>1423</ele>
        <time>2014-06-01T11:57:38Z</time>
      </trkpt>
      <trkpt lat="45.96197" lon="6.32438">
        <ele>1423</ele>
        <time>2014-06-01T11:57:41Z</time>
      </trkpt>
      <trkpt lat="45.96197" lon="6.32438">
        <ele>1423</ele>
        <time>2014-06-01T11:57:43Z</time>
      </trkpt>
      <trkpt lat="45.96197" lon="6.32437">
        <ele>1423</ele>
        <time>2014-06-01T11:57:45Z</time>
      </trkpt>
      <trkpt lat="45.96197" lon="6.32437">
        <ele>1423</ele>
        <time>2014-06-01T11:57:47Z</time>
      </trkpt>
      <trkpt lat="45.96196" lon="6.32437">
        <ele>1423</ele>
        <time>2014-06-01T11:57:49Z</time>
      </trkpt>
      <trkpt lat="45.96196" lon="6.32437">
        <ele>1423</ele>
        <time>2014-06-01T11:57:52Z</time>
      </trkpt>
      <trkpt lat="45.96196" lon="6.32437">
        <ele>1423</ele>
        <time>2014-06-01T11:57:54Z</time>
      </trkpt>
      <trkpt lat="45.96196" lon="6.32437">
        <ele>1423</ele>
        <time>2014-06-01T11:57:56Z</time>
      </trkpt>
      <trkpt lat="45.96196" lon="6.32437">
        <ele>1423</ele>
        <time>2014-06-01T11:57:58Z</time>
      </trkpt>
      <trkpt lat="45.96195" lon="6.32438">
        <ele>1423</ele>
        <time>2014-06-01T11:58:01Z</time>
      </trkpt>
      <trkpt lat="45.96192" lon="6.32442">
        <ele>1423</ele>
        <time>2014-06-01T11:58:03Z</time>
      </trkpt>
      <trkpt lat="45.96185" lon="6.32446">
        <ele>1423</ele>
        <time>2014-06-01T11:58:05Z</time>
      </trkpt>
      <trkpt lat="45.96181" lon="6.32447">
        <ele>1422</ele>
        <time>2014-06-01T11:58:07Z</time>
      </trkpt>
      <trkpt lat="45.9618" lon="6.32447">
        <ele>1421</ele>
        <time>2014-06-01T11:58:09Z</time>
      </trkpt>
      <trkpt lat="45.96176" lon="6.32448">
        <ele>1421</ele>
        <time>2014-06-01T11:58:12Z</time>
      </trkpt>
      <trkpt lat="45.96174" lon="6.32449">
        <ele>1420</ele>
        <time>2014-06-01T11:58:14Z</time>
      </trkpt>
      <trkpt lat="45.9617" lon="6.32449">
        <ele>1420</ele>
        <time>2014-06-01T11:58:16Z</time>
      </trkpt>
      <trkpt lat="45.96167" lon="6.3245">
        <ele>1419</ele>
        <time>2014-06-01T11:58:18Z</time>
      </trkpt>
      <trkpt lat="45.96163" lon="6.32452">
        <ele>1418</ele>
        <time>2014-06-01T11:58:21Z</time>
      </trkpt>
      <trkpt lat="45.96159" lon="6.32452">
        <ele>1418</ele>
        <time>2014-06-01T11:58:23Z</time>
      </trkpt>
      <trkpt lat="45.96157" lon="6.32453">
        <ele>1417</ele>
        <time>2014-06-01T11:58:25Z</time>
      </trkpt>
      <trkpt lat="45.96153" lon="6.32455">
        <ele>1417</ele>
        <time>2014-06-01T11:58:27Z</time>
      </trkpt>
      <trkpt lat="45.96149" lon="6.32457">
        <ele>1416</ele>
        <time>2014-06-01T11:58:29Z</time>
      </trkpt>
      <trkpt lat="45.96145" lon="6.32457">
        <ele>1415</ele>
        <time>2014-06-01T11:58:32Z</time>
      </trkpt>
      <trkpt lat="45.9614" lon="6.32458">
        <ele>1413</ele>
        <time>2014-06-01T11:58:34Z</time>
      </trkpt>
      <trkpt lat="45.96133" lon="6.32459">
        <ele>1413</ele>
        <time>2014-06-01T11:58:36Z</time>
      </trkpt>
      <trkpt lat="45.96125" lon="6.32459">
        <ele>1412</ele>
        <time>2014-06-01T11:58:38Z</time>
      </trkpt>
      <trkpt lat="45.96112" lon="6.3246">
        <ele>1410</ele>
        <time>2014-06-01T11:58:41Z</time>
      </trkpt>
      <trkpt lat="45.96104" lon="6.32461">
        <ele>1409</ele>
        <time>2014-06-01T11:58:43Z</time>
      </trkpt>
      <trkpt lat="45.96096" lon="6.32462">
        <ele>1408</ele>
        <time>2014-06-01T11:58:45Z</time>
      </trkpt>
      <trkpt lat="45.96089" lon="6.32463">
        <ele>1407</ele>
        <time>2014-06-01T11:58:47Z</time>
      </trkpt>
      <trkpt lat="45.96085" lon="6.32464">
        <ele>1406</ele>
        <time>2014-06-01T11:58:50Z</time>
      </trkpt>
      <trkpt lat="45.96085" lon="6.32461">
        <ele>1406</ele>
        <time>2014-06-01T11:58:52Z</time>
      </trkpt>
      <trkpt lat="45.96088" lon="6.32462">
        <ele>1406</ele>
        <time>2014-06-01T11:58:54Z</time>
      </trkpt>
      <trkpt lat="45.96086" lon="6.32462">
        <ele>1406</ele>
        <time>2014-06-01T11:58:56Z</time>
      </trkpt>
      <trkpt lat="45.96083" lon="6.32463">
        <ele>1406</ele>
        <time>2014-06-01T11:58:58Z</time>
      </trkpt>
      <trkpt lat="45.96073" lon="6.32466">
        <ele>1406</ele>
        <time>2014-06-01T11:59:01Z</time>
      </trkpt>
      <trkpt lat="45.96065" lon="6.32469">
        <ele>1406</ele>
        <time>2014-06-01T11:59:03Z</time>
      </trkpt>
      <trkpt lat="45.96058" lon="6.32471">
        <ele>1406</ele>
        <time>2014-06-01T11:59:05Z</time>
      </trkpt>
      <trkpt lat="45.96051" lon="6.32472">
        <ele>1405</ele>
        <time>2014-06-01T11:59:07Z</time>
      </trkpt>
      <trkpt lat="45.96045" lon="6.32471">
        <ele>1403</ele>
        <time>2014-06-01T11:59:10Z</time>
      </trkpt>
      <trkpt lat="45.96036" lon="6.32471">
        <ele>1403</ele>
        <time>2014-06-01T11:59:12Z</time>
      </trkpt>
      <trkpt lat="45.9603" lon="6.32471">
        <ele>1403</ele>
        <time>2014-06-01T11:59:14Z</time>
      </trkpt>
      <trkpt lat="45.96025" lon="6.32471">
        <ele>1402</ele>
        <time>2014-06-01T11:59:16Z</time>
      </trkpt>
      <trkpt lat="45.96019" lon="6.32471">
        <ele>1401</ele>
        <time>2014-06-01T11:59:18Z</time>
      </trkpt>
      <trkpt lat="45.96014" lon="6.32472">
        <ele>1401</ele>
        <time>2014-06-01T11:59:21Z</time>
      </trkpt>
      <trkpt lat="45.96009" lon="6.32473">
        <ele>1400</ele>
        <time>2014-06-01T11:59:23Z</time>
      </trkpt>
      <trkpt lat="45.96006" lon="6.32473">
        <ele>1400</ele>
        <time>2014-06-01T11:59:25Z</time>
      </trkpt>
      <trkpt lat="45.96004" lon="6.32473">
        <ele>1400</ele>
        <time>2014-06-01T11:59:27Z</time>
      </trkpt>
      <trkpt lat="45.96001" lon="6.32476">
        <ele>1400</ele>
        <time>2014-06-01T11:59:30Z</time>
      </trkpt>
      <trkpt lat="45.95997" lon="6.32479">
        <ele>1400</ele>
        <time>2014-06-01T11:59:32Z</time>
      </trkpt>
      <trkpt lat="45.95993" lon="6.3248">
        <ele>1400</ele>
        <time>2014-06-01T11:59:34Z</time>
      </trkpt>
      <trkpt lat="45.95989" lon="6.32481">
        <ele>1400</ele>
        <time>2014-06-01T11:59:36Z</time>
      </trkpt>
      <trkpt lat="45.95986" lon="6.32481">
        <ele>1400</ele>
        <time>2014-06-01T11:59:39Z</time>
      </trkpt>
      <trkpt lat="45.95982" lon="6.32482">
        <ele>1400</ele>
        <time>2014-06-01T11:59:41Z</time>
      </trkpt>
      <trkpt lat="45.9598" lon="6.32483">
        <ele>1400</ele>
        <time>2014-06-01T11:59:43Z</time>
      </trkpt>
      <trkpt lat="45.95978" lon="6.32484">
        <ele>1400</ele>
        <time>2014-06-01T11:59:45Z</time>
      </trkpt>
      <trkpt lat="45.95976" lon="6.32485">
        <ele>1400</ele>
        <time>2014-06-01T11:59:47Z</time>
      </trkpt>
      <trkpt lat="45.95973" lon="6.32485">
        <ele>1400</ele>
        <time>2014-06-01T11:59:50Z</time>
      </trkpt>
      <trkpt lat="45.95971" lon="6.32485">
        <ele>1400</ele>
        <time>2014-06-01T11:59:52Z</time>
      </trkpt>
      <trkpt lat="45.95969" lon="6.32483">
        <ele>1400</ele>
        <time>2014-06-01T11:59:54Z</time>
      </trkpt>
      <trkpt lat="45.95967" lon="6.32481">
        <ele>1400</ele>
        <time>2014-06-01T11:59:56Z</time>
      </trkpt>
      <trkpt lat="45.95965" lon="6.32479">
        <ele>1400</ele>
        <time>2014-06-01T11:59:59Z</time>
      </trkpt>
      <trkpt lat="45.95963" lon="6.32478">
        <ele>1400</ele>
        <time>2014-06-01T12:00:01Z</time>
      </trkpt>
      <trkpt lat="45.9596" lon="6.32477">
        <ele>1400</ele>
        <time>2014-06-01T12:00:03Z</time>
      </trkpt>
      <trkpt lat="45.95958" lon="6.32476">
        <ele>1400</ele>
        <time>2014-06-01T12:00:05Z</time>
      </trkpt>
      <trkpt lat="45.95956" lon="6.32474">
        <ele>1400</ele>
        <time>2014-06-01T12:00:07Z</time>
      </trkpt>
      <trkpt lat="45.95953" lon="6.32471">
        <ele>1400</ele>
        <time>2014-06-01T12:00:10Z</time>
      </trkpt>
      <trkpt lat="45.95951" lon="6.3247">
        <ele>1400</ele>
        <time>2014-06-01T12:00:12Z</time>
      </trkpt>
      <trkpt lat="45.9595" lon="6.32468">
        <ele>1400</ele>
        <time>2014-06-01T12:00:14Z</time>
      </trkpt>
      <trkpt lat="45.95948" lon="6.32465">
        <ele>1400</ele>
        <time>2014-06-01T12:00:16Z</time>
      </trkpt>
      <trkpt lat="45.95944" lon="6.32462">
        <ele>1400</ele>
        <time>2014-06-01T12:00:19Z</time>
      </trkpt>
      <trkpt lat="45.95942" lon="6.3246">
        <ele>1400</ele>
        <time>2014-06-01T12:00:21Z</time>
      </trkpt>
      <trkpt lat="45.95939" lon="6.32457">
        <ele>1400</ele>
        <time>2014-06-01T12:00:23Z</time>
      </trkpt>
      <trkpt lat="45.95937" lon="6.32454">
        <ele>1400</ele>
        <time>2014-06-01T12:00:25Z</time>
      </trkpt>
      <trkpt lat="45.95936" lon="6.32452">
        <ele>1400</ele>
        <time>2014-06-01T12:00:28Z</time>
      </trkpt>
      <trkpt lat="45.95932" lon="6.32449">
        <ele>1400</ele>
        <time>2014-06-01T12:00:30Z</time>
      </trkpt>
      <trkpt lat="45.95929" lon="6.32446">
        <ele>1400</ele>
        <time>2014-06-01T12:00:32Z</time>
      </trkpt>
      <trkpt lat="45.95926" lon="6.32443">
        <ele>1400</ele>
        <time>2014-06-01T12:00:34Z</time>
      </trkpt>
      <trkpt lat="45.95924" lon="6.3244">
        <ele>1400</ele>
        <time>2014-06-01T12:00:36Z</time>
      </trkpt>
      <trkpt lat="45.95921" lon="6.32436">
        <ele>1400</ele>
        <time>2014-06-01T12:00:39Z</time>
      </trkpt>
      <trkpt lat="45.95918" lon="6.32433">
        <ele>1400</ele>
        <time>2014-06-01T12:00:41Z</time>
      </trkpt>
      <trkpt lat="45.95916" lon="6.32431">
        <ele>1400</ele>
        <time>2014-06-01T12:00:43Z</time>
      </trkpt>
      <trkpt lat="45.95913" lon="6.32426">
        <ele>1400</ele>
        <time>2014-06-01T12:00:45Z</time>
      </trkpt>
      <trkpt lat="45.95907" lon="6.32417">
        <ele>1400</ele>
        <time>2014-06-01T12:00:48Z</time>
      </trkpt>
      <trkpt lat="45.95902" lon="6.32411">
        <ele>1400</ele>
        <time>2014-06-01T12:00:50Z</time>
      </trkpt>
      <trkpt lat="45.95897" lon="6.32403">
        <ele>1400</ele>
        <time>2014-06-01T12:00:52Z</time>
      </trkpt>
      <trkpt lat="45.95892" lon="6.32396">
        <ele>1400</ele>
        <time>2014-06-01T12:00:54Z</time>
      </trkpt>
      <trkpt lat="45.95884" lon="6.32386">
        <ele>1400</ele>
        <time>2014-06-01T12:00:57Z</time>
      </trkpt>
      <trkpt lat="45.95878" lon="6.32382">
        <ele>1400</ele>
        <time>2014-06-01T12:00:59Z</time>
      </trkpt>
      <trkpt lat="45.95872" lon="6.32376">
        <ele>1400</ele>
        <time>2014-06-01T12:01:01Z</time>
      </trkpt>
      <trkpt lat="45.95864" lon="6.3237">
        <ele>1400</ele>
        <time>2014-06-01T12:01:03Z</time>
      </trkpt>
      <trkpt lat="45.95857" lon="6.32365">
        <ele>1400</ele>
        <time>2014-06-01T12:01:06Z</time>
      </trkpt>
      <trkpt lat="45.95848" lon="6.32356">
        <ele>1400</ele>
        <time>2014-06-01T12:01:08Z</time>
      </trkpt>
      <trkpt lat="45.95842" lon="6.32351">
        <ele>1400</ele>
        <time>2014-06-01T12:01:10Z</time>
      </trkpt>
      <trkpt lat="45.95836" lon="6.32346">
        <ele>1400</ele>
        <time>2014-06-01T12:01:12Z</time>
      </trkpt>
      <trkpt lat="45.95829" lon="6.3234">
        <ele>1400</ele>
        <time>2014-06-01T12:01:14Z</time>
      </trkpt>
      <trkpt lat="45.9582" lon="6.32331">
        <ele>1400</ele>
        <time>2014-06-01T12:01:17Z</time>
      </trkpt>
      <trkpt lat="45.95813" lon="6.32325">
        <ele>1400</ele>
        <time>2014-06-01T12:01:19Z</time>
      </trkpt>
      <trkpt lat="45.95806" lon="6.3232">
        <ele>1400</ele>
        <time>2014-06-01T12:01:21Z</time>
      </trkpt>
      <trkpt lat="45.95799" lon="6.32316">
        <ele>1400</ele>
        <time>2014-06-01T12:01:23Z</time>
      </trkpt>
      <trkpt lat="45.95792" lon="6.32311">
        <ele>1400</ele>
        <time>2014-06-01T12:01:26Z</time>
      </trkpt>
      <trkpt lat="45.95788" lon="6.3231">
        <ele>1400</ele>
        <time>2014-06-01T12:01:28Z</time>
      </trkpt>
      <trkpt lat="45.95786" lon="6.32309">
        <ele>1400</ele>
        <time>2014-06-01T12:01:30Z</time>
      </trkpt>
      <trkpt lat="45.95783" lon="6.32307">
        <ele>1400</ele>
        <time>2014-06-01T12:01:32Z</time>
      </trkpt>
      <trkpt lat="45.95779" lon="6.32306">
        <ele>1400</ele>
        <time>2014-06-01T12:01:34Z</time>
      </trkpt>
      <trkpt lat="45.9577" lon="6.32298">
        <ele>1400</ele>
        <time>2014-06-01T12:01:37Z</time>
      </trkpt>
      <trkpt lat="45.95765" lon="6.32293">
        <ele>1400</ele>
        <time>2014-06-01T12:01:39Z</time>
      </trkpt>
      <trkpt lat="45.9576" lon="6.32287">
        <ele>1400</ele>
        <time>2014-06-01T12:01:41Z</time>
      </trkpt>
      <trkpt lat="45.95755" lon="6.3228">
        <ele>1400</ele>
        <time>2014-06-01T12:01:43Z</time>
      </trkpt>
      <trkpt lat="45.95748" lon="6.32273">
        <ele>1399</ele>
        <time>2014-06-01T12:01:46Z</time>
      </trkpt>
      <trkpt lat="45.95743" lon="6.32267">
        <ele>1398</ele>
        <time>2014-06-01T12:01:48Z</time>
      </trkpt>
      <trkpt lat="45.95738" lon="6.32262">
        <ele>1398</ele>
        <time>2014-06-01T12:01:50Z</time>
      </trkpt>
      <trkpt lat="45.95733" lon="6.32256">
        <ele>1398</ele>
        <time>2014-06-01T12:01:52Z</time>
      </trkpt>
      <trkpt lat="45.95728" lon="6.3225">
        <ele>1398</ele>
        <time>2014-06-01T12:01:55Z</time>
      </trkpt>
      <trkpt lat="45.95719" lon="6.32242">
        <ele>1398</ele>
        <time>2014-06-01T12:01:57Z</time>
      </trkpt>
      <trkpt lat="45.95713" lon="6.32236">
        <ele>1398</ele>
        <time>2014-06-01T12:01:59Z</time>
      </trkpt>
      <trkpt lat="45.95708" lon="6.3223">
        <ele>1398</ele>
        <time>2014-06-01T12:02:01Z</time>
      </trkpt>
      <trkpt lat="45.95703" lon="6.32225">
        <ele>1398</ele>
        <time>2014-06-01T12:02:03Z</time>
      </trkpt>
      <trkpt lat="45.95695" lon="6.32217">
        <ele>1398</ele>
        <time>2014-06-01T12:02:06Z</time>
      </trkpt>
      <trkpt lat="45.95691" lon="6.32211">
        <ele>1398</ele>
        <time>2014-06-01T12:02:08Z</time>
      </trkpt>
      <trkpt lat="45.95686" lon="6.32205">
        <ele>1398</ele>
        <time>2014-06-01T12:02:10Z</time>
      </trkpt>
      <trkpt lat="45.95681" lon="6.32199">
        <ele>1398</ele>
        <time>2014-06-01T12:02:12Z</time>
      </trkpt>
      <trkpt lat="45.95676" lon="6.32192">
        <ele>1397</ele>
        <time>2014-06-01T12:02:15Z</time>
      </trkpt>
      <trkpt lat="45.95669" lon="6.32186">
        <ele>1397</ele>
        <time>2014-06-01T12:02:17Z</time>
      </trkpt>
      <trkpt lat="45.95665" lon="6.32183">
        <ele>1397</ele>
        <time>2014-06-01T12:02:19Z</time>
      </trkpt>
      <trkpt lat="45.95661" lon="6.3218">
        <ele>1397</ele>
        <time>2014-06-01T12:02:21Z</time>
      </trkpt>
      <trkpt lat="45.95658" lon="6.32176">
        <ele>1397</ele>
        <time>2014-06-01T12:02:23Z</time>
      </trkpt>
      <trkpt lat="45.95653" lon="6.32169">
        <ele>1397</ele>
        <time>2014-06-01T12:02:26Z</time>
      </trkpt>
      <trkpt lat="45.95648" lon="6.32164">
        <ele>1397</ele>
        <time>2014-06-01T12:02:28Z</time>
      </trkpt>
      <trkpt lat="45.95643" lon="6.32162">
        <ele>1397</ele>
        <time>2014-06-01T12:02:30Z</time>
      </trkpt>
      <trkpt lat="45.95637" lon="6.32161">
        <ele>1397</ele>
        <time>2014-06-01T12:02:32Z</time>
      </trkpt>
      <trkpt lat="45.95629" lon="6.32164">
        <ele>1396</ele>
        <time>2014-06-01T12:02:35Z</time>
      </trkpt>
      <trkpt lat="45.95624" lon="6.32168">
        <ele>1396</ele>
        <time>2014-06-01T12:02:37Z</time>
      </trkpt>
      <trkpt lat="45.95619" lon="6.32173">
        <ele>1396</ele>
        <time>2014-06-01T12:02:39Z</time>
      </trkpt>
      <trkpt lat="45.95614" lon="6.32178">
        <ele>1396</ele>
        <time>2014-06-01T12:02:41Z</time>
      </trkpt>
      <trkpt lat="45.95609" lon="6.32184">
        <ele>1396</ele>
        <time>2014-06-01T12:02:44Z</time>
      </trkpt>
      <trkpt lat="45.95601" lon="6.32195">
        <ele>1395</ele>
        <time>2014-06-01T12:02:46Z</time>
      </trkpt>
      <trkpt lat="45.95593" lon="6.32204">
        <ele>1394</ele>
        <time>2014-06-01T12:02:48Z</time>
      </trkpt>
      <trkpt lat="45.95586" lon="6.32213">
        <ele>1393</ele>
        <time>2014-06-01T12:02:50Z</time>
      </trkpt>
      <trkpt lat="45.95576" lon="6.3222">
        <ele>1392</ele>
        <time>2014-06-01T12:02:52Z</time>
      </trkpt>
      <trkpt lat="45.95561" lon="6.32226">
        <ele>1391</ele>
        <time>2014-06-01T12:02:55Z</time>
      </trkpt>
      <trkpt lat="45.95553" lon="6.32226">
        <ele>1389</ele>
        <time>2014-06-01T12:02:57Z</time>
      </trkpt>
      <trkpt lat="45.95544" lon="6.32227">
        <ele>1388</ele>
        <time>2014-06-01T12:02:59Z</time>
      </trkpt>
      <trkpt lat="45.95537" lon="6.3223">
        <ele>1387</ele>
        <time>2014-06-01T12:03:01Z</time>
      </trkpt>
      <trkpt lat="45.95525" lon="6.32237">
        <ele>1386</ele>
        <time>2014-06-01T12:03:04Z</time>
      </trkpt>
      <trkpt lat="45.95518" lon="6.32243">
        <ele>1386</ele>
        <time>2014-06-01T12:03:06Z</time>
      </trkpt>
      <trkpt lat="45.95511" lon="6.32247">
        <ele>1386</ele>
        <time>2014-06-01T12:03:08Z</time>
      </trkpt>
      <trkpt lat="45.95505" lon="6.32248">
        <ele>1386</ele>
        <time>2014-06-01T12:03:10Z</time>
      </trkpt>
      <trkpt lat="45.95501" lon="6.32251">
        <ele>1386</ele>
        <time>2014-06-01T12:03:13Z</time>
      </trkpt>
      <trkpt lat="45.95496" lon="6.32254">
        <ele>1385</ele>
        <time>2014-06-01T12:03:15Z</time>
      </trkpt>
      <trkpt lat="45.95493" lon="6.32254">
        <ele>1385</ele>
        <time>2014-06-01T12:03:17Z</time>
      </trkpt>
      <trkpt lat="45.95491" lon="6.32253">
        <ele>1385</ele>
        <time>2014-06-01T12:03:19Z</time>
      </trkpt>
      <trkpt lat="45.95488" lon="6.32251">
        <ele>1385</ele>
        <time>2014-06-01T12:03:21Z</time>
      </trkpt>
      <trkpt lat="45.95485" lon="6.32252">
        <ele>1385</ele>
        <time>2014-06-01T12:03:24Z</time>
      </trkpt>
      <trkpt lat="45.95483" lon="6.32254">
        <ele>1385</ele>
        <time>2014-06-01T12:03:26Z</time>
      </trkpt>
      <trkpt lat="45.9548" lon="6.32254">
        <ele>1385</ele>
        <time>2014-06-01T12:03:28Z</time>
      </trkpt>
      <trkpt lat="45.95478" lon="6.32256">
        <ele>1385</ele>
        <time>2014-06-01T12:03:30Z</time>
      </trkpt>
      <trkpt lat="45.95475" lon="6.32259">
        <ele>1385</ele>
        <time>2014-06-01T12:03:33Z</time>
      </trkpt>
      <trkpt lat="45.95474" lon="6.32262">
        <ele>1385</ele>
        <time>2014-06-01T12:03:35Z</time>
      </trkpt>
      <trkpt lat="45.95474" lon="6.32264">
        <ele>1385</ele>
        <time>2014-06-01T12:03:37Z</time>
      </trkpt>
      <trkpt lat="45.95473" lon="6.32266">
        <ele>1385</ele>
        <time>2014-06-01T12:03:39Z</time>
      </trkpt>
      <trkpt lat="45.95472" lon="6.3227">
        <ele>1385</ele>
        <time>2014-06-01T12:03:42Z</time>
      </trkpt>
      <trkpt lat="45.95473" lon="6.32273">
        <ele>1385</ele>
        <time>2014-06-01T12:03:44Z</time>
      </trkpt>
      <trkpt lat="45.95472" lon="6.32275">
        <ele>1385</ele>
        <time>2014-06-01T12:03:46Z</time>
      </trkpt>
      <trkpt lat="45.9547" lon="6.32275">
        <ele>1385</ele>
        <time>2014-06-01T12:03:48Z</time>
      </trkpt>
      <trkpt lat="45.95469" lon="6.32277">
        <ele>1385</ele>
        <time>2014-06-01T12:03:50Z</time>
      </trkpt>
      <trkpt lat="45.95467" lon="6.32278">
        <ele>1385</ele>
        <time>2014-06-01T12:03:53Z</time>
      </trkpt>
      <trkpt lat="45.95465" lon="6.32279">
        <ele>1385</ele>
        <time>2014-06-01T12:03:55Z</time>
      </trkpt>
      <trkpt lat="45.95464" lon="6.32281">
        <ele>1385</ele>
        <time>2014-06-01T12:03:57Z</time>
      </trkpt>
      <trkpt lat="45.95462" lon="6.32281">
        <ele>1385</ele>
        <time>2014-06-01T12:03:59Z</time>
      </trkpt>
      <trkpt lat="45.95461" lon="6.32277">
        <ele>1385</ele>
        <time>2014-06-01T12:04:02Z</time>
      </trkpt>
      <trkpt lat="45.9546" lon="6.32275">
        <ele>1385</ele>
        <time>2014-06-01T12:04:04Z</time>
      </trkpt>
      <trkpt lat="45.9546" lon="6.32274">
        <ele>1385</ele>
        <time>2014-06-01T12:04:06Z</time>
      </trkpt>
      <trkpt lat="45.9546" lon="6.32273">
        <ele>1385</ele>
        <time>2014-06-01T12:04:08Z</time>
      </trkpt>
      <trkpt lat="45.9546" lon="6.32273">
        <ele>1386</ele>
        <time>2014-06-01T12:04:11Z</time>
      </trkpt>
      <trkpt lat="45.9546" lon="6.32272">
        <ele>1386</ele>
        <time>2014-06-01T12:04:13Z</time>
      </trkpt>
      <trkpt lat="45.95459" lon="6.32271">
        <ele>1386</ele>
        <time>2014-06-01T12:04:15Z</time>
      </trkpt>
      <trkpt lat="45.95458" lon="6.3227">
        <ele>1386</ele>
        <time>2014-06-01T12:04:17Z</time>
      </trkpt>
      <trkpt lat="45.95457" lon="6.3227">
        <ele>1386</ele>
        <time>2014-06-01T12:04:19Z</time>
      </trkpt>
      <trkpt lat="45.95455" lon="6.32268">
        <ele>1386</ele>
        <time>2014-06-01T12:04:22Z</time>
      </trkpt>
      <trkpt lat="45.95455" lon="6.32267">
        <ele>1387</ele>
        <time>2014-06-01T12:04:24Z</time>
      </trkpt>
      <trkpt lat="45.95454" lon="6.32267">
        <ele>1387</ele>
        <time>2014-06-01T12:04:26Z</time>
      </trkpt>
      <trkpt lat="45.95454" lon="6.32267">
        <ele>1387</ele>
        <time>2014-06-01T12:04:28Z</time>
      </trkpt>
      <trkpt lat="45.95455" lon="6.32267">
        <ele>1387</ele>
        <time>2014-06-01T12:04:31Z</time>
      </trkpt>
      <trkpt lat="45.95457" lon="6.32267">
        <ele>1388</ele>
        <time>2014-06-01T12:04:33Z</time>
      </trkpt>
      <trkpt lat="45.95458" lon="6.32268">
        <ele>1388</ele>
        <time>2014-06-01T12:04:35Z</time>
      </trkpt>
      <trkpt lat="45.95458" lon="6.32267">
        <ele>1388</ele>
        <time>2014-06-01T12:04:37Z</time>
      </trkpt>
      <trkpt lat="45.95459" lon="6.32266">
        <ele>1389</ele>
        <time>2014-06-01T12:04:39Z</time>
      </trkpt>
      <trkpt lat="45.95461" lon="6.32265">
        <ele>1389</ele>
        <time>2014-06-01T12:04:42Z</time>
      </trkpt>
      <trkpt lat="45.95461" lon="6.32265">
        <ele>1389</ele>
        <time>2014-06-01T12:04:44Z</time>
      </trkpt>
      <trkpt lat="45.95461" lon="6.32265">
        <ele>1390</ele>
        <time>2014-06-01T12:04:46Z</time>
      </trkpt>
      <trkpt lat="45.95462" lon="6.32265">
        <ele>1390</ele>
        <time>2014-06-01T12:04:48Z</time>
      </trkpt>
      <trkpt lat="45.95462" lon="6.32266">
        <ele>1390</ele>
        <time>2014-06-01T12:04:51Z</time>
      </trkpt>
      <trkpt lat="45.95462" lon="6.32266">
        <ele>1390</ele>
        <time>2014-06-01T12:04:53Z</time>
      </trkpt>
      <trkpt lat="45.95462" lon="6.32264">
        <ele>1391</ele>
        <time>2014-06-01T12:04:55Z</time>
      </trkpt>
      <trkpt lat="45.95463" lon="6.32263">
        <ele>1391</ele>
        <time>2014-06-01T12:04:57Z</time>
      </trkpt>
      <trkpt lat="45.95464" lon="6.32263">
        <ele>1392</ele>
        <time>2014-06-01T12:04:59Z</time>
      </trkpt>
      <trkpt lat="45.95464" lon="6.32264">
        <ele>1392</ele>
        <time>2014-06-01T12:05:02Z</time>
      </trkpt>
      <trkpt lat="45.95464" lon="6.32266">
        <ele>1392</ele>
        <time>2014-06-01T12:05:04Z</time>
      </trkpt>
      <trkpt lat="45.95465" lon="6.32268">
        <ele>1392</ele>
        <time>2014-06-01T12:05:06Z</time>
      </trkpt>
      <trkpt lat="45.95465" lon="6.32268">
        <ele>1392</ele>
        <time>2014-06-01T12:05:08Z</time>
      </trkpt>
    </trkseg>
  </trk>
</gpx>